<?xml version='1.0' encoding='UTF-8'?><gpx version="1.1" creator="JPX - https://github.com/jenetics/jpx" xmlns="http://www.topografix.com/GPX/1/1"><trk><trkseg><trkpt lat="45.7929072" lon="13.4176631"><ele>6.0</ele><time>2026-04-23T07:50:29.621Z</time></trkpt><trkpt lat="45.7929412" lon="13.4177713"><ele>6.0</ele><time>2026-04-23T07:50:32.61Z</time></trkpt><trkpt lat="45.7929728" lon="13.4178991"><ele>6.0</ele><time>2026-04-23T07:50:35.625Z</time></trkpt><trkpt lat="45.792995" lon="13.4179953"><ele>6.0</ele><time>2026-04-23T07:50:37.624Z</time></trkpt><trkpt lat="45.7930184" lon="13.418101"><ele>6.0</ele><time>2026-04-23T07:50:39.618Z</time></trkpt><trkpt lat="45.7930423" lon="13.4182085"><ele>6.0</ele><time>2026-04-23T07:50:41.618Z</time></trkpt><trkpt lat="45.7930694" lon="13.4183169"><ele>5.5</ele><time>2026-04-23T07:50:43.617Z</time></trkpt><trkpt lat="45.7930998" lon="13.4184318"><ele>5.0</ele><time>2026-04-23T07:50:45.607Z</time></trkpt><trkpt lat="45.7931285" lon="13.4185472"><ele>4.5</ele><time>2026-04-23T07:50:47.62Z</time></trkpt><trkpt lat="45.79316" lon="13.41866"><ele>4.0</ele><time>2026-04-23T07:50:49.614Z</time></trkpt><trkpt lat="45.7931881" lon="13.4187691"><ele>3.5</ele><time>2026-04-23T07:50:51.6Z</time></trkpt><trkpt lat="45.7932161" lon="13.4188831"><ele>3.0</ele><time>2026-04-23T07:50:53.607Z</time></trkpt><trkpt lat="45.7932454" lon="13.4189984"><ele>3.0</ele><time>2026-04-23T07:50:55.603Z</time></trkpt><trkpt lat="45.7932756" lon="13.4191157"><ele>3.0</ele><time>2026-04-23T07:50:57.611Z</time></trkpt><trkpt lat="45.793304" lon="13.4192265"><ele>3.0</ele><time>2026-04-23T07:50:59.617Z</time></trkpt><trkpt lat="45.7933357" lon="13.4193446"><ele>3.0</ele><time>2026-04-23T07:51:01.601Z</time></trkpt><trkpt lat="45.7933643" lon="13.4194511"><ele>3.0</ele><time>2026-04-23T07:51:03.616Z</time></trkpt><trkpt lat="45.7934252" lon="13.4195095"><ele>3.0</ele><time>2026-04-23T07:51:05.611Z</time></trkpt><trkpt lat="45.7935054" lon="13.4194929"><ele>3.1666666666666665</ele><time>2026-04-23T07:51:07.604Z</time></trkpt><trkpt lat="45.7935889" lon="13.4194466"><ele>3.333333333333333</ele><time>2026-04-23T07:51:09.617Z</time></trkpt><trkpt lat="45.7936709" lon="13.4193994"><ele>3.5</ele><time>2026-04-23T07:51:11.612Z</time></trkpt><trkpt lat="45.7937467" lon="13.4193568"><ele>3.6666666666666665</ele><time>2026-04-23T07:51:13.616Z</time></trkpt><trkpt lat="45.7938102" lon="13.4193319"><ele>3.833333333333333</ele><time>2026-04-23T07:51:15.635Z</time></trkpt><trkpt lat="45.7938662" lon="13.4194105"><ele>4.0</ele><time>2026-04-23T07:51:18.597Z</time></trkpt><trkpt lat="45.7938927" lon="13.4195186"><ele>3.9999999999999996</ele><time>2026-04-23T07:51:21.603Z</time></trkpt><trkpt lat="45.7939549" lon="13.4195751"><ele>4.0</ele><time>2026-04-23T07:51:27.605Z</time></trkpt><trkpt lat="45.7940368" lon="13.4195351"><ele>4.0</ele><time>2026-04-23T07:51:31.593Z</time></trkpt><trkpt lat="45.7941044" lon="13.4194811"><ele>4.0</ele><time>2026-04-23T07:51:34.601Z</time></trkpt><trkpt lat="45.7941777" lon="13.4194182"><ele>3.9999999999999996</ele><time>2026-04-23T07:51:37.611Z</time></trkpt><trkpt lat="45.7942447" lon="13.4194151"><ele>4.0</ele><time>2026-04-23T07:51:39.595Z</time></trkpt><trkpt lat="45.7943314" lon="13.419383"><ele>3.833333333333333</ele><time>2026-04-23T07:51:41.597Z</time></trkpt><trkpt lat="45.7944094" lon="13.4193315"><ele>3.6666666666666665</ele><time>2026-04-23T07:51:43.631Z</time></trkpt><trkpt lat="45.7944784" lon="13.4192905"><ele>3.5</ele><time>2026-04-23T07:51:45.6Z</time></trkpt><trkpt lat="45.7945467" lon="13.4192462"><ele>3.333333333333333</ele><time>2026-04-23T07:51:47.615Z</time></trkpt><trkpt lat="45.7946143" lon="13.4192005"><ele>3.1666666666666665</ele><time>2026-04-23T07:51:49.61Z</time></trkpt><trkpt lat="45.7946829" lon="13.4191538"><ele>3.0</ele><time>2026-04-23T07:51:51.615Z</time></trkpt><trkpt lat="45.7947523" lon="13.4191095"><ele>3.0</ele><time>2026-04-23T07:51:53.611Z</time></trkpt><trkpt lat="45.7948237" lon="13.419065"><ele>3.0</ele><time>2026-04-23T07:51:55.615Z</time></trkpt><trkpt lat="45.7948938" lon="13.4190224"><ele>3.0</ele><time>2026-04-23T07:51:57.612Z</time></trkpt><trkpt lat="45.7949627" lon="13.4189782"><ele>3.0</ele><time>2026-04-23T07:51:59.606Z</time></trkpt><trkpt lat="45.7950358" lon="13.4189358"><ele>3.0</ele><time>2026-04-23T07:52:01.6Z</time></trkpt><trkpt lat="45.7951066" lon="13.4188935"><ele>3.0</ele><time>2026-04-23T07:52:03.625Z</time></trkpt><trkpt lat="45.7951766" lon="13.4188537"><ele>2.9999999999999996</ele><time>2026-04-23T07:52:05.608Z</time></trkpt><trkpt lat="45.7952423" lon="13.4188126"><ele>3.0</ele><time>2026-04-23T07:52:07.604Z</time></trkpt><trkpt lat="45.7953013" lon="13.4187709"><ele>3.0</ele><time>2026-04-23T07:52:09.599Z</time></trkpt><trkpt lat="45.7953669" lon="13.4188261"><ele>3.0</ele><time>2026-04-23T07:52:12.595Z</time></trkpt><trkpt lat="45.795387" lon="13.4189119"><ele>3.0</ele><time>2026-04-23T07:52:14.606Z</time></trkpt><trkpt lat="45.795437" lon="13.4189973"><ele>2.9999999999999996</ele><time>2026-04-23T07:52:17.61Z</time></trkpt><trkpt lat="45.7954966" lon="13.4189591"><ele>3.0</ele><time>2026-04-23T07:52:19.602Z</time></trkpt><trkpt lat="45.795561" lon="13.418909"><ele>2.9999999999999996</ele><time>2026-04-23T07:52:21.611Z</time></trkpt><trkpt lat="45.7956324" lon="13.4188696"><ele>3.0</ele><time>2026-04-23T07:52:23.615Z</time></trkpt><trkpt lat="45.7957031" lon="13.4188299"><ele>3.0</ele><time>2026-04-23T07:52:25.596Z</time></trkpt><trkpt lat="45.7957718" lon="13.4187922"><ele>3.0</ele><time>2026-04-23T07:52:27.611Z</time></trkpt><trkpt lat="45.7958388" lon="13.4187557"><ele>3.0</ele><time>2026-04-23T07:52:29.604Z</time></trkpt><trkpt lat="45.7959051" lon="13.4187198"><ele>2.9999999999999996</ele><time>2026-04-23T07:52:31.609Z</time></trkpt><trkpt lat="45.7959736" lon="13.4186821"><ele>3.0</ele><time>2026-04-23T07:52:33.612Z</time></trkpt><trkpt lat="45.7960412" lon="13.4186435"><ele>3.1428571428571423</ele><time>2026-04-23T07:52:35.609Z</time></trkpt><trkpt lat="45.7961056" lon="13.4186044"><ele>3.2857142857142856</ele><time>2026-04-23T07:52:37.596Z</time></trkpt><trkpt lat="45.7961739" lon="13.4185669"><ele>3.4285714285714284</ele><time>2026-04-23T07:52:39.608Z</time></trkpt><trkpt lat="45.7962405" lon="13.4185295"><ele>3.571428571428571</ele><time>2026-04-23T07:52:41.595Z</time></trkpt><trkpt lat="45.796309" lon="13.4184926"><ele>3.714285714285714</ele><time>2026-04-23T07:52:43.604Z</time></trkpt><trkpt lat="45.796382" lon="13.4184611"><ele>3.8571428571428568</ele><time>2026-04-23T07:52:45.61Z</time></trkpt><trkpt lat="45.796453" lon="13.4184264"><ele>4.0</ele><time>2026-04-23T07:52:47.595Z</time></trkpt><trkpt lat="45.7965221" lon="13.4183913"><ele>4.0</ele><time>2026-04-23T07:52:49.608Z</time></trkpt><trkpt lat="45.7965896" lon="13.4183564"><ele>3.9999999999999996</ele><time>2026-04-23T07:52:51.604Z</time></trkpt><trkpt lat="45.7966571" lon="13.4183201"><ele>4.0</ele><time>2026-04-23T07:52:53.6Z</time></trkpt><trkpt lat="45.7967263" lon="13.4182819"><ele>4.0</ele><time>2026-04-23T07:52:55.611Z</time></trkpt><trkpt lat="45.7967946" lon="13.4182438"><ele>3.9999999999999996</ele><time>2026-04-23T07:52:57.605Z</time></trkpt><trkpt lat="45.7968629" lon="13.4182076"><ele>4.0</ele><time>2026-04-23T07:52:59.611Z</time></trkpt><trkpt lat="45.7969308" lon="13.4181816"><ele>4.0</ele><time>2026-04-23T07:53:01.615Z</time></trkpt><trkpt lat="45.7969983" lon="13.4181507"><ele>3.8571428571428568</ele><time>2026-04-23T07:53:03.612Z</time></trkpt><trkpt lat="45.7970662" lon="13.4181125"><ele>3.714285714285714</ele><time>2026-04-23T07:53:05.609Z</time></trkpt><trkpt lat="45.7971304" lon="13.4180794"><ele>3.571428571428571</ele><time>2026-04-23T07:53:07.612Z</time></trkpt><trkpt lat="45.7971958" lon="13.4180427"><ele>3.4285714285714284</ele><time>2026-04-23T07:53:09.598Z</time></trkpt><trkpt lat="45.7972553" lon="13.4180012"><ele>3.2857142857142856</ele><time>2026-04-23T07:53:11.611Z</time></trkpt><trkpt lat="45.7973175" lon="13.4179606"><ele>3.1428571428571423</ele><time>2026-04-23T07:53:13.597Z</time></trkpt><trkpt lat="45.7973859" lon="13.4179259"><ele>3.0</ele><time>2026-04-23T07:53:15.613Z</time></trkpt><trkpt lat="45.7974527" lon="13.4178875"><ele>2.9999999999999996</ele><time>2026-04-23T07:53:17.596Z</time></trkpt><trkpt lat="45.7975192" lon="13.4178495"><ele>3.0</ele><time>2026-04-23T07:53:19.613Z</time></trkpt><trkpt lat="45.7975843" lon="13.4178108"><ele>3.0</ele><time>2026-04-23T07:53:21.605Z</time></trkpt><trkpt lat="45.7976497" lon="13.4177722"><ele>3.0</ele><time>2026-04-23T07:53:23.606Z</time></trkpt><trkpt lat="45.7977168" lon="13.417729"><ele>3.0</ele><time>2026-04-23T07:53:25.603Z</time></trkpt><trkpt lat="45.7977782" lon="13.4176662"><ele>2.9999999999999996</ele><time>2026-04-23T07:53:27.616Z</time></trkpt><trkpt lat="45.7978347" lon="13.4175942"><ele>3.0</ele><time>2026-04-23T07:53:29.596Z</time></trkpt><trkpt lat="45.7978768" lon="13.4175089"><ele>2.9999999999999996</ele><time>2026-04-23T07:53:31.61Z</time></trkpt><trkpt lat="45.7979129" lon="13.4174207"><ele>3.0</ele><time>2026-04-23T07:53:33.61Z</time></trkpt><trkpt lat="45.7979466" lon="13.4173425"><ele>3.0</ele><time>2026-04-23T07:53:35.609Z</time></trkpt><trkpt lat="45.7980059" lon="13.4172978"><ele>3.0</ele><time>2026-04-23T07:53:37.608Z</time></trkpt><trkpt lat="45.7980699" lon="13.4173181"><ele>3.0</ele><time>2026-04-23T07:53:39.607Z</time></trkpt><trkpt lat="45.7981152" lon="13.417418"><ele>2.9999999999999996</ele><time>2026-04-23T07:53:41.615Z</time></trkpt><trkpt lat="45.7981502" lon="13.4175164"><ele>3.0</ele><time>2026-04-23T07:53:43.598Z</time></trkpt><trkpt lat="45.7981863" lon="13.4176068"><ele>2.9999999999999996</ele><time>2026-04-23T07:53:45.606Z</time></trkpt><trkpt lat="45.7982246" lon="13.4176843"><ele>3.0</ele><time>2026-04-23T07:53:47.604Z</time></trkpt><trkpt lat="45.7982399" lon="13.4177776"><ele>3.0</ele><time>2026-04-23T07:53:49.611Z</time></trkpt><trkpt lat="45.7982681" lon="13.417867"><ele>3.0</ele><time>2026-04-23T07:53:51.597Z</time></trkpt><trkpt lat="45.7982987" lon="13.417955"><ele>3.0</ele><time>2026-04-23T07:53:53.601Z</time></trkpt><trkpt lat="45.7983263" lon="13.418044"><ele>2.9999999999999996</ele><time>2026-04-23T07:53:55.595Z</time></trkpt><trkpt lat="45.798356" lon="13.4181375"><ele>3.0</ele><time>2026-04-23T07:53:57.606Z</time></trkpt><trkpt lat="45.7983792" lon="13.4182359"><ele>2.714285714285714</ele><time>2026-04-23T07:53:59.607Z</time></trkpt><trkpt lat="45.7983934" lon="13.4183438"><ele>2.4285714285714284</ele><time>2026-04-23T07:54:01.611Z</time></trkpt><trkpt lat="45.7983892" lon="13.4184468"><ele>2.142857142857143</ele><time>2026-04-23T07:54:03.606Z</time></trkpt><trkpt lat="45.7983784" lon="13.4185489"><ele>1.857142857142857</ele><time>2026-04-23T07:54:05.6Z</time></trkpt><trkpt lat="45.7983924" lon="13.4186414"><ele>1.5714285714285712</ele><time>2026-04-23T07:54:07.605Z</time></trkpt><trkpt lat="45.7984599" lon="13.4186646"><ele>1.2857142857142856</ele><time>2026-04-23T07:54:09.596Z</time></trkpt><trkpt lat="45.7985292" lon="13.418667"><ele>1.0</ele><time>2026-04-23T07:54:11.609Z</time></trkpt><trkpt lat="45.7986046" lon="13.4186795"><ele>0.9999999999999999</ele><time>2026-04-23T07:54:13.609Z</time></trkpt><trkpt lat="45.798681" lon="13.4186969"><ele>1.0</ele><time>2026-04-23T07:54:15.604Z</time></trkpt><trkpt lat="45.7987549" lon="13.4187101"><ele>1.0</ele><time>2026-04-23T07:54:17.613Z</time></trkpt><trkpt lat="45.7988334" lon="13.4187193"><ele>1.0</ele><time>2026-04-23T07:54:19.599Z</time></trkpt><trkpt lat="45.798911" lon="13.4187357"><ele>0.9999999999999999</ele><time>2026-04-23T07:54:21.607Z</time></trkpt><trkpt lat="45.7989894" lon="13.4187427"><ele>1.0</ele><time>2026-04-23T07:54:23.61Z</time></trkpt><trkpt lat="45.7990657" lon="13.4187424"><ele>0.9999999999999999</ele><time>2026-04-23T07:54:25.608Z</time></trkpt><trkpt lat="45.7991429" lon="13.4187372"><ele>1.0</ele><time>2026-04-23T07:54:27.605Z</time></trkpt><trkpt lat="45.7992186" lon="13.4187279"><ele>1.0</ele><time>2026-04-23T07:54:29.604Z</time></trkpt><trkpt lat="45.7992913" lon="13.4187196"><ele>1.0</ele><time>2026-04-23T07:54:31.605Z</time></trkpt><trkpt lat="45.7993679" lon="13.418708"><ele>0.9999999999999999</ele><time>2026-04-23T07:54:33.611Z</time></trkpt><trkpt lat="45.799447" lon="13.4186958"><ele>1.0</ele><time>2026-04-23T07:54:35.65Z</time></trkpt><trkpt lat="45.7995262" lon="13.4186826"><ele>1.5</ele><time>2026-04-23T07:54:37.609Z</time></trkpt><trkpt lat="45.7996063" lon="13.4186709"><ele>2.0</ele><time>2026-04-23T07:54:39.628Z</time></trkpt><trkpt lat="45.799686" lon="13.4186625"><ele>2.5</ele><time>2026-04-23T07:54:41.607Z</time></trkpt><trkpt lat="45.7997888" lon="13.4186399"><ele>3.0</ele><time>2026-04-23T07:56:34.61Z</time></trkpt><trkpt lat="45.7998313" lon="13.418722"><ele>3.4999999999999996</ele><time>2026-04-23T07:56:38.623Z</time></trkpt><trkpt lat="45.7997774" lon="13.4187827"><ele>4.0</ele><time>2026-04-23T07:56:40.606Z</time></trkpt><trkpt lat="45.7997436" lon="13.4188739"><ele>4.666666666666666</ele><time>2026-04-23T07:56:42.605Z</time></trkpt><trkpt lat="45.7997259" lon="13.4189854"><ele>5.333333333333333</ele><time>2026-04-23T07:56:44.611Z</time></trkpt><trkpt lat="45.7996891" lon="13.4190861"><ele>6.0</ele><time>2026-04-23T07:56:46.608Z</time></trkpt><trkpt lat="45.7996373" lon="13.4191724"><ele>6.666666666666666</ele><time>2026-04-23T07:56:48.612Z</time></trkpt><trkpt lat="45.7995787" lon="13.4192598"><ele>7.333333333333333</ele><time>2026-04-23T07:56:50.608Z</time></trkpt><trkpt lat="45.7995191" lon="13.4193414"><ele>8.0</ele><time>2026-04-23T07:56:52.61Z</time></trkpt><trkpt lat="45.799458" lon="13.4194235"><ele>7.999999999999999</ele><time>2026-04-23T07:56:54.608Z</time></trkpt><trkpt lat="45.7993981" lon="13.4195031"><ele>8.0</ele><time>2026-04-23T07:56:56.61Z</time></trkpt><trkpt lat="45.7993379" lon="13.4195822"><ele>8.0</ele><time>2026-04-23T07:56:58.62Z</time></trkpt><trkpt lat="45.7992815" lon="13.4196626"><ele>8.0</ele><time>2026-04-23T07:57:00.622Z</time></trkpt><trkpt lat="45.7992268" lon="13.4197443"><ele>7.999999999999999</ele><time>2026-04-23T07:57:02.628Z</time></trkpt><trkpt lat="45.7991694" lon="13.4198268"><ele>8.0</ele><time>2026-04-23T07:57:04.603Z</time></trkpt><trkpt lat="45.7991102" lon="13.4199095"><ele>7.499999999999999</ele><time>2026-04-23T07:57:06.602Z</time></trkpt><trkpt lat="45.7990511" lon="13.4199928"><ele>7.0</ele><time>2026-04-23T07:57:08.615Z</time></trkpt><trkpt lat="45.7989871" lon="13.4200787"><ele>6.5</ele><time>2026-04-23T07:57:10.607Z</time></trkpt><trkpt lat="45.7989244" lon="13.420162"><ele>6.0</ele><time>2026-04-23T07:57:12.607Z</time></trkpt><trkpt lat="45.7988724" lon="13.4202317"><ele>5.5</ele><time>2026-04-23T07:57:14.601Z</time></trkpt><trkpt lat="45.7988215" lon="13.4202996"><ele>5.0</ele><time>2026-04-23T07:57:16.603Z</time></trkpt><trkpt lat="45.7988195" lon="13.4203946"><ele>4.833333333333334</ele><time>2026-04-23T07:57:18.609Z</time></trkpt><trkpt lat="45.7988481" lon="13.4205012"><ele>4.666666666666667</ele><time>2026-04-23T07:57:20.615Z</time></trkpt><trkpt lat="45.7988749" lon="13.4206118"><ele>4.5</ele><time>2026-04-23T07:57:22.616Z</time></trkpt><trkpt lat="45.7989187" lon="13.4207105"><ele>4.333333333333333</ele><time>2026-04-23T07:57:24.622Z</time></trkpt><trkpt lat="45.7989887" lon="13.4207778"><ele>4.166666666666666</ele><time>2026-04-23T07:57:26.618Z</time></trkpt><trkpt lat="45.7990675" lon="13.4208137"><ele>4.0</ele><time>2026-04-23T07:57:28.613Z</time></trkpt><trkpt lat="45.7991518" lon="13.4208404"><ele>3.9999999999999996</ele><time>2026-04-23T07:57:30.619Z</time></trkpt><trkpt lat="45.7992315" lon="13.4208222"><ele>4.0</ele><time>2026-04-23T07:57:32.612Z</time></trkpt><trkpt lat="45.7993024" lon="13.4207584"><ele>4.0</ele><time>2026-04-23T07:57:34.601Z</time></trkpt><trkpt lat="45.7993652" lon="13.4206793"><ele>4.0</ele><time>2026-04-23T07:57:36.61Z</time></trkpt><trkpt lat="45.7994312" lon="13.4205985"><ele>3.9999999999999996</ele><time>2026-04-23T07:57:38.608Z</time></trkpt><trkpt lat="45.7994993" lon="13.4205255"><ele>4.0</ele><time>2026-04-23T07:57:40.6Z</time></trkpt><trkpt lat="45.7995681" lon="13.4204463"><ele>4.166666666666666</ele><time>2026-04-23T07:57:42.599Z</time></trkpt><trkpt lat="45.7996366" lon="13.4203733"><ele>4.333333333333333</ele><time>2026-04-23T07:57:44.603Z</time></trkpt><trkpt lat="45.7997098" lon="13.4203038"><ele>4.5</ele><time>2026-04-23T07:57:46.615Z</time></trkpt><trkpt lat="45.7997777" lon="13.4202302"><ele>4.666666666666667</ele><time>2026-04-23T07:57:48.61Z</time></trkpt><trkpt lat="45.7998444" lon="13.4202112"><ele>4.833333333333334</ele><time>2026-04-23T07:57:50.623Z</time></trkpt><trkpt lat="45.7998827" lon="13.4203155"><ele>5.0</ele><time>2026-04-23T07:57:52.605Z</time></trkpt><trkpt lat="45.799913" lon="13.420433"><ele>4.6</ele><time>2026-04-23T07:57:54.611Z</time></trkpt><trkpt lat="45.7999389" lon="13.4205607"><ele>4.2</ele><time>2026-04-23T07:57:56.607Z</time></trkpt><trkpt lat="45.7999667" lon="13.4206864"><ele>3.8</ele><time>2026-04-23T07:57:58.611Z</time></trkpt><trkpt lat="45.7999947" lon="13.4208124"><ele>3.4</ele><time>2026-04-23T07:58:00.606Z</time></trkpt><trkpt lat="45.800024" lon="13.4209364"><ele>3.0</ele><time>2026-04-23T07:58:02.608Z</time></trkpt><trkpt lat="45.8000504" lon="13.4210621"><ele>3.0</ele><time>2026-04-23T07:58:04.617Z</time></trkpt><trkpt lat="45.8000766" lon="13.4211883"><ele>3.0</ele><time>2026-04-23T07:58:06.631Z</time></trkpt><trkpt lat="45.8001143" lon="13.4213125"><ele>3.0</ele><time>2026-04-23T07:58:08.603Z</time></trkpt><trkpt lat="45.8001667" lon="13.421421"><ele>3.0</ele><time>2026-04-23T07:58:10.604Z</time></trkpt><trkpt lat="45.8002151" lon="13.4215259"><ele>3.0</ele><time>2026-04-23T07:58:12.608Z</time></trkpt><trkpt lat="45.800265" lon="13.4216473"><ele>3.8</ele><time>2026-04-23T07:58:14.609Z</time></trkpt><trkpt lat="45.800311" lon="13.4217759"><ele>4.6</ele><time>2026-04-23T07:58:16.599Z</time></trkpt><trkpt lat="45.8003698" lon="13.421878"><ele>5.3999999999999995</ele><time>2026-04-23T07:58:18.606Z</time></trkpt><trkpt lat="45.8004611" lon="13.4219504"><ele>6.199999999999999</ele><time>2026-04-23T07:58:20.621Z</time></trkpt><trkpt lat="45.800558" lon="13.4220311"><ele>7.0</ele><time>2026-04-23T07:58:22.604Z</time></trkpt><trkpt lat="45.8006522" lon="13.4220903"><ele>7.0</ele><time>2026-04-23T07:58:24.615Z</time></trkpt><trkpt lat="45.8007478" lon="13.422141"><ele>6.999999999999999</ele><time>2026-04-23T07:58:26.601Z</time></trkpt><trkpt lat="45.8008513" lon="13.4221461"><ele>6.999999999999999</ele><time>2026-04-23T07:58:28.598Z</time></trkpt><trkpt lat="45.80095" lon="13.4221034"><ele>7.0</ele><time>2026-04-23T07:58:30.604Z</time></trkpt><trkpt lat="45.8010543" lon="13.4221104"><ele>7.0</ele><time>2026-04-23T07:58:32.602Z</time></trkpt><trkpt lat="45.8011557" lon="13.4221582"><ele>6.6</ele><time>2026-04-23T07:58:34.598Z</time></trkpt><trkpt lat="45.8012445" lon="13.4222338"><ele>6.199999999999999</ele><time>2026-04-23T07:58:36.604Z</time></trkpt><trkpt lat="45.8013185" lon="13.4223365"><ele>5.8</ele><time>2026-04-23T07:58:38.604Z</time></trkpt><trkpt lat="45.8013812" lon="13.4224477"><ele>5.4</ele><time>2026-04-23T07:58:40.6Z</time></trkpt><trkpt lat="45.8014465" lon="13.4225544"><ele>5.0</ele><time>2026-04-23T07:58:42.608Z</time></trkpt><trkpt lat="45.8015177" lon="13.4226664"><ele>5.0</ele><time>2026-04-23T07:58:44.597Z</time></trkpt><trkpt lat="45.8015901" lon="13.4227837"><ele>5.0</ele><time>2026-04-23T07:58:46.599Z</time></trkpt><trkpt lat="45.801664" lon="13.4228985"><ele>5.0</ele><time>2026-04-23T07:58:48.611Z</time></trkpt><trkpt lat="45.8017354" lon="13.4230091"><ele>5.0</ele><time>2026-04-23T07:58:50.608Z</time></trkpt><trkpt lat="45.8018071" lon="13.423127"><ele>5.0</ele><time>2026-04-23T07:58:52.606Z</time></trkpt><trkpt lat="45.801877" lon="13.4232412"><ele>4.666666666666667</ele><time>2026-04-23T07:58:54.598Z</time></trkpt><trkpt lat="45.8019443" lon="13.4233487"><ele>4.333333333333334</ele><time>2026-04-23T07:58:56.602Z</time></trkpt><trkpt lat="45.8020079" lon="13.423445"><ele>4.0</ele><time>2026-04-23T07:58:58.611Z</time></trkpt><trkpt lat="45.8020665" lon="13.4235376"><ele>3.666666666666667</ele><time>2026-04-23T07:59:00.599Z</time></trkpt><trkpt lat="45.8021099" lon="13.4236045"><ele>3.3333333333333335</ele><time>2026-04-23T07:59:02.611Z</time></trkpt><trkpt lat="45.8021802" lon="13.4236324"><ele>3.0</ele><time>2026-04-23T07:59:05.606Z</time></trkpt><trkpt lat="45.8022514" lon="13.4235894"><ele>3.0</ele><time>2026-04-23T07:59:07.609Z</time></trkpt><trkpt lat="45.8023254" lon="13.423524"><ele>3.0</ele><time>2026-04-23T07:59:09.614Z</time></trkpt><trkpt lat="45.8024205" lon="13.4235579"><ele>3.0</ele><time>2026-04-23T07:59:11.597Z</time></trkpt><trkpt lat="45.8024905" lon="13.4236628"><ele>3.0</ele><time>2026-04-23T07:59:13.599Z</time></trkpt><trkpt lat="45.8025704" lon="13.4237554"><ele>3.0</ele><time>2026-04-23T07:59:15.604Z</time></trkpt><trkpt lat="45.8026532" lon="13.4238433"><ele>3.0</ele><time>2026-04-23T07:59:17.609Z</time></trkpt><trkpt lat="45.802733" lon="13.4239359"><ele>3.0</ele><time>2026-04-23T07:59:19.616Z</time></trkpt><trkpt lat="45.8028133" lon="13.4240271"><ele>3.0</ele><time>2026-04-23T07:59:21.611Z</time></trkpt><trkpt lat="45.8028935" lon="13.4241195"><ele>3.0</ele><time>2026-04-23T07:59:23.609Z</time></trkpt><trkpt lat="45.8029721" lon="13.4242095"><ele>3.0</ele><time>2026-04-23T07:59:25.602Z</time></trkpt><trkpt lat="45.8030517" lon="13.4242934"><ele>3.0</ele><time>2026-04-23T07:59:27.607Z</time></trkpt><trkpt lat="45.8031257" lon="13.4243764"><ele>3.0</ele><time>2026-04-23T07:59:29.605Z</time></trkpt><trkpt lat="45.8032045" lon="13.424463"><ele>3.0</ele><time>2026-04-23T07:59:31.611Z</time></trkpt><trkpt lat="45.8032902" lon="13.4245515"><ele>3.0</ele><time>2026-04-23T07:59:33.611Z</time></trkpt><trkpt lat="45.8033752" lon="13.424636"><ele>3.0</ele><time>2026-04-23T07:59:35.595Z</time></trkpt><trkpt lat="45.8034657" lon="13.4247235"><ele>3.4</ele><time>2026-04-23T07:59:37.614Z</time></trkpt><trkpt lat="45.8035535" lon="13.4248026"><ele>3.8</ele><time>2026-04-23T07:59:39.611Z</time></trkpt><trkpt lat="45.8036422" lon="13.424868"><ele>4.2</ele><time>2026-04-23T07:59:41.599Z</time></trkpt><trkpt lat="45.8037325" lon="13.4249314"><ele>4.6</ele><time>2026-04-23T07:59:43.614Z</time></trkpt><trkpt lat="45.8038312" lon="13.4250018"><ele>5.0</ele><time>2026-04-23T07:59:45.604Z</time></trkpt><trkpt lat="45.8039299" lon="13.4250728"><ele>5.0</ele><time>2026-04-23T07:59:47.616Z</time></trkpt><trkpt lat="45.8040173" lon="13.4251302"><ele>5.0</ele><time>2026-04-23T07:59:49.619Z</time></trkpt><trkpt lat="45.8041128" lon="13.4251761"><ele>5.0</ele><time>2026-04-23T07:59:51.619Z</time></trkpt><trkpt lat="45.8042068" lon="13.4252245"><ele>5.0</ele><time>2026-04-23T07:59:53.611Z</time></trkpt><trkpt lat="45.8043129" lon="13.4252788"><ele>5.0</ele><time>2026-04-23T07:59:55.609Z</time></trkpt><trkpt lat="45.804402" lon="13.4253262"><ele>5.0</ele><time>2026-04-23T07:59:57.606Z</time></trkpt><trkpt lat="45.8044872" lon="13.4253797"><ele>5.0</ele><time>2026-04-23T07:59:59.602Z</time></trkpt><trkpt lat="45.8045776" lon="13.4254444"><ele>5.0</ele><time>2026-04-23T08:00:01.609Z</time></trkpt><trkpt lat="45.8046725" lon="13.425479"><ele>5.0</ele><time>2026-04-23T08:00:03.612Z</time></trkpt><trkpt lat="45.8047572" lon="13.4255076"><ele>5.0</ele><time>2026-04-23T08:00:05.617Z</time></trkpt><trkpt lat="45.8048132" lon="13.425556"><ele>5.0</ele><time>2026-04-23T08:00:07.612Z</time></trkpt><trkpt lat="45.8048186" lon="13.4256762"><ele>5.4</ele><time>2026-04-23T08:00:09.609Z</time></trkpt><trkpt lat="45.8048116" lon="13.4258154"><ele>5.8</ele><time>2026-04-23T08:00:11.606Z</time></trkpt><trkpt lat="45.8048058" lon="13.4259679"><ele>6.199999999999999</ele><time>2026-04-23T08:00:13.614Z</time></trkpt><trkpt lat="45.8047999" lon="13.4261078"><ele>6.6</ele><time>2026-04-23T08:00:15.611Z</time></trkpt><trkpt lat="45.8048046" lon="13.4262497"><ele>7.0</ele><time>2026-04-23T08:00:17.605Z</time></trkpt><trkpt lat="45.804809" lon="13.4263909"><ele>7.6</ele><time>2026-04-23T08:00:19.603Z</time></trkpt><trkpt lat="45.8048199" lon="13.426527"><ele>8.2</ele><time>2026-04-23T08:00:21.607Z</time></trkpt><trkpt lat="45.8048348" lon="13.4266649"><ele>8.8</ele><time>2026-04-23T08:00:23.597Z</time></trkpt><trkpt lat="45.8048531" lon="13.4268027"><ele>9.4</ele><time>2026-04-23T08:00:25.607Z</time></trkpt><trkpt lat="45.8048769" lon="13.4269416"><ele>10.0</ele><time>2026-04-23T08:00:27.599Z</time></trkpt><trkpt lat="45.8049089" lon="13.4270859"><ele>10.0</ele><time>2026-04-23T08:00:29.613Z</time></trkpt><trkpt lat="45.8049409" lon="13.4272214"><ele>10.0</ele><time>2026-04-23T08:00:31.603Z</time></trkpt><trkpt lat="45.8049731" lon="13.4273538"><ele>10.0</ele><time>2026-04-23T08:00:33.6Z</time></trkpt><trkpt lat="45.8050108" lon="13.4274927"><ele>10.0</ele><time>2026-04-23T08:00:35.628Z</time></trkpt><trkpt lat="45.8050493" lon="13.4276297"><ele>10.0</ele><time>2026-04-23T08:00:37.593Z</time></trkpt><trkpt lat="45.8050868" lon="13.4277656"><ele>10.0</ele><time>2026-04-23T08:00:39.608Z</time></trkpt><trkpt lat="45.8051243" lon="13.4279004"><ele>10.0</ele><time>2026-04-23T08:00:41.61Z</time></trkpt><trkpt lat="45.8051611" lon="13.428027"><ele>10.0</ele><time>2026-04-23T08:00:43.607Z</time></trkpt><trkpt lat="45.8052055" lon="13.4281697"><ele>10.0</ele><time>2026-04-23T08:00:45.599Z</time></trkpt><trkpt lat="45.805248" lon="13.4283106"><ele>10.0</ele><time>2026-04-23T08:00:47.608Z</time></trkpt><trkpt lat="45.8052895" lon="13.4284539"><ele>9.6</ele><time>2026-04-23T08:00:49.606Z</time></trkpt><trkpt lat="45.8053277" lon="13.4285948"><ele>9.2</ele><time>2026-04-23T08:00:51.611Z</time></trkpt><trkpt lat="45.8053662" lon="13.4287339"><ele>8.8</ele><time>2026-04-23T08:00:53.599Z</time></trkpt><trkpt lat="45.8054079" lon="13.4288779"><ele>8.4</ele><time>2026-04-23T08:00:55.602Z</time></trkpt><trkpt lat="45.805447" lon="13.4290182"><ele>8.0</ele><time>2026-04-23T08:00:57.606Z</time></trkpt><trkpt lat="45.8054822" lon="13.4291544"><ele>7.2</ele><time>2026-04-23T08:00:59.6Z</time></trkpt><trkpt lat="45.8055259" lon="13.4292983"><ele>6.4</ele><time>2026-04-23T08:01:01.597Z</time></trkpt><trkpt lat="45.8055688" lon="13.4294429"><ele>5.6000000000000005</ele><time>2026-04-23T08:01:03.609Z</time></trkpt><trkpt lat="45.8056107" lon="13.4295857"><ele>4.800000000000001</ele><time>2026-04-23T08:01:05.613Z</time></trkpt><trkpt lat="45.805652" lon="13.4297284"><ele>4.0</ele><time>2026-04-23T08:01:07.606Z</time></trkpt><trkpt lat="45.8056925" lon="13.4298679"><ele>4.0</ele><time>2026-04-23T08:01:09.609Z</time></trkpt><trkpt lat="45.8057339" lon="13.4300101"><ele>4.0</ele><time>2026-04-23T08:01:11.61Z</time></trkpt><trkpt lat="45.8057737" lon="13.4301533"><ele>4.0</ele><time>2026-04-23T08:01:13.596Z</time></trkpt><trkpt lat="45.8058136" lon="13.4302953"><ele>4.0</ele><time>2026-04-23T08:01:15.597Z</time></trkpt><trkpt lat="45.8058535" lon="13.4304389"><ele>4.0</ele><time>2026-04-23T08:01:17.612Z</time></trkpt><trkpt lat="45.8058959" lon="13.430583"><ele>4.0</ele><time>2026-04-23T08:01:19.62Z</time></trkpt><trkpt lat="45.8059387" lon="13.4307241"><ele>4.0</ele><time>2026-04-23T08:01:21.612Z</time></trkpt><trkpt lat="45.8059798" lon="13.4308654"><ele>4.0</ele><time>2026-04-23T08:01:23.597Z</time></trkpt><trkpt lat="45.8060192" lon="13.4310097"><ele>4.0</ele><time>2026-04-23T08:01:25.612Z</time></trkpt><trkpt lat="45.8060594" lon="13.4311537"><ele>4.0</ele><time>2026-04-23T08:01:27.609Z</time></trkpt><trkpt lat="45.8060999" lon="13.4312997"><ele>4.2</ele><time>2026-04-23T08:01:29.608Z</time></trkpt><trkpt lat="45.8061394" lon="13.4314407"><ele>4.4</ele><time>2026-04-23T08:01:31.607Z</time></trkpt><trkpt lat="45.8061803" lon="13.4315925"><ele>4.6</ele><time>2026-04-23T08:01:33.611Z</time></trkpt><trkpt lat="45.8062216" lon="13.4317465"><ele>4.8</ele><time>2026-04-23T08:01:35.608Z</time></trkpt><trkpt lat="45.8062618" lon="13.4318972"><ele>5.0</ele><time>2026-04-23T08:01:37.608Z</time></trkpt><trkpt lat="45.806305" lon="13.4320497"><ele>6.25</ele><time>2026-04-23T08:01:39.603Z</time></trkpt><trkpt lat="45.8063479" lon="13.4321969"><ele>7.5</ele><time>2026-04-23T08:01:41.609Z</time></trkpt><trkpt lat="45.8063944" lon="13.4323497"><ele>8.75</ele><time>2026-04-23T08:01:43.606Z</time></trkpt><trkpt lat="45.8064411" lon="13.4325132"><ele>10.0</ele><time>2026-04-23T08:01:45.604Z</time></trkpt><trkpt lat="45.806486" lon="13.4326642"><ele>10.0</ele><time>2026-04-23T08:01:47.603Z</time></trkpt><trkpt lat="45.8065299" lon="13.4328101"><ele>10.0</ele><time>2026-04-23T08:01:49.604Z</time></trkpt><trkpt lat="45.8065722" lon="13.4329622"><ele>10.0</ele><time>2026-04-23T08:01:51.595Z</time></trkpt><trkpt lat="45.8066148" lon="13.4331117"><ele>10.0</ele><time>2026-04-23T08:01:53.613Z</time></trkpt><trkpt lat="45.8066539" lon="13.4332593"><ele>10.0</ele><time>2026-04-23T08:01:55.608Z</time></trkpt><trkpt lat="45.806699" lon="13.4334163"><ele>10.2</ele><time>2026-04-23T08:01:57.609Z</time></trkpt><trkpt lat="45.8067431" lon="13.4335777"><ele>10.4</ele><time>2026-04-23T08:01:59.597Z</time></trkpt><trkpt lat="45.8067669" lon="13.4336622"><ele>10.600000000000001</ele><time>2026-04-23T08:02:00.609Z</time></trkpt><trkpt lat="45.8068167" lon="13.4338256"><ele>10.8</ele><time>2026-04-23T08:02:02.625Z</time></trkpt><trkpt lat="45.8068643" lon="13.433988"><ele>11.0</ele><time>2026-04-23T08:02:04.608Z</time></trkpt><trkpt lat="45.8069132" lon="13.4341484"><ele>10.25</ele><time>2026-04-23T08:02:06.607Z</time></trkpt><trkpt lat="45.8069587" lon="13.4343049"><ele>9.5</ele><time>2026-04-23T08:02:08.612Z</time></trkpt><trkpt lat="45.8070045" lon="13.4344674"><ele>8.75</ele><time>2026-04-23T08:02:10.608Z</time></trkpt><trkpt lat="45.8070371" lon="13.4346209"><ele>8.0</ele><time>2026-04-23T08:02:12.611Z</time></trkpt><trkpt lat="45.8069956" lon="13.4347555"><ele>8.0</ele><time>2026-04-23T08:02:14.608Z</time></trkpt><trkpt lat="45.8068963" lon="13.4348069"><ele>8.0</ele><time>2026-04-23T08:02:16.595Z</time></trkpt><trkpt lat="45.8067767" lon="13.4348062"><ele>8.0</ele><time>2026-04-23T08:02:18.593Z</time></trkpt><trkpt lat="45.8066576" lon="13.4348525"><ele>8.0</ele><time>2026-04-23T08:02:20.611Z</time></trkpt><trkpt lat="45.8065999" lon="13.434893"><ele>8.0</ele><time>2026-04-23T08:02:21.612Z</time></trkpt><trkpt lat="45.8065011" lon="13.4349758"><ele>7.833333333333333</ele><time>2026-04-23T08:02:23.592Z</time></trkpt><trkpt lat="45.806428" lon="13.435035"><ele>7.666666666666666</ele><time>2026-04-23T08:02:25.588Z</time></trkpt><trkpt lat="45.8063678" lon="13.4349897"><ele>7.5</ele><time>2026-04-23T08:02:27.593Z</time></trkpt><trkpt lat="45.8063837" lon="13.4348667"><ele>7.333333333333334</ele><time>2026-04-23T08:02:29.597Z</time></trkpt><trkpt lat="45.8064403" lon="13.4347478"><ele>7.166666666666667</ele><time>2026-04-23T08:02:31.606Z</time></trkpt><trkpt lat="45.8064866" lon="13.4346101"><ele>7.0</ele><time>2026-04-23T08:02:33.593Z</time></trkpt><trkpt lat="45.806532" lon="13.4344704"><ele>7.0</ele><time>2026-04-23T08:02:35.608Z</time></trkpt><trkpt lat="45.8065778" lon="13.4343414"><ele>6.999999999999999</ele><time>2026-04-23T08:02:37.599Z</time></trkpt><trkpt lat="45.8066429" lon="13.4342206"><ele>6.999999999999999</ele><time>2026-04-23T08:02:39.594Z</time></trkpt><trkpt lat="45.8067367" lon="13.4341122"><ele>7.0</ele><time>2026-04-23T08:02:41.606Z</time></trkpt><trkpt lat="45.8068281" lon="13.4340219"><ele>7.0</ele><time>2026-04-23T08:02:43.593Z</time></trkpt><trkpt lat="45.8069069" lon="13.4339541"><ele>7.000000000000001</ele><time>2026-04-23T08:02:45.596Z</time></trkpt><trkpt lat="45.8070024" lon="13.4339597"><ele>7.0</ele><time>2026-04-23T08:02:47.605Z</time></trkpt><trkpt lat="45.8070535" lon="13.4340149"><ele>7.0</ele><time>2026-04-23T08:02:48.602Z</time></trkpt><trkpt lat="45.8070778" lon="13.4341534"><ele>7.0</ele><time>2026-04-23T08:02:50.602Z</time></trkpt><trkpt lat="45.8070936" lon="13.4342814"><ele>7.000000000000001</ele><time>2026-04-23T08:02:52.607Z</time></trkpt><trkpt lat="45.8071604" lon="13.4343101"><ele>7.0</ele><time>2026-04-23T08:02:54.604Z</time></trkpt><trkpt lat="45.8072361" lon="13.4342446"><ele>7.0</ele><time>2026-04-23T08:02:56.588Z</time></trkpt><trkpt lat="45.8073239" lon="13.4341344"><ele>7.0</ele><time>2026-04-23T08:02:58.609Z</time></trkpt><trkpt lat="45.8074234" lon="13.4340462"><ele>7.0</ele><time>2026-04-23T08:03:00.612Z</time></trkpt><trkpt lat="45.8075248" lon="13.433968"><ele>7.0</ele><time>2026-04-23T08:03:02.599Z</time></trkpt><trkpt lat="45.8076239" lon="13.4338842"><ele>6.5</ele><time>2026-04-23T08:03:04.597Z</time></trkpt><trkpt lat="45.8077216" lon="13.4338014"><ele>6.0</ele><time>2026-04-23T08:03:06.591Z</time></trkpt><trkpt lat="45.8078173" lon="13.4337178"><ele>5.5</ele><time>2026-04-23T08:03:08.603Z</time></trkpt><trkpt lat="45.8079161" lon="13.4336373"><ele>5.0</ele><time>2026-04-23T08:03:10.597Z</time></trkpt><trkpt lat="45.808016" lon="13.433559"><ele>5.0</ele><time>2026-04-23T08:03:12.598Z</time></trkpt><trkpt lat="45.8081157" lon="13.4334864"><ele>5.0</ele><time>2026-04-23T08:03:14.586Z</time></trkpt><trkpt lat="45.8082114" lon="13.4334089"><ele>5.0</ele><time>2026-04-23T08:03:16.598Z</time></trkpt><trkpt lat="45.8083099" lon="13.4333553"><ele>5.0</ele><time>2026-04-23T08:03:18.598Z</time></trkpt><trkpt lat="45.8084001" lon="13.4332645"><ele>5.0</ele><time>2026-04-23T08:03:20.6Z</time></trkpt><trkpt lat="45.8084907" lon="13.4331908"><ele>5.4</ele><time>2026-04-23T08:03:22.602Z</time></trkpt><trkpt lat="45.8085848" lon="13.4331186"><ele>5.8</ele><time>2026-04-23T08:03:24.6Z</time></trkpt><trkpt lat="45.8086776" lon="13.4330467"><ele>6.199999999999999</ele><time>2026-04-23T08:03:26.594Z</time></trkpt><trkpt lat="45.808763" lon="13.4329707"><ele>6.6</ele><time>2026-04-23T08:03:28.599Z</time></trkpt><trkpt lat="45.8088428" lon="13.4328872"><ele>7.0</ele><time>2026-04-23T08:03:30.603Z</time></trkpt><trkpt lat="45.8089109" lon="13.4327774"><ele>7.199999999999999</ele><time>2026-04-23T08:03:32.612Z</time></trkpt><trkpt lat="45.8089329" lon="13.4326364"><ele>7.3999999999999995</ele><time>2026-04-23T08:03:34.607Z</time></trkpt><trkpt lat="45.8089148" lon="13.4324958"><ele>7.6000000000000005</ele><time>2026-04-23T08:03:36.602Z</time></trkpt><trkpt lat="45.8089412" lon="13.432364"><ele>7.800000000000001</ele><time>2026-04-23T08:03:38.603Z</time></trkpt><trkpt lat="45.8090387" lon="13.4322895"><ele>8.0</ele><time>2026-04-23T08:03:40.597Z</time></trkpt><trkpt lat="45.809152" lon="13.4322377"><ele>8.0</ele><time>2026-04-23T08:03:42.604Z</time></trkpt><trkpt lat="45.8092622" lon="13.4321797"><ele>8.0</ele><time>2026-04-23T08:03:44.588Z</time></trkpt><trkpt lat="45.8093756" lon="13.4321358"><ele>8.0</ele><time>2026-04-23T08:03:46.597Z</time></trkpt><trkpt lat="45.8094863" lon="13.4320869"><ele>8.0</ele><time>2026-04-23T08:03:48.601Z</time></trkpt><trkpt lat="45.8095985" lon="13.4320444"><ele>7.800000000000001</ele><time>2026-04-23T08:03:50.594Z</time></trkpt><trkpt lat="45.8097103" lon="13.4320055"><ele>7.6000000000000005</ele><time>2026-04-23T08:03:52.586Z</time></trkpt><trkpt lat="45.8098189" lon="13.4319653"><ele>7.3999999999999995</ele><time>2026-04-23T08:03:54.587Z</time></trkpt><trkpt lat="45.8099206" lon="13.43193"><ele>7.199999999999999</ele><time>2026-04-23T08:03:56.604Z</time></trkpt><trkpt lat="45.8100152" lon="13.4318759"><ele>7.0</ele><time>2026-04-23T08:03:58.597Z</time></trkpt><trkpt lat="45.810111" lon="13.431836"><ele>7.0</ele><time>2026-04-23T08:04:00.591Z</time></trkpt><trkpt lat="45.8102096" lon="13.4318147"><ele>6.999999999999999</ele><time>2026-04-23T08:04:02.587Z</time></trkpt><trkpt lat="45.8103071" lon="13.4317837"><ele>6.999999999999999</ele><time>2026-04-23T08:04:04.588Z</time></trkpt><trkpt lat="45.8104013" lon="13.4317486"><ele>7.0</ele><time>2026-04-23T08:04:06.605Z</time></trkpt><trkpt lat="45.8105039" lon="13.4317017"><ele>7.0</ele><time>2026-04-23T08:04:08.606Z</time></trkpt><trkpt lat="45.810597" lon="13.431665"><ele>7.0</ele><time>2026-04-23T08:04:10.604Z</time></trkpt><trkpt lat="45.8107013" lon="13.4316209"><ele>6.999999999999999</ele><time>2026-04-23T08:04:12.589Z</time></trkpt><trkpt lat="45.8108041" lon="13.4315804"><ele>6.999999999999999</ele><time>2026-04-23T08:04:14.602Z</time></trkpt><trkpt lat="45.8109155" lon="13.4315473"><ele>7.0</ele><time>2026-04-23T08:04:16.589Z</time></trkpt><trkpt lat="45.8110232" lon="13.4315162"><ele>7.0</ele><time>2026-04-23T08:04:18.602Z</time></trkpt><trkpt lat="45.8111262" lon="13.431489"><ele>7.3999999999999995</ele><time>2026-04-23T08:04:20.59Z</time></trkpt><trkpt lat="45.8112309" lon="13.431459"><ele>7.799999999999999</ele><time>2026-04-23T08:04:22.601Z</time></trkpt><trkpt lat="45.8113354" lon="13.4314192"><ele>8.2</ele><time>2026-04-23T08:04:24.593Z</time></trkpt><trkpt lat="45.8114309" lon="13.4313872"><ele>8.6</ele><time>2026-04-23T08:04:26.599Z</time></trkpt><trkpt lat="45.8115456" lon="13.4313881"><ele>9.0</ele><time>2026-04-23T08:04:28.6Z</time></trkpt><trkpt lat="45.8116544" lon="13.431395"><ele>9.0</ele><time>2026-04-23T08:04:30.596Z</time></trkpt><trkpt lat="45.8117614" lon="13.4314396"><ele>9.0</ele><time>2026-04-23T08:04:32.605Z</time></trkpt><trkpt lat="45.8118632" lon="13.4314951"><ele>9.0</ele><time>2026-04-23T08:04:34.592Z</time></trkpt><trkpt lat="45.8119698" lon="13.4315516"><ele>9.0</ele><time>2026-04-23T08:04:36.601Z</time></trkpt><trkpt lat="45.812069" lon="13.4315941"><ele>9.0</ele><time>2026-04-23T08:04:38.603Z</time></trkpt><trkpt lat="45.8121675" lon="13.4316225"><ele>8.8</ele><time>2026-04-23T08:04:40.597Z</time></trkpt><trkpt lat="45.8122649" lon="13.4316508"><ele>8.600000000000001</ele><time>2026-04-23T08:04:42.599Z</time></trkpt><trkpt lat="45.8123759" lon="13.4316792"><ele>8.4</ele><time>2026-04-23T08:04:44.618Z</time></trkpt><trkpt lat="45.8124843" lon="13.4317093"><ele>8.200000000000001</ele><time>2026-04-23T08:04:46.636Z</time></trkpt><trkpt lat="45.812578" lon="13.4317233"><ele>8.0</ele><time>2026-04-23T08:04:48.617Z</time></trkpt><trkpt lat="45.8126914" lon="13.4317285"><ele>8.0</ele><time>2026-04-23T08:04:50.649Z</time></trkpt><trkpt lat="45.8127554" lon="13.4317251"><ele>8.0</ele><time>2026-04-23T08:04:51.621Z</time></trkpt><trkpt lat="45.8128705" lon="13.4317161"><ele>8.0</ele><time>2026-04-23T08:04:53.639Z</time></trkpt><trkpt lat="45.8129859" lon="13.4317215"><ele>8.0</ele><time>2026-04-23T08:04:55.635Z</time></trkpt><trkpt lat="45.8131006" lon="13.4317264"><ele>8.0</ele><time>2026-04-23T08:04:57.641Z</time></trkpt><trkpt lat="45.8132099" lon="13.4317359"><ele>8.0</ele><time>2026-04-23T08:04:59.628Z</time></trkpt><trkpt lat="45.8133156" lon="13.4317398"><ele>8.0</ele><time>2026-04-23T08:05:01.629Z</time></trkpt><trkpt lat="45.8134197" lon="13.4317229"><ele>8.0</ele><time>2026-04-23T08:05:03.633Z</time></trkpt><trkpt lat="45.8135322" lon="13.4316931"><ele>8.0</ele><time>2026-04-23T08:05:05.633Z</time></trkpt><trkpt lat="45.8135999" lon="13.4316746"><ele>8.0</ele><time>2026-04-23T08:05:06.636Z</time></trkpt><trkpt lat="45.8137175" lon="13.431652"><ele>8.200000000000001</ele><time>2026-04-23T08:05:08.62Z</time></trkpt><trkpt lat="45.813828" lon="13.4316286"><ele>8.4</ele><time>2026-04-23T08:05:10.611Z</time></trkpt><trkpt lat="45.813937" lon="13.4316033"><ele>8.600000000000001</ele><time>2026-04-23T08:05:12.609Z</time></trkpt><trkpt lat="45.814043" lon="13.4315935"><ele>8.8</ele><time>2026-04-23T08:05:14.631Z</time></trkpt><trkpt lat="45.814151" lon="13.4316205"><ele>9.0</ele><time>2026-04-23T08:05:16.632Z</time></trkpt><trkpt lat="45.8142562" lon="13.4316624"><ele>9.0</ele><time>2026-04-23T08:05:18.634Z</time></trkpt><trkpt lat="45.8143597" lon="13.4317304"><ele>9.0</ele><time>2026-04-23T08:05:20.628Z</time></trkpt><trkpt lat="45.81446" lon="13.4317867"><ele>9.0</ele><time>2026-04-23T08:05:22.626Z</time></trkpt><trkpt lat="45.8145665" lon="13.4318092"><ele>9.0</ele><time>2026-04-23T08:05:24.624Z</time></trkpt><trkpt lat="45.8146765" lon="13.4318041"><ele>9.0</ele><time>2026-04-23T08:05:26.624Z</time></trkpt><trkpt lat="45.8147919" lon="13.4317916"><ele>9.0</ele><time>2026-04-23T08:05:28.627Z</time></trkpt><trkpt lat="45.8149005" lon="13.4317722"><ele>9.0</ele><time>2026-04-23T08:05:30.631Z</time></trkpt><trkpt lat="45.8150105" lon="13.4317464"><ele>9.0</ele><time>2026-04-23T08:05:32.639Z</time></trkpt><trkpt lat="45.8151233" lon="13.4317122"><ele>9.0</ele><time>2026-04-23T08:05:34.621Z</time></trkpt><trkpt lat="45.8152335" lon="13.4316746"><ele>9.0</ele><time>2026-04-23T08:05:36.638Z</time></trkpt><trkpt lat="45.8153483" lon="13.4316415"><ele>9.0</ele><time>2026-04-23T08:05:38.635Z</time></trkpt><trkpt lat="45.8154623" lon="13.4316046"><ele>9.0</ele><time>2026-04-23T08:05:40.648Z</time></trkpt><trkpt lat="45.8155734" lon="13.4315704"><ele>9.0</ele><time>2026-04-23T08:05:42.63Z</time></trkpt><trkpt lat="45.8156871" lon="13.4315437"><ele>9.0</ele><time>2026-04-23T08:05:44.62Z</time></trkpt><trkpt lat="45.8157981" lon="13.4315126"><ele>9.0</ele><time>2026-04-23T08:05:46.627Z</time></trkpt><trkpt lat="45.815907" lon="13.4314831"><ele>9.0</ele><time>2026-04-23T08:05:48.634Z</time></trkpt><trkpt lat="45.816018" lon="13.4314637"><ele>9.0</ele><time>2026-04-23T08:05:50.608Z</time></trkpt><trkpt lat="45.8161274" lon="13.4314542"><ele>9.0</ele><time>2026-04-23T08:05:52.636Z</time></trkpt><trkpt lat="45.8162323" lon="13.4314503"><ele>9.0</ele><time>2026-04-23T08:05:54.635Z</time></trkpt><trkpt lat="45.8163267" lon="13.4314497"><ele>9.0</ele><time>2026-04-23T08:05:56.618Z</time></trkpt><trkpt lat="45.8164391" lon="13.4314483"><ele>9.0</ele><time>2026-04-23T08:05:58.62Z</time></trkpt><trkpt lat="45.81656" lon="13.4314668"><ele>9.0</ele><time>2026-04-23T08:06:00.623Z</time></trkpt><trkpt lat="45.816678" lon="13.4314918"><ele>9.0</ele><time>2026-04-23T08:06:02.654Z</time></trkpt><trkpt lat="45.8167902" lon="13.4315083"><ele>9.0</ele><time>2026-04-23T08:06:04.626Z</time></trkpt><trkpt lat="45.8168965" lon="13.4315059"><ele>9.0</ele><time>2026-04-23T08:06:06.626Z</time></trkpt><trkpt lat="45.8170111" lon="13.4314918"><ele>9.0</ele><time>2026-04-23T08:06:08.634Z</time></trkpt><trkpt lat="45.8171267" lon="13.4314926"><ele>9.0</ele><time>2026-04-23T08:06:10.631Z</time></trkpt><trkpt lat="45.8172295" lon="13.4315002"><ele>9.0</ele><time>2026-04-23T08:06:12.633Z</time></trkpt><trkpt lat="45.8173354" lon="13.4314968"><ele>9.0</ele><time>2026-04-23T08:06:14.624Z</time></trkpt><trkpt lat="45.8174402" lon="13.4314917"><ele>9.0</ele><time>2026-04-23T08:06:16.63Z</time></trkpt><trkpt lat="45.8175516" lon="13.4314726"><ele>9.0</ele><time>2026-04-23T08:06:18.626Z</time></trkpt><trkpt lat="45.8176627" lon="13.4314484"><ele>9.0</ele><time>2026-04-23T08:06:20.639Z</time></trkpt><trkpt lat="45.8177701" lon="13.4314163"><ele>9.0</ele><time>2026-04-23T08:06:22.633Z</time></trkpt><trkpt lat="45.8178831" lon="13.431389"><ele>8.25</ele><time>2026-04-23T08:06:24.639Z</time></trkpt><trkpt lat="45.8179983" lon="13.4313612"><ele>7.5</ele><time>2026-04-23T08:06:26.627Z</time></trkpt><trkpt lat="45.8181078" lon="13.4313401"><ele>6.75</ele><time>2026-04-23T08:06:28.623Z</time></trkpt><trkpt lat="45.8182238" lon="13.4313301"><ele>6.0</ele><time>2026-04-23T08:06:30.62Z</time></trkpt><trkpt lat="45.8183311" lon="13.4313229"><ele>6.0</ele><time>2026-04-23T08:06:32.633Z</time></trkpt><trkpt lat="45.8184417" lon="13.4313284"><ele>6.0</ele><time>2026-04-23T08:06:34.622Z</time></trkpt><trkpt lat="45.8185436" lon="13.4313311"><ele>6.0</ele><time>2026-04-23T08:06:36.625Z</time></trkpt><trkpt lat="45.8186467" lon="13.4313347"><ele>6.0</ele><time>2026-04-23T08:06:38.629Z</time></trkpt><trkpt lat="45.8187613" lon="13.43134"><ele>6.0</ele><time>2026-04-23T08:06:40.626Z</time></trkpt><trkpt lat="45.8188728" lon="13.4313493"><ele>6.0</ele><time>2026-04-23T08:06:42.627Z</time></trkpt><trkpt lat="45.8189861" lon="13.4313638"><ele>6.0</ele><time>2026-04-23T08:06:44.64Z</time></trkpt><trkpt lat="45.8190983" lon="13.431379"><ele>6.0</ele><time>2026-04-23T08:06:46.652Z</time></trkpt><trkpt lat="45.8191641" lon="13.4313796"><ele>6.0</ele><time>2026-04-23T08:06:47.637Z</time></trkpt><trkpt lat="45.8192762" lon="13.4313939"><ele>6.0</ele><time>2026-04-23T08:06:49.633Z</time></trkpt><trkpt lat="45.8193862" lon="13.4314069"><ele>7.0</ele><time>2026-04-23T08:06:51.625Z</time></trkpt><trkpt lat="45.8194918" lon="13.431416"><ele>8.0</ele><time>2026-04-23T08:06:53.629Z</time></trkpt><trkpt lat="45.8196004" lon="13.4314178"><ele>9.0</ele><time>2026-04-23T08:06:55.632Z</time></trkpt><trkpt lat="45.8197117" lon="13.4314089"><ele>10.0</ele><time>2026-04-23T08:06:57.635Z</time></trkpt><trkpt lat="45.8198248" lon="13.4314018"><ele>11.0</ele><time>2026-04-23T08:06:59.627Z</time></trkpt><trkpt lat="45.8199328" lon="13.4314001"><ele>11.0</ele><time>2026-04-23T08:07:01.617Z</time></trkpt><trkpt lat="45.8200437" lon="13.4313907"><ele>11.0</ele><time>2026-04-23T08:07:03.624Z</time></trkpt><trkpt lat="45.8201539" lon="13.431374"><ele>11.0</ele><time>2026-04-23T08:07:05.634Z</time></trkpt><trkpt lat="45.8202201" lon="13.4313704"><ele>11.0</ele><time>2026-04-23T08:07:06.626Z</time></trkpt><trkpt lat="45.8203344" lon="13.4313507"><ele>11.0</ele><time>2026-04-23T08:07:08.634Z</time></trkpt><trkpt lat="45.8204405" lon="13.4313371"><ele>10.8</ele><time>2026-04-23T08:07:10.612Z</time></trkpt><trkpt lat="45.8205571" lon="13.4313173"><ele>10.600000000000001</ele><time>2026-04-23T08:07:12.625Z</time></trkpt><trkpt lat="45.8206731" lon="13.4312961"><ele>10.4</ele><time>2026-04-23T08:07:14.63Z</time></trkpt><trkpt lat="45.8207838" lon="13.4312788"><ele>10.2</ele><time>2026-04-23T08:07:16.631Z</time></trkpt><trkpt lat="45.820886" lon="13.431266"><ele>10.0</ele><time>2026-04-23T08:07:18.621Z</time></trkpt><trkpt lat="45.820998" lon="13.4312445"><ele>9.75</ele><time>2026-04-23T08:07:20.635Z</time></trkpt><trkpt lat="45.8211087" lon="13.4312182"><ele>9.5</ele><time>2026-04-23T08:07:22.618Z</time></trkpt><trkpt lat="45.8212269" lon="13.4311805"><ele>9.25</ele><time>2026-04-23T08:07:24.612Z</time></trkpt><trkpt lat="45.8213396" lon="13.4311534"><ele>9.0</ele><time>2026-04-23T08:07:26.631Z</time></trkpt><trkpt lat="45.8214464" lon="13.4311384"><ele>9.0</ele><time>2026-04-23T08:07:28.627Z</time></trkpt><trkpt lat="45.8215508" lon="13.4311288"><ele>9.0</ele><time>2026-04-23T08:07:30.641Z</time></trkpt><trkpt lat="45.821667" lon="13.4311207"><ele>9.0</ele><time>2026-04-23T08:07:32.606Z</time></trkpt><trkpt lat="45.821785" lon="13.4311282"><ele>9.0</ele><time>2026-04-23T08:07:34.621Z</time></trkpt><trkpt lat="45.8218493" lon="13.4311406"><ele>9.0</ele><time>2026-04-23T08:07:35.634Z</time></trkpt><trkpt lat="45.821911" lon="13.4311662"><ele>8.6</ele><time>2026-04-23T08:07:36.621Z</time></trkpt><trkpt lat="45.8220201" lon="13.4311798"><ele>8.2</ele><time>2026-04-23T08:07:38.636Z</time></trkpt><trkpt lat="45.8221188" lon="13.4311163"><ele>7.799999999999999</ele><time>2026-04-23T08:07:40.629Z</time></trkpt><trkpt lat="45.8222272" lon="13.4310906"><ele>7.3999999999999995</ele><time>2026-04-23T08:07:42.621Z</time></trkpt><trkpt lat="45.8223193" lon="13.4310611"><ele>7.0</ele><time>2026-04-23T08:07:44.628Z</time></trkpt><trkpt lat="45.8224199" lon="13.4310446"><ele>7.0</ele><time>2026-04-23T08:07:46.643Z</time></trkpt><trkpt lat="45.8225321" lon="13.4310632"><ele>6.999999999999999</ele><time>2026-04-23T08:07:48.635Z</time></trkpt><trkpt lat="45.8226395" lon="13.4310445"><ele>6.999999999999999</ele><time>2026-04-23T08:07:50.615Z</time></trkpt><trkpt lat="45.8227437" lon="13.4310454"><ele>7.0</ele><time>2026-04-23T08:07:52.628Z</time></trkpt><trkpt lat="45.8228542" lon="13.4310354"><ele>7.0</ele><time>2026-04-23T08:07:54.649Z</time></trkpt><trkpt lat="45.8229661" lon="13.4310141"><ele>7.3999999999999995</ele><time>2026-04-23T08:07:56.637Z</time></trkpt><trkpt lat="45.8230302" lon="13.4309927"><ele>7.799999999999999</ele><time>2026-04-23T08:07:57.633Z</time></trkpt><trkpt lat="45.823147" lon="13.430962"><ele>8.2</ele><time>2026-04-23T08:07:59.653Z</time></trkpt><trkpt lat="45.8232551" lon="13.4309153"><ele>8.6</ele><time>2026-04-23T08:08:01.635Z</time></trkpt><trkpt lat="45.8233632" lon="13.4308826"><ele>9.0</ele><time>2026-04-23T08:08:03.614Z</time></trkpt><trkpt lat="45.8234709" lon="13.4308716"><ele>8.8</ele><time>2026-04-23T08:08:05.647Z</time></trkpt><trkpt lat="45.8235771" lon="13.4308797"><ele>8.600000000000001</ele><time>2026-04-23T08:08:07.63Z</time></trkpt><trkpt lat="45.823685" lon="13.4308965"><ele>8.4</ele><time>2026-04-23T08:08:09.622Z</time></trkpt><trkpt lat="45.8237936" lon="13.4309208"><ele>8.200000000000001</ele><time>2026-04-23T08:08:11.649Z</time></trkpt><trkpt lat="45.8238965" lon="13.4309486"><ele>8.0</ele><time>2026-04-23T08:08:13.656Z</time></trkpt><trkpt lat="45.8240003" lon="13.4309679"><ele>8.0</ele><time>2026-04-23T08:08:15.633Z</time></trkpt><trkpt lat="45.824111" lon="13.4309823"><ele>8.0</ele><time>2026-04-23T08:08:17.617Z</time></trkpt><trkpt lat="45.8242204" lon="13.4309796"><ele>8.0</ele><time>2026-04-23T08:08:19.632Z</time></trkpt><trkpt lat="45.8243287" lon="13.430975"><ele>8.0</ele><time>2026-04-23T08:08:21.645Z</time></trkpt><trkpt lat="45.8244353" lon="13.4309637"><ele>8.0</ele><time>2026-04-23T08:08:23.634Z</time></trkpt><trkpt lat="45.8245404" lon="13.4309487"><ele>7.800000000000001</ele><time>2026-04-23T08:08:25.63Z</time></trkpt><trkpt lat="45.8246443" lon="13.4309349"><ele>7.6000000000000005</ele><time>2026-04-23T08:08:27.646Z</time></trkpt><trkpt lat="45.8247476" lon="13.4309245"><ele>7.3999999999999995</ele><time>2026-04-23T08:08:29.629Z</time></trkpt><trkpt lat="45.8248494" lon="13.4309095"><ele>7.199999999999999</ele><time>2026-04-23T08:08:31.626Z</time></trkpt><trkpt lat="45.8249563" lon="13.4308924"><ele>7.0</ele><time>2026-04-23T08:08:33.636Z</time></trkpt><trkpt lat="45.8250668" lon="13.4308792"><ele>7.0</ele><time>2026-04-23T08:08:35.612Z</time></trkpt><trkpt lat="45.8251755" lon="13.4308666"><ele>6.999999999999999</ele><time>2026-04-23T08:08:37.648Z</time></trkpt><trkpt lat="45.8252851" lon="13.4308557"><ele>6.999999999999999</ele><time>2026-04-23T08:08:39.635Z</time></trkpt><trkpt lat="45.8253966" lon="13.4308302"><ele>7.0</ele><time>2026-04-23T08:08:41.632Z</time></trkpt><trkpt lat="45.8255072" lon="13.430815"><ele>7.0</ele><time>2026-04-23T08:08:43.628Z</time></trkpt><trkpt lat="45.8256209" lon="13.4308114"><ele>7.0</ele><time>2026-04-23T08:08:45.641Z</time></trkpt><trkpt lat="45.8257374" lon="13.4308062"><ele>7.0</ele><time>2026-04-23T08:08:47.647Z</time></trkpt><trkpt lat="45.8258564" lon="13.4307976"><ele>7.0</ele><time>2026-04-23T08:08:49.627Z</time></trkpt><trkpt lat="45.8259712" lon="13.4307871"><ele>7.0</ele><time>2026-04-23T08:08:51.63Z</time></trkpt><trkpt lat="45.8260809" lon="13.4307789"><ele>7.8</ele><time>2026-04-23T08:08:53.647Z</time></trkpt><trkpt lat="45.826188" lon="13.4307645"><ele>8.6</ele><time>2026-04-23T08:08:55.626Z</time></trkpt><trkpt lat="45.8263005" lon="13.4307523"><ele>9.4</ele><time>2026-04-23T08:08:57.632Z</time></trkpt><trkpt lat="45.8264075" lon="13.4307387"><ele>10.200000000000001</ele><time>2026-04-23T08:08:59.626Z</time></trkpt><trkpt lat="45.8265152" lon="13.4307274"><ele>11.0</ele><time>2026-04-23T08:09:01.619Z</time></trkpt><trkpt lat="45.8266246" lon="13.4307145"><ele>11.0</ele><time>2026-04-23T08:09:03.62Z</time></trkpt><trkpt lat="45.8267391" lon="13.4307069"><ele>11.0</ele><time>2026-04-23T08:09:05.617Z</time></trkpt><trkpt lat="45.826847" lon="13.4307025"><ele>11.0</ele><time>2026-04-23T08:09:07.641Z</time></trkpt><trkpt lat="45.8269569" lon="13.4306864"><ele>11.0</ele><time>2026-04-23T08:09:09.621Z</time></trkpt><trkpt lat="45.8270591" lon="13.430668"><ele>11.0</ele><time>2026-04-23T08:09:11.642Z</time></trkpt><trkpt lat="45.8271678" lon="13.4306494"><ele>10.600000000000001</ele><time>2026-04-23T08:09:13.632Z</time></trkpt><trkpt lat="45.827278" lon="13.4306317"><ele>10.200000000000001</ele><time>2026-04-23T08:09:15.611Z</time></trkpt><trkpt lat="45.827389" lon="13.4306143"><ele>9.8</ele><time>2026-04-23T08:09:17.628Z</time></trkpt><trkpt lat="45.827488" lon="13.4305882"><ele>9.4</ele><time>2026-04-23T08:09:19.617Z</time></trkpt><trkpt lat="45.8275905" lon="13.4305715"><ele>9.0</ele><time>2026-04-23T08:09:21.633Z</time></trkpt><trkpt lat="45.8276958" lon="13.4306057"><ele>8.6</ele><time>2026-04-23T08:09:23.628Z</time></trkpt><trkpt lat="45.8278048" lon="13.4306445"><ele>8.2</ele><time>2026-04-23T08:09:25.639Z</time></trkpt><trkpt lat="45.8279079" lon="13.4306674"><ele>7.799999999999999</ele><time>2026-04-23T08:09:27.64Z</time></trkpt><trkpt lat="45.8280103" lon="13.4306812"><ele>7.3999999999999995</ele><time>2026-04-23T08:09:29.638Z</time></trkpt><trkpt lat="45.8281205" lon="13.4306843"><ele>7.0</ele><time>2026-04-23T08:09:31.632Z</time></trkpt><trkpt lat="45.8282311" lon="13.4306885"><ele>7.0</ele><time>2026-04-23T08:09:33.641Z</time></trkpt><trkpt lat="45.8283331" lon="13.4306933"><ele>6.999999999999999</ele><time>2026-04-23T08:09:35.635Z</time></trkpt><trkpt lat="45.8284272" lon="13.4306499"><ele>6.999999999999999</ele><time>2026-04-23T08:09:37.64Z</time></trkpt><trkpt lat="45.828476" lon="13.4305505"><ele>7.0</ele><time>2026-04-23T08:09:39.623Z</time></trkpt><trkpt lat="45.8285533" lon="13.4304996"><ele>7.0</ele><time>2026-04-23T08:09:41.629Z</time></trkpt><trkpt lat="45.8286393" lon="13.4304677"><ele>6.3999999999999995</ele><time>2026-04-23T08:09:43.627Z</time></trkpt><trkpt lat="45.8287466" lon="13.4304318"><ele>5.799999999999999</ele><time>2026-04-23T08:09:45.632Z</time></trkpt><trkpt lat="45.82881" lon="13.4304137"><ele>5.2</ele><time>2026-04-23T08:09:46.634Z</time></trkpt><trkpt lat="45.8289216" lon="13.4303808"><ele>4.6</ele><time>2026-04-23T08:09:48.63Z</time></trkpt><trkpt lat="45.8290318" lon="13.4303819"><ele>4.0</ele><time>2026-04-23T08:09:50.621Z</time></trkpt><trkpt lat="45.8291556" lon="13.4304078"><ele>4.0</ele><time>2026-04-23T08:09:52.632Z</time></trkpt><trkpt lat="45.8292645" lon="13.4304343"><ele>4.0</ele><time>2026-04-23T08:09:54.623Z</time></trkpt><trkpt lat="45.8293661" lon="13.4304712"><ele>4.0</ele><time>2026-04-23T08:09:56.626Z</time></trkpt><trkpt lat="45.8294794" lon="13.4305063"><ele>4.0</ele><time>2026-04-23T08:09:58.621Z</time></trkpt><trkpt lat="45.8295886" lon="13.4305526"><ele>4.0</ele><time>2026-04-23T08:10:00.625Z</time></trkpt><trkpt lat="45.8296954" lon="13.43059"><ele>4.800000000000001</ele><time>2026-04-23T08:10:02.633Z</time></trkpt><trkpt lat="45.8298033" lon="13.4306206"><ele>5.6000000000000005</ele><time>2026-04-23T08:10:04.627Z</time></trkpt><trkpt lat="45.829898" lon="13.4306435"><ele>6.4</ele><time>2026-04-23T08:10:06.625Z</time></trkpt><trkpt lat="45.8300102" lon="13.4306755"><ele>7.2</ele><time>2026-04-23T08:10:08.633Z</time></trkpt><trkpt lat="45.8301123" lon="13.4307118"><ele>8.0</ele><time>2026-04-23T08:10:10.627Z</time></trkpt><trkpt lat="45.8302163" lon="13.4307494"><ele>8.0</ele><time>2026-04-23T08:10:12.624Z</time></trkpt><trkpt lat="45.8303212" lon="13.4307912"><ele>8.0</ele><time>2026-04-23T08:10:14.626Z</time></trkpt><trkpt lat="45.83042" lon="13.4308299"><ele>8.0</ele><time>2026-04-23T08:10:16.627Z</time></trkpt><trkpt lat="45.830517" lon="13.4308673"><ele>8.0</ele><time>2026-04-23T08:10:18.636Z</time></trkpt><trkpt lat="45.8306236" lon="13.430916"><ele>8.0</ele><time>2026-04-23T08:10:20.639Z</time></trkpt><trkpt lat="45.8307251" lon="13.4309561"><ele>8.0</ele><time>2026-04-23T08:10:22.629Z</time></trkpt><trkpt lat="45.8308306" lon="13.4309973"><ele>8.0</ele><time>2026-04-23T08:10:24.62Z</time></trkpt><trkpt lat="45.8309445" lon="13.4310424"><ele>8.0</ele><time>2026-04-23T08:10:26.618Z</time></trkpt><trkpt lat="45.8310442" lon="13.4310914"><ele>8.0</ele><time>2026-04-23T08:10:28.634Z</time></trkpt><trkpt lat="45.8311301" lon="13.4311375"><ele>8.0</ele><time>2026-04-23T08:10:30.627Z</time></trkpt><trkpt lat="45.8312405" lon="13.4311918"><ele>7.800000000000001</ele><time>2026-04-23T08:10:32.645Z</time></trkpt><trkpt lat="45.831343" lon="13.4312466"><ele>7.6000000000000005</ele><time>2026-04-23T08:10:34.629Z</time></trkpt><trkpt lat="45.8314404" lon="13.431327"><ele>7.3999999999999995</ele><time>2026-04-23T08:10:36.636Z</time></trkpt><trkpt lat="45.8315307" lon="13.4314101"><ele>7.199999999999999</ele><time>2026-04-23T08:10:38.63Z</time></trkpt><trkpt lat="45.8316111" lon="13.4314777"><ele>7.0</ele><time>2026-04-23T08:10:40.613Z</time></trkpt><trkpt lat="45.8317002" lon="13.4315358"><ele>7.6</ele><time>2026-04-23T08:10:42.627Z</time></trkpt><trkpt lat="45.8318028" lon="13.4315968"><ele>8.2</ele><time>2026-04-23T08:10:44.621Z</time></trkpt><trkpt lat="45.831865" lon="13.4316222"><ele>8.8</ele><time>2026-04-23T08:10:45.62Z</time></trkpt><trkpt lat="45.8319745" lon="13.4316646"><ele>9.4</ele><time>2026-04-23T08:10:47.639Z</time></trkpt><trkpt lat="45.8320796" lon="13.4317026"><ele>10.0</ele><time>2026-04-23T08:10:49.619Z</time></trkpt><trkpt lat="45.8321809" lon="13.4317498"><ele>10.0</ele><time>2026-04-23T08:10:51.636Z</time></trkpt><trkpt lat="45.8322788" lon="13.4318089"><ele>10.0</ele><time>2026-04-23T08:10:53.636Z</time></trkpt><trkpt lat="45.832373" lon="13.4318781"><ele>10.0</ele><time>2026-04-23T08:10:55.626Z</time></trkpt><trkpt lat="45.8324761" lon="13.431925"><ele>10.0</ele><time>2026-04-23T08:10:57.643Z</time></trkpt><trkpt lat="45.8325774" lon="13.4319632"><ele>10.0</ele><time>2026-04-23T08:10:59.636Z</time></trkpt><trkpt lat="45.8326827" lon="13.4320032"><ele>9.8</ele><time>2026-04-23T08:11:01.626Z</time></trkpt><trkpt lat="45.8327946" lon="13.4320403"><ele>9.6</ele><time>2026-04-23T08:11:03.634Z</time></trkpt><trkpt lat="45.8329043" lon="13.4320689"><ele>9.4</ele><time>2026-04-23T08:11:05.623Z</time></trkpt><trkpt lat="45.833014" lon="13.4321009"><ele>9.2</ele><time>2026-04-23T08:11:07.633Z</time></trkpt><trkpt lat="45.8331196" lon="13.4321359"><ele>9.0</ele><time>2026-04-23T08:11:09.638Z</time></trkpt><trkpt lat="45.8332215" lon="13.4321683"><ele>9.0</ele><time>2026-04-23T08:11:11.626Z</time></trkpt><trkpt lat="45.8333278" lon="13.4321963"><ele>9.0</ele><time>2026-04-23T08:11:13.634Z</time></trkpt><trkpt lat="45.8334262" lon="13.4322317"><ele>9.0</ele><time>2026-04-23T08:11:15.615Z</time></trkpt><trkpt lat="45.8335335" lon="13.4322712"><ele>9.0</ele><time>2026-04-23T08:11:17.643Z</time></trkpt><trkpt lat="45.833647" lon="13.4323068"><ele>9.0</ele><time>2026-04-23T08:11:19.631Z</time></trkpt><trkpt lat="45.8337513" lon="13.4323384"><ele>9.0</ele><time>2026-04-23T08:11:21.63Z</time></trkpt><trkpt lat="45.8338554" lon="13.4323733"><ele>9.0</ele><time>2026-04-23T08:11:23.631Z</time></trkpt><trkpt lat="45.8339578" lon="13.4324073"><ele>9.0</ele><time>2026-04-23T08:11:25.612Z</time></trkpt><trkpt lat="45.8340644" lon="13.4324424"><ele>9.0</ele><time>2026-04-23T08:11:27.631Z</time></trkpt><trkpt lat="45.8341691" lon="13.432477"><ele>9.0</ele><time>2026-04-23T08:11:29.624Z</time></trkpt><trkpt lat="45.8342738" lon="13.4325161"><ele>9.0</ele><time>2026-04-23T08:11:31.622Z</time></trkpt><trkpt lat="45.8343839" lon="13.4325524"><ele>9.0</ele><time>2026-04-23T08:11:33.618Z</time></trkpt><trkpt lat="45.8344906" lon="13.4325898"><ele>9.0</ele><time>2026-04-23T08:11:35.635Z</time></trkpt><trkpt lat="45.8345959" lon="13.4326297"><ele>9.0</ele><time>2026-04-23T08:11:37.646Z</time></trkpt><trkpt lat="45.8347031" lon="13.4326677"><ele>9.0</ele><time>2026-04-23T08:11:39.642Z</time></trkpt><trkpt lat="45.8348089" lon="13.4327092"><ele>9.0</ele><time>2026-04-23T08:11:41.627Z</time></trkpt><trkpt lat="45.8349118" lon="13.4327494"><ele>9.0</ele><time>2026-04-23T08:11:43.654Z</time></trkpt><trkpt lat="45.8350233" lon="13.4327974"><ele>9.0</ele><time>2026-04-23T08:11:45.622Z</time></trkpt><trkpt lat="45.8351322" lon="13.4328372"><ele>9.0</ele><time>2026-04-23T08:11:47.643Z</time></trkpt><trkpt lat="45.835241" lon="13.4328752"><ele>9.0</ele><time>2026-04-23T08:11:49.625Z</time></trkpt><trkpt lat="45.8353564" lon="13.4329053"><ele>9.0</ele><time>2026-04-23T08:11:51.624Z</time></trkpt><trkpt lat="45.8354606" lon="13.4329318"><ele>9.0</ele><time>2026-04-23T08:11:53.641Z</time></trkpt><trkpt lat="45.8355731" lon="13.4329586"><ele>9.0</ele><time>2026-04-23T08:11:55.618Z</time></trkpt><trkpt lat="45.8356869" lon="13.4329936"><ele>9.0</ele><time>2026-04-23T08:11:57.623Z</time></trkpt><trkpt lat="45.8358005" lon="13.4330294"><ele>9.0</ele><time>2026-04-23T08:11:59.63Z</time></trkpt><trkpt lat="45.8359102" lon="13.4330704"><ele>9.0</ele><time>2026-04-23T08:12:01.613Z</time></trkpt><trkpt lat="45.8360199" lon="13.4331112"><ele>9.0</ele><time>2026-04-23T08:12:03.635Z</time></trkpt><trkpt lat="45.8361258" lon="13.4331545"><ele>9.0</ele><time>2026-04-23T08:12:05.623Z</time></trkpt><trkpt lat="45.8362306" lon="13.4331956"><ele>9.0</ele><time>2026-04-23T08:12:07.636Z</time></trkpt><trkpt lat="45.8363353" lon="13.4332365"><ele>8.8</ele><time>2026-04-23T08:12:09.639Z</time></trkpt><trkpt lat="45.8364418" lon="13.4332756"><ele>8.600000000000001</ele><time>2026-04-23T08:12:11.631Z</time></trkpt><trkpt lat="45.8365486" lon="13.4333134"><ele>8.4</ele><time>2026-04-23T08:12:13.609Z</time></trkpt><trkpt lat="45.8366489" lon="13.4333433"><ele>8.200000000000001</ele><time>2026-04-23T08:12:15.622Z</time></trkpt><trkpt lat="45.8367552" lon="13.4333541"><ele>8.0</ele><time>2026-04-23T08:12:17.609Z</time></trkpt><trkpt lat="45.8368559" lon="13.4333283"><ele>7.833333333333333</ele><time>2026-04-23T08:12:19.635Z</time></trkpt><trkpt lat="45.8369503" lon="13.4333565"><ele>7.666666666666666</ele><time>2026-04-23T08:12:21.623Z</time></trkpt><trkpt lat="45.8369745" lon="13.4334727"><ele>7.5</ele><time>2026-04-23T08:12:23.679Z</time></trkpt><trkpt lat="45.8369848" lon="13.4335715"><ele>7.333333333333334</ele><time>2026-04-23T08:12:25.623Z</time></trkpt><trkpt lat="45.8370222" lon="13.4336519"><ele>7.166666666666667</ele><time>2026-04-23T08:12:27.616Z</time></trkpt><trkpt lat="45.8371203" lon="13.4337116"><ele>7.0</ele><time>2026-04-23T08:12:29.639Z</time></trkpt><trkpt lat="45.8372385" lon="13.4337614"><ele>7.0</ele><time>2026-04-23T08:12:31.618Z</time></trkpt><trkpt lat="45.8373524" lon="13.433799"><ele>7.0</ele><time>2026-04-23T08:12:33.638Z</time></trkpt><trkpt lat="45.8374662" lon="13.4338398"><ele>7.0</ele><time>2026-04-23T08:12:35.643Z</time></trkpt><trkpt lat="45.8375721" lon="13.4339053"><ele>7.0</ele><time>2026-04-23T08:12:37.623Z</time></trkpt><trkpt lat="45.8376723" lon="13.4339716"><ele>7.0</ele><time>2026-04-23T08:12:39.62Z</time></trkpt><trkpt lat="45.8377725" lon="13.4340365"><ele>6.999999999999999</ele><time>2026-04-23T08:12:41.63Z</time></trkpt><trkpt lat="45.8378726" lon="13.4340975"><ele>6.999999999999999</ele><time>2026-04-23T08:12:43.622Z</time></trkpt><trkpt lat="45.8379718" lon="13.4341699"><ele>7.0</ele><time>2026-04-23T08:12:45.627Z</time></trkpt><trkpt lat="45.8380717" lon="13.434241"><ele>7.0</ele><time>2026-04-23T08:12:47.646Z</time></trkpt><trkpt lat="45.8381712" lon="13.4343114"><ele>7.0</ele><time>2026-04-23T08:12:49.632Z</time></trkpt><trkpt lat="45.8382669" lon="13.4343854"><ele>6.999999999999999</ele><time>2026-04-23T08:12:51.625Z</time></trkpt><trkpt lat="45.8383605" lon="13.4344598"><ele>6.999999999999999</ele><time>2026-04-23T08:12:53.646Z</time></trkpt><trkpt lat="45.8384593" lon="13.4345284"><ele>7.0</ele><time>2026-04-23T08:12:55.625Z</time></trkpt><trkpt lat="45.8385548" lon="13.4345998"><ele>7.0</ele><time>2026-04-23T08:12:57.624Z</time></trkpt><trkpt lat="45.8386481" lon="13.4346716"><ele>7.6</ele><time>2026-04-23T08:12:59.645Z</time></trkpt><trkpt lat="45.8387478" lon="13.4347542"><ele>8.2</ele><time>2026-04-23T08:13:01.642Z</time></trkpt><trkpt lat="45.8388436" lon="13.434832"><ele>8.8</ele><time>2026-04-23T08:13:03.621Z</time></trkpt><trkpt lat="45.8389413" lon="13.4349096"><ele>9.4</ele><time>2026-04-23T08:13:05.64Z</time></trkpt><trkpt lat="45.8390338" lon="13.4349819"><ele>10.0</ele><time>2026-04-23T08:13:07.632Z</time></trkpt><trkpt lat="45.8391251" lon="13.43506"><ele>10.0</ele><time>2026-04-23T08:13:09.624Z</time></trkpt><trkpt lat="45.8392216" lon="13.435135"><ele>10.0</ele><time>2026-04-23T08:13:11.623Z</time></trkpt><trkpt lat="45.8393165" lon="13.4352136"><ele>10.0</ele><time>2026-04-23T08:13:13.629Z</time></trkpt><trkpt lat="45.8394143" lon="13.4352928"><ele>10.0</ele><time>2026-04-23T08:13:15.637Z</time></trkpt><trkpt lat="45.8395095" lon="13.4353718"><ele>10.0</ele><time>2026-04-23T08:13:17.63Z</time></trkpt><trkpt lat="45.8396054" lon="13.4354508"><ele>10.0</ele><time>2026-04-23T08:13:19.629Z</time></trkpt><trkpt lat="45.839698" lon="13.4355338"><ele>10.0</ele><time>2026-04-23T08:13:21.623Z</time></trkpt><trkpt lat="45.8397873" lon="13.4356163"><ele>10.0</ele><time>2026-04-23T08:13:23.638Z</time></trkpt><trkpt lat="45.8398725" lon="13.4357142"><ele>10.0</ele><time>2026-04-23T08:13:25.623Z</time></trkpt><trkpt lat="45.8399475" lon="13.4358301"><ele>10.0</ele><time>2026-04-23T08:13:27.624Z</time></trkpt><trkpt lat="45.8400189" lon="13.4359458"><ele>10.0</ele><time>2026-04-23T08:13:29.631Z</time></trkpt><trkpt lat="45.8400901" lon="13.436059"><ele>10.0</ele><time>2026-04-23T08:13:31.615Z</time></trkpt><trkpt lat="45.8401634" lon="13.4361786"><ele>10.0</ele><time>2026-04-23T08:13:33.643Z</time></trkpt><trkpt lat="45.8402349" lon="13.4362966"><ele>10.0</ele><time>2026-04-23T08:13:35.625Z</time></trkpt><trkpt lat="45.8403042" lon="13.4364167"><ele>10.0</ele><time>2026-04-23T08:13:37.636Z</time></trkpt><trkpt lat="45.8403726" lon="13.4365364"><ele>10.0</ele><time>2026-04-23T08:13:39.64Z</time></trkpt><trkpt lat="45.8404432" lon="13.4366549"><ele>10.0</ele><time>2026-04-23T08:13:41.629Z</time></trkpt><trkpt lat="45.8405124" lon="13.4367737"><ele>10.0</ele><time>2026-04-23T08:13:43.624Z</time></trkpt><trkpt lat="45.8405867" lon="13.4369115"><ele>10.0</ele><time>2026-04-23T08:13:45.623Z</time></trkpt><trkpt lat="45.8406558" lon="13.437045"><ele>10.4</ele><time>2026-04-23T08:13:47.621Z</time></trkpt><trkpt lat="45.8407239" lon="13.4371683"><ele>10.8</ele><time>2026-04-23T08:13:49.629Z</time></trkpt><trkpt lat="45.8407861" lon="13.4372971"><ele>11.2</ele><time>2026-04-23T08:13:51.629Z</time></trkpt><trkpt lat="45.8408527" lon="13.4374213"><ele>11.6</ele><time>2026-04-23T08:13:53.629Z</time></trkpt><trkpt lat="45.8409205" lon="13.4375422"><ele>12.0</ele><time>2026-04-23T08:13:55.638Z</time></trkpt><trkpt lat="45.8409876" lon="13.4376566"><ele>12.0</ele><time>2026-04-23T08:13:57.624Z</time></trkpt><trkpt lat="45.8410474" lon="13.4377516"><ele>12.0</ele><time>2026-04-23T08:13:59.635Z</time></trkpt><trkpt lat="45.8411113" lon="13.4377877"><ele>12.0</ele><time>2026-04-23T08:14:01.624Z</time></trkpt><trkpt lat="45.8411958" lon="13.4378"><ele>12.0</ele><time>2026-04-23T08:14:04.628Z</time></trkpt><trkpt lat="45.8412774" lon="13.4378053"><ele>12.0</ele><time>2026-04-23T08:14:06.622Z</time></trkpt><trkpt lat="45.8413617" lon="13.4378144"><ele>12.0</ele><time>2026-04-23T08:14:08.63Z</time></trkpt><trkpt lat="45.841459" lon="13.4378607"><ele>12.0</ele><time>2026-04-23T08:14:10.635Z</time></trkpt><trkpt lat="45.8415428" lon="13.4379058"><ele>12.0</ele><time>2026-04-23T08:14:12.614Z</time></trkpt><trkpt lat="45.8416202" lon="13.4379732"><ele>12.0</ele><time>2026-04-23T08:14:14.621Z</time></trkpt><trkpt lat="45.8417218" lon="13.4380509"><ele>12.0</ele><time>2026-04-23T08:14:16.643Z</time></trkpt><trkpt lat="45.8418173" lon="13.4381212"><ele>12.0</ele><time>2026-04-23T08:14:18.628Z</time></trkpt><trkpt lat="45.8419155" lon="13.4382005"><ele>11.8</ele><time>2026-04-23T08:14:20.627Z</time></trkpt><trkpt lat="45.842005" lon="13.4382839"><ele>11.6</ele><time>2026-04-23T08:14:22.618Z</time></trkpt><trkpt lat="45.8420934" lon="13.4383627"><ele>11.4</ele><time>2026-04-23T08:14:24.628Z</time></trkpt><trkpt lat="45.8421673" lon="13.4384319"><ele>11.200000000000001</ele><time>2026-04-23T08:14:26.611Z</time></trkpt><trkpt lat="45.8422434" lon="13.4385365"><ele>11.0</ele><time>2026-04-23T08:14:28.627Z</time></trkpt><trkpt lat="45.8423055" lon="13.4386539"><ele>11.0</ele><time>2026-04-23T08:14:30.634Z</time></trkpt><trkpt lat="45.8423726" lon="13.4387911"><ele>11.0</ele><time>2026-04-23T08:14:32.622Z</time></trkpt><trkpt lat="45.8424353" lon="13.4389397"><ele>11.0</ele><time>2026-04-23T08:14:34.618Z</time></trkpt><trkpt lat="45.8424839" lon="13.4390761"><ele>11.0</ele><time>2026-04-23T08:14:36.63Z</time></trkpt><trkpt lat="45.8425254" lon="13.4392075"><ele>11.0</ele><time>2026-04-23T08:14:38.613Z</time></trkpt><trkpt lat="45.8425638" lon="13.4393343"><ele>11.4</ele><time>2026-04-23T08:14:40.626Z</time></trkpt><trkpt lat="45.8426072" lon="13.4394584"><ele>11.8</ele><time>2026-04-23T08:14:42.618Z</time></trkpt><trkpt lat="45.8426661" lon="13.4395815"><ele>12.200000000000001</ele><time>2026-04-23T08:14:44.631Z</time></trkpt><trkpt lat="45.8427226" lon="13.4397022"><ele>12.600000000000001</ele><time>2026-04-23T08:14:46.639Z</time></trkpt><trkpt lat="45.8427712" lon="13.4398266"><ele>13.0</ele><time>2026-04-23T08:14:48.628Z</time></trkpt><trkpt lat="45.8428175" lon="13.4399542"><ele>13.0</ele><time>2026-04-23T08:14:50.616Z</time></trkpt><trkpt lat="45.8428544" lon="13.4400855"><ele>13.0</ele><time>2026-04-23T08:14:52.61Z</time></trkpt><trkpt lat="45.8428864" lon="13.4402067"><ele>13.0</ele><time>2026-04-23T08:14:54.649Z</time></trkpt><trkpt lat="45.8429148" lon="13.4403348"><ele>13.0</ele><time>2026-04-23T08:14:56.627Z</time></trkpt><trkpt lat="45.8429547" lon="13.440467"><ele>13.0</ele><time>2026-04-23T08:14:58.634Z</time></trkpt><trkpt lat="45.843009" lon="13.4405983"><ele>13.2</ele><time>2026-04-23T08:15:00.624Z</time></trkpt><trkpt lat="45.8430825" lon="13.4407218"><ele>13.4</ele><time>2026-04-23T08:15:02.623Z</time></trkpt><trkpt lat="45.8431403" lon="13.4408422"><ele>13.599999999999998</ele><time>2026-04-23T08:15:04.633Z</time></trkpt><trkpt lat="45.8431974" lon="13.4409684"><ele>13.799999999999999</ele><time>2026-04-23T08:15:06.642Z</time></trkpt><trkpt lat="45.8432402" lon="13.4411015"><ele>14.0</ele><time>2026-04-23T08:15:08.625Z</time></trkpt><trkpt lat="45.8432774" lon="13.4412339"><ele>14.2</ele><time>2026-04-23T08:15:10.617Z</time></trkpt><trkpt lat="45.8433188" lon="13.4413667"><ele>14.399999999999999</ele><time>2026-04-23T08:15:12.638Z</time></trkpt><trkpt lat="45.8433776" lon="13.4414945"><ele>14.6</ele><time>2026-04-23T08:15:14.621Z</time></trkpt><trkpt lat="45.8434339" lon="13.4416222"><ele>14.8</ele><time>2026-04-23T08:15:16.623Z</time></trkpt><trkpt lat="45.8434896" lon="13.4417373"><ele>15.0</ele><time>2026-04-23T08:15:18.624Z</time></trkpt><trkpt lat="45.8435402" lon="13.4418183"><ele>14.666666666666666</ele><time>2026-04-23T08:15:20.631Z</time></trkpt><trkpt lat="45.8436007" lon="13.4418825"><ele>14.333333333333332</ele><time>2026-04-23T08:15:24.621Z</time></trkpt><trkpt lat="45.8436621" lon="13.4419259"><ele>14.0</ele><time>2026-04-23T08:15:28.626Z</time></trkpt><trkpt lat="45.8437289" lon="13.4420017"><ele>13.666666666666666</ele><time>2026-04-23T08:15:32.624Z</time></trkpt><trkpt lat="45.8437788" lon="13.4420734"><ele>13.333333333333332</ele><time>2026-04-23T08:15:34.647Z</time></trkpt><trkpt lat="45.8438419" lon="13.4421632"><ele>13.0</ele><time>2026-04-23T08:15:36.625Z</time></trkpt><trkpt lat="45.8439177" lon="13.4422485"><ele>13.0</ele><time>2026-04-23T08:15:38.625Z</time></trkpt><trkpt lat="45.8439812" lon="13.4423512"><ele>13.0</ele><time>2026-04-23T08:15:40.631Z</time></trkpt><trkpt lat="45.8440093" lon="13.4424763"><ele>13.0</ele><time>2026-04-23T08:15:42.643Z</time></trkpt><trkpt lat="45.8440317" lon="13.4426124"><ele>13.0</ele><time>2026-04-23T08:15:44.63Z</time></trkpt><trkpt lat="45.8440571" lon="13.4427335"><ele>13.0</ele><time>2026-04-23T08:15:46.631Z</time></trkpt><trkpt lat="45.8440901" lon="13.4428337"><ele>13.0</ele><time>2026-04-23T08:15:48.619Z</time></trkpt><trkpt lat="45.8441604" lon="13.4429062"><ele>13.0</ele><time>2026-04-23T08:15:50.621Z</time></trkpt><trkpt lat="45.8442611" lon="13.4429588"><ele>13.0</ele><time>2026-04-23T08:15:52.628Z</time></trkpt><trkpt lat="45.8443625" lon="13.4429988"><ele>13.0</ele><time>2026-04-23T08:15:54.634Z</time></trkpt><trkpt lat="45.8444536" lon="13.4430569"><ele>13.0</ele><time>2026-04-23T08:15:56.606Z</time></trkpt><trkpt lat="45.8445201" lon="13.4431597"><ele>12.4</ele><time>2026-04-23T08:15:58.621Z</time></trkpt><trkpt lat="45.8445548" lon="13.4433157"><ele>11.8</ele><time>2026-04-23T08:16:00.624Z</time></trkpt><trkpt lat="45.844604" lon="13.4434111"><ele>11.2</ele><time>2026-04-23T08:16:02.651Z</time></trkpt><trkpt lat="45.8446556" lon="13.4434786"><ele>10.6</ele><time>2026-04-23T08:16:04.619Z</time></trkpt><trkpt lat="45.8447168" lon="13.4436013"><ele>10.0</ele><time>2026-04-23T08:16:06.642Z</time></trkpt><trkpt lat="45.8447808" lon="13.443708"><ele>10.4</ele><time>2026-04-23T08:16:08.652Z</time></trkpt><trkpt lat="45.8448499" lon="13.4438125"><ele>10.8</ele><time>2026-04-23T08:16:10.622Z</time></trkpt><trkpt lat="45.8449276" lon="13.443941"><ele>11.2</ele><time>2026-04-23T08:16:12.642Z</time></trkpt><trkpt lat="45.84499" lon="13.4440698"><ele>11.6</ele><time>2026-04-23T08:16:14.628Z</time></trkpt><trkpt lat="45.8450584" lon="13.4441872"><ele>12.0</ele><time>2026-04-23T08:16:16.629Z</time></trkpt><trkpt lat="45.8451321" lon="13.4442844"><ele>11.6</ele><time>2026-04-23T08:16:18.634Z</time></trkpt><trkpt lat="45.8452028" lon="13.4443757"><ele>11.2</ele><time>2026-04-23T08:16:20.626Z</time></trkpt><trkpt lat="45.8452823" lon="13.4444619"><ele>10.8</ele><time>2026-04-23T08:16:22.631Z</time></trkpt><trkpt lat="45.8453633" lon="13.444533"><ele>10.4</ele><time>2026-04-23T08:16:24.63Z</time></trkpt><trkpt lat="45.8454297" lon="13.4446166"><ele>10.0</ele><time>2026-04-23T08:16:26.62Z</time></trkpt><trkpt lat="45.8454637" lon="13.4447494"><ele>10.0</ele><time>2026-04-23T08:16:28.626Z</time></trkpt><trkpt lat="45.8454792" lon="13.4448797"><ele>10.0</ele><time>2026-04-23T08:16:30.628Z</time></trkpt><trkpt lat="45.8454994" lon="13.44501"><ele>10.0</ele><time>2026-04-23T08:16:32.633Z</time></trkpt><trkpt lat="45.845527" lon="13.4451328"><ele>10.0</ele><time>2026-04-23T08:16:34.626Z</time></trkpt><trkpt lat="45.8455735" lon="13.4452349"><ele>10.0</ele><time>2026-04-23T08:16:36.648Z</time></trkpt><trkpt lat="45.8456314" lon="13.4453328"><ele>10.0</ele><time>2026-04-23T08:16:38.643Z</time></trkpt><trkpt lat="45.845707" lon="13.445452"><ele>10.0</ele><time>2026-04-23T08:16:40.623Z</time></trkpt><trkpt lat="45.8457753" lon="13.4455719"><ele>10.0</ele><time>2026-04-23T08:16:42.622Z</time></trkpt><trkpt lat="45.8458448" lon="13.4457049"><ele>10.0</ele><time>2026-04-23T08:16:44.64Z</time></trkpt><trkpt lat="45.8459085" lon="13.4458278"><ele>10.0</ele><time>2026-04-23T08:16:46.641Z</time></trkpt><trkpt lat="45.8459667" lon="13.4459495"><ele>10.0</ele><time>2026-04-23T08:16:48.634Z</time></trkpt><trkpt lat="45.8460216" lon="13.4460592"><ele>10.0</ele><time>2026-04-23T08:16:50.618Z</time></trkpt><trkpt lat="45.8460928" lon="13.4461883"><ele>10.0</ele><time>2026-04-23T08:16:52.663Z</time></trkpt><trkpt lat="45.8461446" lon="13.4463192"><ele>10.0</ele><time>2026-04-23T08:16:54.626Z</time></trkpt><trkpt lat="45.8462087" lon="13.4464362"><ele>10.0</ele><time>2026-04-23T08:16:56.625Z</time></trkpt><trkpt lat="45.8462711" lon="13.4465568"><ele>10.0</ele><time>2026-04-23T08:16:58.615Z</time></trkpt><trkpt lat="45.8463413" lon="13.4466875"><ele>10.0</ele><time>2026-04-23T08:17:00.636Z</time></trkpt><trkpt lat="45.8464059" lon="13.4468177"><ele>10.0</ele><time>2026-04-23T08:17:02.624Z</time></trkpt><trkpt lat="45.8464724" lon="13.4469451"><ele>10.0</ele><time>2026-04-23T08:17:04.625Z</time></trkpt><trkpt lat="45.8465336" lon="13.4470731"><ele>10.0</ele><time>2026-04-23T08:17:06.626Z</time></trkpt><trkpt lat="45.8465921" lon="13.4471991"><ele>10.0</ele><time>2026-04-23T08:17:08.615Z</time></trkpt><trkpt lat="45.846662" lon="13.4473242"><ele>10.2</ele><time>2026-04-23T08:17:10.628Z</time></trkpt><trkpt lat="45.8467215" lon="13.447448"><ele>10.4</ele><time>2026-04-23T08:17:12.624Z</time></trkpt><trkpt lat="45.8467825" lon="13.4475729"><ele>10.600000000000001</ele><time>2026-04-23T08:17:14.628Z</time></trkpt><trkpt lat="45.8468487" lon="13.4477059"><ele>10.8</ele><time>2026-04-23T08:17:16.614Z</time></trkpt><trkpt lat="45.8469074" lon="13.4478204"><ele>11.0</ele><time>2026-04-23T08:17:18.625Z</time></trkpt><trkpt lat="45.8469662" lon="13.4479388"><ele>10.8</ele><time>2026-04-23T08:17:20.616Z</time></trkpt><trkpt lat="45.8470341" lon="13.448062"><ele>10.600000000000001</ele><time>2026-04-23T08:17:22.623Z</time></trkpt><trkpt lat="45.8471006" lon="13.4481848"><ele>10.4</ele><time>2026-04-23T08:17:24.614Z</time></trkpt><trkpt lat="45.8471623" lon="13.448301"><ele>10.2</ele><time>2026-04-23T08:17:26.631Z</time></trkpt><trkpt lat="45.8472236" lon="13.448422"><ele>10.0</ele><time>2026-04-23T08:17:28.626Z</time></trkpt><trkpt lat="45.8472862" lon="13.4485464"><ele>10.0</ele><time>2026-04-23T08:17:30.624Z</time></trkpt><trkpt lat="45.8473524" lon="13.448659"><ele>10.0</ele><time>2026-04-23T08:17:32.633Z</time></trkpt><trkpt lat="45.8474352" lon="13.4487702"><ele>10.0</ele><time>2026-04-23T08:17:34.613Z</time></trkpt><trkpt lat="45.8475179" lon="13.4488788"><ele>10.0</ele><time>2026-04-23T08:17:36.632Z</time></trkpt><trkpt lat="45.8475884" lon="13.4490088"><ele>10.0</ele><time>2026-04-23T08:17:38.627Z</time></trkpt><trkpt lat="45.8476506" lon="13.449129"><ele>10.0</ele><time>2026-04-23T08:17:40.619Z</time></trkpt><trkpt lat="45.8477045" lon="13.4492627"><ele>10.0</ele><time>2026-04-23T08:17:42.624Z</time></trkpt><trkpt lat="45.8477735" lon="13.4493836"><ele>10.0</ele><time>2026-04-23T08:17:44.636Z</time></trkpt><trkpt lat="45.8478668" lon="13.4494757"><ele>10.0</ele><time>2026-04-23T08:17:46.621Z</time></trkpt><trkpt lat="45.8479274" lon="13.4496012"><ele>10.0</ele><time>2026-04-23T08:17:48.616Z</time></trkpt><trkpt lat="45.8479921" lon="13.4496979"><ele>10.2</ele><time>2026-04-23T08:17:50.619Z</time></trkpt><trkpt lat="45.8480758" lon="13.4497878"><ele>10.4</ele><time>2026-04-23T08:17:52.622Z</time></trkpt><trkpt lat="45.848152" lon="13.4498856"><ele>10.600000000000001</ele><time>2026-04-23T08:17:54.636Z</time></trkpt><trkpt lat="45.848231" lon="13.4499876"><ele>10.8</ele><time>2026-04-23T08:17:56.632Z</time></trkpt><trkpt lat="45.8483145" lon="13.450099"><ele>11.0</ele><time>2026-04-23T08:17:58.623Z</time></trkpt><trkpt lat="45.8483978" lon="13.4502048"><ele>11.0</ele><time>2026-04-23T08:18:00.628Z</time></trkpt><trkpt lat="45.8484816" lon="13.4502944"><ele>11.0</ele><time>2026-04-23T08:18:02.617Z</time></trkpt><trkpt lat="45.848574" lon="13.4503948"><ele>11.0</ele><time>2026-04-23T08:18:04.621Z</time></trkpt><trkpt lat="45.8486619" lon="13.4504936"><ele>11.0</ele><time>2026-04-23T08:18:06.627Z</time></trkpt><trkpt lat="45.8487412" lon="13.4505737"><ele>11.0</ele><time>2026-04-23T08:18:08.62Z</time></trkpt><trkpt lat="45.8488245" lon="13.4506464"><ele>11.200000000000001</ele><time>2026-04-23T08:18:10.619Z</time></trkpt><trkpt lat="45.8489163" lon="13.4507169"><ele>11.4</ele><time>2026-04-23T08:18:12.63Z</time></trkpt><trkpt lat="45.8490062" lon="13.4507708"><ele>11.6</ele><time>2026-04-23T08:18:14.614Z</time></trkpt><trkpt lat="45.8490969" lon="13.4508562"><ele>11.8</ele><time>2026-04-23T08:18:16.616Z</time></trkpt><trkpt lat="45.8491804" lon="13.4509416"><ele>12.0</ele><time>2026-04-23T08:18:18.628Z</time></trkpt><trkpt lat="45.8492746" lon="13.4510218"><ele>12.0</ele><time>2026-04-23T08:18:20.619Z</time></trkpt><trkpt lat="45.8493711" lon="13.4511164"><ele>12.0</ele><time>2026-04-23T08:18:22.633Z</time></trkpt><trkpt lat="45.8494452" lon="13.4512416"><ele>12.0</ele><time>2026-04-23T08:18:24.639Z</time></trkpt><trkpt lat="45.8495257" lon="13.4513528"><ele>12.0</ele><time>2026-04-23T08:18:26.63Z</time></trkpt><trkpt lat="45.8496017" lon="13.45147"><ele>11.6</ele><time>2026-04-23T08:18:28.635Z</time></trkpt><trkpt lat="45.8496711" lon="13.4515884"><ele>11.2</ele><time>2026-04-23T08:18:30.623Z</time></trkpt><trkpt lat="45.8497409" lon="13.4517169"><ele>10.8</ele><time>2026-04-23T08:18:32.623Z</time></trkpt><trkpt lat="45.8498154" lon="13.4518361"><ele>10.4</ele><time>2026-04-23T08:18:34.614Z</time></trkpt><trkpt lat="45.8498919" lon="13.4519546"><ele>10.0</ele><time>2026-04-23T08:18:36.626Z</time></trkpt><trkpt lat="45.849952" lon="13.4520612"><ele>10.2</ele><time>2026-04-23T08:18:38.616Z</time></trkpt><trkpt lat="45.8499877" lon="13.4521896"><ele>10.4</ele><time>2026-04-23T08:18:40.603Z</time></trkpt><trkpt lat="45.8500227" lon="13.4523166"><ele>10.600000000000001</ele><time>2026-04-23T08:18:42.629Z</time></trkpt><trkpt lat="45.8500632" lon="13.4524732"><ele>10.8</ele><time>2026-04-23T08:18:44.637Z</time></trkpt><trkpt lat="45.8501161" lon="13.4526309"><ele>11.0</ele><time>2026-04-23T08:18:46.633Z</time></trkpt><trkpt lat="45.8501583" lon="13.4527777"><ele>11.0</ele><time>2026-04-23T08:18:48.627Z</time></trkpt><trkpt lat="45.8502025" lon="13.4529065"><ele>11.0</ele><time>2026-04-23T08:18:50.621Z</time></trkpt><trkpt lat="45.8502486" lon="13.4530668"><ele>11.0</ele><time>2026-04-23T08:18:52.624Z</time></trkpt><trkpt lat="45.8502992" lon="13.45323"><ele>11.0</ele><time>2026-04-23T08:18:54.625Z</time></trkpt><trkpt lat="45.8503472" lon="13.453372"><ele>11.4</ele><time>2026-04-23T08:18:56.622Z</time></trkpt><trkpt lat="45.8504181" lon="13.4534866"><ele>11.8</ele><time>2026-04-23T08:18:58.625Z</time></trkpt><trkpt lat="45.8505032" lon="13.4535914"><ele>12.200000000000001</ele><time>2026-04-23T08:19:00.62Z</time></trkpt><trkpt lat="45.8505932" lon="13.4536865"><ele>12.600000000000001</ele><time>2026-04-23T08:19:02.642Z</time></trkpt><trkpt lat="45.8506809" lon="13.4537727"><ele>13.0</ele><time>2026-04-23T08:19:04.63Z</time></trkpt><trkpt lat="45.8507598" lon="13.4538491"><ele>13.0</ele><time>2026-04-23T08:19:06.629Z</time></trkpt><trkpt lat="45.8508456" lon="13.453942"><ele>13.0</ele><time>2026-04-23T08:19:08.637Z</time></trkpt><trkpt lat="45.8509279" lon="13.4540336"><ele>13.0</ele><time>2026-04-23T08:19:10.611Z</time></trkpt><trkpt lat="45.8510154" lon="13.454119"><ele>13.0</ele><time>2026-04-23T08:19:12.619Z</time></trkpt><trkpt lat="45.8511156" lon="13.4542057"><ele>13.0</ele><time>2026-04-23T08:19:14.627Z</time></trkpt><trkpt lat="45.8512199" lon="13.4542874"><ele>13.0</ele><time>2026-04-23T08:19:16.624Z</time></trkpt><trkpt lat="45.8513104" lon="13.4543708"><ele>13.0</ele><time>2026-04-23T08:19:18.623Z</time></trkpt><trkpt lat="45.8513987" lon="13.4544586"><ele>13.0</ele><time>2026-04-23T08:19:20.637Z</time></trkpt><trkpt lat="45.8514837" lon="13.4545458"><ele>13.0</ele><time>2026-04-23T08:19:22.633Z</time></trkpt><trkpt lat="45.8515668" lon="13.4546381"><ele>13.0</ele><time>2026-04-23T08:19:24.64Z</time></trkpt><trkpt lat="45.8516386" lon="13.4547202"><ele>13.2</ele><time>2026-04-23T08:19:26.621Z</time></trkpt><trkpt lat="45.8517164" lon="13.4547811"><ele>13.4</ele><time>2026-04-23T08:19:28.645Z</time></trkpt><trkpt lat="45.8518051" lon="13.4548322"><ele>13.599999999999998</ele><time>2026-04-23T08:19:30.614Z</time></trkpt><trkpt lat="45.8519082" lon="13.4548736"><ele>13.799999999999999</ele><time>2026-04-23T08:19:32.644Z</time></trkpt><trkpt lat="45.852004" lon="13.4549334"><ele>14.0</ele><time>2026-04-23T08:19:34.614Z</time></trkpt><trkpt lat="45.8520624" lon="13.4550436"><ele>14.0</ele><time>2026-04-23T08:19:36.646Z</time></trkpt><trkpt lat="45.8520258" lon="13.4551701"><ele>13.999999999999998</ele><time>2026-04-23T08:19:38.637Z</time></trkpt><trkpt lat="45.8519392" lon="13.4552485"><ele>13.999999999999998</ele><time>2026-04-23T08:19:40.622Z</time></trkpt><trkpt lat="45.8518596" lon="13.4553393"><ele>14.0</ele><time>2026-04-23T08:19:42.634Z</time></trkpt><trkpt lat="45.8517817" lon="13.4554337"><ele>14.0</ele><time>2026-04-23T08:19:44.643Z</time></trkpt><trkpt lat="45.8517032" lon="13.4555226"><ele>14.2</ele><time>2026-04-23T08:19:46.631Z</time></trkpt><trkpt lat="45.8516199" lon="13.4556118"><ele>14.399999999999999</ele><time>2026-04-23T08:19:48.638Z</time></trkpt><trkpt lat="45.8515424" lon="13.4556875"><ele>14.6</ele><time>2026-04-23T08:19:50.641Z</time></trkpt><trkpt lat="45.8514558" lon="13.4557627"><ele>14.8</ele><time>2026-04-23T08:19:52.634Z</time></trkpt><trkpt lat="45.8513712" lon="13.4558595"><ele>15.0</ele><time>2026-04-23T08:19:54.634Z</time></trkpt><trkpt lat="45.8512946" lon="13.45596"><ele>15.0</ele><time>2026-04-23T08:19:56.622Z</time></trkpt><trkpt lat="45.8512141" lon="13.4560431"><ele>15.0</ele><time>2026-04-23T08:19:58.623Z</time></trkpt><trkpt lat="45.8511287" lon="13.4561365"><ele>15.0</ele><time>2026-04-23T08:20:00.641Z</time></trkpt><trkpt lat="45.8510349" lon="13.456224"><ele>15.0</ele><time>2026-04-23T08:20:02.632Z</time></trkpt><trkpt lat="45.8509646" lon="13.456341"><ele>15.0</ele><time>2026-04-23T08:20:04.633Z</time></trkpt><trkpt lat="45.8509256" lon="13.4564542"><ele>15.166666666666666</ele><time>2026-04-23T08:20:06.63Z</time></trkpt><trkpt lat="45.850916" lon="13.456583"><ele>15.333333333333332</ele><time>2026-04-23T08:20:08.658Z</time></trkpt><trkpt lat="45.8509053" lon="13.4567235"><ele>15.5</ele><time>2026-04-23T08:20:10.624Z</time></trkpt><trkpt lat="45.8508998" lon="13.4568428"><ele>15.666666666666666</ele><time>2026-04-23T08:20:12.634Z</time></trkpt><trkpt lat="45.8509127" lon="13.4569645"><ele>15.833333333333332</ele><time>2026-04-23T08:20:14.612Z</time></trkpt><trkpt lat="45.8509374" lon="13.457082"><ele>16.0</ele><time>2026-04-23T08:20:16.641Z</time></trkpt><trkpt lat="45.8509638" lon="13.4572089"><ele>16.2</ele><time>2026-04-23T08:20:18.618Z</time></trkpt><trkpt lat="45.8509931" lon="13.457334"><ele>16.400000000000002</ele><time>2026-04-23T08:20:20.637Z</time></trkpt><trkpt lat="45.8510009" lon="13.4574671"><ele>16.6</ele><time>2026-04-23T08:20:22.631Z</time></trkpt><trkpt lat="45.8510163" lon="13.4576038"><ele>16.8</ele><time>2026-04-23T08:20:24.627Z</time></trkpt><trkpt lat="45.8510282" lon="13.4577304"><ele>17.0</ele><time>2026-04-23T08:20:26.626Z</time></trkpt><trkpt lat="45.8510404" lon="13.4578559"><ele>17.0</ele><time>2026-04-23T08:20:28.635Z</time></trkpt><trkpt lat="45.8510527" lon="13.457953"><ele>17.0</ele><time>2026-04-23T08:20:30.638Z</time></trkpt><trkpt lat="45.8510633" lon="13.4580548"><ele>17.0</ele><time>2026-04-23T08:20:32.656Z</time></trkpt><trkpt lat="45.8510781" lon="13.4581855"><ele>17.0</ele><time>2026-04-23T08:20:34.638Z</time></trkpt><trkpt lat="45.8510949" lon="13.4583246"><ele>17.0</ele><time>2026-04-23T08:20:36.626Z</time></trkpt><trkpt lat="45.8511017" lon="13.4584714"><ele>17.0</ele><time>2026-04-23T08:20:38.627Z</time></trkpt><trkpt lat="45.851108" lon="13.4586157"><ele>17.0</ele><time>2026-04-23T08:20:40.633Z</time></trkpt><trkpt lat="45.8511235" lon="13.4587555"><ele>17.0</ele><time>2026-04-23T08:20:42.625Z</time></trkpt><trkpt lat="45.8511496" lon="13.4588972"><ele>17.0</ele><time>2026-04-23T08:20:44.625Z</time></trkpt><trkpt lat="45.8511786" lon="13.4590324"><ele>17.0</ele><time>2026-04-23T08:20:46.622Z</time></trkpt><trkpt lat="45.8512171" lon="13.4591283"><ele>17.0</ele><time>2026-04-23T08:20:48.627Z</time></trkpt><trkpt lat="45.8512864" lon="13.4590868"><ele>17.2</ele><time>2026-04-23T08:20:50.623Z</time></trkpt><trkpt lat="45.8513422" lon="13.4589864"><ele>17.4</ele><time>2026-04-23T08:20:52.632Z</time></trkpt><trkpt lat="45.8514184" lon="13.4589037"><ele>17.6</ele><time>2026-04-23T08:20:54.64Z</time></trkpt><trkpt lat="45.8515037" lon="13.4588448"><ele>17.8</ele><time>2026-04-23T08:20:56.628Z</time></trkpt><trkpt lat="45.8515977" lon="13.4588213"><ele>18.0</ele><time>2026-04-23T08:20:58.618Z</time></trkpt><trkpt lat="45.8516942" lon="13.4588326"><ele>17.666666666666668</ele><time>2026-04-23T08:21:00.633Z</time></trkpt><trkpt lat="45.8517931" lon="13.4589091"><ele>17.333333333333332</ele><time>2026-04-23T08:21:02.626Z</time></trkpt><trkpt lat="45.8518459" lon="13.4589617"><ele>17.0</ele><time>2026-04-23T08:21:03.644Z</time></trkpt><trkpt lat="45.8518996" lon="13.4590133"><ele>16.666666666666664</ele><time>2026-04-23T08:21:04.629Z</time></trkpt><trkpt lat="45.8519549" lon="13.4590646"><ele>16.333333333333332</ele><time>2026-04-23T08:21:05.635Z</time></trkpt><trkpt lat="45.852056" lon="13.4591627"><ele>16.0</ele><time>2026-04-23T08:21:07.621Z</time></trkpt><trkpt lat="45.8521139" lon="13.4592155"><ele>15.999999999999998</ele><time>2026-04-23T08:21:08.615Z</time></trkpt><trkpt lat="45.852168" lon="13.4592637"><ele>16.0</ele><time>2026-04-23T08:21:09.63Z</time></trkpt><trkpt lat="45.8522196" lon="13.459317"><ele>16.0</ele><time>2026-04-23T08:21:10.63Z</time></trkpt><trkpt lat="45.8522806" lon="13.4594142"><ele>16.0</ele><time>2026-04-23T08:21:12.613Z</time></trkpt><trkpt lat="45.8523145" lon="13.4595582"><ele>15.999999999999998</ele><time>2026-04-23T08:21:14.625Z</time></trkpt><trkpt lat="45.8522844" lon="13.4597"><ele>16.0</ele><time>2026-04-23T08:21:16.641Z</time></trkpt><trkpt lat="45.8522494" lon="13.4598218"><ele>16.400000000000002</ele><time>2026-04-23T08:21:18.635Z</time></trkpt><trkpt lat="45.852216" lon="13.4599464"><ele>16.8</ele><time>2026-04-23T08:21:20.624Z</time></trkpt><trkpt lat="45.8521853" lon="13.4600591"><ele>17.200000000000003</ele><time>2026-04-23T08:21:22.623Z</time></trkpt><trkpt lat="45.8521585" lon="13.460174"><ele>17.6</ele><time>2026-04-23T08:21:24.627Z</time></trkpt><trkpt lat="45.8521206" lon="13.4603052"><ele>18.0</ele><time>2026-04-23T08:21:26.637Z</time></trkpt><trkpt lat="45.8520836" lon="13.460444"><ele>17.6</ele><time>2026-04-23T08:21:28.625Z</time></trkpt><trkpt lat="45.8520483" lon="13.4605858"><ele>17.200000000000003</ele><time>2026-04-23T08:21:30.637Z</time></trkpt><trkpt lat="45.8520137" lon="13.4607354"><ele>16.8</ele><time>2026-04-23T08:21:32.605Z</time></trkpt><trkpt lat="45.8519705" lon="13.4608803"><ele>16.400000000000002</ele><time>2026-04-23T08:21:34.602Z</time></trkpt><trkpt lat="45.8519251" lon="13.4610158"><ele>16.0</ele><time>2026-04-23T08:21:36.603Z</time></trkpt><trkpt lat="45.8518804" lon="13.4611575"><ele>16.0</ele><time>2026-04-23T08:21:38.612Z</time></trkpt><trkpt lat="45.8518354" lon="13.4613"><ele>16.0</ele><time>2026-04-23T08:21:40.611Z</time></trkpt><trkpt lat="45.8517862" lon="13.4614382"><ele>16.0</ele><time>2026-04-23T08:21:42.613Z</time></trkpt><trkpt lat="45.8517399" lon="13.4615785"><ele>16.0</ele><time>2026-04-23T08:21:44.627Z</time></trkpt><trkpt lat="45.8516943" lon="13.461724"><ele>16.0</ele><time>2026-04-23T08:21:46.637Z</time></trkpt><trkpt lat="45.8516456" lon="13.4618628"><ele>16.2</ele><time>2026-04-23T08:21:48.629Z</time></trkpt><trkpt lat="45.8515984" lon="13.4620061"><ele>16.400000000000002</ele><time>2026-04-23T08:21:50.637Z</time></trkpt><trkpt lat="45.8515488" lon="13.4621457"><ele>16.6</ele><time>2026-04-23T08:21:52.626Z</time></trkpt><trkpt lat="45.8515009" lon="13.4622853"><ele>16.8</ele><time>2026-04-23T08:21:54.625Z</time></trkpt><trkpt lat="45.8514588" lon="13.4624211"><ele>17.0</ele><time>2026-04-23T08:21:56.645Z</time></trkpt><trkpt lat="45.8514273" lon="13.4625656"><ele>16.8</ele><time>2026-04-23T08:21:58.632Z</time></trkpt><trkpt lat="45.8514194" lon="13.4627143"><ele>16.6</ele><time>2026-04-23T08:22:00.63Z</time></trkpt><trkpt lat="45.8514366" lon="13.4628618"><ele>16.400000000000002</ele><time>2026-04-23T08:22:02.634Z</time></trkpt><trkpt lat="45.8515007" lon="13.4629847"><ele>16.2</ele><time>2026-04-23T08:22:04.635Z</time></trkpt><trkpt lat="45.8515727" lon="13.4631093"><ele>16.0</ele><time>2026-04-23T08:22:06.641Z</time></trkpt><trkpt lat="45.8516455" lon="13.4632332"><ele>16.0</ele><time>2026-04-23T08:22:08.623Z</time></trkpt><trkpt lat="45.8517131" lon="13.4633548"><ele>16.0</ele><time>2026-04-23T08:22:10.616Z</time></trkpt><trkpt lat="45.8517787" lon="13.4634742"><ele>16.0</ele><time>2026-04-23T08:22:12.615Z</time></trkpt><trkpt lat="45.8518392" lon="13.4635976"><ele>16.0</ele><time>2026-04-23T08:22:14.616Z</time></trkpt><trkpt lat="45.8518964" lon="13.4637225"><ele>16.0</ele><time>2026-04-23T08:22:16.645Z</time></trkpt><trkpt lat="45.8519535" lon="13.4638481"><ele>16.0</ele><time>2026-04-23T08:22:18.633Z</time></trkpt><trkpt lat="45.8520116" lon="13.4639723"><ele>16.0</ele><time>2026-04-23T08:22:20.622Z</time></trkpt><trkpt lat="45.8520698" lon="13.4640958"><ele>16.0</ele><time>2026-04-23T08:22:22.63Z</time></trkpt><trkpt lat="45.8521265" lon="13.4642227"><ele>16.0</ele><time>2026-04-23T08:22:24.632Z</time></trkpt><trkpt lat="45.8521842" lon="13.4643508"><ele>16.0</ele><time>2026-04-23T08:22:26.634Z</time></trkpt><trkpt lat="45.8522452" lon="13.4644784"><ele>16.0</ele><time>2026-04-23T08:22:28.629Z</time></trkpt><trkpt lat="45.8523037" lon="13.4646008"><ele>16.0</ele><time>2026-04-23T08:22:30.64Z</time></trkpt><trkpt lat="45.8523758" lon="13.4647222"><ele>16.0</ele><time>2026-04-23T08:22:32.646Z</time></trkpt><trkpt lat="45.8524425" lon="13.4648391"><ele>16.0</ele><time>2026-04-23T08:22:34.627Z</time></trkpt><trkpt lat="45.852513" lon="13.4649521"><ele>16.0</ele><time>2026-04-23T08:22:36.617Z</time></trkpt><trkpt lat="45.8525818" lon="13.4650656"><ele>16.0</ele><time>2026-04-23T08:22:38.628Z</time></trkpt><trkpt lat="45.8526541" lon="13.4651755"><ele>16.0</ele><time>2026-04-23T08:22:40.648Z</time></trkpt><trkpt lat="45.8527244" lon="13.4652863"><ele>16.0</ele><time>2026-04-23T08:22:42.628Z</time></trkpt><trkpt lat="45.8527955" lon="13.465402"><ele>16.0</ele><time>2026-04-23T08:22:44.625Z</time></trkpt><trkpt lat="45.8528683" lon="13.4655148"><ele>16.0</ele><time>2026-04-23T08:22:46.618Z</time></trkpt><trkpt lat="45.852942" lon="13.465624"><ele>16.0</ele><time>2026-04-23T08:22:48.637Z</time></trkpt><trkpt lat="45.8530164" lon="13.4657298"><ele>16.0</ele><time>2026-04-23T08:22:50.64Z</time></trkpt><trkpt lat="45.8530946" lon="13.4658354"><ele>16.0</ele><time>2026-04-23T08:22:52.637Z</time></trkpt><trkpt lat="45.8531748" lon="13.4659345"><ele>16.0</ele><time>2026-04-23T08:22:54.631Z</time></trkpt><trkpt lat="45.8532541" lon="13.4660333"><ele>16.0</ele><time>2026-04-23T08:22:56.642Z</time></trkpt><trkpt lat="45.8533323" lon="13.4661287"><ele>16.0</ele><time>2026-04-23T08:22:58.627Z</time></trkpt><trkpt lat="45.8534147" lon="13.466227"><ele>16.0</ele><time>2026-04-23T08:23:00.637Z</time></trkpt><trkpt lat="45.8534986" lon="13.4663229"><ele>16.0</ele><time>2026-04-23T08:23:02.626Z</time></trkpt><trkpt lat="45.8535804" lon="13.4664139"><ele>16.0</ele><time>2026-04-23T08:23:04.633Z</time></trkpt><trkpt lat="45.8536625" lon="13.466502"><ele>16.0</ele><time>2026-04-23T08:23:06.646Z</time></trkpt><trkpt lat="45.8537431" lon="13.466593"><ele>16.8</ele><time>2026-04-23T08:23:08.615Z</time></trkpt><trkpt lat="45.8538256" lon="13.4666828"><ele>17.6</ele><time>2026-04-23T08:23:10.626Z</time></trkpt><trkpt lat="45.8539108" lon="13.466774"><ele>18.4</ele><time>2026-04-23T08:23:12.637Z</time></trkpt><trkpt lat="45.853994" lon="13.4668698"><ele>19.2</ele><time>2026-04-23T08:23:14.63Z</time></trkpt><trkpt lat="45.8540777" lon="13.4669648"><ele>20.0</ele><time>2026-04-23T08:23:16.623Z</time></trkpt><trkpt lat="45.8541608" lon="13.4670596"><ele>19.4</ele><time>2026-04-23T08:23:18.627Z</time></trkpt><trkpt lat="45.854245" lon="13.4671541"><ele>18.8</ele><time>2026-04-23T08:23:20.639Z</time></trkpt><trkpt lat="45.8543292" lon="13.46725"><ele>18.2</ele><time>2026-04-23T08:23:22.631Z</time></trkpt><trkpt lat="45.8544138" lon="13.4673437"><ele>17.6</ele><time>2026-04-23T08:23:24.622Z</time></trkpt><trkpt lat="45.8544975" lon="13.4674399"><ele>17.0</ele><time>2026-04-23T08:23:26.626Z</time></trkpt><trkpt lat="45.8545837" lon="13.4675312"><ele>17.0</ele><time>2026-04-23T08:23:28.637Z</time></trkpt><trkpt lat="45.8546689" lon="13.467626"><ele>17.0</ele><time>2026-04-23T08:23:30.636Z</time></trkpt><trkpt lat="45.8547515" lon="13.4677228"><ele>17.0</ele><time>2026-04-23T08:23:32.635Z</time></trkpt><trkpt lat="45.8548332" lon="13.467824"><ele>17.0</ele><time>2026-04-23T08:23:34.615Z</time></trkpt><trkpt lat="45.8549173" lon="13.467924"><ele>17.0</ele><time>2026-04-23T08:23:36.624Z</time></trkpt><trkpt lat="45.855004" lon="13.4680262"><ele>17.2</ele><time>2026-04-23T08:23:38.645Z</time></trkpt><trkpt lat="45.8550866" lon="13.4681291"><ele>17.4</ele><time>2026-04-23T08:23:40.64Z</time></trkpt><trkpt lat="45.8551702" lon="13.468226"><ele>17.6</ele><time>2026-04-23T08:23:42.63Z</time></trkpt><trkpt lat="45.8552544" lon="13.468326"><ele>17.8</ele><time>2026-04-23T08:23:44.624Z</time></trkpt><trkpt lat="45.855341" lon="13.4684251"><ele>18.0</ele><time>2026-04-23T08:23:46.629Z</time></trkpt><trkpt lat="45.8554275" lon="13.4685286"><ele>18.0</ele><time>2026-04-23T08:23:48.638Z</time></trkpt><trkpt lat="45.8555115" lon="13.4686311"><ele>18.0</ele><time>2026-04-23T08:23:50.619Z</time></trkpt><trkpt lat="45.8555981" lon="13.468725"><ele>18.0</ele><time>2026-04-23T08:23:52.627Z</time></trkpt><trkpt lat="45.8556811" lon="13.468819"><ele>18.0</ele><time>2026-04-23T08:23:54.621Z</time></trkpt><trkpt lat="45.8557638" lon="13.4689088"><ele>18.0</ele><time>2026-04-23T08:23:56.624Z</time></trkpt><trkpt lat="45.8558477" lon="13.4689975"><ele>18.2</ele><time>2026-04-23T08:23:58.632Z</time></trkpt><trkpt lat="45.8559357" lon="13.4690934"><ele>18.4</ele><time>2026-04-23T08:24:00.642Z</time></trkpt><trkpt lat="45.8560231" lon="13.469191"><ele>18.599999999999998</ele><time>2026-04-23T08:24:02.638Z</time></trkpt><trkpt lat="45.8561101" lon="13.4692867"><ele>18.8</ele><time>2026-04-23T08:24:04.608Z</time></trkpt><trkpt lat="45.8561988" lon="13.469382"><ele>19.0</ele><time>2026-04-23T08:24:06.63Z</time></trkpt><trkpt lat="45.8562859" lon="13.4694753"><ele>19.0</ele><time>2026-04-23T08:24:08.644Z</time></trkpt><trkpt lat="45.8563703" lon="13.4695727"><ele>19.0</ele><time>2026-04-23T08:24:10.639Z</time></trkpt><trkpt lat="45.8564566" lon="13.4696703"><ele>19.0</ele><time>2026-04-23T08:24:12.62Z</time></trkpt><trkpt lat="45.8565434" lon="13.4697641"><ele>19.0</ele><time>2026-04-23T08:24:14.633Z</time></trkpt><trkpt lat="45.8566302" lon="13.4698587"><ele>19.0</ele><time>2026-04-23T08:24:16.615Z</time></trkpt><trkpt lat="45.856718" lon="13.4699535"><ele>18.8</ele><time>2026-04-23T08:24:18.627Z</time></trkpt><trkpt lat="45.8568062" lon="13.470045"><ele>18.599999999999998</ele><time>2026-04-23T08:24:20.623Z</time></trkpt><trkpt lat="45.8568947" lon="13.4701338"><ele>18.4</ele><time>2026-04-23T08:24:22.626Z</time></trkpt><trkpt lat="45.8569853" lon="13.4702198"><ele>18.2</ele><time>2026-04-23T08:24:24.621Z</time></trkpt><trkpt lat="45.857075" lon="13.4703058"><ele>18.0</ele><time>2026-04-23T08:24:26.638Z</time></trkpt><trkpt lat="45.8571644" lon="13.4703918"><ele>17.6</ele><time>2026-04-23T08:24:28.626Z</time></trkpt><trkpt lat="45.857253" lon="13.4704794"><ele>17.200000000000003</ele><time>2026-04-23T08:24:30.618Z</time></trkpt><trkpt lat="45.8573436" lon="13.4705691"><ele>16.8</ele><time>2026-04-23T08:24:32.623Z</time></trkpt><trkpt lat="45.8574327" lon="13.4706575"><ele>16.400000000000002</ele><time>2026-04-23T08:24:34.621Z</time></trkpt><trkpt lat="45.8575205" lon="13.4707424"><ele>16.0</ele><time>2026-04-23T08:24:36.622Z</time></trkpt><trkpt lat="45.8576092" lon="13.470829"><ele>15.600000000000001</ele><time>2026-04-23T08:24:38.617Z</time></trkpt><trkpt lat="45.8576973" lon="13.4709155"><ele>15.200000000000001</ele><time>2026-04-23T08:24:40.625Z</time></trkpt><trkpt lat="45.8577851" lon="13.4710036"><ele>14.799999999999999</ele><time>2026-04-23T08:24:42.618Z</time></trkpt><trkpt lat="45.8578694" lon="13.4710886"><ele>14.399999999999999</ele><time>2026-04-23T08:24:44.621Z</time></trkpt><trkpt lat="45.8579479" lon="13.4711677"><ele>14.0</ele><time>2026-04-23T08:24:46.631Z</time></trkpt><trkpt lat="45.8580201" lon="13.4712444"><ele>14.000000000000002</ele><time>2026-04-23T08:24:48.623Z</time></trkpt><trkpt lat="45.8580855" lon="13.4713138"><ele>14.0</ele><time>2026-04-23T08:24:50.641Z</time></trkpt><trkpt lat="45.8581456" lon="13.4713748"><ele>14.0</ele><time>2026-04-23T08:24:52.63Z</time></trkpt><trkpt lat="45.8582031" lon="13.471437"><ele>14.0</ele><time>2026-04-23T08:24:54.643Z</time></trkpt><trkpt lat="45.8582637" lon="13.4714984"><ele>14.000000000000002</ele><time>2026-04-23T08:24:56.614Z</time></trkpt><trkpt lat="45.8583225" lon="13.4715623"><ele>14.0</ele><time>2026-04-23T08:24:58.648Z</time></trkpt><trkpt lat="45.8584012" lon="13.4716284"><ele>14.2</ele><time>2026-04-23T08:25:00.629Z</time></trkpt><trkpt lat="45.8584815" lon="13.4717082"><ele>14.399999999999999</ele><time>2026-04-23T08:25:02.637Z</time></trkpt><trkpt lat="45.8585633" lon="13.4717938"><ele>14.6</ele><time>2026-04-23T08:25:04.617Z</time></trkpt><trkpt lat="45.8586462" lon="13.4718759"><ele>14.8</ele><time>2026-04-23T08:25:06.629Z</time></trkpt><trkpt lat="45.8587302" lon="13.4719586"><ele>15.0</ele><time>2026-04-23T08:25:08.643Z</time></trkpt><trkpt lat="45.8588121" lon="13.4720486"><ele>15.2</ele><time>2026-04-23T08:25:10.614Z</time></trkpt><trkpt lat="45.8588978" lon="13.472133"><ele>15.4</ele><time>2026-04-23T08:25:12.632Z</time></trkpt><trkpt lat="45.8589842" lon="13.4722205"><ele>15.600000000000001</ele><time>2026-04-23T08:25:14.614Z</time></trkpt><trkpt lat="45.8590739" lon="13.4723078"><ele>15.8</ele><time>2026-04-23T08:25:16.638Z</time></trkpt><trkpt lat="45.8591623" lon="13.4723931"><ele>16.0</ele><time>2026-04-23T08:25:18.63Z</time></trkpt><trkpt lat="45.8592517" lon="13.4724813"><ele>15.999999999999998</ele><time>2026-04-23T08:25:20.611Z</time></trkpt><trkpt lat="45.8593377" lon="13.472569"><ele>16.0</ele><time>2026-04-23T08:25:22.649Z</time></trkpt><trkpt lat="45.8594086" lon="13.4726442"><ele>16.0</ele><time>2026-04-23T08:25:24.616Z</time></trkpt><trkpt lat="45.8594593" lon="13.4727089"><ele>16.0</ele><time>2026-04-23T08:25:26.667Z</time></trkpt><trkpt lat="45.8595353" lon="13.4727454"><ele>15.999999999999998</ele><time>2026-04-23T08:25:28.643Z</time></trkpt><trkpt lat="45.8596026" lon="13.4728193"><ele>16.0</ele><time>2026-04-23T08:25:30.616Z</time></trkpt><trkpt lat="45.8596584" lon="13.4729263"><ele>15.8</ele><time>2026-04-23T08:25:32.619Z</time></trkpt><trkpt lat="45.8597256" lon="13.4730343"><ele>15.600000000000001</ele><time>2026-04-23T08:25:34.646Z</time></trkpt><trkpt lat="45.8597974" lon="13.4731381"><ele>15.4</ele><time>2026-04-23T08:25:36.635Z</time></trkpt><trkpt lat="45.8598666" lon="13.4732416"><ele>15.2</ele><time>2026-04-23T08:25:38.626Z</time></trkpt><trkpt lat="45.8599299" lon="13.4733458"><ele>15.0</ele><time>2026-04-23T08:25:40.62Z</time></trkpt><trkpt lat="45.8599966" lon="13.4734539"><ele>15.0</ele><time>2026-04-23T08:25:42.616Z</time></trkpt><trkpt lat="45.8600669" lon="13.4735661"><ele>15.0</ele><time>2026-04-23T08:25:44.627Z</time></trkpt><trkpt lat="45.8601423" lon="13.4736797"><ele>15.0</ele><time>2026-04-23T08:25:46.625Z</time></trkpt><trkpt lat="45.860219" lon="13.4737959"><ele>15.0</ele><time>2026-04-23T08:25:48.585Z</time></trkpt><trkpt lat="45.8602933" lon="13.4739086"><ele>15.0</ele><time>2026-04-23T08:25:50.593Z</time></trkpt><trkpt lat="45.8603603" lon="13.4740161"><ele>15.0</ele><time>2026-04-23T08:25:52.607Z</time></trkpt><trkpt lat="45.8604217" lon="13.4741157"><ele>15.0</ele><time>2026-04-23T08:25:54.6Z</time></trkpt><trkpt lat="45.8604775" lon="13.47421"><ele>15.0</ele><time>2026-04-23T08:25:56.614Z</time></trkpt><trkpt lat="45.8605328" lon="13.4742933"><ele>15.0</ele><time>2026-04-23T08:25:58.607Z</time></trkpt><trkpt lat="45.8605865" lon="13.4743777"><ele>15.0</ele><time>2026-04-23T08:26:00.61Z</time></trkpt><trkpt lat="45.8606325" lon="13.4744544"><ele>15.0</ele><time>2026-04-23T08:26:02.605Z</time></trkpt><trkpt lat="45.8606981" lon="13.4745491"><ele>15.166666666666666</ele><time>2026-04-23T08:26:05.626Z</time></trkpt><trkpt lat="45.8607524" lon="13.4746371"><ele>15.333333333333332</ele><time>2026-04-23T08:26:08.612Z</time></trkpt><trkpt lat="45.860809" lon="13.4747199"><ele>15.5</ele><time>2026-04-23T08:26:11.605Z</time></trkpt><trkpt lat="45.8608635" lon="13.4748099"><ele>15.666666666666666</ele><time>2026-04-23T08:26:14.607Z</time></trkpt><trkpt lat="45.8609213" lon="13.4748981"><ele>15.833333333333332</ele><time>2026-04-23T08:26:17.606Z</time></trkpt><trkpt lat="45.8609806" lon="13.4749886"><ele>16.0</ele><time>2026-04-23T08:26:20.615Z</time></trkpt><trkpt lat="45.8610399" lon="13.4750897"><ele>16.142857142857142</ele><time>2026-04-23T08:26:23.611Z</time></trkpt><trkpt lat="45.8610824" lon="13.4751597"><ele>16.285714285714285</ele><time>2026-04-23T08:26:25.615Z</time></trkpt><trkpt lat="45.861127" lon="13.4752329"><ele>16.428571428571427</ele><time>2026-04-23T08:26:27.619Z</time></trkpt><trkpt lat="45.8611743" lon="13.4753042"><ele>16.57142857142857</ele><time>2026-04-23T08:26:29.602Z</time></trkpt><trkpt lat="45.8612263" lon="13.4753787"><ele>16.714285714285715</ele><time>2026-04-23T08:26:31.616Z</time></trkpt><trkpt lat="45.8612784" lon="13.4754504"><ele>16.857142857142854</ele><time>2026-04-23T08:26:33.601Z</time></trkpt><trkpt lat="45.8613287" lon="13.4755259"><ele>17.0</ele><time>2026-04-23T08:26:35.594Z</time></trkpt><trkpt lat="45.8613764" lon="13.4756006"><ele>17.166666666666668</ele><time>2026-04-23T08:26:37.603Z</time></trkpt><trkpt lat="45.8614268" lon="13.4756773"><ele>17.333333333333336</ele><time>2026-04-23T08:26:39.608Z</time></trkpt><trkpt lat="45.8614779" lon="13.4757528"><ele>17.5</ele><time>2026-04-23T08:26:41.611Z</time></trkpt><trkpt lat="45.8615289" lon="13.4758276"><ele>17.666666666666668</ele><time>2026-04-23T08:26:43.6Z</time></trkpt><trkpt lat="45.8615834" lon="13.475916"><ele>17.833333333333332</ele><time>2026-04-23T08:26:45.606Z</time></trkpt><trkpt lat="45.8616376" lon="13.4759968"><ele>18.0</ele><time>2026-04-23T08:26:47.613Z</time></trkpt><trkpt lat="45.8616913" lon="13.4760757"><ele>18.0</ele><time>2026-04-23T08:26:49.613Z</time></trkpt><trkpt lat="45.8617427" lon="13.4761574"><ele>18.0</ele><time>2026-04-23T08:26:51.619Z</time></trkpt><trkpt lat="45.8617931" lon="13.4762391"><ele>18.0</ele><time>2026-04-23T08:26:53.596Z</time></trkpt><trkpt lat="45.8618484" lon="13.4763212"><ele>18.0</ele><time>2026-04-23T08:26:55.621Z</time></trkpt><trkpt lat="45.8618991" lon="13.4764014"><ele>18.0</ele><time>2026-04-23T08:26:57.634Z</time></trkpt><trkpt lat="45.8619536" lon="13.4764811"><ele>18.0</ele><time>2026-04-23T08:26:59.624Z</time></trkpt><trkpt lat="45.862011" lon="13.476568"><ele>17.833333333333332</ele><time>2026-04-23T08:27:01.618Z</time></trkpt><trkpt lat="45.8620658" lon="13.4766548"><ele>17.666666666666668</ele><time>2026-04-23T08:27:03.617Z</time></trkpt><trkpt lat="45.862123" lon="13.4767422"><ele>17.5</ele><time>2026-04-23T08:27:05.616Z</time></trkpt><trkpt lat="45.862181" lon="13.476828"><ele>17.333333333333336</ele><time>2026-04-23T08:27:07.627Z</time></trkpt><trkpt lat="45.8622377" lon="13.476912"><ele>17.166666666666668</ele><time>2026-04-23T08:27:09.623Z</time></trkpt><trkpt lat="45.8622943" lon="13.4769943"><ele>17.0</ele><time>2026-04-23T08:27:11.626Z</time></trkpt><trkpt lat="45.8623475" lon="13.4770766"><ele>17.0</ele><time>2026-04-23T08:27:13.627Z</time></trkpt><trkpt lat="45.8624043" lon="13.4771587"><ele>17.0</ele><time>2026-04-23T08:27:15.631Z</time></trkpt><trkpt lat="45.8624618" lon="13.4772419"><ele>17.0</ele><time>2026-04-23T08:27:17.623Z</time></trkpt><trkpt lat="45.8625177" lon="13.4773273"><ele>17.0</ele><time>2026-04-23T08:27:19.617Z</time></trkpt><trkpt lat="45.8625753" lon="13.4774129"><ele>17.0</ele><time>2026-04-23T08:27:21.62Z</time></trkpt><trkpt lat="45.8626344" lon="13.4774939"><ele>17.0</ele><time>2026-04-23T08:27:23.626Z</time></trkpt><trkpt lat="45.8626923" lon="13.4775805"><ele>17.0</ele><time>2026-04-23T08:27:25.629Z</time></trkpt><trkpt lat="45.8627514" lon="13.4776658"><ele>17.0</ele><time>2026-04-23T08:27:27.633Z</time></trkpt><trkpt lat="45.8628095" lon="13.4777526"><ele>17.0</ele><time>2026-04-23T08:27:29.624Z</time></trkpt><trkpt lat="45.8628666" lon="13.477841"><ele>17.0</ele><time>2026-04-23T08:27:31.629Z</time></trkpt><trkpt lat="45.8629274" lon="13.4779282"><ele>17.0</ele><time>2026-04-23T08:27:33.624Z</time></trkpt><trkpt lat="45.8629895" lon="13.478015"><ele>17.0</ele><time>2026-04-23T08:27:35.625Z</time></trkpt><trkpt lat="45.863051" lon="13.4781044"><ele>17.166666666666668</ele><time>2026-04-23T08:27:37.623Z</time></trkpt><trkpt lat="45.8631114" lon="13.4781921"><ele>17.333333333333336</ele><time>2026-04-23T08:27:39.63Z</time></trkpt><trkpt lat="45.8631705" lon="13.4782776"><ele>17.5</ele><time>2026-04-23T08:27:41.625Z</time></trkpt><trkpt lat="45.8632312" lon="13.4783641"><ele>17.666666666666668</ele><time>2026-04-23T08:27:43.623Z</time></trkpt><trkpt lat="45.8632919" lon="13.4784563"><ele>17.833333333333332</ele><time>2026-04-23T08:27:45.629Z</time></trkpt><trkpt lat="45.8633492" lon="13.478548"><ele>18.0</ele><time>2026-04-23T08:27:47.619Z</time></trkpt><trkpt lat="45.8634079" lon="13.4786336"><ele>18.166666666666668</ele><time>2026-04-23T08:27:49.631Z</time></trkpt><trkpt lat="45.8634637" lon="13.4787193"><ele>18.333333333333332</ele><time>2026-04-23T08:27:51.625Z</time></trkpt><trkpt lat="45.863519" lon="13.4788098"><ele>18.5</ele><time>2026-04-23T08:27:53.641Z</time></trkpt><trkpt lat="45.8635819" lon="13.4788976"><ele>18.666666666666664</ele><time>2026-04-23T08:27:55.619Z</time></trkpt><trkpt lat="45.8636518" lon="13.478981"><ele>18.833333333333332</ele><time>2026-04-23T08:27:57.63Z</time></trkpt><trkpt lat="45.8637177" lon="13.4790748"><ele>19.0</ele><time>2026-04-23T08:27:59.624Z</time></trkpt><trkpt lat="45.8637916" lon="13.4791765"><ele>19.2</ele><time>2026-04-23T08:28:01.629Z</time></trkpt><trkpt lat="45.8638708" lon="13.479258"><ele>19.4</ele><time>2026-04-23T08:28:03.623Z</time></trkpt><trkpt lat="45.8639534" lon="13.4793425"><ele>19.6</ele><time>2026-04-23T08:28:05.628Z</time></trkpt><trkpt lat="45.8640232" lon="13.479421"><ele>19.8</ele><time>2026-04-23T08:28:07.622Z</time></trkpt><trkpt lat="45.8640914" lon="13.4794958"><ele>20.0</ele><time>2026-04-23T08:28:09.606Z</time></trkpt><trkpt lat="45.8641573" lon="13.4795866"><ele>20.2</ele><time>2026-04-23T08:28:11.628Z</time></trkpt><trkpt lat="45.8642237" lon="13.4796796"><ele>20.4</ele><time>2026-04-23T08:28:13.633Z</time></trkpt><trkpt lat="45.8642922" lon="13.4797653"><ele>20.6</ele><time>2026-04-23T08:28:15.623Z</time></trkpt><trkpt lat="45.8643653" lon="13.4798509"><ele>20.8</ele><time>2026-04-23T08:28:17.622Z</time></trkpt><trkpt lat="45.8644366" lon="13.4799346"><ele>21.0</ele><time>2026-04-23T08:28:19.624Z</time></trkpt><trkpt lat="45.8645065" lon="13.480012"><ele>21.0</ele><time>2026-04-23T08:28:21.619Z</time></trkpt><trkpt lat="45.8645769" lon="13.4800926"><ele>21.0</ele><time>2026-04-23T08:28:23.622Z</time></trkpt><trkpt lat="45.8646541" lon="13.4801684"><ele>21.0</ele><time>2026-04-23T08:28:25.623Z</time></trkpt><trkpt lat="45.8647407" lon="13.4801725"><ele>21.0</ele><time>2026-04-23T08:28:27.624Z</time></trkpt><trkpt lat="45.8648179" lon="13.4800923"><ele>21.0</ele><time>2026-04-23T08:28:29.616Z</time></trkpt><trkpt lat="45.8648926" lon="13.4799987"><ele>21.0</ele><time>2026-04-23T08:28:31.632Z</time></trkpt><trkpt lat="45.8649706" lon="13.4799038"><ele>21.0</ele><time>2026-04-23T08:28:33.616Z</time></trkpt><trkpt lat="45.8650529" lon="13.4798223"><ele>21.0</ele><time>2026-04-23T08:28:35.619Z</time></trkpt><trkpt lat="45.8651375" lon="13.4797564"><ele>21.0</ele><time>2026-04-23T08:28:37.622Z</time></trkpt><trkpt lat="45.8652274" lon="13.4797083"><ele>21.0</ele><time>2026-04-23T08:28:39.621Z</time></trkpt><trkpt lat="45.8653168" lon="13.4796689"><ele>20.8</ele><time>2026-04-23T08:28:41.636Z</time></trkpt><trkpt lat="45.8654085" lon="13.4796678"><ele>20.6</ele><time>2026-04-23T08:28:43.626Z</time></trkpt><trkpt lat="45.8654959" lon="13.4796901"><ele>20.4</ele><time>2026-04-23T08:28:45.614Z</time></trkpt><trkpt lat="45.865584" lon="13.4796958"><ele>20.2</ele><time>2026-04-23T08:28:47.625Z</time></trkpt><trkpt lat="45.8656749" lon="13.4797064"><ele>20.0</ele><time>2026-04-23T08:28:49.623Z</time></trkpt><trkpt lat="45.8657687" lon="13.4797157"><ele>20.0</ele><time>2026-04-23T08:28:51.624Z</time></trkpt><trkpt lat="45.8658675" lon="13.4797319"><ele>20.0</ele><time>2026-04-23T08:28:53.63Z</time></trkpt><trkpt lat="45.8659597" lon="13.4797632"><ele>20.0</ele><time>2026-04-23T08:28:55.634Z</time></trkpt><trkpt lat="45.8660465" lon="13.4797887"><ele>20.0</ele><time>2026-04-23T08:28:57.62Z</time></trkpt><trkpt lat="45.8661352" lon="13.4798202"><ele>20.0</ele><time>2026-04-23T08:28:59.619Z</time></trkpt><trkpt lat="45.8662259" lon="13.4798547"><ele>20.0</ele><time>2026-04-23T08:29:01.627Z</time></trkpt><trkpt lat="45.8663128" lon="13.4798729"><ele>20.0</ele><time>2026-04-23T08:29:03.642Z</time></trkpt><trkpt lat="45.8664029" lon="13.479882"><ele>20.0</ele><time>2026-04-23T08:29:05.623Z</time></trkpt><trkpt lat="45.8664894" lon="13.4798557"><ele>20.0</ele><time>2026-04-23T08:29:07.617Z</time></trkpt><trkpt lat="45.8665699" lon="13.4797887"><ele>20.0</ele><time>2026-04-23T08:29:09.615Z</time></trkpt><trkpt lat="45.8666448" lon="13.4797174"><ele>20.0</ele><time>2026-04-23T08:29:11.625Z</time></trkpt><trkpt lat="45.8667279" lon="13.4796689"><ele>20.2</ele><time>2026-04-23T08:29:13.626Z</time></trkpt><trkpt lat="45.8668114" lon="13.4797035"><ele>20.4</ele><time>2026-04-23T08:29:15.624Z</time></trkpt><trkpt lat="45.8668656" lon="13.4798204"><ele>20.6</ele><time>2026-04-23T08:29:17.641Z</time></trkpt><trkpt lat="45.8668765" lon="13.4799624"><ele>20.8</ele><time>2026-04-23T08:29:19.625Z</time></trkpt><trkpt lat="45.8668776" lon="13.4801019"><ele>21.0</ele><time>2026-04-23T08:29:21.613Z</time></trkpt><trkpt lat="45.8668695" lon="13.4802416"><ele>21.0</ele><time>2026-04-23T08:29:23.621Z</time></trkpt><trkpt lat="45.8668633" lon="13.4803753"><ele>21.0</ele><time>2026-04-23T08:29:25.602Z</time></trkpt><trkpt lat="45.8668527" lon="13.4805047"><ele>21.0</ele><time>2026-04-23T08:29:27.608Z</time></trkpt><trkpt lat="45.8668378" lon="13.4806415"><ele>21.0</ele><time>2026-04-23T08:29:29.601Z</time></trkpt><trkpt lat="45.8668191" lon="13.4807779"><ele>21.0</ele><time>2026-04-23T08:29:31.596Z</time></trkpt><trkpt lat="45.8667984" lon="13.4809116"><ele>21.0</ele><time>2026-04-23T08:29:33.62Z</time></trkpt><trkpt lat="45.8667863" lon="13.481041"><ele>21.0</ele><time>2026-04-23T08:29:35.584Z</time></trkpt><trkpt lat="45.8667775" lon="13.4811595"><ele>21.0</ele><time>2026-04-23T08:29:37.612Z</time></trkpt><trkpt lat="45.8667571" lon="13.481283"><ele>21.0</ele><time>2026-04-23T08:29:39.633Z</time></trkpt><trkpt lat="45.8667177" lon="13.4814235"><ele>21.0</ele><time>2026-04-23T08:29:41.617Z</time></trkpt><trkpt lat="45.866676" lon="13.4815683"><ele>21.0</ele><time>2026-04-23T08:29:43.639Z</time></trkpt><trkpt lat="45.866685" lon="13.4817321"><ele>21.0</ele><time>2026-04-23T08:29:45.635Z</time></trkpt><trkpt lat="45.8667688" lon="13.4818492"><ele>21.0</ele><time>2026-04-23T08:29:47.616Z</time></trkpt><trkpt lat="45.8668421" lon="13.4819765"><ele>21.0</ele><time>2026-04-23T08:29:49.62Z</time></trkpt><trkpt lat="45.8668707" lon="13.4821221"><ele>21.0</ele><time>2026-04-23T08:29:51.628Z</time></trkpt><trkpt lat="45.8668902" lon="13.4822782"><ele>21.0</ele><time>2026-04-23T08:29:53.624Z</time></trkpt><trkpt lat="45.8669254" lon="13.4824415"><ele>21.0</ele><time>2026-04-23T08:29:55.612Z</time></trkpt><trkpt lat="45.8669792" lon="13.4825773"><ele>21.0</ele><time>2026-04-23T08:29:57.648Z</time></trkpt><trkpt lat="45.8670328" lon="13.4827111"><ele>21.0</ele><time>2026-04-23T08:29:59.625Z</time></trkpt><trkpt lat="45.867078" lon="13.4828518"><ele>23.5</ele><time>2026-04-23T08:30:01.623Z</time></trkpt><trkpt lat="45.8671156" lon="13.4830126"><ele>26.0</ele><time>2026-04-23T08:30:03.628Z</time></trkpt><trkpt lat="45.867118" lon="13.4831797"><ele>28.5</ele><time>2026-04-23T08:30:05.625Z</time></trkpt><trkpt lat="45.867084" lon="13.4833344"><ele>31.0</ele><time>2026-04-23T08:30:07.635Z</time></trkpt><trkpt lat="45.8670359" lon="13.483464"><ele>31.0</ele><time>2026-04-23T08:30:09.629Z</time></trkpt><trkpt lat="45.8669823" lon="13.4835929"><ele>31.0</ele><time>2026-04-23T08:30:11.614Z</time></trkpt><trkpt lat="45.8669241" lon="13.4837302"><ele>31.0</ele><time>2026-04-23T08:30:13.621Z</time></trkpt><trkpt lat="45.8668576" lon="13.4838506"><ele>31.0</ele><time>2026-04-23T08:30:15.654Z</time></trkpt><trkpt lat="45.8668017" lon="13.483982"><ele>31.0</ele><time>2026-04-23T08:30:17.631Z</time></trkpt><trkpt lat="45.8667449" lon="13.4841028"><ele>30.8</ele><time>2026-04-23T08:30:19.637Z</time></trkpt><trkpt lat="45.8666855" lon="13.484221"><ele>30.6</ele><time>2026-04-23T08:30:21.625Z</time></trkpt><trkpt lat="45.8666241" lon="13.4843358"><ele>30.4</ele><time>2026-04-23T08:30:23.644Z</time></trkpt><trkpt lat="45.8665657" lon="13.4844437"><ele>30.2</ele><time>2026-04-23T08:30:25.647Z</time></trkpt><trkpt lat="45.8665098" lon="13.4845453"><ele>30.0</ele><time>2026-04-23T08:30:27.629Z</time></trkpt><trkpt lat="45.8664508" lon="13.4846502"><ele>30.0</ele><time>2026-04-23T08:30:29.627Z</time></trkpt><trkpt lat="45.8663926" lon="13.4847592"><ele>30.0</ele><time>2026-04-23T08:30:31.633Z</time></trkpt><trkpt lat="45.8663458" lon="13.4848681"><ele>30.0</ele><time>2026-04-23T08:30:33.629Z</time></trkpt><trkpt lat="45.8663112" lon="13.484968"><ele>30.0</ele><time>2026-04-23T08:30:35.629Z</time></trkpt><trkpt lat="45.8662816" lon="13.4850555"><ele>30.0</ele><time>2026-04-23T08:30:38.632Z</time></trkpt><trkpt lat="45.8662453" lon="13.4851522"><ele>30.0</ele><time>2026-04-23T08:30:42.627Z</time></trkpt><trkpt lat="45.8662104" lon="13.4852523"><ele>30.0</ele><time>2026-04-23T08:30:46.63Z</time></trkpt><trkpt lat="45.8661757" lon="13.4853432"><ele>30.0</ele><time>2026-04-23T08:30:50.618Z</time></trkpt><trkpt lat="45.8661653" lon="13.4854465"><ele>30.0</ele><time>2026-04-23T08:30:55.633Z</time></trkpt><trkpt lat="45.8661543" lon="13.4855362"><ele>30.0</ele><time>2026-04-23T08:30:59.644Z</time></trkpt><trkpt lat="45.8661357" lon="13.4856247"><ele>30.0</ele><time>2026-04-23T08:31:02.625Z</time></trkpt><trkpt lat="45.8661197" lon="13.4857209"><ele>30.0</ele><time>2026-04-23T08:31:06.62Z</time></trkpt><trkpt lat="45.8661055" lon="13.4858251"><ele>30.0</ele><time>2026-04-23T08:31:10.647Z</time></trkpt><trkpt lat="45.866095" lon="13.4859171"><ele>30.42857142857143</ele><time>2026-04-23T08:31:14.638Z</time></trkpt><trkpt lat="45.8660671" lon="13.4860225"><ele>30.857142857142854</ele><time>2026-04-23T08:31:19.644Z</time></trkpt><trkpt lat="45.8660433" lon="13.4861102"><ele>31.285714285714285</ele><time>2026-04-23T08:31:23.631Z</time></trkpt><trkpt lat="45.8660119" lon="13.4862094"><ele>31.714285714285715</ele><time>2026-04-23T08:31:28.637Z</time></trkpt><trkpt lat="45.8659795" lon="13.486319"><ele>32.142857142857146</ele><time>2026-04-23T08:31:33.643Z</time></trkpt><trkpt lat="45.8659474" lon="13.4864085"><ele>32.57142857142857</ele><time>2026-04-23T08:31:37.634Z</time></trkpt><trkpt lat="45.8659277" lon="13.4865024"><ele>33.0</ele><time>2026-04-23T08:31:41.629Z</time></trkpt><trkpt lat="45.865905" lon="13.4865954"><ele>33.0</ele><time>2026-04-23T08:31:45.643Z</time></trkpt><trkpt lat="45.8658875" lon="13.4866906"><ele>33.0</ele><time>2026-04-23T08:31:49.624Z</time></trkpt><trkpt lat="45.8658835" lon="13.4867846"><ele>33.0</ele><time>2026-04-23T08:31:53.69Z</time></trkpt><trkpt lat="45.865881" lon="13.4868927"><ele>33.0</ele><time>2026-04-23T08:31:58.63Z</time></trkpt><trkpt lat="45.8658868" lon="13.4869986"><ele>33.0</ele><time>2026-04-23T08:32:02.626Z</time></trkpt><trkpt lat="45.8658952" lon="13.4870961"><ele>33.0</ele><time>2026-04-23T08:32:06.631Z</time></trkpt><trkpt lat="45.8659069" lon="13.4871953"><ele>33.0</ele><time>2026-04-23T08:32:11.637Z</time></trkpt><trkpt lat="45.8659127" lon="13.4872994"><ele>33.857142857142854</ele><time>2026-04-23T08:32:16.623Z</time></trkpt><trkpt lat="45.865916" lon="13.4874042"><ele>34.714285714285715</ele><time>2026-04-23T08:32:21.658Z</time></trkpt><trkpt lat="45.8659212" lon="13.4874989"><ele>35.57142857142857</ele><time>2026-04-23T08:32:26.629Z</time></trkpt><trkpt lat="45.8659296" lon="13.487604"><ele>36.42857142857143</ele><time>2026-04-23T08:32:31.639Z</time></trkpt><trkpt lat="45.8659304" lon="13.4877059"><ele>37.285714285714285</ele><time>2026-04-23T08:32:36.636Z</time></trkpt><trkpt lat="45.8659402" lon="13.4878069"><ele>38.142857142857146</ele><time>2026-04-23T08:32:41.651Z</time></trkpt><trkpt lat="45.8659504" lon="13.4879134"><ele>39.0</ele><time>2026-04-23T08:32:46.642Z</time></trkpt><trkpt lat="45.8659631" lon="13.4880176"><ele>42.142857142857146</ele><time>2026-04-23T08:32:51.627Z</time></trkpt><trkpt lat="45.8659747" lon="13.4881124"><ele>45.28571428571428</ele><time>2026-04-23T08:32:56.631Z</time></trkpt><trkpt lat="45.8659832" lon="13.4882195"><ele>48.42857142857142</ele><time>2026-04-23T08:33:01.632Z</time></trkpt><trkpt lat="45.8660017" lon="13.488325"><ele>51.57142857142857</ele><time>2026-04-23T08:33:06.636Z</time></trkpt><trkpt lat="45.8660133" lon="13.4884235"><ele>54.71428571428571</ele><time>2026-04-23T08:33:11.639Z</time></trkpt><trkpt lat="45.8660237" lon="13.4885185"><ele>57.85714285714285</ele><time>2026-04-23T08:33:16.639Z</time></trkpt><trkpt lat="45.8660371" lon="13.4886129"><ele>60.99999999999999</ele><time>2026-04-23T08:33:21.653Z</time></trkpt><trkpt lat="45.866042" lon="13.4887148"><ele>61.14285714285714</ele><time>2026-04-23T08:33:26.644Z</time></trkpt><trkpt lat="45.866059" lon="13.4888092"><ele>61.285714285714285</ele><time>2026-04-23T08:33:31.64Z</time></trkpt><trkpt lat="45.8660786" lon="13.4889002"><ele>61.42857142857143</ele><time>2026-04-23T08:33:36.622Z</time></trkpt><trkpt lat="45.8660972" lon="13.4890028"><ele>61.57142857142857</ele><time>2026-04-23T08:33:41.641Z</time></trkpt><trkpt lat="45.8661161" lon="13.4891076"><ele>61.71428571428572</ele><time>2026-04-23T08:33:46.643Z</time></trkpt><trkpt lat="45.8661329" lon="13.489214"><ele>61.85714285714286</ele><time>2026-04-23T08:33:51.641Z</time></trkpt><trkpt lat="45.8661476" lon="13.4893217"><ele>62.0</ele><time>2026-04-23T08:33:56.622Z</time></trkpt><trkpt lat="45.866161" lon="13.4894135"><ele>62.0</ele><time>2026-04-23T08:34:00.619Z</time></trkpt><trkpt lat="45.8661692" lon="13.4895151"><ele>62.00000000000001</ele><time>2026-04-23T08:34:04.622Z</time></trkpt><trkpt lat="45.8661725" lon="13.4896123"><ele>62.0</ele><time>2026-04-23T08:34:08.624Z</time></trkpt><trkpt lat="45.8661741" lon="13.4897092"><ele>62.0</ele><time>2026-04-23T08:34:12.631Z</time></trkpt><trkpt lat="45.8661716" lon="13.489808"><ele>62.00000000000001</ele><time>2026-04-23T08:34:16.631Z</time></trkpt><trkpt lat="45.8661644" lon="13.4899084"><ele>62.0</ele><time>2026-04-23T08:34:20.641Z</time></trkpt><trkpt lat="45.8661658" lon="13.4900142"><ele>62.0</ele><time>2026-04-23T08:34:24.625Z</time></trkpt><trkpt lat="45.8661661" lon="13.4901189"><ele>62.714285714285715</ele><time>2026-04-23T08:34:28.638Z</time></trkpt><trkpt lat="45.8661662" lon="13.4902136"><ele>63.42857142857143</ele><time>2026-04-23T08:34:32.625Z</time></trkpt><trkpt lat="45.8661622" lon="13.4903122"><ele>64.14285714285714</ele><time>2026-04-23T08:34:36.647Z</time></trkpt><trkpt lat="45.8661528" lon="13.4904128"><ele>64.85714285714286</ele><time>2026-04-23T08:34:40.625Z</time></trkpt><trkpt lat="45.8661616" lon="13.4905141"><ele>65.57142857142857</ele><time>2026-04-23T08:34:44.635Z</time></trkpt><trkpt lat="45.8661673" lon="13.4906267"><ele>66.28571428571429</ele><time>2026-04-23T08:34:48.622Z</time></trkpt><trkpt lat="45.8661656" lon="13.4907285"><ele>67.0</ele><time>2026-04-23T08:34:52.625Z</time></trkpt><trkpt lat="45.8661625" lon="13.4908261"><ele>67.42857142857143</ele><time>2026-04-23T08:34:56.627Z</time></trkpt><trkpt lat="45.8661614" lon="13.490923"><ele>67.85714285714286</ele><time>2026-04-23T08:35:00.628Z</time></trkpt><trkpt lat="45.866163" lon="13.491015"><ele>68.28571428571428</ele><time>2026-04-23T08:35:03.64Z</time></trkpt><trkpt lat="45.8661587" lon="13.4911199"><ele>68.71428571428572</ele><time>2026-04-23T08:35:07.648Z</time></trkpt><trkpt lat="45.866154" lon="13.4912312"><ele>69.14285714285714</ele><time>2026-04-23T08:35:11.636Z</time></trkpt><trkpt lat="45.8661503" lon="13.4913282"><ele>69.57142857142857</ele><time>2026-04-23T08:35:15.628Z</time></trkpt><trkpt lat="45.8661428" lon="13.4914347"><ele>70.0</ele><time>2026-04-23T08:35:19.637Z</time></trkpt><trkpt lat="45.8661204" lon="13.491533"><ele>70.0</ele><time>2026-04-23T08:35:23.636Z</time></trkpt><trkpt lat="45.8660843" lon="13.4916263"><ele>70.0</ele><time>2026-04-23T08:35:27.628Z</time></trkpt><trkpt lat="45.8660467" lon="13.4917219"><ele>70.0</ele><time>2026-04-23T08:35:31.617Z</time></trkpt><trkpt lat="45.8660032" lon="13.4918052"><ele>70.0</ele><time>2026-04-23T08:35:35.635Z</time></trkpt><trkpt lat="45.8659574" lon="13.4918888"><ele>70.0</ele><time>2026-04-23T08:35:39.636Z</time></trkpt><trkpt lat="45.8659181" lon="13.491976"><ele>70.0</ele><time>2026-04-23T08:35:43.615Z</time></trkpt><trkpt lat="45.8658788" lon="13.4920691"><ele>70.0</ele><time>2026-04-23T08:35:47.616Z</time></trkpt><trkpt lat="45.8658391" lon="13.492177"><ele>71.0</ele><time>2026-04-23T08:35:51.62Z</time></trkpt><trkpt lat="45.8657991" lon="13.4922793"><ele>72.0</ele><time>2026-04-23T08:35:55.626Z</time></trkpt><trkpt lat="45.865757" lon="13.4923539"><ele>73.0</ele><time>2026-04-23T08:35:59.616Z</time></trkpt><trkpt lat="45.8657294" lon="13.4924501"><ele>74.0</ele><time>2026-04-23T08:36:03.627Z</time></trkpt><trkpt lat="45.8656873" lon="13.4925407"><ele>75.0</ele><time>2026-04-23T08:36:07.634Z</time></trkpt><trkpt lat="45.8656471" lon="13.4926365"><ele>76.0</ele><time>2026-04-23T08:36:11.617Z</time></trkpt><trkpt lat="45.8656041" lon="13.4927274"><ele>76.0</ele><time>2026-04-23T08:36:15.628Z</time></trkpt><trkpt lat="45.8655608" lon="13.4928173"><ele>76.0</ele><time>2026-04-23T08:36:19.63Z</time></trkpt><trkpt lat="45.8655211" lon="13.4929073"><ele>76.0</ele><time>2026-04-23T08:36:23.623Z</time></trkpt><trkpt lat="45.8654854" lon="13.4930127"><ele>76.0</ele><time>2026-04-23T08:36:27.642Z</time></trkpt><trkpt lat="45.8654714" lon="13.4931195"><ele>76.0</ele><time>2026-04-23T08:36:31.621Z</time></trkpt><trkpt lat="45.8654637" lon="13.4932248"><ele>76.0</ele><time>2026-04-23T08:36:35.623Z</time></trkpt><trkpt lat="45.8654574" lon="13.4933393"><ele>76.42857142857143</ele><time>2026-04-23T08:36:39.598Z</time></trkpt><trkpt lat="45.8654612" lon="13.4934562"><ele>76.85714285714286</ele><time>2026-04-23T08:36:43.607Z</time></trkpt><trkpt lat="45.8654678" lon="13.4935499"><ele>77.28571428571429</ele><time>2026-04-23T08:36:46.615Z</time></trkpt><trkpt lat="45.8654736" lon="13.4936403"><ele>77.71428571428572</ele><time>2026-04-23T08:36:49.61Z</time></trkpt><trkpt lat="45.8654718" lon="13.4937406"><ele>78.14285714285714</ele><time>2026-04-23T08:36:52.653Z</time></trkpt><trkpt lat="45.8654827" lon="13.4938505"><ele>78.57142857142858</ele><time>2026-04-23T08:36:55.613Z</time></trkpt><trkpt lat="45.8654905" lon="13.4939599"><ele>79.0</ele><time>2026-04-23T08:36:58.627Z</time></trkpt><trkpt lat="45.8654981" lon="13.494082"><ele>79.5</ele><time>2026-04-23T08:37:01.638Z</time></trkpt><trkpt lat="45.865504" lon="13.4941959"><ele>80.0</ele><time>2026-04-23T08:37:04.623Z</time></trkpt><trkpt lat="45.865508" lon="13.4943283"><ele>80.5</ele><time>2026-04-23T08:37:07.643Z</time></trkpt><trkpt lat="45.8655067" lon="13.4944347"><ele>81.0</ele><time>2026-04-23T08:37:09.629Z</time></trkpt><trkpt lat="45.8655006" lon="13.4945613"><ele>81.5</ele><time>2026-04-23T08:37:11.663Z</time></trkpt><trkpt lat="45.8654913" lon="13.4946977"><ele>82.0</ele><time>2026-04-23T08:37:13.641Z</time></trkpt><trkpt lat="45.8654695" lon="13.4948334"><ele>82.33333333333333</ele><time>2026-04-23T08:37:15.633Z</time></trkpt><trkpt lat="45.8654462" lon="13.4949671"><ele>82.66666666666666</ele><time>2026-04-23T08:37:17.644Z</time></trkpt><trkpt lat="45.8654283" lon="13.495099"><ele>83.0</ele><time>2026-04-23T08:37:19.631Z</time></trkpt><trkpt lat="45.8654227" lon="13.4952257"><ele>83.33333333333333</ele><time>2026-04-23T08:37:21.65Z</time></trkpt><trkpt lat="45.8654306" lon="13.4953483"><ele>83.66666666666667</ele><time>2026-04-23T08:37:23.642Z</time></trkpt><trkpt lat="45.8654499" lon="13.4954474"><ele>84.0</ele><time>2026-04-23T08:37:25.63Z</time></trkpt><trkpt lat="45.8654826" lon="13.4955328"><ele>84.28571428571429</ele><time>2026-04-23T08:37:27.64Z</time></trkpt><trkpt lat="45.8655209" lon="13.4956117"><ele>84.57142857142857</ele><time>2026-04-23T08:37:29.616Z</time></trkpt><trkpt lat="45.8655691" lon="13.4956956"><ele>84.85714285714286</ele><time>2026-04-23T08:37:32.647Z</time></trkpt><trkpt lat="45.8656091" lon="13.4957908"><ele>85.14285714285714</ele><time>2026-04-23T08:37:35.628Z</time></trkpt><trkpt lat="45.8656346" lon="13.4958912"><ele>85.42857142857143</ele><time>2026-04-23T08:37:38.622Z</time></trkpt><trkpt lat="45.8656508" lon="13.49599"><ele>85.71428571428572</ele><time>2026-04-23T08:37:41.627Z</time></trkpt><trkpt lat="45.8656388" lon="13.4960903"><ele>86.0</ele><time>2026-04-23T08:37:44.632Z</time></trkpt><trkpt lat="45.8656046" lon="13.4961819"><ele>87.0</ele><time>2026-04-23T08:37:47.677Z</time></trkpt><trkpt lat="45.8655513" lon="13.4962633"><ele>88.0</ele><time>2026-04-23T08:37:50.624Z</time></trkpt><trkpt lat="45.8654846" lon="13.4963192"><ele>89.0</ele><time>2026-04-23T08:37:53.631Z</time></trkpt><trkpt lat="45.8654212" lon="13.4963575"><ele>90.0</ele><time>2026-04-23T08:37:56.634Z</time></trkpt><trkpt lat="45.8653493" lon="13.4964091"><ele>91.0</ele><time>2026-04-23T08:37:59.633Z</time></trkpt><trkpt lat="45.8652797" lon="13.4964587"><ele>92.0</ele><time>2026-04-23T08:38:02.63Z</time></trkpt><trkpt lat="45.8652132" lon="13.4965028"><ele>92.0</ele><time>2026-04-23T08:38:05.624Z</time></trkpt><trkpt lat="45.865154" lon="13.4965601"><ele>92.0</ele><time>2026-04-23T08:38:09.647Z</time></trkpt><trkpt lat="45.8651041" lon="13.4966358"><ele>92.0</ele><time>2026-04-23T08:38:12.624Z</time></trkpt><trkpt lat="45.8650808" lon="13.4967207"><ele>92.0</ele><time>2026-04-23T08:38:15.627Z</time></trkpt><trkpt lat="45.865089" lon="13.4968227"><ele>92.0</ele><time>2026-04-23T08:38:18.642Z</time></trkpt><trkpt lat="45.8651113" lon="13.4969156"><ele>92.0</ele><time>2026-04-23T08:38:21.633Z</time></trkpt><trkpt lat="45.8651359" lon="13.4970016"><ele>92.0</ele><time>2026-04-23T08:38:24.645Z</time></trkpt><trkpt lat="45.8651722" lon="13.4971062"><ele>93.5</ele><time>2026-04-23T08:38:28.638Z</time></trkpt><trkpt lat="45.8652119" lon="13.4972061"><ele>95.0</ele><time>2026-04-23T08:38:32.63Z</time></trkpt><trkpt lat="45.8652507" lon="13.4973007"><ele>96.5</ele><time>2026-04-23T08:38:36.626Z</time></trkpt><trkpt lat="45.8652902" lon="13.4974022"><ele>98.0</ele><time>2026-04-23T08:38:40.65Z</time></trkpt><trkpt lat="45.865294" lon="13.4975193"><ele>99.49999999999999</ele><time>2026-04-23T08:38:44.624Z</time></trkpt><trkpt lat="45.865267" lon="13.4976118"><ele>101.0</ele><time>2026-04-23T08:38:47.622Z</time></trkpt><trkpt lat="45.8652162" lon="13.4976756"><ele>100.99999999999999</ele><time>2026-04-23T08:38:50.633Z</time></trkpt><trkpt lat="45.8651521" lon="13.4977312"><ele>101.0</ele><time>2026-04-23T08:38:53.618Z</time></trkpt><trkpt lat="45.8650833" lon="13.4977546"><ele>101.0</ele><time>2026-04-23T08:38:56.636Z</time></trkpt><trkpt lat="45.8650137" lon="13.4977788"><ele>101.0</ele><time>2026-04-23T08:38:59.637Z</time></trkpt><trkpt lat="45.8649403" lon="13.4977985"><ele>100.99999999999999</ele><time>2026-04-23T08:39:02.625Z</time></trkpt><trkpt lat="45.8648592" lon="13.4977968"><ele>101.0</ele><time>2026-04-23T08:39:05.625Z</time></trkpt><trkpt lat="45.8647786" lon="13.497777"><ele>100.33333333333333</ele><time>2026-04-23T08:39:08.626Z</time></trkpt><trkpt lat="45.8647115" lon="13.497785"><ele>99.66666666666666</ele><time>2026-04-23T08:39:10.626Z</time></trkpt><trkpt lat="45.8646444" lon="13.4978209"><ele>99.0</ele><time>2026-04-23T08:39:12.638Z</time></trkpt><trkpt lat="45.8645801" lon="13.4979136"><ele>98.33333333333334</ele><time>2026-04-23T08:39:15.629Z</time></trkpt><trkpt lat="45.8645404" lon="13.4979923"><ele>97.66666666666667</ele><time>2026-04-23T08:39:17.644Z</time></trkpt><trkpt lat="45.8645052" lon="13.4980752"><ele>97.0</ele><time>2026-04-23T08:39:19.625Z</time></trkpt><trkpt lat="45.8644581" lon="13.4981866"><ele>98.33333333333334</ele><time>2026-04-23T08:39:22.629Z</time></trkpt><trkpt lat="45.864403" lon="13.4982855"><ele>99.66666666666667</ele><time>2026-04-23T08:39:25.623Z</time></trkpt><trkpt lat="45.8643486" lon="13.4983923"><ele>101.0</ele><time>2026-04-23T08:39:28.634Z</time></trkpt><trkpt lat="45.8643316" lon="13.4984795"><ele>102.33333333333334</ele><time>2026-04-23T08:39:30.652Z</time></trkpt><trkpt lat="45.8643257" lon="13.4985963"><ele>103.66666666666667</ele><time>2026-04-23T08:39:33.625Z</time></trkpt><trkpt lat="45.8643328" lon="13.498702"><ele>105.0</ele><time>2026-04-23T08:39:36.634Z</time></trkpt><trkpt lat="45.8643138" lon="13.4988099"><ele>105.0</ele><time>2026-04-23T08:39:39.637Z</time></trkpt><trkpt lat="45.864287" lon="13.4989124"><ele>105.0</ele><time>2026-04-23T08:39:42.63Z</time></trkpt><trkpt lat="45.864271" lon="13.4990187"><ele>105.0</ele><time>2026-04-23T08:39:45.622Z</time></trkpt><trkpt lat="45.8642622" lon="13.4991343"><ele>105.0</ele><time>2026-04-23T08:39:48.62Z</time></trkpt><trkpt lat="45.8642632" lon="13.4992677"><ele>105.0</ele><time>2026-04-23T08:39:51.626Z</time></trkpt><trkpt lat="45.8642702" lon="13.4993832"><ele>105.0</ele><time>2026-04-23T08:39:54.615Z</time></trkpt><trkpt lat="45.8642412" lon="13.4994875"><ele>105.0</ele><time>2026-04-23T08:39:57.636Z</time></trkpt><trkpt lat="45.8641872" lon="13.4995806"><ele>105.0</ele><time>2026-04-23T08:40:00.642Z</time></trkpt><trkpt lat="45.8641288" lon="13.4996899"><ele>105.0</ele><time>2026-04-23T08:40:03.629Z</time></trkpt><trkpt lat="45.8640845" lon="13.4997572"><ele>105.0</ele><time>2026-04-23T08:40:05.627Z</time></trkpt><trkpt lat="45.8640145" lon="13.4998442"><ele>105.0</ele><time>2026-04-23T08:40:08.625Z</time></trkpt><trkpt lat="45.8639666" lon="13.4999039"><ele>105.0</ele><time>2026-04-23T08:40:10.629Z</time></trkpt><trkpt lat="45.863903" lon="13.499991"><ele>105.5</ele><time>2026-04-23T08:40:13.623Z</time></trkpt><trkpt lat="45.8638288" lon="13.5000526"><ele>106.0</ele><time>2026-04-23T08:40:16.623Z</time></trkpt><trkpt lat="45.8637373" lon="13.5000786"><ele>106.5</ele><time>2026-04-23T08:40:19.624Z</time></trkpt><trkpt lat="45.8636624" lon="13.5000681"><ele>107.0</ele><time>2026-04-23T08:40:21.622Z</time></trkpt><trkpt lat="45.8635821" lon="13.5000762"><ele>107.5</ele><time>2026-04-23T08:40:23.633Z</time></trkpt><trkpt lat="45.8635176" lon="13.5001421"><ele>108.0</ele><time>2026-04-23T08:40:25.613Z</time></trkpt><trkpt lat="45.8634846" lon="13.5002326"><ele>108.0</ele><time>2026-04-23T08:40:27.627Z</time></trkpt><trkpt lat="45.8634779" lon="13.5003256"><ele>108.0</ele><time>2026-04-23T08:40:29.631Z</time></trkpt><trkpt lat="45.8634847" lon="13.5004494"><ele>108.0</ele><time>2026-04-23T08:40:32.631Z</time></trkpt><trkpt lat="45.8634837" lon="13.5005681"><ele>108.0</ele><time>2026-04-23T08:40:35.632Z</time></trkpt><trkpt lat="45.86344" lon="13.5006821"><ele>108.0</ele><time>2026-04-23T08:40:38.625Z</time></trkpt><trkpt lat="45.8633656" lon="13.5007531"><ele>108.0</ele><time>2026-04-23T08:40:41.637Z</time></trkpt><trkpt lat="45.8632977" lon="13.5007645"><ele>108.0</ele><time>2026-04-23T08:40:43.62Z</time></trkpt><trkpt lat="45.8632173" lon="13.5007645"><ele>108.00000000000001</ele><time>2026-04-23T08:40:45.632Z</time></trkpt><trkpt lat="45.8631268" lon="13.500786"><ele>108.00000000000001</ele><time>2026-04-23T08:40:47.626Z</time></trkpt><trkpt lat="45.8630308" lon="13.5008127"><ele>108.0</ele><time>2026-04-23T08:40:49.641Z</time></trkpt><trkpt lat="45.862925" lon="13.5008177"><ele>108.0</ele><time>2026-04-23T08:40:51.628Z</time></trkpt><trkpt lat="45.862816" lon="13.5008579"><ele>108.0</ele><time>2026-04-23T08:40:53.621Z</time></trkpt><trkpt lat="45.8627151" lon="13.5009491"><ele>108.0</ele><time>2026-04-23T08:40:55.631Z</time></trkpt><trkpt lat="45.8626092" lon="13.501031"><ele>108.0</ele><time>2026-04-23T08:40:57.623Z</time></trkpt><trkpt lat="45.8625022" lon="13.5011088"><ele>108.0</ele><time>2026-04-23T08:40:59.645Z</time></trkpt><trkpt lat="45.8623928" lon="13.5011732"><ele>107.60000000000001</ele><time>2026-04-23T08:41:01.637Z</time></trkpt><trkpt lat="45.8622905" lon="13.5012324"><ele>107.20000000000002</ele><time>2026-04-23T08:41:03.622Z</time></trkpt><trkpt lat="45.862225" lon="13.5013513"><ele>106.8</ele><time>2026-04-23T08:41:05.627Z</time></trkpt><trkpt lat="45.8622037" lon="13.5014942"><ele>106.4</ele><time>2026-04-23T08:41:07.637Z</time></trkpt><trkpt lat="45.8621875" lon="13.5016101"><ele>106.0</ele><time>2026-04-23T08:41:09.633Z</time></trkpt><trkpt lat="45.8621668" lon="13.5017132"><ele>106.00000000000001</ele><time>2026-04-23T08:41:11.628Z</time></trkpt><trkpt lat="45.8621495" lon="13.5018093"><ele>106.0</ele><time>2026-04-23T08:41:13.622Z</time></trkpt><trkpt lat="45.862123" lon="13.501939"><ele>106.0</ele><time>2026-04-23T08:41:16.624Z</time></trkpt><trkpt lat="45.862096" lon="13.50207"><ele>106.0</ele><time>2026-04-23T08:41:19.624Z</time></trkpt><trkpt lat="45.8620772" lon="13.5021595"><ele>106.00000000000001</ele><time>2026-04-23T08:41:21.628Z</time></trkpt><trkpt lat="45.8620568" lon="13.5022811"><ele>106.0</ele><time>2026-04-23T08:41:24.635Z</time></trkpt><trkpt lat="45.8620598" lon="13.5023967"><ele>106.50000000000001</ele><time>2026-04-23T08:41:27.625Z</time></trkpt><trkpt lat="45.862109" lon="13.5024692"><ele>107.0</ele><time>2026-04-23T08:41:30.65Z</time></trkpt><trkpt lat="45.8621972" lon="13.5025013"><ele>107.5</ele><time>2026-04-23T08:41:33.623Z</time></trkpt><trkpt lat="45.8622741" lon="13.5025572"><ele>108.0</ele><time>2026-04-23T08:41:36.635Z</time></trkpt><trkpt lat="45.8623485" lon="13.5026234"><ele>108.50000000000001</ele><time>2026-04-23T08:41:39.633Z</time></trkpt><trkpt lat="45.8624259" lon="13.5026664"><ele>109.0</ele><time>2026-04-23T08:41:42.654Z</time></trkpt><trkpt lat="45.8625096" lon="13.5026666"><ele>109.00000000000001</ele><time>2026-04-23T08:41:45.625Z</time></trkpt><trkpt lat="45.8625914" lon="13.5026856"><ele>109.0</ele><time>2026-04-23T08:41:48.619Z</time></trkpt><trkpt lat="45.8626745" lon="13.5027093"><ele>109.0</ele><time>2026-04-23T08:41:51.624Z</time></trkpt><trkpt lat="45.8627578" lon="13.5027385"><ele>109.0</ele><time>2026-04-23T08:41:54.638Z</time></trkpt><trkpt lat="45.8628345" lon="13.5027648"><ele>109.00000000000001</ele><time>2026-04-23T08:41:57.627Z</time></trkpt><trkpt lat="45.8629125" lon="13.5027927"><ele>109.0</ele><time>2026-04-23T08:42:00.614Z</time></trkpt><trkpt lat="45.8629915" lon="13.5028265"><ele>109.33333333333334</ele><time>2026-04-23T08:42:03.624Z</time></trkpt><trkpt lat="45.8630773" lon="13.5028413"><ele>109.66666666666667</ele><time>2026-04-23T08:42:06.636Z</time></trkpt><trkpt lat="45.8631614" lon="13.5028528"><ele>110.0</ele><time>2026-04-23T08:42:09.619Z</time></trkpt><trkpt lat="45.8632455" lon="13.5028661"><ele>110.33333333333334</ele><time>2026-04-23T08:42:12.622Z</time></trkpt><trkpt lat="45.8633317" lon="13.502879"><ele>110.66666666666667</ele><time>2026-04-23T08:42:15.617Z</time></trkpt><trkpt lat="45.8634143" lon="13.5028945"><ele>111.0</ele><time>2026-04-23T08:42:18.62Z</time></trkpt><trkpt lat="45.8634927" lon="13.5029057"><ele>112.0</ele><time>2026-04-23T08:42:21.635Z</time></trkpt><trkpt lat="45.8635736" lon="13.5029094"><ele>113.0</ele><time>2026-04-23T08:42:24.621Z</time></trkpt><trkpt lat="45.8636528" lon="13.5029266"><ele>114.0</ele><time>2026-04-23T08:42:27.631Z</time></trkpt><trkpt lat="45.8637093" lon="13.5030083"><ele>115.0</ele><time>2026-04-23T08:42:30.625Z</time></trkpt><trkpt lat="45.8637338" lon="13.5031203"><ele>116.0</ele><time>2026-04-23T08:42:33.626Z</time></trkpt><trkpt lat="45.8637204" lon="13.50324"><ele>117.0</ele><time>2026-04-23T08:42:36.633Z</time></trkpt><trkpt lat="45.8637064" lon="13.5033636"><ele>117.14285714285715</ele><time>2026-04-23T08:42:39.618Z</time></trkpt><trkpt lat="45.8636965" lon="13.5034796"><ele>117.2857142857143</ele><time>2026-04-23T08:42:42.625Z</time></trkpt><trkpt lat="45.86369" lon="13.5035784"><ele>117.42857142857143</ele><time>2026-04-23T08:42:44.639Z</time></trkpt><trkpt lat="45.8636866" lon="13.5036718"><ele>117.57142857142858</ele><time>2026-04-23T08:42:46.625Z</time></trkpt><trkpt lat="45.8636765" lon="13.5038058"><ele>117.71428571428572</ele><time>2026-04-23T08:42:49.631Z</time></trkpt><trkpt lat="45.8636734" lon="13.5038984"><ele>117.85714285714286</ele><time>2026-04-23T08:42:51.629Z</time></trkpt><trkpt lat="45.8636888" lon="13.5039969"><ele>118.0</ele><time>2026-04-23T08:42:53.622Z</time></trkpt><trkpt lat="45.8637197" lon="13.5040801"><ele>118.0</ele><time>2026-04-23T08:42:55.625Z</time></trkpt><trkpt lat="45.8637833" lon="13.5041257"><ele>118.0</ele><time>2026-04-23T08:42:57.63Z</time></trkpt><trkpt lat="45.8638543" lon="13.504155"><ele>118.0</ele><time>2026-04-23T08:42:59.61Z</time></trkpt><trkpt lat="45.863933" lon="13.5041483"><ele>118.0</ele><time>2026-04-23T08:43:01.641Z</time></trkpt><trkpt lat="45.8640028" lon="13.5041491"><ele>118.0</ele><time>2026-04-23T08:43:03.642Z</time></trkpt><trkpt lat="45.8640687" lon="13.5041542"><ele>118.0</ele><time>2026-04-23T08:43:05.624Z</time></trkpt><trkpt lat="45.8641349" lon="13.5041632"><ele>118.0</ele><time>2026-04-23T08:43:07.624Z</time></trkpt><trkpt lat="45.8641983" lon="13.5041741"><ele>119.00000000000001</ele><time>2026-04-23T08:43:09.624Z</time></trkpt><trkpt lat="45.8642881" lon="13.5041868"><ele>120.0</ele><time>2026-04-23T08:43:12.628Z</time></trkpt><trkpt lat="45.8643769" lon="13.5041553"><ele>121.0</ele><time>2026-04-23T08:43:15.622Z</time></trkpt><trkpt lat="45.8644595" lon="13.5041352"><ele>122.0</ele><time>2026-04-23T08:43:18.641Z</time></trkpt><trkpt lat="45.8645433" lon="13.5041559"><ele>123.00000000000001</ele><time>2026-04-23T08:43:21.641Z</time></trkpt><trkpt lat="45.8646151" lon="13.50419"><ele>124.0</ele><time>2026-04-23T08:43:24.617Z</time></trkpt><trkpt lat="45.8646915" lon="13.5042568"><ele>124.00000000000001</ele><time>2026-04-23T08:43:28.627Z</time></trkpt><trkpt lat="45.8647508" lon="13.5043026"><ele>124.0</ele><time>2026-04-23T08:43:30.627Z</time></trkpt><trkpt lat="45.8648276" lon="13.504373"><ele>124.0</ele><time>2026-04-23T08:43:33.624Z</time></trkpt><trkpt lat="45.8648843" lon="13.5044451"><ele>124.0</ele><time>2026-04-23T08:43:36.614Z</time></trkpt><trkpt lat="45.8649425" lon="13.5045293"><ele>124.00000000000001</ele><time>2026-04-23T08:43:39.639Z</time></trkpt><trkpt lat="45.8649776" lon="13.5046216"><ele>124.0</ele><time>2026-04-23T08:43:42.644Z</time></trkpt><trkpt lat="45.8650208" lon="13.5047444"><ele>124.33333333333334</ele><time>2026-04-23T08:43:45.624Z</time></trkpt><trkpt lat="45.8650494" lon="13.5048317"><ele>124.66666666666667</ele><time>2026-04-23T08:43:47.629Z</time></trkpt><trkpt lat="45.8650944" lon="13.5049492"><ele>125.0</ele><time>2026-04-23T08:43:50.623Z</time></trkpt><trkpt lat="45.8651257" lon="13.5050285"><ele>125.33333333333334</ele><time>2026-04-23T08:43:52.616Z</time></trkpt><trkpt lat="45.8651646" lon="13.5051292"><ele>125.66666666666667</ele><time>2026-04-23T08:43:55.619Z</time></trkpt><trkpt lat="45.8651826" lon="13.5052523"><ele>126.0</ele><time>2026-04-23T08:43:58.633Z</time></trkpt><trkpt lat="45.8651902" lon="13.5053578"><ele>126.85714285714286</ele><time>2026-04-23T08:44:00.62Z</time></trkpt><trkpt lat="45.8651957" lon="13.5054572"><ele>127.71428571428572</ele><time>2026-04-23T08:44:02.615Z</time></trkpt><trkpt lat="45.8652034" lon="13.5055481"><ele>128.57142857142856</ele><time>2026-04-23T08:44:04.628Z</time></trkpt><trkpt lat="45.8652067" lon="13.5056419"><ele>129.42857142857144</ele><time>2026-04-23T08:44:06.627Z</time></trkpt><trkpt lat="45.8652201" lon="13.5057729"><ele>130.28571428571428</ele><time>2026-04-23T08:44:09.661Z</time></trkpt><trkpt lat="45.8652302" lon="13.5058671"><ele>131.14285714285714</ele><time>2026-04-23T08:44:11.628Z</time></trkpt><trkpt lat="45.8652348" lon="13.5059959"><ele>132.0</ele><time>2026-04-23T08:44:14.623Z</time></trkpt><trkpt lat="45.8652351" lon="13.5060955"><ele>132.0</ele><time>2026-04-23T08:44:16.633Z</time></trkpt><trkpt lat="45.8652374" lon="13.5061879"><ele>132.0</ele><time>2026-04-23T08:44:18.648Z</time></trkpt><trkpt lat="45.8652411" lon="13.5062916"><ele>132.0</ele><time>2026-04-23T08:44:20.638Z</time></trkpt><trkpt lat="45.8652447" lon="13.5064018"><ele>132.0</ele><time>2026-04-23T08:44:22.618Z</time></trkpt><trkpt lat="45.865251" lon="13.5065116"><ele>132.0</ele><time>2026-04-23T08:44:24.617Z</time></trkpt><trkpt lat="45.8652701" lon="13.5066127"><ele>132.0</ele><time>2026-04-23T08:44:26.637Z</time></trkpt><trkpt lat="45.8652994" lon="13.5067023"><ele>132.0</ele><time>2026-04-23T08:44:28.631Z</time></trkpt><trkpt lat="45.8653341" lon="13.5067993"><ele>131.5</ele><time>2026-04-23T08:44:30.63Z</time></trkpt><trkpt lat="45.8653616" lon="13.5069109"><ele>131.0</ele><time>2026-04-23T08:44:32.638Z</time></trkpt><trkpt lat="45.8653877" lon="13.5070235"><ele>130.5</ele><time>2026-04-23T08:44:34.616Z</time></trkpt><trkpt lat="45.8654198" lon="13.507137"><ele>130.0</ele><time>2026-04-23T08:44:36.619Z</time></trkpt><trkpt lat="45.8654467" lon="13.5072554"><ele>129.5</ele><time>2026-04-23T08:44:38.623Z</time></trkpt><trkpt lat="45.8654764" lon="13.5073749"><ele>129.0</ele><time>2026-04-23T08:44:40.632Z</time></trkpt><trkpt lat="45.8655" lon="13.5074916"><ele>129.0</ele><time>2026-04-23T08:44:42.628Z</time></trkpt><trkpt lat="45.8655172" lon="13.5076119"><ele>129.0</ele><time>2026-04-23T08:44:44.624Z</time></trkpt><trkpt lat="45.8655401" lon="13.5077373"><ele>129.0</ele><time>2026-04-23T08:44:46.617Z</time></trkpt><trkpt lat="45.8655606" lon="13.5078494"><ele>129.0</ele><time>2026-04-23T08:44:48.62Z</time></trkpt><trkpt lat="45.8655908" lon="13.5079562"><ele>129.0</ele><time>2026-04-23T08:44:50.606Z</time></trkpt><trkpt lat="45.865637" lon="13.5080529"><ele>129.0</ele><time>2026-04-23T08:44:52.63Z</time></trkpt><trkpt lat="45.8656861" lon="13.5081233"><ele>128.83333333333334</ele><time>2026-04-23T08:44:54.635Z</time></trkpt><trkpt lat="45.8657438" lon="13.5081927"><ele>128.66666666666666</ele><time>2026-04-23T08:44:56.637Z</time></trkpt><trkpt lat="45.8658044" lon="13.5082702"><ele>128.5</ele><time>2026-04-23T08:44:58.654Z</time></trkpt><trkpt lat="45.8658487" lon="13.5083673"><ele>128.33333333333331</ele><time>2026-04-23T08:45:00.639Z</time></trkpt><trkpt lat="45.8658813" lon="13.5084905"><ele>128.16666666666666</ele><time>2026-04-23T08:45:02.64Z</time></trkpt><trkpt lat="45.8659028" lon="13.5086206"><ele>128.0</ele><time>2026-04-23T08:45:04.619Z</time></trkpt><trkpt lat="45.8659201" lon="13.508749"><ele>127.83333333333333</ele><time>2026-04-23T08:45:06.625Z</time></trkpt><trkpt lat="45.8659436" lon="13.5088782"><ele>127.66666666666666</ele><time>2026-04-23T08:45:08.611Z</time></trkpt><trkpt lat="45.8659728" lon="13.5089994"><ele>127.5</ele><time>2026-04-23T08:45:10.617Z</time></trkpt><trkpt lat="45.8660279" lon="13.5090744"><ele>127.33333333333334</ele><time>2026-04-23T08:45:13.632Z</time></trkpt><trkpt lat="45.8661202" lon="13.5090969"><ele>127.16666666666667</ele><time>2026-04-23T08:45:16.621Z</time></trkpt><trkpt lat="45.86619" lon="13.5090948"><ele>127.0</ele><time>2026-04-23T08:45:18.62Z</time></trkpt><trkpt lat="45.86626" lon="13.5090742"><ele>127.66666666666667</ele><time>2026-04-23T08:45:20.624Z</time></trkpt><trkpt lat="45.8663281" lon="13.5090625"><ele>128.33333333333334</ele><time>2026-04-23T08:45:22.626Z</time></trkpt><trkpt lat="45.8664009" lon="13.5090558"><ele>129.0</ele><time>2026-04-23T08:45:24.614Z</time></trkpt><trkpt lat="45.8664752" lon="13.5090445"><ele>129.66666666666666</ele><time>2026-04-23T08:45:26.62Z</time></trkpt><trkpt lat="45.8665536" lon="13.5090307"><ele>130.33333333333331</ele><time>2026-04-23T08:45:28.614Z</time></trkpt><trkpt lat="45.866634" lon="13.5090158"><ele>131.0</ele><time>2026-04-23T08:45:30.621Z</time></trkpt><trkpt lat="45.8667157" lon="13.5090034"><ele>130.83333333333331</ele><time>2026-04-23T08:45:32.623Z</time></trkpt><trkpt lat="45.8667975" lon="13.5089919"><ele>130.66666666666666</ele><time>2026-04-23T08:45:34.621Z</time></trkpt><trkpt lat="45.866879" lon="13.5089777"><ele>130.5</ele><time>2026-04-23T08:45:36.629Z</time></trkpt><trkpt lat="45.8669599" lon="13.5089658"><ele>130.33333333333334</ele><time>2026-04-23T08:45:38.617Z</time></trkpt><trkpt lat="45.8670384" lon="13.5089549"><ele>130.16666666666669</ele><time>2026-04-23T08:45:40.642Z</time></trkpt><trkpt lat="45.8671115" lon="13.508946"><ele>130.0</ele><time>2026-04-23T08:45:42.651Z</time></trkpt><trkpt lat="45.8671843" lon="13.508936"><ele>130.00000000000003</ele><time>2026-04-23T08:45:44.634Z</time></trkpt><trkpt lat="45.86725" lon="13.508929"><ele>130.0</ele><time>2026-04-23T08:45:46.611Z</time></trkpt><trkpt lat="45.8673233" lon="13.5089133"><ele>130.0</ele><time>2026-04-23T08:45:48.614Z</time></trkpt><trkpt lat="45.8673907" lon="13.5088878"><ele>130.0</ele><time>2026-04-23T08:45:50.618Z</time></trkpt><trkpt lat="45.8674583" lon="13.5088583"><ele>130.0</ele><time>2026-04-23T08:45:52.626Z</time></trkpt><trkpt lat="45.8675312" lon="13.5088124"><ele>130.00000000000003</ele><time>2026-04-23T08:45:54.617Z</time></trkpt><trkpt lat="45.8676089" lon="13.5087523"><ele>130.0</ele><time>2026-04-23T08:45:56.629Z</time></trkpt><trkpt lat="45.8676904" lon="13.5086819"><ele>130.0</ele><time>2026-04-23T08:45:58.628Z</time></trkpt><trkpt lat="45.8677727" lon="13.5086107"><ele>130.0</ele><time>2026-04-23T08:46:00.628Z</time></trkpt><trkpt lat="45.8678566" lon="13.5085248"><ele>130.0</ele><time>2026-04-23T08:46:02.626Z</time></trkpt><trkpt lat="45.8679325" lon="13.508435"><ele>130.0</ele><time>2026-04-23T08:46:04.624Z</time></trkpt><trkpt lat="45.8680037" lon="13.5083431"><ele>130.0</ele><time>2026-04-23T08:46:06.613Z</time></trkpt><trkpt lat="45.8680702" lon="13.5082501"><ele>130.0</ele><time>2026-04-23T08:46:08.631Z</time></trkpt><trkpt lat="45.8681306" lon="13.508153"><ele>130.0</ele><time>2026-04-23T08:46:10.617Z</time></trkpt><trkpt lat="45.8681882" lon="13.5080529"><ele>130.0</ele><time>2026-04-23T08:46:12.641Z</time></trkpt><trkpt lat="45.8682472" lon="13.5079516"><ele>130.0</ele><time>2026-04-23T08:46:14.619Z</time></trkpt><trkpt lat="45.8683109" lon="13.5078542"><ele>130.0</ele><time>2026-04-23T08:46:16.639Z</time></trkpt><trkpt lat="45.8683882" lon="13.5077794"><ele>130.0</ele><time>2026-04-23T08:46:18.638Z</time></trkpt><trkpt lat="45.868481" lon="13.5077322"><ele>130.0</ele><time>2026-04-23T08:46:20.625Z</time></trkpt><trkpt lat="45.8685882" lon="13.507719"><ele>130.0</ele><time>2026-04-23T08:46:22.634Z</time></trkpt><trkpt lat="45.8687068" lon="13.5077173"><ele>130.0</ele><time>2026-04-23T08:46:24.627Z</time></trkpt><trkpt lat="45.8688277" lon="13.5077218"><ele>130.0</ele><time>2026-04-23T08:46:26.622Z</time></trkpt><trkpt lat="45.8689392" lon="13.5077202"><ele>130.0</ele><time>2026-04-23T08:46:28.615Z</time></trkpt><trkpt lat="45.869046" lon="13.5077216"><ele>130.0</ele><time>2026-04-23T08:46:30.618Z</time></trkpt><trkpt lat="45.8691367" lon="13.5077174"><ele>130.0</ele><time>2026-04-23T08:46:32.63Z</time></trkpt><trkpt lat="45.869228" lon="13.5077168"><ele>130.0</ele><time>2026-04-23T08:46:34.625Z</time></trkpt><trkpt lat="45.8693282" lon="13.5077178"><ele>130.0</ele><time>2026-04-23T08:46:36.618Z</time></trkpt><trkpt lat="45.8694163" lon="13.5077133"><ele>130.16666666666669</ele><time>2026-04-23T08:46:38.624Z</time></trkpt><trkpt lat="45.8695053" lon="13.5077114"><ele>130.33333333333334</ele><time>2026-04-23T08:46:40.616Z</time></trkpt><trkpt lat="45.8695888" lon="13.5077066"><ele>130.5</ele><time>2026-04-23T08:46:42.643Z</time></trkpt><trkpt lat="45.8696595" lon="13.5077038"><ele>130.66666666666666</ele><time>2026-04-23T08:46:44.63Z</time></trkpt><trkpt lat="45.8697398" lon="13.5077324"><ele>130.83333333333331</ele><time>2026-04-23T08:46:47.614Z</time></trkpt><trkpt lat="45.8697794" lon="13.5078653"><ele>131.0</ele><time>2026-04-23T08:46:50.633Z</time></trkpt><trkpt lat="45.8698101" lon="13.5079742"><ele>131.33333333333331</ele><time>2026-04-23T08:46:52.619Z</time></trkpt><trkpt lat="45.8698511" lon="13.5080728"><ele>131.66666666666666</ele><time>2026-04-23T08:46:54.626Z</time></trkpt><trkpt lat="45.8698872" lon="13.5081665"><ele>132.0</ele><time>2026-04-23T08:46:56.628Z</time></trkpt><trkpt lat="45.8699134" lon="13.508255"><ele>132.33333333333334</ele><time>2026-04-23T08:46:58.617Z</time></trkpt><trkpt lat="45.869923" lon="13.5083619"><ele>132.66666666666669</ele><time>2026-04-23T08:47:00.633Z</time></trkpt><trkpt lat="45.8699104" lon="13.5084528"><ele>133.0</ele><time>2026-04-23T08:47:02.635Z</time></trkpt><trkpt lat="45.869876" lon="13.5085713"><ele>133.0</ele><time>2026-04-23T08:47:04.631Z</time></trkpt><trkpt lat="45.8698513" lon="13.5086555"><ele>133.0</ele><time>2026-04-23T08:47:06.61Z</time></trkpt><trkpt lat="45.8698181" lon="13.5087736"><ele>133.0</ele><time>2026-04-23T08:47:09.631Z</time></trkpt><trkpt lat="45.8697692" lon="13.508893"><ele>133.0</ele><time>2026-04-23T08:47:12.626Z</time></trkpt><trkpt lat="45.8697291" lon="13.5089986"><ele>133.0</ele><time>2026-04-23T08:47:14.621Z</time></trkpt><trkpt lat="45.8697003" lon="13.5090943"><ele>133.0</ele><time>2026-04-23T08:47:16.609Z</time></trkpt><trkpt lat="45.8696792" lon="13.509207"><ele>133.28571428571428</ele><time>2026-04-23T08:47:18.621Z</time></trkpt><trkpt lat="45.8696581" lon="13.5092941"><ele>133.57142857142856</ele><time>2026-04-23T08:47:20.625Z</time></trkpt><trkpt lat="45.869634" lon="13.5093814"><ele>133.85714285714286</ele><time>2026-04-23T08:47:22.631Z</time></trkpt><trkpt lat="45.8696126" lon="13.509474"><ele>134.14285714285714</ele><time>2026-04-23T08:47:24.62Z</time></trkpt><trkpt lat="45.8695839" lon="13.5095987"><ele>134.42857142857142</ele><time>2026-04-23T08:47:26.611Z</time></trkpt><trkpt lat="45.869561" lon="13.5097199"><ele>134.71428571428572</ele><time>2026-04-23T08:47:28.62Z</time></trkpt><trkpt lat="45.8695548" lon="13.5098233"><ele>135.0</ele><time>2026-04-23T08:47:30.648Z</time></trkpt><trkpt lat="45.8695469" lon="13.5099307"><ele>135.16666666666666</ele><time>2026-04-23T08:47:32.628Z</time></trkpt><trkpt lat="45.8695369" lon="13.5100291"><ele>135.33333333333334</ele><time>2026-04-23T08:47:34.616Z</time></trkpt><trkpt lat="45.8695211" lon="13.510122"><ele>135.5</ele><time>2026-04-23T08:47:36.634Z</time></trkpt><trkpt lat="45.8694944" lon="13.5102487"><ele>135.66666666666669</ele><time>2026-04-23T08:47:39.62Z</time></trkpt><trkpt lat="45.8694825" lon="13.5103444"><ele>135.83333333333334</ele><time>2026-04-23T08:47:41.621Z</time></trkpt><trkpt lat="45.8694601" lon="13.5104383"><ele>136.0</ele><time>2026-04-23T08:47:43.614Z</time></trkpt><trkpt lat="45.8694129" lon="13.5105446"><ele>136.66666666666669</ele><time>2026-04-23T08:47:45.621Z</time></trkpt><trkpt lat="45.8693641" lon="13.5106463"><ele>137.33333333333334</ele><time>2026-04-23T08:47:47.625Z</time></trkpt><trkpt lat="45.8693329" lon="13.5107588"><ele>138.0</ele><time>2026-04-23T08:47:49.614Z</time></trkpt><trkpt lat="45.8693351" lon="13.5108716"><ele>138.66666666666666</ele><time>2026-04-23T08:47:51.619Z</time></trkpt><trkpt lat="45.869362" lon="13.5109894"><ele>139.33333333333331</ele><time>2026-04-23T08:47:54.63Z</time></trkpt><trkpt lat="45.8693821" lon="13.5110929"><ele>140.0</ele><time>2026-04-23T08:47:57.62Z</time></trkpt><trkpt lat="45.8694429" lon="13.5111348"><ele>140.0</ele><time>2026-04-23T08:48:19.617Z</time></trkpt><trkpt lat="45.8694631" lon="13.511248"><ele>140.0</ele><time>2026-04-23T08:48:23.632Z</time></trkpt><trkpt lat="45.8694146" lon="13.511336"><ele>140.0</ele><time>2026-04-23T08:48:26.62Z</time></trkpt><trkpt lat="45.8693393" lon="13.5113701"><ele>140.0</ele><time>2026-04-23T08:48:28.626Z</time></trkpt><trkpt lat="45.8692711" lon="13.5114385"><ele>140.0</ele><time>2026-04-23T08:48:30.621Z</time></trkpt><trkpt lat="45.8692103" lon="13.5115064"><ele>140.0</ele><time>2026-04-23T08:48:32.625Z</time></trkpt><trkpt lat="45.8691575" lon="13.5115692"><ele>140.0</ele><time>2026-04-23T08:48:34.637Z</time></trkpt><trkpt lat="45.8691536" lon="13.5116932"><ele>140.0</ele><time>2026-04-23T08:48:37.632Z</time></trkpt><trkpt lat="45.8691787" lon="13.5118183"><ele>140.0</ele><time>2026-04-23T08:48:40.628Z</time></trkpt><trkpt lat="45.8692058" lon="13.5119107"><ele>140.0</ele><time>2026-04-23T08:48:43.625Z</time></trkpt><trkpt lat="45.869234" lon="13.512021"><ele>140.0</ele><time>2026-04-23T08:48:46.635Z</time></trkpt><trkpt lat="45.8692263" lon="13.5121326"><ele>140.0</ele><time>2026-04-23T08:48:48.613Z</time></trkpt><trkpt lat="45.8693032" lon="13.5121988"><ele>140.16666666666666</ele><time>2026-04-23T08:48:51.62Z</time></trkpt><trkpt lat="45.8693639" lon="13.5122336"><ele>140.33333333333331</ele><time>2026-04-23T08:48:53.637Z</time></trkpt><trkpt lat="45.8693844" lon="13.5123297"><ele>140.5</ele><time>2026-04-23T08:48:55.621Z</time></trkpt><trkpt lat="45.8694234" lon="13.5124502"><ele>140.66666666666666</ele><time>2026-04-23T08:48:58.627Z</time></trkpt><trkpt lat="45.8694768" lon="13.5125223"><ele>140.83333333333334</ele><time>2026-04-23T08:49:00.613Z</time></trkpt><trkpt lat="45.8695033" lon="13.5126459"><ele>141.0</ele><time>2026-04-23T08:49:02.619Z</time></trkpt><trkpt lat="45.8694533" lon="13.5127385"><ele>141.0</ele><time>2026-04-23T08:49:04.633Z</time></trkpt><trkpt lat="45.8694045" lon="13.5128281"><ele>141.0</ele><time>2026-04-23T08:49:06.613Z</time></trkpt><trkpt lat="45.8693561" lon="13.5129428"><ele>141.0</ele><time>2026-04-23T08:49:08.625Z</time></trkpt><trkpt lat="45.8693054" lon="13.5130599"><ele>141.0</ele><time>2026-04-23T08:49:10.624Z</time></trkpt><trkpt lat="45.8692522" lon="13.513155"><ele>141.0</ele><time>2026-04-23T08:49:12.616Z</time></trkpt><trkpt lat="45.869211" lon="13.5132429"><ele>141.0</ele><time>2026-04-23T08:49:14.63Z</time></trkpt><trkpt lat="45.8691649" lon="13.5133608"><ele>141.16666666666666</ele><time>2026-04-23T08:49:17.634Z</time></trkpt><trkpt lat="45.8691331" lon="13.5134449"><ele>141.33333333333334</ele><time>2026-04-23T08:49:19.616Z</time></trkpt><trkpt lat="45.869076" lon="13.5135335"><ele>141.5</ele><time>2026-04-23T08:49:22.635Z</time></trkpt><trkpt lat="45.8690138" lon="13.5136034"><ele>141.66666666666669</ele><time>2026-04-23T08:49:25.623Z</time></trkpt><trkpt lat="45.8689566" lon="13.5136866"><ele>141.83333333333334</ele><time>2026-04-23T08:49:28.629Z</time></trkpt><trkpt lat="45.8688992" lon="13.5137773"><ele>142.0</ele><time>2026-04-23T08:49:31.619Z</time></trkpt><trkpt lat="45.8688444" lon="13.5138498"><ele>142.16666666666669</ele><time>2026-04-23T08:49:34.62Z</time></trkpt><trkpt lat="45.8687673" lon="13.5139346"><ele>142.33333333333334</ele><time>2026-04-23T08:49:37.634Z</time></trkpt><trkpt lat="45.868715" lon="13.5139916"><ele>142.5</ele><time>2026-04-23T08:49:39.627Z</time></trkpt><trkpt lat="45.8686675" lon="13.5140637"><ele>142.66666666666666</ele><time>2026-04-23T08:49:41.621Z</time></trkpt><trkpt lat="45.8686505" lon="13.5141709"><ele>142.83333333333331</ele><time>2026-04-23T08:49:43.625Z</time></trkpt><trkpt lat="45.8686372" lon="13.5142715"><ele>143.0</ele><time>2026-04-23T08:49:45.619Z</time></trkpt><trkpt lat="45.8686161" lon="13.51438"><ele>142.99999999999997</ele><time>2026-04-23T08:49:47.62Z</time></trkpt><trkpt lat="45.8686012" lon="13.5145001"><ele>143.0</ele><time>2026-04-23T08:49:49.62Z</time></trkpt><trkpt lat="45.8686006" lon="13.5146052"><ele>143.0</ele><time>2026-04-23T08:49:51.643Z</time></trkpt><trkpt lat="45.8686219" lon="13.5146913"><ele>143.0</ele><time>2026-04-23T08:49:53.632Z</time></trkpt><trkpt lat="45.8686492" lon="13.5147739"><ele>143.0</ele><time>2026-04-23T08:49:55.623Z</time></trkpt><trkpt lat="45.8686856" lon="13.5148508"><ele>142.99999999999997</ele><time>2026-04-23T08:49:57.61Z</time></trkpt><trkpt lat="45.8687391" lon="13.5149016"><ele>143.0</ele><time>2026-04-23T08:49:59.631Z</time></trkpt><trkpt lat="45.8687876" lon="13.5149621"><ele>143.5</ele><time>2026-04-23T08:50:01.639Z</time></trkpt><trkpt lat="45.8688106" lon="13.515089"><ele>144.0</ele><time>2026-04-23T08:50:04.635Z</time></trkpt><trkpt lat="45.8688275" lon="13.5151792"><ele>144.5</ele><time>2026-04-23T08:50:06.625Z</time></trkpt><trkpt lat="45.8688537" lon="13.5152727"><ele>145.0</ele><time>2026-04-23T08:50:09.633Z</time></trkpt><trkpt lat="45.8689342" lon="13.5153137"><ele>145.5</ele><time>2026-04-23T08:50:13.634Z</time></trkpt><trkpt lat="45.869023" lon="13.5153004"><ele>146.0</ele><time>2026-04-23T08:50:16.627Z</time></trkpt><trkpt lat="45.8691065" lon="13.5153595"><ele>146.83333333333331</ele><time>2026-04-23T08:50:19.628Z</time></trkpt><trkpt lat="45.8691628" lon="13.5154558"><ele>147.66666666666666</ele><time>2026-04-23T08:50:22.622Z</time></trkpt><trkpt lat="45.8691797" lon="13.5155793"><ele>148.5</ele><time>2026-04-23T08:50:25.623Z</time></trkpt><trkpt lat="45.8691804" lon="13.5157015"><ele>149.33333333333334</ele><time>2026-04-23T08:50:28.627Z</time></trkpt><trkpt lat="45.8691814" lon="13.5158183"><ele>150.16666666666669</ele><time>2026-04-23T08:50:31.638Z</time></trkpt><trkpt lat="45.8691934" lon="13.5159348"><ele>151.0</ele><time>2026-04-23T08:50:34.624Z</time></trkpt><trkpt lat="45.869218" lon="13.5160472"><ele>151.0</ele><time>2026-04-23T08:50:37.635Z</time></trkpt><trkpt lat="45.8692219" lon="13.5161685"><ele>151.0</ele><time>2026-04-23T08:50:40.619Z</time></trkpt><trkpt lat="45.8691768" lon="13.5162793"><ele>151.0</ele><time>2026-04-23T08:50:43.623Z</time></trkpt><trkpt lat="45.8691762" lon="13.5163976"><ele>151.0</ele><time>2026-04-23T08:50:45.632Z</time></trkpt><trkpt lat="45.8692203" lon="13.5164779"><ele>151.0</ele><time>2026-04-23T08:50:47.619Z</time></trkpt><trkpt lat="45.869279" lon="13.516548"><ele>151.0</ele><time>2026-04-23T08:50:50.625Z</time></trkpt><trkpt lat="45.8693054" lon="13.516656"><ele>151.85714285714286</ele><time>2026-04-23T08:50:53.625Z</time></trkpt><trkpt lat="45.8693011" lon="13.5167463"><ele>152.71428571428572</ele><time>2026-04-23T08:50:55.627Z</time></trkpt><trkpt lat="45.869273" lon="13.5168359"><ele>153.57142857142856</ele><time>2026-04-23T08:50:57.641Z</time></trkpt><trkpt lat="45.869251" lon="13.5169342"><ele>154.42857142857144</ele><time>2026-04-23T08:50:59.627Z</time></trkpt><trkpt lat="45.8692667" lon="13.5170396"><ele>155.28571428571428</ele><time>2026-04-23T08:51:01.65Z</time></trkpt><trkpt lat="45.8693288" lon="13.5171408"><ele>156.14285714285714</ele><time>2026-04-23T08:51:04.623Z</time></trkpt><trkpt lat="45.8693476" lon="13.517243"><ele>157.0</ele><time>2026-04-23T08:51:06.628Z</time></trkpt><trkpt lat="45.8693563" lon="13.5173453"><ele>158.0</ele><time>2026-04-23T08:51:08.627Z</time></trkpt><trkpt lat="45.8693943" lon="13.517426"><ele>159.0</ele><time>2026-04-23T08:51:10.631Z</time></trkpt><trkpt lat="45.8694603" lon="13.5175019"><ele>160.0</ele><time>2026-04-23T08:51:13.622Z</time></trkpt><trkpt lat="45.8695187" lon="13.5175761"><ele>161.0</ele><time>2026-04-23T08:51:16.643Z</time></trkpt><trkpt lat="45.8695462" lon="13.5176902"><ele>162.0</ele><time>2026-04-23T08:51:19.633Z</time></trkpt><trkpt lat="45.8695652" lon="13.5177795"><ele>163.0</ele><time>2026-04-23T08:51:22.627Z</time></trkpt><trkpt lat="45.8695964" lon="13.5178905"><ele>162.83333333333334</ele><time>2026-04-23T08:51:25.621Z</time></trkpt><trkpt lat="45.8696407" lon="13.5179661"><ele>162.66666666666669</ele><time>2026-04-23T08:51:27.628Z</time></trkpt><trkpt lat="45.8697202" lon="13.5180268"><ele>162.5</ele><time>2026-04-23T08:51:30.642Z</time></trkpt><trkpt lat="45.8697878" lon="13.5180939"><ele>162.33333333333334</ele><time>2026-04-23T08:51:33.639Z</time></trkpt><trkpt lat="45.8698406" lon="13.5181835"><ele>162.16666666666666</ele><time>2026-04-23T08:51:36.619Z</time></trkpt><trkpt lat="45.8698788" lon="13.5182576"><ele>162.0</ele><time>2026-04-23T08:51:39.635Z</time></trkpt><trkpt lat="45.8698895" lon="13.5183579"><ele>162.0</ele><time>2026-04-23T08:53:16.613Z</time></trkpt><trkpt lat="45.8698954" lon="13.5184614"><ele>162.0</ele><time>2026-04-23T08:53:20.625Z</time></trkpt><trkpt lat="45.8698632" lon="13.51857"><ele>162.0</ele><time>2026-04-23T08:53:23.608Z</time></trkpt><trkpt lat="45.8698809" lon="13.5186665"><ele>162.0</ele><time>2026-04-23T08:53:26.626Z</time></trkpt><trkpt lat="45.8698971" lon="13.5187547"><ele>162.0</ele><time>2026-04-23T08:53:29.616Z</time></trkpt><trkpt lat="45.869827" lon="13.5187738"><ele>162.0</ele><time>2026-04-23T08:53:32.63Z</time></trkpt><trkpt lat="45.8697595" lon="13.5187744"><ele>162.0</ele><time>2026-04-23T08:53:34.631Z</time></trkpt><trkpt lat="45.8696826" lon="13.5187808"><ele>162.16666666666666</ele><time>2026-04-23T08:53:36.642Z</time></trkpt><trkpt lat="45.8696057" lon="13.5187886"><ele>162.33333333333334</ele><time>2026-04-23T08:53:38.627Z</time></trkpt><trkpt lat="45.8695345" lon="13.5187976"><ele>162.5</ele><time>2026-04-23T08:53:40.62Z</time></trkpt><trkpt lat="45.8694422" lon="13.5187919"><ele>162.66666666666669</ele><time>2026-04-23T08:53:42.634Z</time></trkpt><trkpt lat="45.8693535" lon="13.5188026"><ele>162.83333333333334</ele><time>2026-04-23T08:53:44.622Z</time></trkpt><trkpt lat="45.8692581" lon="13.5188073"><ele>163.0</ele><time>2026-04-23T08:53:46.632Z</time></trkpt><trkpt lat="45.8691658" lon="13.5187864"><ele>162.66666666666669</ele><time>2026-04-23T08:53:48.634Z</time></trkpt><trkpt lat="45.8690941" lon="13.518747"><ele>162.33333333333334</ele><time>2026-04-23T08:53:50.629Z</time></trkpt><trkpt lat="45.8690109" lon="13.5187038"><ele>162.0</ele><time>2026-04-23T08:53:53.621Z</time></trkpt><trkpt lat="45.8689399" lon="13.5187764"><ele>161.66666666666666</ele><time>2026-04-23T08:53:56.625Z</time></trkpt><trkpt lat="45.8688965" lon="13.518858"><ele>161.33333333333331</ele><time>2026-04-23T08:53:58.643Z</time></trkpt><trkpt lat="45.8688488" lon="13.5189435"><ele>161.0</ele><time>2026-04-23T08:54:00.629Z</time></trkpt><trkpt lat="45.86879" lon="13.5190293"><ele>160.8</ele><time>2026-04-23T08:54:02.636Z</time></trkpt><trkpt lat="45.8687179" lon="13.5191182"><ele>160.60000000000002</ele><time>2026-04-23T08:54:04.62Z</time></trkpt><trkpt lat="45.868646" lon="13.5192191"><ele>160.4</ele><time>2026-04-23T08:54:06.654Z</time></trkpt><trkpt lat="45.8685647" lon="13.5193189"><ele>160.2</ele><time>2026-04-23T08:54:08.643Z</time></trkpt><trkpt lat="45.8684879" lon="13.5194154"><ele>160.0</ele><time>2026-04-23T08:54:10.636Z</time></trkpt><trkpt lat="45.868396" lon="13.5194913"><ele>158.8</ele><time>2026-04-23T08:54:12.618Z</time></trkpt><trkpt lat="45.8682864" lon="13.5194849"><ele>157.6</ele><time>2026-04-23T08:54:14.619Z</time></trkpt><trkpt lat="45.8681943" lon="13.5194029"><ele>156.4</ele><time>2026-04-23T08:54:16.608Z</time></trkpt><trkpt lat="45.8681279" lon="13.5192764"><ele>155.2</ele><time>2026-04-23T08:54:18.627Z</time></trkpt><trkpt lat="45.868069" lon="13.5191574"><ele>154.0</ele><time>2026-04-23T08:54:20.617Z</time></trkpt><trkpt lat="45.8680088" lon="13.5190581"><ele>154.0</ele><time>2026-04-23T08:54:22.633Z</time></trkpt><trkpt lat="45.8679404" lon="13.5189675"><ele>154.0</ele><time>2026-04-23T08:54:24.624Z</time></trkpt><trkpt lat="45.8678763" lon="13.5188686"><ele>154.0</ele><time>2026-04-23T08:54:26.649Z</time></trkpt><trkpt lat="45.8678168" lon="13.5187782"><ele>154.0</ele><time>2026-04-23T08:54:28.615Z</time></trkpt><trkpt lat="45.8677546" lon="13.5186832"><ele>154.0</ele><time>2026-04-23T08:54:30.638Z</time></trkpt><trkpt lat="45.8677194" lon="13.5185621"><ele>153.8</ele><time>2026-04-23T08:54:32.635Z</time></trkpt><trkpt lat="45.867713" lon="13.5184031"><ele>153.60000000000002</ele><time>2026-04-23T08:54:34.632Z</time></trkpt><trkpt lat="45.8677255" lon="13.5182369"><ele>153.4</ele><time>2026-04-23T08:54:36.625Z</time></trkpt><trkpt lat="45.8677292" lon="13.5180739"><ele>153.20000000000002</ele><time>2026-04-23T08:54:38.621Z</time></trkpt><trkpt lat="45.8677319" lon="13.5179336"><ele>153.0</ele><time>2026-04-23T08:54:40.625Z</time></trkpt><trkpt lat="45.8677377" lon="13.517833"><ele>153.0</ele><time>2026-04-23T08:54:42.607Z</time></trkpt><trkpt lat="45.8677361" lon="13.517724"><ele>153.0</ele><time>2026-04-23T08:54:45.63Z</time></trkpt><trkpt lat="45.8676594" lon="13.5176236"><ele>153.0</ele><time>2026-04-23T08:54:48.622Z</time></trkpt><trkpt lat="45.8675656" lon="13.5175776"><ele>153.0</ele><time>2026-04-23T08:54:50.619Z</time></trkpt><trkpt lat="45.8674584" lon="13.517536"><ele>153.0</ele><time>2026-04-23T08:54:52.609Z</time></trkpt><trkpt lat="45.8673474" lon="13.5174686"><ele>151.20000000000002</ele><time>2026-04-23T08:54:54.635Z</time></trkpt><trkpt lat="45.8672392" lon="13.5174132"><ele>149.4</ele><time>2026-04-23T08:54:56.625Z</time></trkpt><trkpt lat="45.8671381" lon="13.5174041"><ele>147.60000000000002</ele><time>2026-04-23T08:54:58.621Z</time></trkpt><trkpt lat="45.8670439" lon="13.5173764"><ele>145.8</ele><time>2026-04-23T08:55:00.622Z</time></trkpt><trkpt lat="45.8669537" lon="13.5173679"><ele>144.0</ele><time>2026-04-23T08:55:02.619Z</time></trkpt><trkpt lat="45.8668756" lon="13.5173808"><ele>144.0</ele><time>2026-04-23T08:55:04.615Z</time></trkpt><trkpt lat="45.866807" lon="13.5173722"><ele>144.0</ele><time>2026-04-23T08:55:06.633Z</time></trkpt><trkpt lat="45.8667177" lon="13.5173298"><ele>144.0</ele><time>2026-04-23T08:55:08.62Z</time></trkpt><trkpt lat="45.8666601" lon="13.517283"><ele>144.0</ele><time>2026-04-23T08:55:09.635Z</time></trkpt><trkpt lat="45.8665788" lon="13.5171795"><ele>144.0</ele><time>2026-04-23T08:55:11.637Z</time></trkpt><trkpt lat="45.866509" lon="13.5170969"><ele>144.0</ele><time>2026-04-23T08:55:13.615Z</time></trkpt><trkpt lat="45.8664124" lon="13.517045"><ele>141.83333333333334</ele><time>2026-04-23T08:55:15.636Z</time></trkpt><trkpt lat="45.8663136" lon="13.5170108"><ele>139.66666666666666</ele><time>2026-04-23T08:55:17.642Z</time></trkpt><trkpt lat="45.8662441" lon="13.5169775"><ele>137.5</ele><time>2026-04-23T08:55:19.628Z</time></trkpt><trkpt lat="45.8661877" lon="13.5169104"><ele>135.33333333333331</ele><time>2026-04-23T08:55:21.619Z</time></trkpt><trkpt lat="45.8661578" lon="13.5168164"><ele>133.16666666666666</ele><time>2026-04-23T08:55:23.614Z</time></trkpt><trkpt lat="45.8661808" lon="13.5166606"><ele>131.0</ele><time>2026-04-23T08:55:25.641Z</time></trkpt><trkpt lat="45.8662059" lon="13.516489"><ele>131.0</ele><time>2026-04-23T08:55:27.618Z</time></trkpt><trkpt lat="45.8661867" lon="13.5163131"><ele>131.0</ele><time>2026-04-23T08:55:29.639Z</time></trkpt><trkpt lat="45.866164" lon="13.5161533"><ele>131.0</ele><time>2026-04-23T08:55:31.621Z</time></trkpt><trkpt lat="45.8661521" lon="13.5159947"><ele>131.0</ele><time>2026-04-23T08:55:33.616Z</time></trkpt><trkpt lat="45.8661293" lon="13.5158348"><ele>130.4</ele><time>2026-04-23T08:55:35.611Z</time></trkpt><trkpt lat="45.8660848" lon="13.5156997"><ele>129.8</ele><time>2026-04-23T08:55:37.627Z</time></trkpt><trkpt lat="45.8660789" lon="13.5155611"><ele>129.20000000000002</ele><time>2026-04-23T08:55:39.635Z</time></trkpt><trkpt lat="45.866102" lon="13.5154337"><ele>128.6</ele><time>2026-04-23T08:55:41.625Z</time></trkpt><trkpt lat="45.8661265" lon="13.515312"><ele>128.0</ele><time>2026-04-23T08:55:43.617Z</time></trkpt><trkpt lat="45.8661457" lon="13.5152026"><ele>127.99999999999999</ele><time>2026-04-23T08:55:45.63Z</time></trkpt><trkpt lat="45.8661572" lon="13.5150793"><ele>128.0</ele><time>2026-04-23T08:55:47.642Z</time></trkpt><trkpt lat="45.866174" lon="13.51496"><ele>128.0</ele><time>2026-04-23T08:55:49.635Z</time></trkpt><trkpt lat="45.8661871" lon="13.5148481"><ele>128.0</ele><time>2026-04-23T08:55:51.625Z</time></trkpt><trkpt lat="45.8662052" lon="13.514728"><ele>127.99999999999999</ele><time>2026-04-23T08:55:53.634Z</time></trkpt><trkpt lat="45.8662375" lon="13.51461"><ele>128.0</ele><time>2026-04-23T08:55:55.658Z</time></trkpt><trkpt lat="45.8662686" lon="13.514491"><ele>128.5</ele><time>2026-04-23T08:55:57.617Z</time></trkpt><trkpt lat="45.8662952" lon="13.5143739"><ele>129.0</ele><time>2026-04-23T08:55:59.634Z</time></trkpt><trkpt lat="45.8663249" lon="13.5142696"><ele>129.5</ele><time>2026-04-23T08:56:01.62Z</time></trkpt><trkpt lat="45.8663441" lon="13.5141573"><ele>130.0</ele><time>2026-04-23T08:56:03.628Z</time></trkpt><trkpt lat="45.866359" lon="13.514035"><ele>130.5</ele><time>2026-04-23T08:56:05.616Z</time></trkpt><trkpt lat="45.8663723" lon="13.5139255"><ele>131.0</ele><time>2026-04-23T08:56:07.615Z</time></trkpt><trkpt lat="45.866384" lon="13.5138155"><ele>131.0</ele><time>2026-04-23T08:56:09.613Z</time></trkpt><trkpt lat="45.8663944" lon="13.5137051"><ele>131.0</ele><time>2026-04-23T08:56:11.648Z</time></trkpt><trkpt lat="45.8663996" lon="13.5136033"><ele>131.0</ele><time>2026-04-23T08:56:13.631Z</time></trkpt><trkpt lat="45.8664073" lon="13.5135107"><ele>131.0</ele><time>2026-04-23T08:56:15.63Z</time></trkpt><trkpt lat="45.8664199" lon="13.5133855"><ele>131.0</ele><time>2026-04-23T08:56:18.628Z</time></trkpt><trkpt lat="45.8664326" lon="13.5132527"><ele>131.0</ele><time>2026-04-23T08:56:21.63Z</time></trkpt><trkpt lat="45.8664386" lon="13.5131619"><ele>131.0</ele><time>2026-04-23T08:56:23.633Z</time></trkpt><trkpt lat="45.8664435" lon="13.5130703"><ele>131.0</ele><time>2026-04-23T08:56:25.658Z</time></trkpt><trkpt lat="45.8664531" lon="13.5129563"><ele>131.0</ele><time>2026-04-23T08:56:28.643Z</time></trkpt><trkpt lat="45.866353" lon="13.5129627"><ele>131.0</ele><time>2026-04-23T08:57:51.637Z</time></trkpt><trkpt lat="45.8662847" lon="13.5130137"><ele>131.0</ele><time>2026-04-23T08:58:03.633Z</time></trkpt><trkpt lat="45.8662097" lon="13.5130717"><ele>131.0</ele><time>2026-04-23T08:58:07.626Z</time></trkpt><trkpt lat="45.8661464" lon="13.5131204"><ele>131.0</ele><time>2026-04-23T08:58:11.65Z</time></trkpt><trkpt lat="45.8660901" lon="13.5131899"><ele>131.0</ele><time>2026-04-23T08:58:15.63Z</time></trkpt><trkpt lat="45.8660318" lon="13.5132534"><ele>131.0</ele><time>2026-04-23T08:58:19.627Z</time></trkpt><trkpt lat="45.865962" lon="13.5133046"><ele>131.0</ele><time>2026-04-23T08:58:22.624Z</time></trkpt><trkpt lat="45.865884" lon="13.513376"><ele>131.0</ele><time>2026-04-23T08:58:25.618Z</time></trkpt><trkpt lat="45.8658213" lon="13.5134294"><ele>131.0</ele><time>2026-04-23T08:58:28.635Z</time></trkpt><trkpt lat="45.8657492" lon="13.5135072"><ele>129.66666666666666</ele><time>2026-04-23T08:58:31.641Z</time></trkpt><trkpt lat="45.8656891" lon="13.5135695"><ele>128.33333333333331</ele><time>2026-04-23T08:58:34.645Z</time></trkpt><trkpt lat="45.8656179" lon="13.5136488"><ele>127.0</ele><time>2026-04-23T08:58:37.631Z</time></trkpt><trkpt lat="45.8655415" lon="13.5136977"><ele>125.66666666666666</ele><time>2026-04-23T08:58:40.627Z</time></trkpt><trkpt lat="45.8654725" lon="13.513753"><ele>124.33333333333333</ele><time>2026-04-23T08:58:43.634Z</time></trkpt><trkpt lat="45.865408" lon="13.513828"><ele>123.0</ele><time>2026-04-23T08:58:46.641Z</time></trkpt><trkpt lat="45.8653501" lon="13.5138763"><ele>123.00000000000001</ele><time>2026-04-23T08:58:48.62Z</time></trkpt><trkpt lat="45.8652908" lon="13.513917"><ele>123.0</ele><time>2026-04-23T08:58:51.636Z</time></trkpt><trkpt lat="45.8652403" lon="13.513973"><ele>123.00000000000001</ele><time>2026-04-23T08:58:53.636Z</time></trkpt><trkpt lat="45.8651663" lon="13.5140592"><ele>123.00000000000001</ele><time>2026-04-23T08:58:56.622Z</time></trkpt><trkpt lat="45.8651055" lon="13.5141424"><ele>123.0</ele><time>2026-04-23T08:58:59.632Z</time></trkpt><trkpt lat="45.8650615" lon="13.5142195"><ele>123.00000000000001</ele><time>2026-04-23T08:59:02.629Z</time></trkpt><trkpt lat="45.8650219" lon="13.5143031"><ele>123.00000000000001</ele><time>2026-04-23T08:59:05.62Z</time></trkpt><trkpt lat="45.8649696" lon="13.5144194"><ele>122.0</ele><time>2026-04-23T08:59:08.619Z</time></trkpt><trkpt lat="45.8649323" lon="13.51453"><ele>121.0</ele><time>2026-04-23T08:59:11.625Z</time></trkpt><trkpt lat="45.8649331" lon="13.5146387"><ele>120.0</ele><time>2026-04-23T08:59:13.617Z</time></trkpt><trkpt lat="45.8649386" lon="13.5147384"><ele>119.0</ele><time>2026-04-23T08:59:15.616Z</time></trkpt><trkpt lat="45.8649259" lon="13.5148576"><ele>118.0</ele><time>2026-04-23T08:59:17.619Z</time></trkpt><trkpt lat="45.8648876" lon="13.5149767"><ele>117.0</ele><time>2026-04-23T08:59:19.632Z</time></trkpt><trkpt lat="45.8648382" lon="13.5150911"><ele>116.83333333333333</ele><time>2026-04-23T08:59:21.61Z</time></trkpt><trkpt lat="45.8647849" lon="13.5151849"><ele>116.66666666666666</ele><time>2026-04-23T08:59:23.634Z</time></trkpt><trkpt lat="45.8647404" lon="13.5152619"><ele>116.5</ele><time>2026-04-23T08:59:25.624Z</time></trkpt><trkpt lat="45.8646785" lon="13.5153294"><ele>116.33333333333333</ele><time>2026-04-23T08:59:27.617Z</time></trkpt><trkpt lat="45.8646095" lon="13.5153621"><ele>116.16666666666666</ele><time>2026-04-23T08:59:29.621Z</time></trkpt><trkpt lat="45.8645444" lon="13.5153833"><ele>116.0</ele><time>2026-04-23T08:59:31.631Z</time></trkpt><trkpt lat="45.8644631" lon="13.5154104"><ele>116.4</ele><time>2026-04-23T08:59:34.621Z</time></trkpt><trkpt lat="45.8643962" lon="13.5154881"><ele>116.8</ele><time>2026-04-23T08:59:37.616Z</time></trkpt><trkpt lat="45.8643523" lon="13.5155662"><ele>117.20000000000002</ele><time>2026-04-23T08:59:40.622Z</time></trkpt><trkpt lat="45.8642945" lon="13.5156595"><ele>117.60000000000001</ele><time>2026-04-23T08:59:43.642Z</time></trkpt><trkpt lat="45.8642267" lon="13.5157713"><ele>118.0</ele><time>2026-04-23T08:59:46.62Z</time></trkpt><trkpt lat="45.8641712" lon="13.5159051"><ele>117.4</ele><time>2026-04-23T08:59:48.617Z</time></trkpt><trkpt lat="45.8641027" lon="13.5160141"><ele>116.80000000000001</ele><time>2026-04-23T08:59:50.649Z</time></trkpt><trkpt lat="45.8640419" lon="13.5161179"><ele>116.2</ele><time>2026-04-23T08:59:52.628Z</time></trkpt><trkpt lat="45.8639911" lon="13.5161946"><ele>115.6</ele><time>2026-04-23T08:59:54.635Z</time></trkpt><trkpt lat="45.8639186" lon="13.5162854"><ele>115.0</ele><time>2026-04-23T08:59:57.615Z</time></trkpt><trkpt lat="45.8638482" lon="13.5163561"><ele>115.00000000000001</ele><time>2026-04-23T09:00:00.631Z</time></trkpt><trkpt lat="45.8637868" lon="13.5163936"><ele>115.0</ele><time>2026-04-23T09:00:02.624Z</time></trkpt><trkpt lat="45.8637195" lon="13.5164225"><ele>115.0</ele><time>2026-04-23T09:00:04.617Z</time></trkpt><trkpt lat="45.8636491" lon="13.5164654"><ele>115.0</ele><time>2026-04-23T09:00:07.641Z</time></trkpt><trkpt lat="45.8635932" lon="13.5165104"><ele>115.00000000000001</ele><time>2026-04-23T09:00:09.63Z</time></trkpt><trkpt lat="45.8635095" lon="13.5165677"><ele>115.0</ele><time>2026-04-23T09:00:12.613Z</time></trkpt><trkpt lat="45.8634364" lon="13.5166536"><ele>114.83333333333334</ele><time>2026-04-23T09:00:15.617Z</time></trkpt><trkpt lat="45.8634012" lon="13.5167423"><ele>114.66666666666667</ele><time>2026-04-23T09:00:17.627Z</time></trkpt><trkpt lat="45.8633534" lon="13.5168058"><ele>114.5</ele><time>2026-04-23T09:00:19.62Z</time></trkpt><trkpt lat="45.8632887" lon="13.5168753"><ele>114.33333333333334</ele><time>2026-04-23T09:00:22.632Z</time></trkpt><trkpt lat="45.8632388" lon="13.516966"><ele>114.16666666666667</ele><time>2026-04-23T09:00:25.621Z</time></trkpt><trkpt lat="45.8631807" lon="13.5170456"><ele>114.0</ele><time>2026-04-23T09:00:29.631Z</time></trkpt><trkpt lat="45.8631085" lon="13.5171292"><ele>114.0</ele><time>2026-04-23T09:02:29.624Z</time></trkpt><trkpt lat="45.863063" lon="13.5171943"><ele>114.0</ele><time>2026-04-23T09:02:38.616Z</time></trkpt><trkpt lat="45.8630025" lon="13.517267"><ele>114.0</ele><time>2026-04-23T09:02:41.64Z</time></trkpt><trkpt lat="45.8629228" lon="13.5173349"><ele>114.0</ele><time>2026-04-23T09:02:44.628Z</time></trkpt><trkpt lat="45.8628471" lon="13.5174118"><ele>114.0</ele><time>2026-04-23T09:02:47.632Z</time></trkpt><trkpt lat="45.8627743" lon="13.517496"><ele>114.0</ele><time>2026-04-23T09:02:50.63Z</time></trkpt><trkpt lat="45.8627304" lon="13.5175736"><ele>114.0</ele><time>2026-04-23T09:02:52.627Z</time></trkpt><trkpt lat="45.8626793" lon="13.5176546"><ele>114.0</ele><time>2026-04-23T09:02:54.62Z</time></trkpt><trkpt lat="45.8626079" lon="13.5177189"><ele>114.0</ele><time>2026-04-23T09:02:56.621Z</time></trkpt><trkpt lat="45.8625363" lon="13.5177994"><ele>114.0</ele><time>2026-04-23T09:02:58.633Z</time></trkpt><trkpt lat="45.8624685" lon="13.5178871"><ele>114.0</ele><time>2026-04-23T09:03:00.633Z</time></trkpt><trkpt lat="45.862407" lon="13.5179653"><ele>114.0</ele><time>2026-04-23T09:03:02.624Z</time></trkpt><trkpt lat="45.862339" lon="13.5180254"><ele>113.5</ele><time>2026-04-23T09:03:04.621Z</time></trkpt><trkpt lat="45.8622873" lon="13.5180887"><ele>113.0</ele><time>2026-04-23T09:03:06.643Z</time></trkpt><trkpt lat="45.8622286" lon="13.518127"><ele>112.5</ele><time>2026-04-23T09:03:08.623Z</time></trkpt><trkpt lat="45.8621589" lon="13.5181475"><ele>112.0</ele><time>2026-04-23T09:03:10.649Z</time></trkpt><trkpt lat="45.8620831" lon="13.5181578"><ele>111.5</ele><time>2026-04-23T09:03:12.637Z</time></trkpt><trkpt lat="45.8620038" lon="13.5181702"><ele>111.0</ele><time>2026-04-23T09:03:14.639Z</time></trkpt><trkpt lat="45.8619111" lon="13.5181863"><ele>111.0</ele><time>2026-04-23T09:03:16.63Z</time></trkpt><trkpt lat="45.8618239" lon="13.5182025"><ele>111.0</ele><time>2026-04-23T09:03:18.626Z</time></trkpt><trkpt lat="45.8617446" lon="13.5182221"><ele>111.0</ele><time>2026-04-23T09:03:20.633Z</time></trkpt><trkpt lat="45.8616728" lon="13.5182427"><ele>111.0</ele><time>2026-04-23T09:03:22.628Z</time></trkpt><trkpt lat="45.861597" lon="13.5182598"><ele>111.0</ele><time>2026-04-23T09:03:24.619Z</time></trkpt><trkpt lat="45.8615279" lon="13.5182791"><ele>111.0</ele><time>2026-04-23T09:03:26.638Z</time></trkpt><trkpt lat="45.8614599" lon="13.5182986"><ele>111.33333333333333</ele><time>2026-04-23T09:03:28.62Z</time></trkpt><trkpt lat="45.8613712" lon="13.5182689"><ele>111.66666666666666</ele><time>2026-04-23T09:03:30.643Z</time></trkpt><trkpt lat="45.8613018" lon="13.5181883"><ele>112.0</ele><time>2026-04-23T09:03:32.627Z</time></trkpt><trkpt lat="45.8612581" lon="13.5180835"><ele>112.33333333333333</ele><time>2026-04-23T09:03:34.628Z</time></trkpt><trkpt lat="45.8612126" lon="13.5179946"><ele>112.66666666666666</ele><time>2026-04-23T09:03:36.612Z</time></trkpt><trkpt lat="45.8611655" lon="13.5178906"><ele>113.0</ele><time>2026-04-23T09:03:38.631Z</time></trkpt><trkpt lat="45.8611005" lon="13.5178115"><ele>112.80000000000001</ele><time>2026-04-23T09:03:40.619Z</time></trkpt><trkpt lat="45.8610143" lon="13.5177831"><ele>112.60000000000001</ele><time>2026-04-23T09:03:42.625Z</time></trkpt><trkpt lat="45.8609183" lon="13.5177831"><ele>112.39999999999999</ele><time>2026-04-23T09:03:44.63Z</time></trkpt><trkpt lat="45.8608367" lon="13.5177942"><ele>112.19999999999999</ele><time>2026-04-23T09:03:46.621Z</time></trkpt><trkpt lat="45.8607522" lon="13.5178277"><ele>112.0</ele><time>2026-04-23T09:03:48.647Z</time></trkpt><trkpt lat="45.8606501" lon="13.5178822"><ele>112.00000000000001</ele><time>2026-04-23T09:03:50.631Z</time></trkpt><trkpt lat="45.8605766" lon="13.517835"><ele>112.0</ele><time>2026-04-23T09:03:53.632Z</time></trkpt><trkpt lat="45.8605677" lon="13.5177249"><ele>112.0</ele><time>2026-04-23T09:03:55.634Z</time></trkpt><trkpt lat="45.8605637" lon="13.5175971"><ele>112.0</ele><time>2026-04-23T09:03:57.618Z</time></trkpt><trkpt lat="45.860566" lon="13.5174619"><ele>112.00000000000001</ele><time>2026-04-23T09:03:59.626Z</time></trkpt><trkpt lat="45.860578" lon="13.5173201"><ele>112.0</ele><time>2026-04-23T09:04:01.621Z</time></trkpt><trkpt lat="45.8605976" lon="13.5171695"><ele>110.5</ele><time>2026-04-23T09:04:03.644Z</time></trkpt><trkpt lat="45.8606301" lon="13.5170105"><ele>109.0</ele><time>2026-04-23T09:04:05.623Z</time></trkpt><trkpt lat="45.860665" lon="13.5168469"><ele>107.5</ele><time>2026-04-23T09:04:07.628Z</time></trkpt><trkpt lat="45.8606938" lon="13.5166784"><ele>106.0</ele><time>2026-04-23T09:04:09.628Z</time></trkpt><trkpt lat="45.8607026" lon="13.5165071"><ele>106.0</ele><time>2026-04-23T09:04:11.621Z</time></trkpt><trkpt lat="45.8606926" lon="13.5163381"><ele>106.0</ele><time>2026-04-23T09:04:13.617Z</time></trkpt><trkpt lat="45.8606731" lon="13.5161707"><ele>106.0</ele><time>2026-04-23T09:04:15.627Z</time></trkpt><trkpt lat="45.8606404" lon="13.5160227"><ele>106.0</ele><time>2026-04-23T09:04:17.619Z</time></trkpt><trkpt lat="45.8606009" lon="13.515911"><ele>106.0</ele><time>2026-04-23T09:04:19.641Z</time></trkpt><trkpt lat="45.8605656" lon="13.5158252"><ele>106.33333333333334</ele><time>2026-04-23T09:04:21.642Z</time></trkpt><trkpt lat="45.8605304" lon="13.5157342"><ele>106.66666666666667</ele><time>2026-04-23T09:04:24.627Z</time></trkpt><trkpt lat="45.8604686" lon="13.5156344"><ele>107.0</ele><time>2026-04-23T09:04:27.616Z</time></trkpt><trkpt lat="45.8604027" lon="13.5155581"><ele>107.33333333333334</ele><time>2026-04-23T09:04:29.636Z</time></trkpt><trkpt lat="45.860338" lon="13.5154616"><ele>107.66666666666667</ele><time>2026-04-23T09:04:31.628Z</time></trkpt><trkpt lat="45.8602822" lon="13.5153491"><ele>108.0</ele><time>2026-04-23T09:04:33.633Z</time></trkpt><trkpt lat="45.8602215" lon="13.5152406"><ele>108.2</ele><time>2026-04-23T09:04:35.623Z</time></trkpt><trkpt lat="45.8601615" lon="13.5151301"><ele>108.4</ele><time>2026-04-23T09:04:37.618Z</time></trkpt><trkpt lat="45.860109" lon="13.5150076"><ele>108.60000000000001</ele><time>2026-04-23T09:04:39.624Z</time></trkpt><trkpt lat="45.8600513" lon="13.5148856"><ele>108.80000000000001</ele><time>2026-04-23T09:04:41.621Z</time></trkpt><trkpt lat="45.8600012" lon="13.5147546"><ele>109.0</ele><time>2026-04-23T09:04:43.616Z</time></trkpt><trkpt lat="45.8599615" lon="13.5146193"><ele>109.4</ele><time>2026-04-23T09:04:45.626Z</time></trkpt><trkpt lat="45.8599314" lon="13.5144777"><ele>109.80000000000001</ele><time>2026-04-23T09:04:47.627Z</time></trkpt><trkpt lat="45.8599162" lon="13.5143222"><ele>110.19999999999999</ele><time>2026-04-23T09:04:49.624Z</time></trkpt><trkpt lat="45.8599164" lon="13.514158"><ele>110.6</ele><time>2026-04-23T09:04:51.616Z</time></trkpt><trkpt lat="45.8599139" lon="13.513994"><ele>111.0</ele><time>2026-04-23T09:04:53.625Z</time></trkpt><trkpt lat="45.8599114" lon="13.5138238"><ele>110.5</ele><time>2026-04-23T09:04:55.614Z</time></trkpt><trkpt lat="45.8599007" lon="13.5136543"><ele>110.0</ele><time>2026-04-23T09:04:57.615Z</time></trkpt><trkpt lat="45.8598886" lon="13.5134849"><ele>109.5</ele><time>2026-04-23T09:04:59.633Z</time></trkpt><trkpt lat="45.859873" lon="13.5133162"><ele>109.0</ele><time>2026-04-23T09:05:01.618Z</time></trkpt><trkpt lat="45.859854" lon="13.5131496"><ele>109.0</ele><time>2026-04-23T09:05:03.619Z</time></trkpt><trkpt lat="45.8598356" lon="13.5129812"><ele>109.0</ele><time>2026-04-23T09:05:05.625Z</time></trkpt><trkpt lat="45.8598293" lon="13.5128123"><ele>109.0</ele><time>2026-04-23T09:05:07.63Z</time></trkpt><trkpt lat="45.8598412" lon="13.5126494"><ele>109.0</ele><time>2026-04-23T09:05:09.629Z</time></trkpt><trkpt lat="45.859873" lon="13.512485"><ele>109.25</ele><time>2026-04-23T09:05:11.618Z</time></trkpt><trkpt lat="45.8599124" lon="13.5123209"><ele>109.5</ele><time>2026-04-23T09:05:13.63Z</time></trkpt><trkpt lat="45.8599425" lon="13.5121549"><ele>109.75</ele><time>2026-04-23T09:05:15.618Z</time></trkpt><trkpt lat="45.8599627" lon="13.5119843"><ele>110.0</ele><time>2026-04-23T09:05:17.626Z</time></trkpt><trkpt lat="45.8599749" lon="13.5118121"><ele>109.5</ele><time>2026-04-23T09:05:19.619Z</time></trkpt><trkpt lat="45.8599853" lon="13.5116411"><ele>109.0</ele><time>2026-04-23T09:05:21.624Z</time></trkpt><trkpt lat="45.8599938" lon="13.5114699"><ele>108.5</ele><time>2026-04-23T09:05:23.618Z</time></trkpt><trkpt lat="45.8600038" lon="13.5113003"><ele>108.0</ele><time>2026-04-23T09:05:25.616Z</time></trkpt><trkpt lat="45.8600091" lon="13.5111307"><ele>107.5</ele><time>2026-04-23T09:05:27.632Z</time></trkpt><trkpt lat="45.8600135" lon="13.5109617"><ele>107.0</ele><time>2026-04-23T09:05:29.631Z</time></trkpt><trkpt lat="45.8600082" lon="13.510791"><ele>106.5</ele><time>2026-04-23T09:05:31.628Z</time></trkpt><trkpt lat="45.8599936" lon="13.5106242"><ele>106.0</ele><time>2026-04-23T09:05:33.628Z</time></trkpt><trkpt lat="45.8599732" lon="13.5104612"><ele>106.0</ele><time>2026-04-23T09:05:35.631Z</time></trkpt><trkpt lat="45.8599494" lon="13.5103024"><ele>106.0</ele><time>2026-04-23T09:05:37.624Z</time></trkpt><trkpt lat="45.859929" lon="13.5101461"><ele>106.0</ele><time>2026-04-23T09:05:39.626Z</time></trkpt><trkpt lat="45.8599134" lon="13.5099854"><ele>106.0</ele><time>2026-04-23T09:05:41.628Z</time></trkpt><trkpt lat="45.8599018" lon="13.5098249"><ele>106.0</ele><time>2026-04-23T09:05:43.614Z</time></trkpt><trkpt lat="45.8599046" lon="13.5096686"><ele>106.5</ele><time>2026-04-23T09:05:45.622Z</time></trkpt><trkpt lat="45.8599209" lon="13.5095139"><ele>107.0</ele><time>2026-04-23T09:05:47.614Z</time></trkpt><trkpt lat="45.8599442" lon="13.5093572"><ele>107.5</ele><time>2026-04-23T09:05:49.615Z</time></trkpt><trkpt lat="45.8599687" lon="13.5091947"><ele>108.0</ele><time>2026-04-23T09:05:51.615Z</time></trkpt><trkpt lat="45.8599843" lon="13.5090272"><ele>108.0</ele><time>2026-04-23T09:05:53.626Z</time></trkpt><trkpt lat="45.8599814" lon="13.5088554"><ele>108.0</ele><time>2026-04-23T09:05:55.633Z</time></trkpt><trkpt lat="45.8599744" lon="13.5086878"><ele>108.0</ele><time>2026-04-23T09:05:57.612Z</time></trkpt><trkpt lat="45.8599518" lon="13.5085244"><ele>108.0</ele><time>2026-04-23T09:05:59.617Z</time></trkpt><trkpt lat="45.8599286" lon="13.5083538"><ele>108.80000000000001</ele><time>2026-04-23T09:06:01.62Z</time></trkpt><trkpt lat="45.8599206" lon="13.5081888"><ele>109.60000000000001</ele><time>2026-04-23T09:06:03.616Z</time></trkpt><trkpt lat="45.8599349" lon="13.5080335"><ele>110.39999999999999</ele><time>2026-04-23T09:06:05.625Z</time></trkpt><trkpt lat="45.8599689" lon="13.5078837"><ele>111.19999999999999</ele><time>2026-04-23T09:06:07.616Z</time></trkpt><trkpt lat="45.860005" lon="13.5077335"><ele>112.0</ele><time>2026-04-23T09:06:09.616Z</time></trkpt><trkpt lat="45.8600194" lon="13.5075791"><ele>112.5</ele><time>2026-04-23T09:06:11.626Z</time></trkpt><trkpt lat="45.8600722" lon="13.5074368"><ele>113.0</ele><time>2026-04-23T09:06:13.612Z</time></trkpt><trkpt lat="45.8601207" lon="13.5072849"><ele>113.5</ele><time>2026-04-23T09:06:15.626Z</time></trkpt><trkpt lat="45.8601692" lon="13.5071345"><ele>114.0</ele><time>2026-04-23T09:06:17.614Z</time></trkpt><trkpt lat="45.8602178" lon="13.506984"><ele>112.75</ele><time>2026-04-23T09:06:19.623Z</time></trkpt><trkpt lat="45.8602604" lon="13.5068281"><ele>111.5</ele><time>2026-04-23T09:06:21.606Z</time></trkpt><trkpt lat="45.8603091" lon="13.5066772"><ele>110.25</ele><time>2026-04-23T09:06:23.613Z</time></trkpt><trkpt lat="45.8603501" lon="13.5065177"><ele>109.0</ele><time>2026-04-23T09:06:25.628Z</time></trkpt><trkpt lat="45.8603939" lon="13.5063579"><ele>109.0</ele><time>2026-04-23T09:06:27.627Z</time></trkpt><trkpt lat="45.8604416" lon="13.5061997"><ele>109.0</ele><time>2026-04-23T09:06:29.623Z</time></trkpt><trkpt lat="45.8604891" lon="13.5060422"><ele>109.0</ele><time>2026-04-23T09:06:31.62Z</time></trkpt><trkpt lat="45.8605295" lon="13.5058822"><ele>109.0</ele><time>2026-04-23T09:06:33.622Z</time></trkpt><trkpt lat="45.8605755" lon="13.5057314"><ele>109.0</ele><time>2026-04-23T09:06:35.619Z</time></trkpt><trkpt lat="45.8606256" lon="13.5055821"><ele>109.0</ele><time>2026-04-23T09:06:37.61Z</time></trkpt><trkpt lat="45.8606682" lon="13.5054314"><ele>109.0</ele><time>2026-04-23T09:06:39.611Z</time></trkpt><trkpt lat="45.8607129" lon="13.505278"><ele>109.0</ele><time>2026-04-23T09:06:41.619Z</time></trkpt><trkpt lat="45.8607557" lon="13.5051172"><ele>108.6</ele><time>2026-04-23T09:06:43.617Z</time></trkpt><trkpt lat="45.8608004" lon="13.5049557"><ele>108.2</ele><time>2026-04-23T09:06:45.619Z</time></trkpt><trkpt lat="45.8608409" lon="13.5047879"><ele>107.79999999999998</ele><time>2026-04-23T09:06:47.622Z</time></trkpt><trkpt lat="45.8608676" lon="13.5046131"><ele>107.39999999999999</ele><time>2026-04-23T09:06:49.624Z</time></trkpt><trkpt lat="45.860875" lon="13.5045228"><ele>107.0</ele><time>2026-04-23T09:06:50.631Z</time></trkpt><trkpt lat="45.8608794" lon="13.504432"><ele>107.0</ele><time>2026-04-23T09:06:51.62Z</time></trkpt><trkpt lat="45.8608706" lon="13.5042541"><ele>107.0</ele><time>2026-04-23T09:06:53.625Z</time></trkpt><trkpt lat="45.8608494" lon="13.5040829"><ele>107.0</ele><time>2026-04-23T09:06:55.631Z</time></trkpt><trkpt lat="45.8608218" lon="13.5039171"><ele>107.0</ele><time>2026-04-23T09:06:57.624Z</time></trkpt><trkpt lat="45.8607975" lon="13.5037568"><ele>106.6</ele><time>2026-04-23T09:06:59.642Z</time></trkpt><trkpt lat="45.8607848" lon="13.5035935"><ele>106.19999999999999</ele><time>2026-04-23T09:07:01.625Z</time></trkpt><trkpt lat="45.8607707" lon="13.5034342"><ele>105.8</ele><time>2026-04-23T09:07:03.64Z</time></trkpt><trkpt lat="45.8607825" lon="13.5032832"><ele>105.4</ele><time>2026-04-23T09:07:05.629Z</time></trkpt><trkpt lat="45.8608171" lon="13.5031376"><ele>105.0</ele><time>2026-04-23T09:07:07.626Z</time></trkpt><trkpt lat="45.860883" lon="13.5030033"><ele>104.75</ele><time>2026-04-23T09:07:09.635Z</time></trkpt><trkpt lat="45.8609704" lon="13.5028868"><ele>104.5</ele><time>2026-04-23T09:07:11.621Z</time></trkpt><trkpt lat="45.8610579" lon="13.5027668"><ele>104.25</ele><time>2026-04-23T09:07:13.613Z</time></trkpt><trkpt lat="45.8611502" lon="13.5026589"><ele>104.0</ele><time>2026-04-23T09:07:15.62Z</time></trkpt><trkpt lat="45.8612363" lon="13.5025403"><ele>104.0</ele><time>2026-04-23T09:07:17.635Z</time></trkpt><trkpt lat="45.8613192" lon="13.5024145"><ele>104.0</ele><time>2026-04-23T09:07:19.617Z</time></trkpt><trkpt lat="45.8613966" lon="13.5022844"><ele>104.0</ele><time>2026-04-23T09:07:21.616Z</time></trkpt><trkpt lat="45.8614701" lon="13.5021548"><ele>104.0</ele><time>2026-04-23T09:07:23.619Z</time></trkpt><trkpt lat="45.8615514" lon="13.5020613"><ele>103.99999999999999</ele><time>2026-04-23T09:07:25.63Z</time></trkpt><trkpt lat="45.8616371" lon="13.5020477"><ele>104.0</ele><time>2026-04-23T09:07:27.617Z</time></trkpt><trkpt lat="45.8617062" lon="13.5020754"><ele>104.0</ele><time>2026-04-23T09:07:29.641Z</time></trkpt><trkpt lat="45.8617655" lon="13.5021329"><ele>104.0</ele><time>2026-04-23T09:07:31.639Z</time></trkpt><trkpt lat="45.861827" lon="13.5021902"><ele>103.99999999999999</ele><time>2026-04-23T09:07:33.622Z</time></trkpt><trkpt lat="45.8618902" lon="13.5022492"><ele>104.0</ele><time>2026-04-23T09:07:35.623Z</time></trkpt><trkpt lat="45.8619516" lon="13.502304"><ele>104.4</ele><time>2026-04-23T09:07:37.652Z</time></trkpt><trkpt lat="45.862016" lon="13.5023087"><ele>104.80000000000001</ele><time>2026-04-23T09:07:39.633Z</time></trkpt><trkpt lat="45.8620628" lon="13.502223"><ele>105.19999999999999</ele><time>2026-04-23T09:07:41.632Z</time></trkpt><trkpt lat="45.8620856" lon="13.5020868"><ele>105.6</ele><time>2026-04-23T09:07:43.633Z</time></trkpt><trkpt lat="45.8621129" lon="13.5019315"><ele>106.0</ele><time>2026-04-23T09:07:45.617Z</time></trkpt><trkpt lat="45.8621473" lon="13.5017683"><ele>106.00000000000001</ele><time>2026-04-23T09:07:47.63Z</time></trkpt><trkpt lat="45.8621839" lon="13.5015937"><ele>106.0</ele><time>2026-04-23T09:07:49.628Z</time></trkpt><trkpt lat="45.8622028" lon="13.5015034"><ele>106.0</ele><time>2026-04-23T09:07:50.638Z</time></trkpt><trkpt lat="45.8622209" lon="13.501412"><ele>106.0</ele><time>2026-04-23T09:07:51.627Z</time></trkpt><trkpt lat="45.8622387" lon="13.501324"><ele>106.00000000000001</ele><time>2026-04-23T09:07:52.626Z</time></trkpt><trkpt lat="45.8623143" lon="13.5011919"><ele>106.0</ele><time>2026-04-23T09:07:54.629Z</time></trkpt><trkpt lat="45.8624171" lon="13.5011478"><ele>106.4</ele><time>2026-04-23T09:07:56.627Z</time></trkpt><trkpt lat="45.8625163" lon="13.5010829"><ele>106.8</ele><time>2026-04-23T09:07:58.617Z</time></trkpt><trkpt lat="45.8626144" lon="13.5010101"><ele>107.20000000000002</ele><time>2026-04-23T09:08:00.624Z</time></trkpt><trkpt lat="45.8627072" lon="13.5009416"><ele>107.60000000000001</ele><time>2026-04-23T09:08:02.643Z</time></trkpt><trkpt lat="45.8627957" lon="13.5008603"><ele>108.0</ele><time>2026-04-23T09:08:04.621Z</time></trkpt><trkpt lat="45.8628915" lon="13.5008054"><ele>108.0</ele><time>2026-04-23T09:08:06.618Z</time></trkpt><trkpt lat="45.8629916" lon="13.5008015"><ele>108.00000000000001</ele><time>2026-04-23T09:08:08.62Z</time></trkpt><trkpt lat="45.8630894" lon="13.5007833"><ele>108.00000000000001</ele><time>2026-04-23T09:08:10.626Z</time></trkpt><trkpt lat="45.8631879" lon="13.5007544"><ele>108.0</ele><time>2026-04-23T09:08:12.627Z</time></trkpt><trkpt lat="45.8632837" lon="13.5007537"><ele>108.0</ele><time>2026-04-23T09:08:14.641Z</time></trkpt><trkpt lat="45.8633752" lon="13.5007388"><ele>108.0</ele><time>2026-04-23T09:08:16.629Z</time></trkpt><trkpt lat="45.8634463" lon="13.5006509"><ele>108.00000000000001</ele><time>2026-04-23T09:08:18.631Z</time></trkpt><trkpt lat="45.863485" lon="13.5005143"><ele>108.00000000000001</ele><time>2026-04-23T09:08:20.62Z</time></trkpt><trkpt lat="45.8634827" lon="13.5003575"><ele>108.0</ele><time>2026-04-23T09:08:22.617Z</time></trkpt><trkpt lat="45.8634918" lon="13.5001874"><ele>108.0</ele><time>2026-04-23T09:08:24.633Z</time></trkpt><trkpt lat="45.8635716" lon="13.5000633"><ele>108.0</ele><time>2026-04-23T09:08:26.62Z</time></trkpt><trkpt lat="45.8636775" lon="13.5000398"><ele>108.00000000000001</ele><time>2026-04-23T09:08:28.628Z</time></trkpt><trkpt lat="45.8637836" lon="13.500046"><ele>108.00000000000001</ele><time>2026-04-23T09:08:30.632Z</time></trkpt><trkpt lat="45.863875" lon="13.4999839"><ele>108.0</ele><time>2026-04-23T09:08:32.617Z</time></trkpt><trkpt lat="45.8639525" lon="13.4998806"><ele>108.0</ele><time>2026-04-23T09:08:34.622Z</time></trkpt><trkpt lat="45.8640418" lon="13.4997684"><ele>108.0</ele><time>2026-04-23T09:08:36.624Z</time></trkpt><trkpt lat="45.8641275" lon="13.4996389"><ele>108.0</ele><time>2026-04-23T09:08:38.627Z</time></trkpt><trkpt lat="45.8642025" lon="13.499506"><ele>108.0</ele><time>2026-04-23T09:08:40.634Z</time></trkpt><trkpt lat="45.8642539" lon="13.499359"><ele>108.0</ele><time>2026-04-23T09:08:42.622Z</time></trkpt><trkpt lat="45.8642482" lon="13.4991808"><ele>108.14285714285714</ele><time>2026-04-23T09:08:44.634Z</time></trkpt><trkpt lat="45.8642597" lon="13.4990885"><ele>108.28571428571428</ele><time>2026-04-23T09:08:45.624Z</time></trkpt><trkpt lat="45.8642635" lon="13.4989905"><ele>108.42857142857143</ele><time>2026-04-23T09:08:46.613Z</time></trkpt><trkpt lat="45.8642775" lon="13.498893"><ele>108.57142857142857</ele><time>2026-04-23T09:08:47.611Z</time></trkpt><trkpt lat="45.8642931" lon="13.4987975"><ele>108.71428571428572</ele><time>2026-04-23T09:08:48.631Z</time></trkpt><trkpt lat="45.8643151" lon="13.498698"><ele>108.85714285714286</ele><time>2026-04-23T09:08:49.65Z</time></trkpt><trkpt lat="45.8643215" lon="13.4985998"><ele>109.0</ele><time>2026-04-23T09:08:50.621Z</time></trkpt><trkpt lat="45.8643161" lon="13.4984961"><ele>108.42857142857143</ele><time>2026-04-23T09:08:51.617Z</time></trkpt><trkpt lat="45.8643141" lon="13.4983966"><ele>107.85714285714286</ele><time>2026-04-23T09:08:52.61Z</time></trkpt><trkpt lat="45.8643457" lon="13.4983037"><ele>107.28571428571428</ele><time>2026-04-23T09:08:53.648Z</time></trkpt><trkpt lat="45.8643771" lon="13.4982188"><ele>106.71428571428572</ele><time>2026-04-23T09:08:54.64Z</time></trkpt><trkpt lat="45.8644194" lon="13.4981371"><ele>106.14285714285714</ele><time>2026-04-23T09:08:55.621Z</time></trkpt><trkpt lat="45.8644578" lon="13.498055"><ele>105.57142857142857</ele><time>2026-04-23T09:08:56.643Z</time></trkpt><trkpt lat="45.8644951" lon="13.4979746"><ele>105.0</ele><time>2026-04-23T09:08:57.628Z</time></trkpt><trkpt lat="45.8645339" lon="13.4978985"><ele>103.4</ele><time>2026-04-23T09:08:58.621Z</time></trkpt><trkpt lat="45.8645748" lon="13.4978288"><ele>101.8</ele><time>2026-04-23T09:08:59.623Z</time></trkpt><trkpt lat="45.864659" lon="13.4977224"><ele>100.19999999999999</ele><time>2026-04-23T09:09:01.629Z</time></trkpt><trkpt lat="45.8647713" lon="13.4977059"><ele>98.6</ele><time>2026-04-23T09:09:03.629Z</time></trkpt><trkpt lat="45.8648729" lon="13.497748"><ele>97.0</ele><time>2026-04-23T09:09:05.631Z</time></trkpt><trkpt lat="45.8649658" lon="13.4977556"><ele>97.0</ele><time>2026-04-23T09:09:07.636Z</time></trkpt><trkpt lat="45.8650592" lon="13.4977339"><ele>97.0</ele><time>2026-04-23T09:09:09.621Z</time></trkpt><trkpt lat="45.8651747" lon="13.4976686"><ele>97.0</ele><time>2026-04-23T09:09:11.63Z</time></trkpt><trkpt lat="45.8652622" lon="13.4975785"><ele>97.0</ele><time>2026-04-23T09:09:13.606Z</time></trkpt><trkpt lat="45.8652835" lon="13.4974483"><ele>97.0</ele><time>2026-04-23T09:09:15.627Z</time></trkpt><trkpt lat="45.8652404" lon="13.4972898"><ele>97.66666666666667</ele><time>2026-04-23T09:09:17.625Z</time></trkpt><trkpt lat="45.8652094" lon="13.4971976"><ele>98.33333333333334</ele><time>2026-04-23T09:09:18.619Z</time></trkpt><trkpt lat="45.8651741" lon="13.4970993"><ele>99.0</ele><time>2026-04-23T09:09:19.627Z</time></trkpt><trkpt lat="45.8651362" lon="13.4969949"><ele>99.66666666666666</ele><time>2026-04-23T09:09:20.62Z</time></trkpt><trkpt lat="45.8651069" lon="13.4968841"><ele>100.33333333333333</ele><time>2026-04-23T09:09:21.623Z</time></trkpt><trkpt lat="45.8650964" lon="13.4967724"><ele>101.0</ele><time>2026-04-23T09:09:22.613Z</time></trkpt><trkpt lat="45.865109" lon="13.4966721"><ele>99.49999999999999</ele><time>2026-04-23T09:09:23.619Z</time></trkpt><trkpt lat="45.8651483" lon="13.4965833"><ele>98.0</ele><time>2026-04-23T09:09:24.631Z</time></trkpt><trkpt lat="45.8651908" lon="13.4964897"><ele>96.5</ele><time>2026-04-23T09:09:25.632Z</time></trkpt><trkpt lat="45.8652671" lon="13.4964314"><ele>95.0</ele><time>2026-04-23T09:09:26.614Z</time></trkpt><trkpt lat="45.8653487" lon="13.496383"><ele>93.5</ele><time>2026-04-23T09:09:27.624Z</time></trkpt><trkpt lat="45.865432" lon="13.4963327"><ele>92.0</ele><time>2026-04-23T09:09:28.622Z</time></trkpt><trkpt lat="45.8655155" lon="13.4962789"><ele>90.8</ele><time>2026-04-23T09:09:29.616Z</time></trkpt><trkpt lat="45.8655829" lon="13.4962031"><ele>89.6</ele><time>2026-04-23T09:09:30.623Z</time></trkpt><trkpt lat="45.8656361" lon="13.4960979"><ele>88.39999999999999</ele><time>2026-04-23T09:09:31.623Z</time></trkpt><trkpt lat="45.8656493" lon="13.4959668"><ele>87.19999999999999</ele><time>2026-04-23T09:09:32.615Z</time></trkpt><trkpt lat="45.8656279" lon="13.4958376"><ele>86.0</ele><time>2026-04-23T09:09:33.632Z</time></trkpt><trkpt lat="45.8655861" lon="13.495715"><ele>86.0</ele><time>2026-04-23T09:09:34.62Z</time></trkpt><trkpt lat="45.8655354" lon="13.4956089"><ele>86.0</ele><time>2026-04-23T09:09:35.621Z</time></trkpt><trkpt lat="45.8654887" lon="13.4954994"><ele>86.0</ele><time>2026-04-23T09:09:36.625Z</time></trkpt><trkpt lat="45.8654506" lon="13.4953868"><ele>86.0</ele><time>2026-04-23T09:09:37.615Z</time></trkpt><trkpt lat="45.8654257" lon="13.4952715"><ele>86.0</ele><time>2026-04-23T09:09:38.624Z</time></trkpt><trkpt lat="45.8654188" lon="13.4951571"><ele>86.0</ele><time>2026-04-23T09:09:39.615Z</time></trkpt><trkpt lat="45.8654293" lon="13.495046"><ele>85.71428571428572</ele><time>2026-04-23T09:09:40.621Z</time></trkpt><trkpt lat="45.8654487" lon="13.4949421"><ele>85.42857142857143</ele><time>2026-04-23T09:09:41.625Z</time></trkpt><trkpt lat="45.8654674" lon="13.4948437"><ele>85.14285714285714</ele><time>2026-04-23T09:09:42.645Z</time></trkpt><trkpt lat="45.8654816" lon="13.4947446"><ele>84.85714285714286</ele><time>2026-04-23T09:09:43.613Z</time></trkpt><trkpt lat="45.8654914" lon="13.4946468"><ele>84.57142857142857</ele><time>2026-04-23T09:09:44.615Z</time></trkpt><trkpt lat="45.8654979" lon="13.4945515"><ele>84.28571428571429</ele><time>2026-04-23T09:09:45.645Z</time></trkpt><trkpt lat="45.8655001" lon="13.4944602"><ele>84.0</ele><time>2026-04-23T09:09:46.627Z</time></trkpt><trkpt lat="45.8655063" lon="13.4942899"><ele>83.6</ele><time>2026-04-23T09:09:48.615Z</time></trkpt><trkpt lat="45.8655029" lon="13.4941254"><ele>83.2</ele><time>2026-04-23T09:09:50.624Z</time></trkpt><trkpt lat="45.865497" lon="13.4939644"><ele>82.8</ele><time>2026-04-23T09:09:52.627Z</time></trkpt><trkpt lat="45.8654909" lon="13.4938163"><ele>82.39999999999999</ele><time>2026-04-23T09:09:54.626Z</time></trkpt><trkpt lat="45.8654799" lon="13.4936607"><ele>82.0</ele><time>2026-04-23T09:09:56.642Z</time></trkpt><trkpt lat="45.8654705" lon="13.4935004"><ele>81.5</ele><time>2026-04-23T09:09:58.623Z</time></trkpt><trkpt lat="45.8654669" lon="13.4933316"><ele>81.0</ele><time>2026-04-23T09:10:00.617Z</time></trkpt><trkpt lat="45.8654671" lon="13.4932357"><ele>80.5</ele><time>2026-04-23T09:10:01.618Z</time></trkpt><trkpt lat="45.8654678" lon="13.4931385"><ele>80.0</ele><time>2026-04-23T09:10:02.612Z</time></trkpt><trkpt lat="45.8654762" lon="13.4930416"><ele>79.5</ele><time>2026-04-23T09:10:03.625Z</time></trkpt><trkpt lat="45.865496" lon="13.4929438"><ele>79.0</ele><time>2026-04-23T09:10:04.623Z</time></trkpt><trkpt lat="45.8655285" lon="13.4928493"><ele>78.5</ele><time>2026-04-23T09:10:05.622Z</time></trkpt><trkpt lat="45.8655671" lon="13.4927543"><ele>78.0</ele><time>2026-04-23T09:10:06.644Z</time></trkpt><trkpt lat="45.8656076" lon="13.4926574"><ele>77.5</ele><time>2026-04-23T09:10:07.643Z</time></trkpt><trkpt lat="45.8656482" lon="13.4925572"><ele>77.0</ele><time>2026-04-23T09:10:08.624Z</time></trkpt><trkpt lat="45.8656915" lon="13.4924543"><ele>76.5</ele><time>2026-04-23T09:10:09.611Z</time></trkpt><trkpt lat="45.865738" lon="13.4923499"><ele>76.0</ele><time>2026-04-23T09:10:10.623Z</time></trkpt><trkpt lat="45.8657866" lon="13.4922469"><ele>76.0</ele><time>2026-04-23T09:10:11.621Z</time></trkpt><trkpt lat="45.8658365" lon="13.4921411"><ele>76.0</ele><time>2026-04-23T09:10:12.623Z</time></trkpt><trkpt lat="45.8658866" lon="13.4920355"><ele>76.0</ele><time>2026-04-23T09:10:13.627Z</time></trkpt><trkpt lat="45.865936" lon="13.4919188"><ele>76.0</ele><time>2026-04-23T09:10:14.623Z</time></trkpt><trkpt lat="45.865988" lon="13.491801"><ele>76.0</ele><time>2026-04-23T09:10:15.612Z</time></trkpt><trkpt lat="45.8660413" lon="13.4916823"><ele>75.2</ele><time>2026-04-23T09:10:16.617Z</time></trkpt><trkpt lat="45.8660913" lon="13.4915558"><ele>74.39999999999999</ele><time>2026-04-23T09:10:17.624Z</time></trkpt><trkpt lat="45.8661426" lon="13.4914319"><ele>73.6</ele><time>2026-04-23T09:10:18.619Z</time></trkpt><trkpt lat="45.8661619" lon="13.49128"><ele>72.8</ele><time>2026-04-23T09:10:19.624Z</time></trkpt><trkpt lat="45.8661663" lon="13.4911267"><ele>72.0</ele><time>2026-04-23T09:10:20.626Z</time></trkpt><trkpt lat="45.8661645" lon="13.4909698"><ele>71.5</ele><time>2026-04-23T09:10:21.636Z</time></trkpt><trkpt lat="45.8661631" lon="13.4908105"><ele>71.0</ele><time>2026-04-23T09:10:22.618Z</time></trkpt><trkpt lat="45.8661644" lon="13.4906476"><ele>70.5</ele><time>2026-04-23T09:10:23.635Z</time></trkpt><trkpt lat="45.8661675" lon="13.4904823"><ele>70.0</ele><time>2026-04-23T09:10:24.622Z</time></trkpt><trkpt lat="45.8661701" lon="13.4903156"><ele>69.25</ele><time>2026-04-23T09:10:25.625Z</time></trkpt><trkpt lat="45.86617" lon="13.4901475"><ele>68.5</ele><time>2026-04-23T09:10:26.634Z</time></trkpt><trkpt lat="45.8661695" lon="13.4899778"><ele>67.75</ele><time>2026-04-23T09:10:27.619Z</time></trkpt><trkpt lat="45.8661708" lon="13.4898093"><ele>67.0</ele><time>2026-04-23T09:10:28.612Z</time></trkpt><trkpt lat="45.8661746" lon="13.489642"><ele>65.75</ele><time>2026-04-23T09:10:29.632Z</time></trkpt><trkpt lat="45.8661753" lon="13.4894736"><ele>64.5</ele><time>2026-04-23T09:10:30.667Z</time></trkpt><trkpt lat="45.8661641" lon="13.4893076"><ele>63.25</ele><time>2026-04-23T09:10:31.624Z</time></trkpt><trkpt lat="45.8661384" lon="13.4891419"><ele>62.0</ele><time>2026-04-23T09:10:32.612Z</time></trkpt><trkpt lat="45.8661079" lon="13.4889785"><ele>62.0</ele><time>2026-04-23T09:10:33.615Z</time></trkpt><trkpt lat="45.8660772" lon="13.4888113"><ele>62.0</ele><time>2026-04-23T09:10:34.62Z</time></trkpt><trkpt lat="45.8660482" lon="13.4886422"><ele>62.0</ele><time>2026-04-23T09:10:35.627Z</time></trkpt><trkpt lat="45.8660196" lon="13.4884733"><ele>62.0</ele><time>2026-04-23T09:10:36.639Z</time></trkpt><trkpt lat="45.8659955" lon="13.4882933"><ele>61.75</ele><time>2026-04-23T09:10:37.625Z</time></trkpt><trkpt lat="45.8659717" lon="13.4881125"><ele>61.5</ele><time>2026-04-23T09:10:38.636Z</time></trkpt><trkpt lat="45.8659522" lon="13.4879195"><ele>61.25</ele><time>2026-04-23T09:10:39.626Z</time></trkpt><trkpt lat="45.8659338" lon="13.4877225"><ele>61.0</ele><time>2026-04-23T09:10:40.625Z</time></trkpt><trkpt lat="45.8659184" lon="13.4875236"><ele>55.5</ele><time>2026-04-23T09:10:41.613Z</time></trkpt><trkpt lat="45.8659041" lon="13.4873244"><ele>50.0</ele><time>2026-04-23T09:10:42.628Z</time></trkpt><trkpt lat="45.8658928" lon="13.4871389"><ele>44.5</ele><time>2026-04-23T09:10:43.637Z</time></trkpt><trkpt lat="45.8658839" lon="13.4869695"><ele>39.0</ele><time>2026-04-23T09:10:44.639Z</time></trkpt><trkpt lat="45.8658847" lon="13.4868041"><ele>39.8</ele><time>2026-04-23T09:10:45.619Z</time></trkpt><trkpt lat="45.8659025" lon="13.4866408"><ele>40.599999999999994</ele><time>2026-04-23T09:10:46.621Z</time></trkpt><trkpt lat="45.8659307" lon="13.4864895"><ele>41.4</ele><time>2026-04-23T09:10:47.621Z</time></trkpt><trkpt lat="45.8659651" lon="13.4863437"><ele>42.199999999999996</ele><time>2026-04-23T09:10:48.621Z</time></trkpt><trkpt lat="45.8660007" lon="13.4862095"><ele>43.0</ele><time>2026-04-23T09:10:49.617Z</time></trkpt><trkpt lat="45.8660314" lon="13.4860911"><ele>43.0</ele><time>2026-04-23T09:10:50.616Z</time></trkpt><trkpt lat="45.8660603" lon="13.4859803"><ele>43.0</ele><time>2026-04-23T09:10:51.627Z</time></trkpt><trkpt lat="45.8660808" lon="13.4858749"><ele>43.0</ele><time>2026-04-23T09:10:52.621Z</time></trkpt><trkpt lat="45.8660987" lon="13.4857647"><ele>43.0</ele><time>2026-04-23T09:10:53.616Z</time></trkpt><trkpt lat="45.8661162" lon="13.485646"><ele>43.0</ele><time>2026-04-23T09:10:54.647Z</time></trkpt><trkpt lat="45.8661307" lon="13.4855349"><ele>43.0</ele><time>2026-04-23T09:10:55.633Z</time></trkpt><trkpt lat="45.8661473" lon="13.4854302"><ele>40.833333333333336</ele><time>2026-04-23T09:10:56.617Z</time></trkpt><trkpt lat="45.866175" lon="13.4853273"><ele>38.66666666666667</ele><time>2026-04-23T09:10:57.626Z</time></trkpt><trkpt lat="45.8662081" lon="13.4852192"><ele>36.5</ele><time>2026-04-23T09:10:58.632Z</time></trkpt><trkpt lat="45.8662419" lon="13.4851048"><ele>34.333333333333336</ele><time>2026-04-23T09:10:59.622Z</time></trkpt><trkpt lat="45.8662814" lon="13.4849844"><ele>32.166666666666664</ele><time>2026-04-23T09:11:00.629Z</time></trkpt><trkpt lat="45.8663216" lon="13.4848641"><ele>30.0</ele><time>2026-04-23T09:11:01.623Z</time></trkpt><trkpt lat="45.866367" lon="13.4847467"><ele>30.0</ele><time>2026-04-23T09:11:02.619Z</time></trkpt><trkpt lat="45.8664164" lon="13.4846409"><ele>30.0</ele><time>2026-04-23T09:11:03.615Z</time></trkpt><trkpt lat="45.8664699" lon="13.4845436"><ele>30.0</ele><time>2026-04-23T09:11:04.622Z</time></trkpt><trkpt lat="45.8665213" lon="13.4844532"><ele>30.0</ele><time>2026-04-23T09:11:05.62Z</time></trkpt><trkpt lat="45.8665697" lon="13.4843654"><ele>30.0</ele><time>2026-04-23T09:11:06.619Z</time></trkpt><trkpt lat="45.8666153" lon="13.4842779"><ele>30.0</ele><time>2026-04-23T09:11:07.624Z</time></trkpt><trkpt lat="45.8666598" lon="13.4841933"><ele>30.142857142857146</ele><time>2026-04-23T09:11:08.632Z</time></trkpt><trkpt lat="45.8667035" lon="13.4841095"><ele>30.285714285714285</ele><time>2026-04-23T09:11:09.626Z</time></trkpt><trkpt lat="45.8667421" lon="13.4840246"><ele>30.42857142857143</ele><time>2026-04-23T09:11:10.646Z</time></trkpt><trkpt lat="45.8667781" lon="13.4839392"><ele>30.571428571428573</ele><time>2026-04-23T09:11:11.621Z</time></trkpt><trkpt lat="45.8668161" lon="13.4838561"><ele>30.714285714285715</ele><time>2026-04-23T09:11:12.633Z</time></trkpt><trkpt lat="45.866855" lon="13.4837762"><ele>30.857142857142858</ele><time>2026-04-23T09:11:13.62Z</time></trkpt><trkpt lat="45.8668942" lon="13.483699"><ele>31.0</ele><time>2026-04-23T09:11:14.621Z</time></trkpt><trkpt lat="45.86693" lon="13.4836222"><ele>31.0</ele><time>2026-04-23T09:11:15.621Z</time></trkpt><trkpt lat="45.8669938" lon="13.4834701"><ele>31.0</ele><time>2026-04-23T09:11:17.61Z</time></trkpt><trkpt lat="45.867048" lon="13.4833202"><ele>31.0</ele><time>2026-04-23T09:11:19.632Z</time></trkpt><trkpt lat="45.8670983" lon="13.4831725"><ele>31.0</ele><time>2026-04-23T09:11:21.639Z</time></trkpt><trkpt lat="45.8671108" lon="13.4830087"><ele>28.5</ele><time>2026-04-23T09:11:23.624Z</time></trkpt><trkpt lat="45.8670829" lon="13.482846"><ele>26.0</ele><time>2026-04-23T09:11:25.628Z</time></trkpt><trkpt lat="45.8670391" lon="13.4826785"><ele>23.5</ele><time>2026-04-23T09:11:27.621Z</time></trkpt><trkpt lat="45.866983" lon="13.4825208"><ele>21.0</ele><time>2026-04-23T09:11:29.636Z</time></trkpt><trkpt lat="45.8669288" lon="13.4823658"><ele>21.0</ele><time>2026-04-23T09:11:31.634Z</time></trkpt><trkpt lat="45.8668879" lon="13.4822087"><ele>21.0</ele><time>2026-04-23T09:11:33.627Z</time></trkpt><trkpt lat="45.8668595" lon="13.4820569"><ele>21.0</ele><time>2026-04-23T09:11:35.619Z</time></trkpt><trkpt lat="45.8668487" lon="13.4819514"><ele>21.0</ele><time>2026-04-23T09:11:36.612Z</time></trkpt><trkpt lat="45.8668574" lon="13.4818471"><ele>21.0</ele><time>2026-04-23T09:11:38.635Z</time></trkpt><trkpt lat="45.8668773" lon="13.4817539"><ele>21.0</ele><time>2026-04-23T09:11:44.623Z</time></trkpt><trkpt lat="45.8669148" lon="13.481658"><ele>20.8</ele><time>2026-04-23T09:11:47.633Z</time></trkpt><trkpt lat="45.8669449" lon="13.4815402"><ele>20.6</ele><time>2026-04-23T09:11:49.646Z</time></trkpt><trkpt lat="45.8668932" lon="13.4813942"><ele>20.4</ele><time>2026-04-23T09:11:51.628Z</time></trkpt><trkpt lat="45.8667776" lon="13.4813415"><ele>20.2</ele><time>2026-04-23T09:11:53.615Z</time></trkpt><trkpt lat="45.8666597" lon="13.4813536"><ele>20.0</ele><time>2026-04-23T09:11:55.624Z</time></trkpt><trkpt lat="45.8665342" lon="13.4813737"><ele>20.285714285714285</ele><time>2026-04-23T09:11:57.628Z</time></trkpt><trkpt lat="45.8664702" lon="13.4813821"><ele>20.571428571428573</ele><time>2026-04-23T09:11:58.632Z</time></trkpt><trkpt lat="45.8663439" lon="13.4814059"><ele>20.857142857142858</ele><time>2026-04-23T09:12:00.62Z</time></trkpt><trkpt lat="45.8662812" lon="13.4814143"><ele>21.142857142857142</ele><time>2026-04-23T09:12:01.635Z</time></trkpt><trkpt lat="45.8662184" lon="13.481423"><ele>21.428571428571427</ele><time>2026-04-23T09:12:02.628Z</time></trkpt><trkpt lat="45.8661541" lon="13.4814199"><ele>21.714285714285715</ele><time>2026-04-23T09:12:03.615Z</time></trkpt><trkpt lat="45.8660943" lon="13.4813898"><ele>22.0</ele><time>2026-04-23T09:12:04.619Z</time></trkpt><trkpt lat="45.8660416" lon="13.4813393"><ele>21.75</ele><time>2026-04-23T09:12:05.616Z</time></trkpt><trkpt lat="45.8659425" lon="13.4812278"><ele>21.5</ele><time>2026-04-23T09:12:07.64Z</time></trkpt><trkpt lat="45.8658415" lon="13.4811227"><ele>21.25</ele><time>2026-04-23T09:12:09.632Z</time></trkpt><trkpt lat="45.8657438" lon="13.4810199"><ele>21.0</ele><time>2026-04-23T09:12:11.623Z</time></trkpt><trkpt lat="45.8656344" lon="13.48094"><ele>21.0</ele><time>2026-04-23T09:12:13.612Z</time></trkpt><trkpt lat="45.8655192" lon="13.480875"><ele>21.0</ele><time>2026-04-23T09:12:15.63Z</time></trkpt><trkpt lat="45.865401" lon="13.4808142"><ele>21.0</ele><time>2026-04-23T09:12:17.629Z</time></trkpt><trkpt lat="45.8652857" lon="13.4807477"><ele>21.0</ele><time>2026-04-23T09:12:19.624Z</time></trkpt><trkpt lat="45.8651726" lon="13.4806751"><ele>21.0</ele><time>2026-04-23T09:12:21.632Z</time></trkpt><trkpt lat="45.8650619" lon="13.4805971"><ele>21.0</ele><time>2026-04-23T09:12:23.624Z</time></trkpt><trkpt lat="45.8649536" lon="13.4805116"><ele>21.0</ele><time>2026-04-23T09:12:25.619Z</time></trkpt><trkpt lat="45.8648477" lon="13.4804213"><ele>21.0</ele><time>2026-04-23T09:12:27.622Z</time></trkpt><trkpt lat="45.8647429" lon="13.4803294"><ele>21.0</ele><time>2026-04-23T09:12:29.646Z</time></trkpt><trkpt lat="45.8646401" lon="13.4802357"><ele>21.0</ele><time>2026-04-23T09:12:31.639Z</time></trkpt><trkpt lat="45.8645592" lon="13.4801051"><ele>21.0</ele><time>2026-04-23T09:12:33.61Z</time></trkpt><trkpt lat="45.8644752" lon="13.4799756"><ele>21.0</ele><time>2026-04-23T09:12:35.624Z</time></trkpt><trkpt lat="45.8643863" lon="13.4798551"><ele>21.0</ele><time>2026-04-23T09:12:37.65Z</time></trkpt><trkpt lat="45.8642952" lon="13.4797401"><ele>21.0</ele><time>2026-04-23T09:12:39.616Z</time></trkpt><trkpt lat="45.8642026" lon="13.4796246"><ele>21.0</ele><time>2026-04-23T09:12:41.618Z</time></trkpt><trkpt lat="45.8641104" lon="13.4795115"><ele>21.0</ele><time>2026-04-23T09:12:43.624Z</time></trkpt><trkpt lat="45.8640165" lon="13.4794008"><ele>20.75</ele><time>2026-04-23T09:12:45.64Z</time></trkpt><trkpt lat="45.8639191" lon="13.4792938"><ele>20.5</ele><time>2026-04-23T09:12:47.626Z</time></trkpt><trkpt lat="45.8638207" lon="13.4791852"><ele>20.25</ele><time>2026-04-23T09:12:49.63Z</time></trkpt><trkpt lat="45.8637268" lon="13.4790714"><ele>20.0</ele><time>2026-04-23T09:12:51.616Z</time></trkpt><trkpt lat="45.8636377" lon="13.4789555"><ele>20.0</ele><time>2026-04-23T09:12:53.629Z</time></trkpt><trkpt lat="45.8635487" lon="13.47884"><ele>20.0</ele><time>2026-04-23T09:12:55.626Z</time></trkpt><trkpt lat="45.8634633" lon="13.4787185"><ele>20.0</ele><time>2026-04-23T09:12:57.634Z</time></trkpt><trkpt lat="45.8633832" lon="13.4785973"><ele>20.0</ele><time>2026-04-23T09:12:59.621Z</time></trkpt><trkpt lat="45.863302" lon="13.4784732"><ele>19.666666666666668</ele><time>2026-04-23T09:13:01.633Z</time></trkpt><trkpt lat="45.8632589" lon="13.478407"><ele>19.333333333333336</ele><time>2026-04-23T09:13:02.64Z</time></trkpt><trkpt lat="45.8632149" lon="13.4783398"><ele>19.0</ele><time>2026-04-23T09:13:03.624Z</time></trkpt><trkpt lat="45.8631702" lon="13.4782727"><ele>18.666666666666668</ele><time>2026-04-23T09:13:04.619Z</time></trkpt><trkpt lat="45.8630814" lon="13.4781465"><ele>18.333333333333332</ele><time>2026-04-23T09:13:06.631Z</time></trkpt><trkpt lat="45.8629959" lon="13.4780203"><ele>18.0</ele><time>2026-04-23T09:13:08.627Z</time></trkpt><trkpt lat="45.8629082" lon="13.4778943"><ele>17.75</ele><time>2026-04-23T09:13:10.643Z</time></trkpt><trkpt lat="45.862821" lon="13.477771"><ele>17.5</ele><time>2026-04-23T09:13:12.648Z</time></trkpt><trkpt lat="45.862735" lon="13.4776501"><ele>17.25</ele><time>2026-04-23T09:13:14.619Z</time></trkpt><trkpt lat="45.8626506" lon="13.4775268"><ele>17.0</ele><time>2026-04-23T09:13:16.633Z</time></trkpt><trkpt lat="45.8625682" lon="13.4774042"><ele>17.0</ele><time>2026-04-23T09:13:18.629Z</time></trkpt><trkpt lat="45.8624852" lon="13.4772836"><ele>17.0</ele><time>2026-04-23T09:13:20.63Z</time></trkpt><trkpt lat="45.8624019" lon="13.4771599"><ele>17.0</ele><time>2026-04-23T09:13:22.639Z</time></trkpt><trkpt lat="45.862321" lon="13.4770324"><ele>17.0</ele><time>2026-04-23T09:13:24.644Z</time></trkpt><trkpt lat="45.8622377" lon="13.4769054"><ele>17.0</ele><time>2026-04-23T09:13:26.63Z</time></trkpt><trkpt lat="45.8621537" lon="13.4767812"><ele>17.0</ele><time>2026-04-23T09:13:28.635Z</time></trkpt><trkpt lat="45.8620715" lon="13.4766544"><ele>17.0</ele><time>2026-04-23T09:13:30.636Z</time></trkpt><trkpt lat="45.8619894" lon="13.4765322"><ele>17.0</ele><time>2026-04-23T09:13:32.623Z</time></trkpt><trkpt lat="45.8619085" lon="13.4764106"><ele>17.0</ele><time>2026-04-23T09:13:34.631Z</time></trkpt><trkpt lat="45.8618268" lon="13.4762879"><ele>17.0</ele><time>2026-04-23T09:13:36.631Z</time></trkpt><trkpt lat="45.861745" lon="13.4761636"><ele>17.0</ele><time>2026-04-23T09:13:38.64Z</time></trkpt><trkpt lat="45.8616624" lon="13.4760407"><ele>17.0</ele><time>2026-04-23T09:13:40.638Z</time></trkpt><trkpt lat="45.8615813" lon="13.4759155"><ele>17.0</ele><time>2026-04-23T09:13:42.643Z</time></trkpt><trkpt lat="45.8615003" lon="13.4757885"><ele>17.0</ele><time>2026-04-23T09:13:44.631Z</time></trkpt><trkpt lat="45.8614177" lon="13.4756618"><ele>17.0</ele><time>2026-04-23T09:13:46.62Z</time></trkpt><trkpt lat="45.8613324" lon="13.4755392"><ele>17.0</ele><time>2026-04-23T09:13:48.641Z</time></trkpt><trkpt lat="45.861249" lon="13.4754151"><ele>17.0</ele><time>2026-04-23T09:13:50.638Z</time></trkpt><trkpt lat="45.8611687" lon="13.4752887"><ele>17.0</ele><time>2026-04-23T09:13:52.635Z</time></trkpt><trkpt lat="45.8610909" lon="13.4751597"><ele>17.0</ele><time>2026-04-23T09:13:54.641Z</time></trkpt><trkpt lat="45.8610127" lon="13.4750301"><ele>17.0</ele><time>2026-04-23T09:13:56.618Z</time></trkpt><trkpt lat="45.8609306" lon="13.4749023"><ele>16.8</ele><time>2026-04-23T09:13:58.629Z</time></trkpt><trkpt lat="45.8608463" lon="13.4747762"><ele>16.6</ele><time>2026-04-23T09:14:00.618Z</time></trkpt><trkpt lat="45.8607597" lon="13.4746474"><ele>16.400000000000002</ele><time>2026-04-23T09:14:02.628Z</time></trkpt><trkpt lat="45.8607167" lon="13.4745805"><ele>16.2</ele><time>2026-04-23T09:14:03.625Z</time></trkpt><trkpt lat="45.8606743" lon="13.4745135"><ele>16.0</ele><time>2026-04-23T09:14:04.617Z</time></trkpt><trkpt lat="45.860592" lon="13.4743823"><ele>15.75</ele><time>2026-04-23T09:14:06.633Z</time></trkpt><trkpt lat="45.8605079" lon="13.4742507"><ele>15.5</ele><time>2026-04-23T09:14:08.633Z</time></trkpt><trkpt lat="45.8604244" lon="13.4741201"><ele>15.25</ele><time>2026-04-23T09:14:10.653Z</time></trkpt><trkpt lat="45.8603427" lon="13.4739884"><ele>15.0</ele><time>2026-04-23T09:14:12.635Z</time></trkpt><trkpt lat="45.8602595" lon="13.4738566"><ele>15.0</ele><time>2026-04-23T09:14:14.646Z</time></trkpt><trkpt lat="45.8601782" lon="13.4737237"><ele>15.0</ele><time>2026-04-23T09:14:16.645Z</time></trkpt><trkpt lat="45.8600965" lon="13.4735924"><ele>15.0</ele><time>2026-04-23T09:14:18.634Z</time></trkpt><trkpt lat="45.8600134" lon="13.473463"><ele>15.0</ele><time>2026-04-23T09:14:20.627Z</time></trkpt><trkpt lat="45.8599325" lon="13.4733324"><ele>15.0</ele><time>2026-04-23T09:14:22.631Z</time></trkpt><trkpt lat="45.8598506" lon="13.4732009"><ele>15.0</ele><time>2026-04-23T09:14:24.641Z</time></trkpt><trkpt lat="45.859766" lon="13.4730725"><ele>15.0</ele><time>2026-04-23T09:14:26.639Z</time></trkpt><trkpt lat="45.8596776" lon="13.472949"><ele>15.0</ele><time>2026-04-23T09:14:28.627Z</time></trkpt><trkpt lat="45.859583" lon="13.4728379"><ele>15.25</ele><time>2026-04-23T09:14:30.631Z</time></trkpt><trkpt lat="45.8594847" lon="13.4727343"><ele>15.5</ele><time>2026-04-23T09:14:32.627Z</time></trkpt><trkpt lat="45.8593851" lon="13.472645"><ele>15.75</ele><time>2026-04-23T09:14:34.638Z</time></trkpt><trkpt lat="45.8592914" lon="13.472551"><ele>16.0</ele><time>2026-04-23T09:14:36.649Z</time></trkpt><trkpt lat="45.8591989" lon="13.4724455"><ele>16.0</ele><time>2026-04-23T09:14:38.629Z</time></trkpt><trkpt lat="45.8590989" lon="13.4723451"><ele>16.0</ele><time>2026-04-23T09:14:40.643Z</time></trkpt><trkpt lat="45.8589983" lon="13.4722461"><ele>16.0</ele><time>2026-04-23T09:14:42.63Z</time></trkpt><trkpt lat="45.8588984" lon="13.4721491"><ele>16.0</ele><time>2026-04-23T09:14:44.625Z</time></trkpt><trkpt lat="45.8587989" lon="13.4720499"><ele>15.75</ele><time>2026-04-23T09:14:46.648Z</time></trkpt><trkpt lat="45.8587031" lon="13.4719439"><ele>15.5</ele><time>2026-04-23T09:14:48.628Z</time></trkpt><trkpt lat="45.8586051" lon="13.471842"><ele>15.25</ele><time>2026-04-23T09:14:50.624Z</time></trkpt><trkpt lat="45.8585054" lon="13.4717425"><ele>15.0</ele><time>2026-04-23T09:14:52.624Z</time></trkpt><trkpt lat="45.8584066" lon="13.4716423"><ele>14.75</ele><time>2026-04-23T09:14:54.635Z</time></trkpt><trkpt lat="45.8583089" lon="13.4715424"><ele>14.5</ele><time>2026-04-23T09:14:56.641Z</time></trkpt><trkpt lat="45.8582119" lon="13.4714427"><ele>14.25</ele><time>2026-04-23T09:14:58.644Z</time></trkpt><trkpt lat="45.8581138" lon="13.4713467"><ele>14.0</ele><time>2026-04-23T09:15:00.63Z</time></trkpt><trkpt lat="45.8580185" lon="13.4712526"><ele>14.0</ele><time>2026-04-23T09:15:02.623Z</time></trkpt><trkpt lat="45.8579235" lon="13.4711485"><ele>14.0</ele><time>2026-04-23T09:15:04.635Z</time></trkpt><trkpt lat="45.8578256" lon="13.4710492"><ele>14.0</ele><time>2026-04-23T09:15:06.64Z</time></trkpt><trkpt lat="45.857725" lon="13.4709532"><ele>14.0</ele><time>2026-04-23T09:15:08.623Z</time></trkpt><trkpt lat="45.8576244" lon="13.4708571"><ele>14.5</ele><time>2026-04-23T09:15:10.64Z</time></trkpt><trkpt lat="45.8575246" lon="13.4707544"><ele>15.0</ele><time>2026-04-23T09:15:12.633Z</time></trkpt><trkpt lat="45.8574243" lon="13.470657"><ele>15.5</ele><time>2026-04-23T09:15:14.626Z</time></trkpt><trkpt lat="45.8573241" lon="13.4705583"><ele>16.0</ele><time>2026-04-23T09:15:16.629Z</time></trkpt><trkpt lat="45.8572239" lon="13.4704618"><ele>16.5</ele><time>2026-04-23T09:15:18.636Z</time></trkpt><trkpt lat="45.8571266" lon="13.4703606"><ele>17.0</ele><time>2026-04-23T09:15:20.629Z</time></trkpt><trkpt lat="45.8570262" lon="13.4702656"><ele>17.5</ele><time>2026-04-23T09:15:22.629Z</time></trkpt><trkpt lat="45.8569245" lon="13.4701656"><ele>18.0</ele><time>2026-04-23T09:15:24.63Z</time></trkpt><trkpt lat="45.8568232" lon="13.470065"><ele>18.25</ele><time>2026-04-23T09:15:26.635Z</time></trkpt><trkpt lat="45.8567228" lon="13.4699649"><ele>18.5</ele><time>2026-04-23T09:15:28.633Z</time></trkpt><trkpt lat="45.8566249" lon="13.4698626"><ele>18.75</ele><time>2026-04-23T09:15:30.645Z</time></trkpt><trkpt lat="45.8565258" lon="13.4697566"><ele>19.0</ele><time>2026-04-23T09:15:32.623Z</time></trkpt><trkpt lat="45.8564262" lon="13.4696512"><ele>19.285714285714285</ele><time>2026-04-23T09:15:34.635Z</time></trkpt><trkpt lat="45.8563262" lon="13.4695454"><ele>19.571428571428573</ele><time>2026-04-23T09:15:36.646Z</time></trkpt><trkpt lat="45.856275" lon="13.4694928"><ele>19.857142857142858</ele><time>2026-04-23T09:15:37.636Z</time></trkpt><trkpt lat="45.8562238" lon="13.4694389"><ele>20.142857142857142</ele><time>2026-04-23T09:15:38.627Z</time></trkpt><trkpt lat="45.8561736" lon="13.4693831"><ele>20.42857142857143</ele><time>2026-04-23T09:15:39.637Z</time></trkpt><trkpt lat="45.8561254" lon="13.4693249"><ele>20.714285714285715</ele><time>2026-04-23T09:15:40.624Z</time></trkpt><trkpt lat="45.8560775" lon="13.4692658"><ele>21.0</ele><time>2026-04-23T09:15:41.646Z</time></trkpt><trkpt lat="45.8560267" lon="13.4692081"><ele>21.0</ele><time>2026-04-23T09:15:42.656Z</time></trkpt><trkpt lat="45.8559773" lon="13.4691518"><ele>21.0</ele><time>2026-04-23T09:15:43.633Z</time></trkpt><trkpt lat="45.8558813" lon="13.4690357"><ele>21.0</ele><time>2026-04-23T09:15:45.63Z</time></trkpt><trkpt lat="45.8557835" lon="13.468926"><ele>21.0</ele><time>2026-04-23T09:15:47.633Z</time></trkpt><trkpt lat="45.8556866" lon="13.4688147"><ele>21.0</ele><time>2026-04-23T09:15:49.629Z</time></trkpt><trkpt lat="45.8555887" lon="13.468705"><ele>20.25</ele><time>2026-04-23T09:15:51.641Z</time></trkpt><trkpt lat="45.8554923" lon="13.4685989"><ele>19.5</ele><time>2026-04-23T09:15:53.625Z</time></trkpt><trkpt lat="45.8553986" lon="13.4684918"><ele>18.75</ele><time>2026-04-23T09:15:55.625Z</time></trkpt><trkpt lat="45.8553043" lon="13.4683876"><ele>18.0</ele><time>2026-04-23T09:15:57.637Z</time></trkpt><trkpt lat="45.8552093" lon="13.4682845"><ele>18.0</ele><time>2026-04-23T09:15:59.638Z</time></trkpt><trkpt lat="45.8551164" lon="13.4681778"><ele>18.0</ele><time>2026-04-23T09:16:01.643Z</time></trkpt><trkpt lat="45.8550252" lon="13.4680644"><ele>18.0</ele><time>2026-04-23T09:16:03.64Z</time></trkpt><trkpt lat="45.8549333" lon="13.467954"><ele>18.0</ele><time>2026-04-23T09:16:05.62Z</time></trkpt><trkpt lat="45.8548414" lon="13.4678396"><ele>17.75</ele><time>2026-04-23T09:16:07.632Z</time></trkpt><trkpt lat="45.8547518" lon="13.4677284"><ele>17.5</ele><time>2026-04-23T09:16:09.642Z</time></trkpt><trkpt lat="45.8546636" lon="13.4676164"><ele>17.25</ele><time>2026-04-23T09:16:11.64Z</time></trkpt><trkpt lat="45.8545697" lon="13.4675115"><ele>17.0</ele><time>2026-04-23T09:16:13.634Z</time></trkpt><trkpt lat="45.8544752" lon="13.4674058"><ele>17.0</ele><time>2026-04-23T09:16:15.63Z</time></trkpt><trkpt lat="45.8543822" lon="13.4672976"><ele>17.0</ele><time>2026-04-23T09:16:17.624Z</time></trkpt><trkpt lat="45.8542874" lon="13.4671934"><ele>17.0</ele><time>2026-04-23T09:16:19.649Z</time></trkpt><trkpt lat="45.8541924" lon="13.4670877"><ele>17.0</ele><time>2026-04-23T09:16:21.642Z</time></trkpt><trkpt lat="45.854097" lon="13.466981"><ele>17.75</ele><time>2026-04-23T09:16:23.622Z</time></trkpt><trkpt lat="45.8540022" lon="13.4668744"><ele>18.5</ele><time>2026-04-23T09:16:25.644Z</time></trkpt><trkpt lat="45.8539082" lon="13.4667661"><ele>19.25</ele><time>2026-04-23T09:16:27.659Z</time></trkpt><trkpt lat="45.8538156" lon="13.4666555"><ele>20.0</ele><time>2026-04-23T09:16:29.634Z</time></trkpt><trkpt lat="45.8537197" lon="13.46655"><ele>20.0</ele><time>2026-04-23T09:16:31.634Z</time></trkpt><trkpt lat="45.8536248" lon="13.4664419"><ele>20.0</ele><time>2026-04-23T09:16:33.633Z</time></trkpt><trkpt lat="45.8535272" lon="13.4663361"><ele>20.0</ele><time>2026-04-23T09:16:35.639Z</time></trkpt><trkpt lat="45.8534307" lon="13.4662279"><ele>20.0</ele><time>2026-04-23T09:16:37.651Z</time></trkpt><trkpt lat="45.8533363" lon="13.466116"><ele>19.0</ele><time>2026-04-23T09:16:39.641Z</time></trkpt><trkpt lat="45.8532427" lon="13.4660028"><ele>18.0</ele><time>2026-04-23T09:16:41.63Z</time></trkpt><trkpt lat="45.8531483" lon="13.4658935"><ele>17.0</ele><time>2026-04-23T09:16:43.643Z</time></trkpt><trkpt lat="45.8530566" lon="13.4657785"><ele>16.0</ele><time>2026-04-23T09:16:45.631Z</time></trkpt><trkpt lat="45.8529678" lon="13.4656594"><ele>16.0</ele><time>2026-04-23T09:16:47.613Z</time></trkpt><trkpt lat="45.8528798" lon="13.4655375"><ele>16.0</ele><time>2026-04-23T09:16:49.626Z</time></trkpt><trkpt lat="45.8527974" lon="13.4654094"><ele>16.0</ele><time>2026-04-23T09:16:51.645Z</time></trkpt><trkpt lat="45.8527167" lon="13.4652809"><ele>16.0</ele><time>2026-04-23T09:16:53.638Z</time></trkpt><trkpt lat="45.8526377" lon="13.4651507"><ele>15.75</ele><time>2026-04-23T09:16:55.637Z</time></trkpt><trkpt lat="45.8525589" lon="13.4650234"><ele>15.5</ele><time>2026-04-23T09:16:57.632Z</time></trkpt><trkpt lat="45.8524781" lon="13.4648996"><ele>15.25</ele><time>2026-04-23T09:16:59.619Z</time></trkpt><trkpt lat="45.8523979" lon="13.4647758"><ele>15.0</ele><time>2026-04-23T09:17:01.631Z</time></trkpt><trkpt lat="45.8523211" lon="13.4646424"><ele>15.25</ele><time>2026-04-23T09:17:03.634Z</time></trkpt><trkpt lat="45.8522499" lon="13.4645024"><ele>15.5</ele><time>2026-04-23T09:17:05.627Z</time></trkpt><trkpt lat="45.8521821" lon="13.4643576"><ele>15.75</ele><time>2026-04-23T09:17:07.63Z</time></trkpt><trkpt lat="45.8521166" lon="13.4642154"><ele>16.0</ele><time>2026-04-23T09:17:09.628Z</time></trkpt><trkpt lat="45.8520554" lon="13.4640688"><ele>16.0</ele><time>2026-04-23T09:17:11.62Z</time></trkpt><trkpt lat="45.8519928" lon="13.4639231"><ele>16.0</ele><time>2026-04-23T09:17:13.623Z</time></trkpt><trkpt lat="45.8519284" lon="13.4637786"><ele>16.0</ele><time>2026-04-23T09:17:15.633Z</time></trkpt><trkpt lat="45.851864" lon="13.4636337"><ele>16.0</ele><time>2026-04-23T09:17:17.622Z</time></trkpt><trkpt lat="45.8517977" lon="13.463489"><ele>16.0</ele><time>2026-04-23T09:17:19.63Z</time></trkpt><trkpt lat="45.8517281" lon="13.4633457"><ele>16.0</ele><time>2026-04-23T09:17:21.638Z</time></trkpt><trkpt lat="45.8516536" lon="13.4632081"><ele>16.0</ele><time>2026-04-23T09:17:23.636Z</time></trkpt><trkpt lat="45.8515776" lon="13.4630746"><ele>16.0</ele><time>2026-04-23T09:17:25.629Z</time></trkpt><trkpt lat="45.8515015" lon="13.4629441"><ele>15.75</ele><time>2026-04-23T09:17:27.633Z</time></trkpt><trkpt lat="45.8514428" lon="13.4627972"><ele>15.5</ele><time>2026-04-23T09:17:29.618Z</time></trkpt><trkpt lat="45.8514252" lon="13.4626339"><ele>15.25</ele><time>2026-04-23T09:17:31.634Z</time></trkpt><trkpt lat="45.8514461" lon="13.4624648"><ele>15.0</ele><time>2026-04-23T09:17:33.643Z</time></trkpt><trkpt lat="45.8514911" lon="13.4622971"><ele>15.0</ele><time>2026-04-23T09:17:35.623Z</time></trkpt><trkpt lat="45.8515168" lon="13.4622134"><ele>15.0</ele><time>2026-04-23T09:17:36.626Z</time></trkpt><trkpt lat="45.851544" lon="13.4621311"><ele>15.0</ele><time>2026-04-23T09:17:37.645Z</time></trkpt><trkpt lat="45.851571" lon="13.4620489"><ele>15.0</ele><time>2026-04-23T09:17:38.635Z</time></trkpt><trkpt lat="45.8515993" lon="13.4619676"><ele>15.0</ele><time>2026-04-23T09:17:39.624Z</time></trkpt><trkpt lat="45.8516281" lon="13.4618867"><ele>15.0</ele><time>2026-04-23T09:17:40.634Z</time></trkpt><trkpt lat="45.8516838" lon="13.4617291"><ele>15.0</ele><time>2026-04-23T09:17:42.637Z</time></trkpt><trkpt lat="45.8517374" lon="13.4615695"><ele>15.25</ele><time>2026-04-23T09:17:44.627Z</time></trkpt><trkpt lat="45.8517905" lon="13.46141"><ele>15.5</ele><time>2026-04-23T09:17:46.649Z</time></trkpt><trkpt lat="45.8518429" lon="13.4612504"><ele>15.75</ele><time>2026-04-23T09:17:48.626Z</time></trkpt><trkpt lat="45.8518944" lon="13.4610886"><ele>16.0</ele><time>2026-04-23T09:17:50.631Z</time></trkpt><trkpt lat="45.8519439" lon="13.4609262"><ele>16.0</ele><time>2026-04-23T09:17:52.623Z</time></trkpt><trkpt lat="45.8519914" lon="13.4607628"><ele>16.0</ele><time>2026-04-23T09:17:54.638Z</time></trkpt><trkpt lat="45.8520381" lon="13.460599"><ele>16.0</ele><time>2026-04-23T09:17:56.62Z</time></trkpt><trkpt lat="45.8520816" lon="13.4604353"><ele>16.0</ele><time>2026-04-23T09:17:58.631Z</time></trkpt><trkpt lat="45.8521223" lon="13.4602688"><ele>16.5</ele><time>2026-04-23T09:18:00.634Z</time></trkpt><trkpt lat="45.8521625" lon="13.4601086"><ele>17.0</ele><time>2026-04-23T09:18:02.644Z</time></trkpt><trkpt lat="45.8521995" lon="13.4599517"><ele>17.5</ele><time>2026-04-23T09:18:04.644Z</time></trkpt><trkpt lat="45.8522412" lon="13.4597965"><ele>18.0</ele><time>2026-04-23T09:18:06.643Z</time></trkpt><trkpt lat="45.8522889" lon="13.459627"><ele>17.6</ele><time>2026-04-23T09:18:08.644Z</time></trkpt><trkpt lat="45.8523022" lon="13.4595311"><ele>17.200000000000003</ele><time>2026-04-23T09:18:09.648Z</time></trkpt><trkpt lat="45.8522903" lon="13.459434"><ele>16.8</ele><time>2026-04-23T09:18:10.631Z</time></trkpt><trkpt lat="45.8522579" lon="13.4592831"><ele>16.400000000000002</ele><time>2026-04-23T09:18:12.639Z</time></trkpt><trkpt lat="45.852191" lon="13.459134"><ele>16.0</ele><time>2026-04-23T09:18:14.621Z</time></trkpt><trkpt lat="45.8521006" lon="13.4589876"><ele>16.0</ele><time>2026-04-23T09:18:16.635Z</time></trkpt><trkpt lat="45.8520559" lon="13.4589221"><ele>16.0</ele><time>2026-04-23T09:18:17.628Z</time></trkpt><trkpt lat="45.8519465" lon="13.4588279"><ele>16.0</ele><time>2026-04-23T09:18:19.631Z</time></trkpt><trkpt lat="45.8518713" lon="13.4587998"><ele>16.0</ele><time>2026-04-23T09:18:20.627Z</time></trkpt><trkpt lat="45.851805" lon="13.4587703"><ele>16.0</ele><time>2026-04-23T09:18:21.634Z</time></trkpt><trkpt lat="45.8516793" lon="13.4587659"><ele>16.142857142857142</ele><time>2026-04-23T09:18:23.623Z</time></trkpt><trkpt lat="45.8516163" lon="13.4587715"><ele>16.285714285714285</ele><time>2026-04-23T09:18:24.645Z</time></trkpt><trkpt lat="45.8515493" lon="13.458792"><ele>16.428571428571427</ele><time>2026-04-23T09:18:25.634Z</time></trkpt><trkpt lat="45.8514845" lon="13.4588195"><ele>16.57142857142857</ele><time>2026-04-23T09:18:26.631Z</time></trkpt><trkpt lat="45.851422" lon="13.4588385"><ele>16.714285714285715</ele><time>2026-04-23T09:18:27.627Z</time></trkpt><trkpt lat="45.8513588" lon="13.458857"><ele>16.857142857142854</ele><time>2026-04-23T09:18:28.631Z</time></trkpt><trkpt lat="45.8512957" lon="13.4588793"><ele>17.0</ele><time>2026-04-23T09:18:29.643Z</time></trkpt><trkpt lat="45.8511944" lon="13.458893"><ele>17.0</ele><time>2026-04-23T09:18:31.63Z</time></trkpt><trkpt lat="45.8511357" lon="13.4588187"><ele>17.0</ele><time>2026-04-23T09:18:33.627Z</time></trkpt><trkpt lat="45.851119" lon="13.4586881"><ele>17.0</ele><time>2026-04-23T09:18:35.638Z</time></trkpt><trkpt lat="45.8511051" lon="13.4585419"><ele>17.0</ele><time>2026-04-23T09:18:37.635Z</time></trkpt><trkpt lat="45.8510986" lon="13.4584497"><ele>17.0</ele><time>2026-04-23T09:18:38.636Z</time></trkpt><trkpt lat="45.8510891" lon="13.4583584"><ele>17.0</ele><time>2026-04-23T09:18:39.646Z</time></trkpt><trkpt lat="45.8510714" lon="13.4581896"><ele>17.0</ele><time>2026-04-23T09:18:41.628Z</time></trkpt><trkpt lat="45.851049" lon="13.4580339"><ele>17.0</ele><time>2026-04-23T09:18:43.625Z</time></trkpt><trkpt lat="45.8510329" lon="13.4579203"><ele>17.0</ele><time>2026-04-23T09:18:45.636Z</time></trkpt><trkpt lat="45.8510179" lon="13.4577826"><ele>17.0</ele><time>2026-04-23T09:18:48.632Z</time></trkpt><trkpt lat="45.8510015" lon="13.457651"><ele>17.0</ele><time>2026-04-23T09:18:50.622Z</time></trkpt><trkpt lat="45.850985" lon="13.4575012"><ele>17.0</ele><time>2026-04-23T09:18:52.63Z</time></trkpt><trkpt lat="45.8509762" lon="13.4573438"><ele>17.0</ele><time>2026-04-23T09:18:54.639Z</time></trkpt><trkpt lat="45.8509645" lon="13.4571959"><ele>17.0</ele><time>2026-04-23T09:18:56.623Z</time></trkpt><trkpt lat="45.850918" lon="13.4570504"><ele>17.0</ele><time>2026-04-23T09:18:58.627Z</time></trkpt><trkpt lat="45.8508931" lon="13.4568923"><ele>17.0</ele><time>2026-04-23T09:19:00.629Z</time></trkpt><trkpt lat="45.8508926" lon="13.4567239"><ele>16.8</ele><time>2026-04-23T09:19:02.641Z</time></trkpt><trkpt lat="45.8509021" lon="13.4565703"><ele>16.6</ele><time>2026-04-23T09:19:04.632Z</time></trkpt><trkpt lat="45.8509173" lon="13.4564295"><ele>16.400000000000002</ele><time>2026-04-23T09:19:06.644Z</time></trkpt><trkpt lat="45.8509393" lon="13.456311"><ele>16.2</ele><time>2026-04-23T09:19:08.623Z</time></trkpt><trkpt lat="45.8509868" lon="13.4562206"><ele>16.0</ele><time>2026-04-23T09:19:10.628Z</time></trkpt><trkpt lat="45.8510533" lon="13.4561435"><ele>15.8</ele><time>2026-04-23T09:19:12.638Z</time></trkpt><trkpt lat="45.8511379" lon="13.4560667"><ele>15.600000000000001</ele><time>2026-04-23T09:19:14.628Z</time></trkpt><trkpt lat="45.8512253" lon="13.4559725"><ele>15.4</ele><time>2026-04-23T09:19:16.621Z</time></trkpt><trkpt lat="45.8513122" lon="13.4558772"><ele>15.2</ele><time>2026-04-23T09:19:18.636Z</time></trkpt><trkpt lat="45.8513911" lon="13.4557728"><ele>15.0</ele><time>2026-04-23T09:19:20.624Z</time></trkpt><trkpt lat="45.8514873" lon="13.4556768"><ele>15.0</ele><time>2026-04-23T09:19:22.623Z</time></trkpt><trkpt lat="45.8515964" lon="13.4555746"><ele>15.0</ele><time>2026-04-23T09:19:24.635Z</time></trkpt><trkpt lat="45.8516456" lon="13.4555175"><ele>15.0</ele><time>2026-04-23T09:19:25.626Z</time></trkpt><trkpt lat="45.8517432" lon="13.4554146"><ele>15.0</ele><time>2026-04-23T09:19:27.626Z</time></trkpt><trkpt lat="45.8518367" lon="13.4553141"><ele>15.0</ele><time>2026-04-23T09:19:29.617Z</time></trkpt><trkpt lat="45.8519233" lon="13.4552103"><ele>15.0</ele><time>2026-04-23T09:19:31.623Z</time></trkpt><trkpt lat="45.8520046" lon="13.455118"><ele>15.0</ele><time>2026-04-23T09:19:33.618Z</time></trkpt><trkpt lat="45.8520318" lon="13.4550137"><ele>15.0</ele><time>2026-04-23T09:19:35.622Z</time></trkpt><trkpt lat="45.8519927" lon="13.4549302"><ele>15.0</ele><time>2026-04-23T09:19:37.633Z</time></trkpt><trkpt lat="45.8519165" lon="13.4548677"><ele>15.0</ele><time>2026-04-23T09:19:39.63Z</time></trkpt><trkpt lat="45.8518001" lon="13.4548126"><ele>14.75</ele><time>2026-04-23T09:19:41.638Z</time></trkpt><trkpt lat="45.8516848" lon="13.4547598"><ele>14.5</ele><time>2026-04-23T09:19:43.627Z</time></trkpt><trkpt lat="45.8515792" lon="13.4547018"><ele>14.25</ele><time>2026-04-23T09:19:45.622Z</time></trkpt><trkpt lat="45.8514943" lon="13.4546029"><ele>14.0</ele><time>2026-04-23T09:19:47.624Z</time></trkpt><trkpt lat="45.8514073" lon="13.4544997"><ele>13.799999999999999</ele><time>2026-04-23T09:19:49.63Z</time></trkpt><trkpt lat="45.8513172" lon="13.4543983"><ele>13.599999999999998</ele><time>2026-04-23T09:19:51.621Z</time></trkpt><trkpt lat="45.8512165" lon="13.4542994"><ele>13.4</ele><time>2026-04-23T09:19:53.636Z</time></trkpt><trkpt lat="45.8511148" lon="13.454203"><ele>13.2</ele><time>2026-04-23T09:19:55.628Z</time></trkpt><trkpt lat="45.8510615" lon="13.4541521"><ele>13.0</ele><time>2026-04-23T09:19:56.613Z</time></trkpt><trkpt lat="45.8509689" lon="13.4540666"><ele>13.0</ele><time>2026-04-23T09:19:58.63Z</time></trkpt><trkpt lat="45.8508698" lon="13.453988"><ele>13.0</ele><time>2026-04-23T09:20:00.635Z</time></trkpt><trkpt lat="45.8507816" lon="13.4538819"><ele>13.0</ele><time>2026-04-23T09:20:02.626Z</time></trkpt><trkpt lat="45.8506937" lon="13.4537821"><ele>13.0</ele><time>2026-04-23T09:20:04.628Z</time></trkpt><trkpt lat="45.8505968" lon="13.4537043"><ele>13.0</ele><time>2026-04-23T09:20:06.63Z</time></trkpt><trkpt lat="45.8505105" lon="13.4536058"><ele>13.0</ele><time>2026-04-23T09:20:08.636Z</time></trkpt><trkpt lat="45.8504154" lon="13.4534913"><ele>13.0</ele><time>2026-04-23T09:20:10.621Z</time></trkpt><trkpt lat="45.8503661" lon="13.4534171"><ele>13.0</ele><time>2026-04-23T09:20:11.621Z</time></trkpt><trkpt lat="45.8503238" lon="13.4533408"><ele>13.0</ele><time>2026-04-23T09:20:12.637Z</time></trkpt><trkpt lat="45.8502574" lon="13.453191"><ele>13.0</ele><time>2026-04-23T09:20:14.639Z</time></trkpt><trkpt lat="45.8502053" lon="13.4530374"><ele>13.0</ele><time>2026-04-23T09:20:16.625Z</time></trkpt><trkpt lat="45.8501626" lon="13.4528763"><ele>13.0</ele><time>2026-04-23T09:20:18.628Z</time></trkpt><trkpt lat="45.8501108" lon="13.4527232"><ele>13.0</ele><time>2026-04-23T09:20:20.615Z</time></trkpt><trkpt lat="45.8500552" lon="13.452563"><ele>12.75</ele><time>2026-04-23T09:20:22.617Z</time></trkpt><trkpt lat="45.8500114" lon="13.4524143"><ele>12.5</ele><time>2026-04-23T09:20:24.637Z</time></trkpt><trkpt lat="45.849967" lon="13.4522686"><ele>12.25</ele><time>2026-04-23T09:20:26.627Z</time></trkpt><trkpt lat="45.8499246" lon="13.4521075"><ele>12.0</ele><time>2026-04-23T09:20:28.633Z</time></trkpt><trkpt lat="45.8498748" lon="13.4519568"><ele>11.6</ele><time>2026-04-23T09:20:30.642Z</time></trkpt><trkpt lat="45.8497938" lon="13.4518296"><ele>11.2</ele><time>2026-04-23T09:20:32.638Z</time></trkpt><trkpt lat="45.84975" lon="13.4517644"><ele>10.8</ele><time>2026-04-23T09:20:33.627Z</time></trkpt><trkpt lat="45.8496712" lon="13.4516354"><ele>10.4</ele><time>2026-04-23T09:20:35.629Z</time></trkpt><trkpt lat="45.8496031" lon="13.4515098"><ele>10.0</ele><time>2026-04-23T09:20:37.626Z</time></trkpt><trkpt lat="45.849527" lon="13.4513978"><ele>10.4</ele><time>2026-04-23T09:20:39.632Z</time></trkpt><trkpt lat="45.8494436" lon="13.4512792"><ele>10.8</ele><time>2026-04-23T09:20:41.614Z</time></trkpt><trkpt lat="45.8493552" lon="13.4511592"><ele>11.2</ele><time>2026-04-23T09:20:43.63Z</time></trkpt><trkpt lat="45.8492831" lon="13.4510605"><ele>11.6</ele><time>2026-04-23T09:20:45.632Z</time></trkpt><trkpt lat="45.8491949" lon="13.4509948"><ele>12.0</ele><time>2026-04-23T09:20:47.612Z</time></trkpt><trkpt lat="45.8491006" lon="13.4509082"><ele>12.0</ele><time>2026-04-23T09:20:49.626Z</time></trkpt><trkpt lat="45.8490508" lon="13.4508501"><ele>12.0</ele><time>2026-04-23T09:20:50.625Z</time></trkpt><trkpt lat="45.8489589" lon="13.4507461"><ele>12.0</ele><time>2026-04-23T09:20:52.619Z</time></trkpt><trkpt lat="45.8488554" lon="13.4506883"><ele>12.0</ele><time>2026-04-23T09:20:54.63Z</time></trkpt><trkpt lat="45.8487986" lon="13.4506467"><ele>12.0</ele><time>2026-04-23T09:20:55.642Z</time></trkpt><trkpt lat="45.8487441" lon="13.4505981"><ele>12.0</ele><time>2026-04-23T09:20:56.639Z</time></trkpt><trkpt lat="45.8486434" lon="13.4505091"><ele>11.857142857142856</ele><time>2026-04-23T09:20:58.631Z</time></trkpt><trkpt lat="45.8485572" lon="13.4504152"><ele>11.714285714285714</ele><time>2026-04-23T09:21:00.636Z</time></trkpt><trkpt lat="45.848503" lon="13.4503509"><ele>11.571428571428571</ele><time>2026-04-23T09:21:01.636Z</time></trkpt><trkpt lat="45.8484536" lon="13.4502903"><ele>11.428571428571427</ele><time>2026-04-23T09:21:02.623Z</time></trkpt><trkpt lat="45.8484024" lon="13.4502333"><ele>11.285714285714285</ele><time>2026-04-23T09:21:03.632Z</time></trkpt><trkpt lat="45.8483509" lon="13.4501769"><ele>11.142857142857142</ele><time>2026-04-23T09:21:04.626Z</time></trkpt><trkpt lat="45.8483004" lon="13.4501164"><ele>11.0</ele><time>2026-04-23T09:21:05.627Z</time></trkpt><trkpt lat="45.8482532" lon="13.4500516"><ele>11.0</ele><time>2026-04-23T09:21:06.626Z</time></trkpt><trkpt lat="45.8481635" lon="13.4499285"><ele>11.0</ele><time>2026-04-23T09:21:08.622Z</time></trkpt><trkpt lat="45.8480787" lon="13.4498086"><ele>11.0</ele><time>2026-04-23T09:21:10.637Z</time></trkpt><trkpt lat="45.8479923" lon="13.449699"><ele>11.0</ele><time>2026-04-23T09:21:12.619Z</time></trkpt><trkpt lat="45.8479018" lon="13.4495988"><ele>10.75</ele><time>2026-04-23T09:21:14.62Z</time></trkpt><trkpt lat="45.847835" lon="13.4494555"><ele>10.5</ele><time>2026-04-23T09:21:16.632Z</time></trkpt><trkpt lat="45.8477363" lon="13.4493592"><ele>10.25</ele><time>2026-04-23T09:21:18.613Z</time></trkpt><trkpt lat="45.8476578" lon="13.4492458"><ele>10.0</ele><time>2026-04-23T09:21:20.616Z</time></trkpt><trkpt lat="45.8476053" lon="13.4491032"><ele>10.0</ele><time>2026-04-23T09:21:22.622Z</time></trkpt><trkpt lat="45.8475485" lon="13.4489851"><ele>10.0</ele><time>2026-04-23T09:21:24.632Z</time></trkpt><trkpt lat="45.8475041" lon="13.4489032"><ele>10.0</ele><time>2026-04-23T09:21:25.646Z</time></trkpt><trkpt lat="45.8474223" lon="13.4487819"><ele>10.0</ele><time>2026-04-23T09:21:27.631Z</time></trkpt><trkpt lat="45.8473305" lon="13.4486553"><ele>10.0</ele><time>2026-04-23T09:21:29.627Z</time></trkpt><trkpt lat="45.847287" lon="13.4485886"><ele>10.0</ele><time>2026-04-23T09:21:30.626Z</time></trkpt><trkpt lat="45.847211" lon="13.4484486"><ele>10.0</ele><time>2026-04-23T09:21:32.619Z</time></trkpt><trkpt lat="45.8471468" lon="13.4483064"><ele>10.0</ele><time>2026-04-23T09:21:34.631Z</time></trkpt><trkpt lat="45.8470779" lon="13.4481623"><ele>10.0</ele><time>2026-04-23T09:21:36.642Z</time></trkpt><trkpt lat="45.8469986" lon="13.448026"><ele>9.833333333333334</ele><time>2026-04-23T09:21:38.625Z</time></trkpt><trkpt lat="45.8469536" lon="13.4479537"><ele>9.666666666666668</ele><time>2026-04-23T09:21:39.63Z</time></trkpt><trkpt lat="45.846912" lon="13.4478817"><ele>9.5</ele><time>2026-04-23T09:21:40.637Z</time></trkpt><trkpt lat="45.8468689" lon="13.4478123"><ele>9.333333333333334</ele><time>2026-04-23T09:21:41.618Z</time></trkpt><trkpt lat="45.8467918" lon="13.4476686"><ele>9.166666666666666</ele><time>2026-04-23T09:21:43.621Z</time></trkpt><trkpt lat="45.8467523" lon="13.4475972"><ele>9.0</ele><time>2026-04-23T09:21:44.612Z</time></trkpt><trkpt lat="45.8467147" lon="13.4475229"><ele>9.2</ele><time>2026-04-23T09:21:45.619Z</time></trkpt><trkpt lat="45.8466417" lon="13.4473764"><ele>9.4</ele><time>2026-04-23T09:21:47.634Z</time></trkpt><trkpt lat="45.8466049" lon="13.4473023"><ele>9.6</ele><time>2026-04-23T09:21:48.622Z</time></trkpt><trkpt lat="45.8465358" lon="13.4471572"><ele>9.8</ele><time>2026-04-23T09:21:50.618Z</time></trkpt><trkpt lat="45.8464627" lon="13.4470122"><ele>10.0</ele><time>2026-04-23T09:21:52.628Z</time></trkpt><trkpt lat="45.8464271" lon="13.4469373"><ele>10.0</ele><time>2026-04-23T09:21:53.627Z</time></trkpt><trkpt lat="45.8463566" lon="13.446796"><ele>10.0</ele><time>2026-04-23T09:21:55.617Z</time></trkpt><trkpt lat="45.8462866" lon="13.4466501"><ele>10.0</ele><time>2026-04-23T09:21:57.625Z</time></trkpt><trkpt lat="45.8462155" lon="13.4465056"><ele>10.0</ele><time>2026-04-23T09:21:59.609Z</time></trkpt><trkpt lat="45.8461795" lon="13.4464298"><ele>10.0</ele><time>2026-04-23T09:22:00.627Z</time></trkpt><trkpt lat="45.8461398" lon="13.446356"><ele>10.0</ele><time>2026-04-23T09:22:01.62Z</time></trkpt><trkpt lat="45.8461038" lon="13.4462805"><ele>10.0</ele><time>2026-04-23T09:22:02.616Z</time></trkpt><trkpt lat="45.8460388" lon="13.4461353"><ele>10.0</ele><time>2026-04-23T09:22:04.625Z</time></trkpt><trkpt lat="45.845974" lon="13.4460057"><ele>10.0</ele><time>2026-04-23T09:22:06.628Z</time></trkpt><trkpt lat="45.8459095" lon="13.4458857"><ele>10.0</ele><time>2026-04-23T09:22:08.614Z</time></trkpt><trkpt lat="45.8458385" lon="13.4457433"><ele>10.0</ele><time>2026-04-23T09:22:10.623Z</time></trkpt><trkpt lat="45.8458018" lon="13.4456655"><ele>10.0</ele><time>2026-04-23T09:22:11.63Z</time></trkpt><trkpt lat="45.8457302" lon="13.4455162"><ele>10.0</ele><time>2026-04-23T09:22:13.629Z</time></trkpt><trkpt lat="45.8456877" lon="13.4454424"><ele>10.0</ele><time>2026-04-23T09:22:14.638Z</time></trkpt><trkpt lat="45.845647" lon="13.4453685"><ele>10.0</ele><time>2026-04-23T09:22:15.628Z</time></trkpt><trkpt lat="45.8455694" lon="13.4452307"><ele>10.0</ele><time>2026-04-23T09:22:17.632Z</time></trkpt><trkpt lat="45.8455303" lon="13.4451584"><ele>10.0</ele><time>2026-04-23T09:22:18.627Z</time></trkpt><trkpt lat="45.8454927" lon="13.4450834"><ele>10.0</ele><time>2026-04-23T09:22:19.629Z</time></trkpt><trkpt lat="45.8454355" lon="13.4449267"><ele>10.0</ele><time>2026-04-23T09:22:21.64Z</time></trkpt><trkpt lat="45.8454263" lon="13.4447581"><ele>10.0</ele><time>2026-04-23T09:22:23.628Z</time></trkpt><trkpt lat="45.8454107" lon="13.4446705"><ele>10.0</ele><time>2026-04-23T09:22:24.65Z</time></trkpt><trkpt lat="45.8453397" lon="13.4445311"><ele>10.5</ele><time>2026-04-23T09:22:26.636Z</time></trkpt><trkpt lat="45.8452372" lon="13.4444332"><ele>11.0</ele><time>2026-04-23T09:22:28.618Z</time></trkpt><trkpt lat="45.8451392" lon="13.4443235"><ele>11.5</ele><time>2026-04-23T09:22:30.625Z</time></trkpt><trkpt lat="45.8450455" lon="13.4442059"><ele>12.0</ele><time>2026-04-23T09:22:32.631Z</time></trkpt><trkpt lat="45.8449612" lon="13.4440733"><ele>12.0</ele><time>2026-04-23T09:22:34.639Z</time></trkpt><trkpt lat="45.8448838" lon="13.4439368"><ele>12.0</ele><time>2026-04-23T09:22:36.633Z</time></trkpt><trkpt lat="45.8448162" lon="13.4438009"><ele>12.0</ele><time>2026-04-23T09:22:38.621Z</time></trkpt><trkpt lat="45.8447494" lon="13.4436729"><ele>12.0</ele><time>2026-04-23T09:22:40.628Z</time></trkpt><trkpt lat="45.8446849" lon="13.443531"><ele>11.6</ele><time>2026-04-23T09:22:42.645Z</time></trkpt><trkpt lat="45.8446354" lon="13.4433969"><ele>11.2</ele><time>2026-04-23T09:22:44.634Z</time></trkpt><trkpt lat="45.8445619" lon="13.4433229"><ele>10.8</ele><time>2026-04-23T09:22:46.63Z</time></trkpt><trkpt lat="45.8445246" lon="13.4431901"><ele>10.4</ele><time>2026-04-23T09:22:48.629Z</time></trkpt><trkpt lat="45.8444783" lon="13.4430736"><ele>10.0</ele><time>2026-04-23T09:22:50.628Z</time></trkpt><trkpt lat="45.8443782" lon="13.4430006"><ele>10.6</ele><time>2026-04-23T09:22:52.631Z</time></trkpt><trkpt lat="45.8442627" lon="13.4429503"><ele>11.2</ele><time>2026-04-23T09:22:54.633Z</time></trkpt><trkpt lat="45.8441483" lon="13.4428927"><ele>11.8</ele><time>2026-04-23T09:22:56.63Z</time></trkpt><trkpt lat="45.8440974" lon="13.4428393"><ele>12.4</ele><time>2026-04-23T09:22:57.633Z</time></trkpt><trkpt lat="45.8440613" lon="13.4427518"><ele>13.0</ele><time>2026-04-23T09:22:58.633Z</time></trkpt><trkpt lat="45.8440195" lon="13.4425863"><ele>12.999999999999998</ele><time>2026-04-23T09:23:00.638Z</time></trkpt><trkpt lat="45.8439978" lon="13.4424089"><ele>13.0</ele><time>2026-04-23T09:23:02.632Z</time></trkpt><trkpt lat="45.8439769" lon="13.4423175"><ele>13.0</ele><time>2026-04-23T09:23:03.626Z</time></trkpt><trkpt lat="45.8439391" lon="13.4422429"><ele>13.0</ele><time>2026-04-23T09:23:04.627Z</time></trkpt><trkpt lat="45.8438857" lon="13.4421822"><ele>12.999999999999998</ele><time>2026-04-23T09:23:05.626Z</time></trkpt><trkpt lat="45.8438259" lon="13.4421399"><ele>13.0</ele><time>2026-04-23T09:23:06.628Z</time></trkpt><trkpt lat="45.8437304" lon="13.4420309"><ele>12.666666666666666</ele><time>2026-04-23T09:23:08.635Z</time></trkpt><trkpt lat="45.8436411" lon="13.4419172"><ele>12.333333333333332</ele><time>2026-04-23T09:23:10.647Z</time></trkpt><trkpt lat="45.8435844" lon="13.4418703"><ele>12.0</ele><time>2026-04-23T09:23:11.613Z</time></trkpt><trkpt lat="45.8435335" lon="13.441814"><ele>11.666666666666666</ele><time>2026-04-23T09:23:12.651Z</time></trkpt><trkpt lat="45.8434852" lon="13.4417522"><ele>11.333333333333332</ele><time>2026-04-23T09:23:13.641Z</time></trkpt><trkpt lat="45.8434375" lon="13.4416891"><ele>11.0</ele><time>2026-04-23T09:23:14.616Z</time></trkpt><trkpt lat="45.8433665" lon="13.4415535"><ele>11.5</ele><time>2026-04-23T09:23:16.622Z</time></trkpt><trkpt lat="45.8433031" lon="13.441407"><ele>12.0</ele><time>2026-04-23T09:23:18.612Z</time></trkpt><trkpt lat="45.8432476" lon="13.4412456"><ele>12.5</ele><time>2026-04-23T09:23:20.62Z</time></trkpt><trkpt lat="45.8432203" lon="13.4411619"><ele>13.0</ele><time>2026-04-23T09:23:21.626Z</time></trkpt><trkpt lat="45.8431949" lon="13.4410777"><ele>13.500000000000002</ele><time>2026-04-23T09:23:22.635Z</time></trkpt><trkpt lat="45.8431679" lon="13.4409941"><ele>14.0</ele><time>2026-04-23T09:23:23.62Z</time></trkpt><trkpt lat="45.8431101" lon="13.4408385"><ele>14.0</ele><time>2026-04-23T09:23:25.627Z</time></trkpt><trkpt lat="45.8430735" lon="13.4407641"><ele>13.999999999999998</ele><time>2026-04-23T09:23:26.63Z</time></trkpt><trkpt lat="45.843003" lon="13.4406167"><ele>13.999999999999998</ele><time>2026-04-23T09:23:28.624Z</time></trkpt><trkpt lat="45.8429322" lon="13.4404735"><ele>14.0</ele><time>2026-04-23T09:23:30.634Z</time></trkpt><trkpt lat="45.8428779" lon="13.4403196"><ele>14.0</ele><time>2026-04-23T09:23:32.619Z</time></trkpt><trkpt lat="45.8428414" lon="13.4401663"><ele>13.799999999999999</ele><time>2026-04-23T09:23:34.626Z</time></trkpt><trkpt lat="45.8428108" lon="13.4400147"><ele>13.599999999999998</ele><time>2026-04-23T09:23:36.628Z</time></trkpt><trkpt lat="45.8427656" lon="13.4398592"><ele>13.4</ele><time>2026-04-23T09:23:38.621Z</time></trkpt><trkpt lat="45.8427069" lon="13.4396931"><ele>13.2</ele><time>2026-04-23T09:23:40.622Z</time></trkpt><trkpt lat="45.8426717" lon="13.4396019"><ele>13.0</ele><time>2026-04-23T09:23:41.625Z</time></trkpt><trkpt lat="45.8426324" lon="13.4395176"><ele>13.5</ele><time>2026-04-23T09:23:42.64Z</time></trkpt><trkpt lat="45.8425539" lon="13.4393739"><ele>14.0</ele><time>2026-04-23T09:23:44.63Z</time></trkpt><trkpt lat="45.8424932" lon="13.4392157"><ele>14.5</ele><time>2026-04-23T09:23:46.626Z</time></trkpt><trkpt lat="45.8424474" lon="13.4390706"><ele>15.0</ele><time>2026-04-23T09:23:48.635Z</time></trkpt><trkpt lat="45.8423998" lon="13.438922"><ele>14.2</ele><time>2026-04-23T09:23:50.629Z</time></trkpt><trkpt lat="45.8423492" lon="13.4387753"><ele>13.4</ele><time>2026-04-23T09:23:52.624Z</time></trkpt><trkpt lat="45.8423087" lon="13.4386955"><ele>12.600000000000001</ele><time>2026-04-23T09:23:53.624Z</time></trkpt><trkpt lat="45.842241" lon="13.4385684"><ele>11.8</ele><time>2026-04-23T09:23:55.63Z</time></trkpt><trkpt lat="45.8421973" lon="13.4385007"><ele>11.0</ele><time>2026-04-23T09:23:56.625Z</time></trkpt><trkpt lat="45.8421132" lon="13.4383885"><ele>11.0</ele><time>2026-04-23T09:23:58.616Z</time></trkpt><trkpt lat="45.842018" lon="13.438301"><ele>11.0</ele><time>2026-04-23T09:24:00.62Z</time></trkpt><trkpt lat="45.8419141" lon="13.4382086"><ele>11.0</ele><time>2026-04-23T09:24:02.64Z</time></trkpt><trkpt lat="45.8418046" lon="13.4381197"><ele>11.0</ele><time>2026-04-23T09:24:04.627Z</time></trkpt><trkpt lat="45.8416932" lon="13.4380411"><ele>11.200000000000001</ele><time>2026-04-23T09:24:06.626Z</time></trkpt><trkpt lat="45.8415799" lon="13.4379562"><ele>11.4</ele><time>2026-04-23T09:24:08.622Z</time></trkpt><trkpt lat="45.8415232" lon="13.4379137"><ele>11.6</ele><time>2026-04-23T09:24:09.613Z</time></trkpt><trkpt lat="45.8414649" lon="13.4378788"><ele>11.8</ele><time>2026-04-23T09:24:10.62Z</time></trkpt><trkpt lat="45.8413438" lon="13.4378239"><ele>12.0</ele><time>2026-04-23T09:24:12.63Z</time></trkpt><trkpt lat="45.8412314" lon="13.437803"><ele>12.0</ele><time>2026-04-23T09:24:14.649Z</time></trkpt><trkpt lat="45.8411363" lon="13.4377953"><ele>12.0</ele><time>2026-04-23T09:24:16.624Z</time></trkpt><trkpt lat="45.8410518" lon="13.4377877"><ele>12.0</ele><time>2026-04-23T09:24:18.644Z</time></trkpt><trkpt lat="45.8409767" lon="13.4377063"><ele>12.0</ele><time>2026-04-23T09:24:20.624Z</time></trkpt><trkpt lat="45.8409073" lon="13.4375643"><ele>12.0</ele><time>2026-04-23T09:24:22.632Z</time></trkpt><trkpt lat="45.8408688" lon="13.4374903"><ele>12.166666666666666</ele><time>2026-04-23T09:24:23.618Z</time></trkpt><trkpt lat="45.8408296" lon="13.4374173"><ele>12.333333333333332</ele><time>2026-04-23T09:24:24.608Z</time></trkpt><trkpt lat="45.84079" lon="13.4373435"><ele>12.5</ele><time>2026-04-23T09:24:25.631Z</time></trkpt><trkpt lat="45.8407501" lon="13.4372688"><ele>12.666666666666666</ele><time>2026-04-23T09:24:26.624Z</time></trkpt><trkpt lat="45.8406765" lon="13.4371255"><ele>12.833333333333332</ele><time>2026-04-23T09:24:28.625Z</time></trkpt><trkpt lat="45.8406046" lon="13.4369835"><ele>13.0</ele><time>2026-04-23T09:24:30.618Z</time></trkpt><trkpt lat="45.8405309" lon="13.4368445"><ele>12.25</ele><time>2026-04-23T09:24:32.631Z</time></trkpt><trkpt lat="45.8404557" lon="13.4367077"><ele>11.5</ele><time>2026-04-23T09:24:34.641Z</time></trkpt><trkpt lat="45.8403788" lon="13.4365693"><ele>10.75</ele><time>2026-04-23T09:24:36.636Z</time></trkpt><trkpt lat="45.8402984" lon="13.4364366"><ele>10.0</ele><time>2026-04-23T09:24:38.633Z</time></trkpt><trkpt lat="45.8402196" lon="13.4363019"><ele>10.0</ele><time>2026-04-23T09:24:40.626Z</time></trkpt><trkpt lat="45.8401407" lon="13.4361695"><ele>10.0</ele><time>2026-04-23T09:24:42.617Z</time></trkpt><trkpt lat="45.8400598" lon="13.4360381"><ele>10.0</ele><time>2026-04-23T09:24:44.626Z</time></trkpt><trkpt lat="45.8399796" lon="13.4359066"><ele>10.0</ele><time>2026-04-23T09:24:46.633Z</time></trkpt><trkpt lat="45.839898" lon="13.4357738"><ele>10.0</ele><time>2026-04-23T09:24:48.619Z</time></trkpt><trkpt lat="45.8398122" lon="13.4356476"><ele>10.0</ele><time>2026-04-23T09:24:50.619Z</time></trkpt><trkpt lat="45.8397146" lon="13.4355413"><ele>10.0</ele><time>2026-04-23T09:24:52.621Z</time></trkpt><trkpt lat="45.8396081" lon="13.4354533"><ele>10.0</ele><time>2026-04-23T09:24:54.618Z</time></trkpt><trkpt lat="45.8395023" lon="13.4353634"><ele>10.0</ele><time>2026-04-23T09:24:56.628Z</time></trkpt><trkpt lat="45.8393976" lon="13.4352778"><ele>10.0</ele><time>2026-04-23T09:24:58.623Z</time></trkpt><trkpt lat="45.8392903" lon="13.4351907"><ele>10.0</ele><time>2026-04-23T09:25:00.625Z</time></trkpt><trkpt lat="45.8391808" lon="13.4351022"><ele>10.0</ele><time>2026-04-23T09:25:02.642Z</time></trkpt><trkpt lat="45.8390709" lon="13.4350169"><ele>10.0</ele><time>2026-04-23T09:25:04.667Z</time></trkpt><trkpt lat="45.8390163" lon="13.4349717"><ele>10.0</ele><time>2026-04-23T09:25:05.612Z</time></trkpt><trkpt lat="45.8389062" lon="13.434885"><ele>10.0</ele><time>2026-04-23T09:25:07.606Z</time></trkpt><trkpt lat="45.8388508" lon="13.4348417"><ele>10.0</ele><time>2026-04-23T09:25:08.601Z</time></trkpt><trkpt lat="45.8387404" lon="13.4347564"><ele>10.0</ele><time>2026-04-23T09:25:10.617Z</time></trkpt><trkpt lat="45.8386305" lon="13.4346705"><ele>9.4</ele><time>2026-04-23T09:25:12.626Z</time></trkpt><trkpt lat="45.838575" lon="13.4346271"><ele>8.8</ele><time>2026-04-23T09:25:13.626Z</time></trkpt><trkpt lat="45.8384642" lon="13.4345423"><ele>8.2</ele><time>2026-04-23T09:25:15.634Z</time></trkpt><trkpt lat="45.8383518" lon="13.4344628"><ele>7.6</ele><time>2026-04-23T09:25:17.636Z</time></trkpt><trkpt lat="45.8382408" lon="13.4343786"><ele>7.0</ele><time>2026-04-23T09:25:19.625Z</time></trkpt><trkpt lat="45.8381296" lon="13.4342966"><ele>7.0</ele><time>2026-04-23T09:25:21.629Z</time></trkpt><trkpt lat="45.8380185" lon="13.434218"><ele>7.0</ele><time>2026-04-23T09:25:23.641Z</time></trkpt><trkpt lat="45.8379085" lon="13.4341426"><ele>7.0</ele><time>2026-04-23T09:25:25.63Z</time></trkpt><trkpt lat="45.8377964" lon="13.4340712"><ele>7.0</ele><time>2026-04-23T09:25:27.62Z</time></trkpt><trkpt lat="45.8376836" lon="13.4339994"><ele>7.0</ele><time>2026-04-23T09:25:29.626Z</time></trkpt><trkpt lat="45.8375706" lon="13.4339259"><ele>7.0</ele><time>2026-04-23T09:25:31.62Z</time></trkpt><trkpt lat="45.8374569" lon="13.4338533"><ele>7.0</ele><time>2026-04-23T09:25:33.612Z</time></trkpt><trkpt lat="45.8373393" lon="13.4337994"><ele>7.0</ele><time>2026-04-23T09:25:35.656Z</time></trkpt><trkpt lat="45.8372188" lon="13.4337575"><ele>7.0</ele><time>2026-04-23T09:25:37.621Z</time></trkpt><trkpt lat="45.8371053" lon="13.4337053"><ele>6.999999999999999</ele><time>2026-04-23T09:25:39.629Z</time></trkpt><trkpt lat="45.837012" lon="13.4336455"><ele>6.999999999999999</ele><time>2026-04-23T09:25:41.624Z</time></trkpt><trkpt lat="45.83695" lon="13.4335861"><ele>7.0</ele><time>2026-04-23T09:25:43.625Z</time></trkpt><trkpt lat="45.8369456" lon="13.4334404"><ele>7.0</ele><time>2026-04-23T09:25:46.63Z</time></trkpt><trkpt lat="45.8369038" lon="13.4333351"><ele>7.0</ele><time>2026-04-23T09:25:48.622Z</time></trkpt><trkpt lat="45.8368187" lon="13.4333039"><ele>6.999999999999999</ele><time>2026-04-23T09:25:50.624Z</time></trkpt><trkpt lat="45.8367155" lon="13.4333319"><ele>6.999999999999999</ele><time>2026-04-23T09:25:52.641Z</time></trkpt><trkpt lat="45.8366009" lon="13.4333313"><ele>7.0</ele><time>2026-04-23T09:25:54.623Z</time></trkpt><trkpt lat="45.8364792" lon="13.4332994"><ele>7.0</ele><time>2026-04-23T09:25:56.643Z</time></trkpt><trkpt lat="45.8363646" lon="13.4332636"><ele>7.25</ele><time>2026-04-23T09:25:58.614Z</time></trkpt><trkpt lat="45.8362524" lon="13.4332237"><ele>7.5</ele><time>2026-04-23T09:26:00.624Z</time></trkpt><trkpt lat="45.8361401" lon="13.4331781"><ele>7.75</ele><time>2026-04-23T09:26:02.636Z</time></trkpt><trkpt lat="45.836025" lon="13.4331376"><ele>8.0</ele><time>2026-04-23T09:26:04.628Z</time></trkpt><trkpt lat="45.8359105" lon="13.4330941"><ele>8.25</ele><time>2026-04-23T09:26:06.623Z</time></trkpt><trkpt lat="45.835798" lon="13.4330561"><ele>8.5</ele><time>2026-04-23T09:26:08.616Z</time></trkpt><trkpt lat="45.8356867" lon="13.4330171"><ele>8.75</ele><time>2026-04-23T09:26:10.662Z</time></trkpt><trkpt lat="45.8355731" lon="13.4329841"><ele>9.0</ele><time>2026-04-23T09:26:12.62Z</time></trkpt><trkpt lat="45.8354579" lon="13.4329537"><ele>9.0</ele><time>2026-04-23T09:26:14.643Z</time></trkpt><trkpt lat="45.8353432" lon="13.4329233"><ele>9.0</ele><time>2026-04-23T09:26:16.626Z</time></trkpt><trkpt lat="45.835232" lon="13.4328936"><ele>9.0</ele><time>2026-04-23T09:26:18.629Z</time></trkpt><trkpt lat="45.8351185" lon="13.432862"><ele>9.0</ele><time>2026-04-23T09:26:20.628Z</time></trkpt><trkpt lat="45.8350054" lon="13.4328208"><ele>9.0</ele><time>2026-04-23T09:26:22.647Z</time></trkpt><trkpt lat="45.834896" lon="13.4327827"><ele>9.0</ele><time>2026-04-23T09:26:24.621Z</time></trkpt><trkpt lat="45.8347826" lon="13.4327404"><ele>9.0</ele><time>2026-04-23T09:26:26.627Z</time></trkpt><trkpt lat="45.83467" lon="13.4326926"><ele>9.0</ele><time>2026-04-23T09:26:28.631Z</time></trkpt><trkpt lat="45.8345576" lon="13.4326516"><ele>9.0</ele><time>2026-04-23T09:26:30.639Z</time></trkpt><trkpt lat="45.8344455" lon="13.4326119"><ele>9.0</ele><time>2026-04-23T09:26:32.625Z</time></trkpt><trkpt lat="45.8343322" lon="13.4325733"><ele>9.0</ele><time>2026-04-23T09:26:34.637Z</time></trkpt><trkpt lat="45.834219" lon="13.4325302"><ele>9.0</ele><time>2026-04-23T09:26:36.622Z</time></trkpt><trkpt lat="45.834106" lon="13.4324892"><ele>9.0</ele><time>2026-04-23T09:26:38.631Z</time></trkpt><trkpt lat="45.8339936" lon="13.4324501"><ele>9.0</ele><time>2026-04-23T09:26:40.64Z</time></trkpt><trkpt lat="45.8338816" lon="13.4324087"><ele>9.0</ele><time>2026-04-23T09:26:42.642Z</time></trkpt><trkpt lat="45.8337672" lon="13.4323677"><ele>9.0</ele><time>2026-04-23T09:26:44.624Z</time></trkpt><trkpt lat="45.8336525" lon="13.4323302"><ele>9.0</ele><time>2026-04-23T09:26:46.638Z</time></trkpt><trkpt lat="45.8335396" lon="13.4322911"><ele>9.0</ele><time>2026-04-23T09:26:48.632Z</time></trkpt><trkpt lat="45.8334284" lon="13.4322467"><ele>9.0</ele><time>2026-04-23T09:26:50.632Z</time></trkpt><trkpt lat="45.8333168" lon="13.4322017"><ele>9.0</ele><time>2026-04-23T09:26:52.617Z</time></trkpt><trkpt lat="45.8332044" lon="13.4321577"><ele>8.6</ele><time>2026-04-23T09:26:54.626Z</time></trkpt><trkpt lat="45.8330815" lon="13.4321255"><ele>8.2</ele><time>2026-04-23T09:26:56.643Z</time></trkpt><trkpt lat="45.8330192" lon="13.4321109"><ele>7.799999999999999</ele><time>2026-04-23T09:26:57.635Z</time></trkpt><trkpt lat="45.832902" lon="13.4320722"><ele>7.3999999999999995</ele><time>2026-04-23T09:26:59.622Z</time></trkpt><trkpt lat="45.8327886" lon="13.4320409"><ele>7.0</ele><time>2026-04-23T09:27:01.632Z</time></trkpt><trkpt lat="45.8326727" lon="13.4320141"><ele>7.75</ele><time>2026-04-23T09:27:03.638Z</time></trkpt><trkpt lat="45.8325637" lon="13.4319848"><ele>8.5</ele><time>2026-04-23T09:27:05.637Z</time></trkpt><trkpt lat="45.8324567" lon="13.4319486"><ele>9.25</ele><time>2026-04-23T09:27:07.615Z</time></trkpt><trkpt lat="45.8323439" lon="13.4318891"><ele>10.0</ele><time>2026-04-23T09:27:09.631Z</time></trkpt><trkpt lat="45.8322386" lon="13.4318098"><ele>10.0</ele><time>2026-04-23T09:27:11.651Z</time></trkpt><trkpt lat="45.8321374" lon="13.4317405"><ele>10.0</ele><time>2026-04-23T09:27:13.64Z</time></trkpt><trkpt lat="45.8320262" lon="13.4316895"><ele>10.0</ele><time>2026-04-23T09:27:15.634Z</time></trkpt><trkpt lat="45.8319123" lon="13.4316527"><ele>10.0</ele><time>2026-04-23T09:27:17.626Z</time></trkpt><trkpt lat="45.8317964" lon="13.4316108"><ele>10.25</ele><time>2026-04-23T09:27:19.636Z</time></trkpt><trkpt lat="45.8316873" lon="13.4315563"><ele>10.5</ele><time>2026-04-23T09:27:21.64Z</time></trkpt><trkpt lat="45.831594" lon="13.4314888"><ele>10.75</ele><time>2026-04-23T09:27:23.639Z</time></trkpt><trkpt lat="45.8314908" lon="13.4314041"><ele>11.0</ele><time>2026-04-23T09:27:25.629Z</time></trkpt><trkpt lat="45.8313885" lon="13.4312957"><ele>10.4</ele><time>2026-04-23T09:27:27.636Z</time></trkpt><trkpt lat="45.831329" lon="13.4312569"><ele>9.8</ele><time>2026-04-23T09:27:28.616Z</time></trkpt><trkpt lat="45.8312178" lon="13.4311893"><ele>9.200000000000001</ele><time>2026-04-23T09:27:30.622Z</time></trkpt><trkpt lat="45.8311113" lon="13.4311297"><ele>8.600000000000001</ele><time>2026-04-23T09:27:32.631Z</time></trkpt><trkpt lat="45.8310003" lon="13.4310641"><ele>8.0</ele><time>2026-04-23T09:27:34.627Z</time></trkpt><trkpt lat="45.8308839" lon="13.4310111"><ele>8.0</ele><time>2026-04-23T09:27:36.633Z</time></trkpt><trkpt lat="45.8307784" lon="13.430962"><ele>8.0</ele><time>2026-04-23T09:27:38.635Z</time></trkpt><trkpt lat="45.8306619" lon="13.4309227"><ele>8.0</ele><time>2026-04-23T09:27:40.632Z</time></trkpt><trkpt lat="45.830545" lon="13.4308808"><ele>8.0</ele><time>2026-04-23T09:27:42.617Z</time></trkpt><trkpt lat="45.8304396" lon="13.4308395"><ele>8.0</ele><time>2026-04-23T09:27:44.628Z</time></trkpt><trkpt lat="45.8303322" lon="13.4307948"><ele>8.0</ele><time>2026-04-23T09:27:46.631Z</time></trkpt><trkpt lat="45.8302186" lon="13.4307511"><ele>8.0</ele><time>2026-04-23T09:27:48.633Z</time></trkpt><trkpt lat="45.8301558" lon="13.4307296"><ele>8.0</ele><time>2026-04-23T09:27:49.632Z</time></trkpt><trkpt lat="45.8300415" lon="13.4306841"><ele>8.0</ele><time>2026-04-23T09:27:51.636Z</time></trkpt><trkpt lat="45.8299796" lon="13.4306666"><ele>8.0</ele><time>2026-04-23T09:27:52.631Z</time></trkpt><trkpt lat="45.8298569" lon="13.4306317"><ele>8.0</ele><time>2026-04-23T09:27:54.647Z</time></trkpt><trkpt lat="45.8297458" lon="13.4306026"><ele>8.0</ele><time>2026-04-23T09:27:56.631Z</time></trkpt><trkpt lat="45.8296234" lon="13.430569"><ele>8.0</ele><time>2026-04-23T09:27:58.612Z</time></trkpt><trkpt lat="45.8295109" lon="13.4305359"><ele>8.0</ele><time>2026-04-23T09:28:00.62Z</time></trkpt><trkpt lat="45.8293898" lon="13.4304928"><ele>8.0</ele><time>2026-04-23T09:28:02.637Z</time></trkpt><trkpt lat="45.8292784" lon="13.4304561"><ele>8.0</ele><time>2026-04-23T09:28:04.622Z</time></trkpt><trkpt lat="45.8291755" lon="13.4304302"><ele>8.0</ele><time>2026-04-23T09:28:06.639Z</time></trkpt><trkpt lat="45.8290639" lon="13.4304041"><ele>7.75</ele><time>2026-04-23T09:28:08.616Z</time></trkpt><trkpt lat="45.8289397" lon="13.4304062"><ele>7.5</ele><time>2026-04-23T09:28:10.64Z</time></trkpt><trkpt lat="45.8288255" lon="13.4304092"><ele>7.25</ele><time>2026-04-23T09:28:12.619Z</time></trkpt><trkpt lat="45.8287231" lon="13.4304409"><ele>7.0</ele><time>2026-04-23T09:28:14.64Z</time></trkpt><trkpt lat="45.828612" lon="13.4304839"><ele>7.0</ele><time>2026-04-23T09:28:16.627Z</time></trkpt><trkpt lat="45.828519" lon="13.4305215"><ele>6.999999999999999</ele><time>2026-04-23T09:28:18.628Z</time></trkpt><trkpt lat="45.8284408" lon="13.430565"><ele>6.999999999999999</ele><time>2026-04-23T09:28:20.617Z</time></trkpt><trkpt lat="45.8283758" lon="13.4306732"><ele>7.0</ele><time>2026-04-23T09:28:22.647Z</time></trkpt><trkpt lat="45.8283208" lon="13.430719"><ele>7.0</ele><time>2026-04-23T09:28:23.631Z</time></trkpt><trkpt lat="45.8282078" lon="13.4307076"><ele>7.0</ele><time>2026-04-23T09:28:25.64Z</time></trkpt><trkpt lat="45.8280993" lon="13.4306852"><ele>7.0</ele><time>2026-04-23T09:28:27.643Z</time></trkpt><trkpt lat="45.8279861" lon="13.4306721"><ele>7.0</ele><time>2026-04-23T09:28:29.626Z</time></trkpt><trkpt lat="45.8278734" lon="13.4306584"><ele>7.0</ele><time>2026-04-23T09:28:31.645Z</time></trkpt><trkpt lat="45.8277553" lon="13.4306456"><ele>7.5</ele><time>2026-04-23T09:28:33.633Z</time></trkpt><trkpt lat="45.8276414" lon="13.4305938"><ele>8.0</ele><time>2026-04-23T09:28:35.633Z</time></trkpt><trkpt lat="45.8275268" lon="13.4305789"><ele>8.5</ele><time>2026-04-23T09:28:37.636Z</time></trkpt><trkpt lat="45.8274112" lon="13.4305979"><ele>9.0</ele><time>2026-04-23T09:28:39.634Z</time></trkpt><trkpt lat="45.8272945" lon="13.4306316"><ele>9.0</ele><time>2026-04-23T09:28:41.642Z</time></trkpt><trkpt lat="45.8271758" lon="13.4306654"><ele>9.0</ele><time>2026-04-23T09:28:43.627Z</time></trkpt><trkpt lat="45.827053" lon="13.4306877"><ele>9.0</ele><time>2026-04-23T09:28:45.645Z</time></trkpt><trkpt lat="45.826931" lon="13.4306996"><ele>9.0</ele><time>2026-04-23T09:28:47.606Z</time></trkpt><trkpt lat="45.8268109" lon="13.4307135"><ele>9.5</ele><time>2026-04-23T09:28:49.645Z</time></trkpt><trkpt lat="45.8266897" lon="13.4307188"><ele>10.0</ele><time>2026-04-23T09:28:51.65Z</time></trkpt><trkpt lat="45.8265678" lon="13.4307276"><ele>10.5</ele><time>2026-04-23T09:28:53.626Z</time></trkpt><trkpt lat="45.8264493" lon="13.4307443"><ele>11.0</ele><time>2026-04-23T09:28:55.641Z</time></trkpt><trkpt lat="45.8263293" lon="13.4307612"><ele>11.0</ele><time>2026-04-23T09:28:57.651Z</time></trkpt><trkpt lat="45.8262134" lon="13.4307714"><ele>11.0</ele><time>2026-04-23T09:28:59.633Z</time></trkpt><trkpt lat="45.8260923" lon="13.4307798"><ele>11.0</ele><time>2026-04-23T09:29:01.635Z</time></trkpt><trkpt lat="45.8259735" lon="13.4307973"><ele>11.0</ele><time>2026-04-23T09:29:03.627Z</time></trkpt><trkpt lat="45.8258542" lon="13.4308055"><ele>10.0</ele><time>2026-04-23T09:29:05.645Z</time></trkpt><trkpt lat="45.8257353" lon="13.4308142"><ele>9.0</ele><time>2026-04-23T09:29:07.648Z</time></trkpt><trkpt lat="45.8256169" lon="13.430826"><ele>8.0</ele><time>2026-04-23T09:29:09.615Z</time></trkpt><trkpt lat="45.8255014" lon="13.4308382"><ele>7.0</ele><time>2026-04-23T09:29:11.638Z</time></trkpt><trkpt lat="45.8253851" lon="13.43085"><ele>7.0</ele><time>2026-04-23T09:29:13.632Z</time></trkpt><trkpt lat="45.8252672" lon="13.4308671"><ele>7.0</ele><time>2026-04-23T09:29:15.645Z</time></trkpt><trkpt lat="45.8251521" lon="13.430878"><ele>7.0</ele><time>2026-04-23T09:29:17.64Z</time></trkpt><trkpt lat="45.8250363" lon="13.4308879"><ele>7.0</ele><time>2026-04-23T09:29:19.624Z</time></trkpt><trkpt lat="45.8249234" lon="13.4309004"><ele>7.0</ele><time>2026-04-23T09:29:21.622Z</time></trkpt><trkpt lat="45.8248047" lon="13.4309222"><ele>7.0</ele><time>2026-04-23T09:29:23.645Z</time></trkpt><trkpt lat="45.8246891" lon="13.4309381"><ele>7.0</ele><time>2026-04-23T09:29:25.661Z</time></trkpt><trkpt lat="45.824573" lon="13.4309524"><ele>7.0</ele><time>2026-04-23T09:29:27.627Z</time></trkpt><trkpt lat="45.8244574" lon="13.4309606"><ele>7.0</ele><time>2026-04-23T09:29:29.632Z</time></trkpt><trkpt lat="45.8243406" lon="13.4309698"><ele>7.0</ele><time>2026-04-23T09:29:31.645Z</time></trkpt><trkpt lat="45.8242226" lon="13.4309752"><ele>7.0</ele><time>2026-04-23T09:29:33.63Z</time></trkpt><trkpt lat="45.8241056" lon="13.430972"><ele>7.0</ele><time>2026-04-23T09:29:35.635Z</time></trkpt><trkpt lat="45.823989" lon="13.4309608"><ele>7.25</ele><time>2026-04-23T09:29:37.629Z</time></trkpt><trkpt lat="45.8238715" lon="13.4309437"><ele>7.5</ele><time>2026-04-23T09:29:39.629Z</time></trkpt><trkpt lat="45.8237536" lon="13.4309266"><ele>7.75</ele><time>2026-04-23T09:29:41.632Z</time></trkpt><trkpt lat="45.8236355" lon="13.4309038"><ele>8.0</ele><time>2026-04-23T09:29:43.634Z</time></trkpt><trkpt lat="45.8235196" lon="13.4308845"><ele>8.25</ele><time>2026-04-23T09:29:45.644Z</time></trkpt><trkpt lat="45.8234013" lon="13.4308777"><ele>8.5</ele><time>2026-04-23T09:29:47.641Z</time></trkpt><trkpt lat="45.8232867" lon="13.4309084"><ele>8.75</ele><time>2026-04-23T09:29:49.627Z</time></trkpt><trkpt lat="45.8231709" lon="13.4309475"><ele>9.0</ele><time>2026-04-23T09:29:51.628Z</time></trkpt><trkpt lat="45.8230574" lon="13.4309888"><ele>9.0</ele><time>2026-04-23T09:29:53.642Z</time></trkpt><trkpt lat="45.822952" lon="13.4310189"><ele>9.0</ele><time>2026-04-23T09:29:55.639Z</time></trkpt><trkpt lat="45.8228433" lon="13.4310401"><ele>9.0</ele><time>2026-04-23T09:29:57.635Z</time></trkpt><trkpt lat="45.8227342" lon="13.4310614"><ele>9.0</ele><time>2026-04-23T09:29:59.636Z</time></trkpt><trkpt lat="45.822624" lon="13.4310787"><ele>9.0</ele><time>2026-04-23T09:30:01.623Z</time></trkpt><trkpt lat="45.8225131" lon="13.4310891"><ele>8.6</ele><time>2026-04-23T09:30:03.633Z</time></trkpt><trkpt lat="45.8224081" lon="13.4310756"><ele>8.2</ele><time>2026-04-23T09:30:05.627Z</time></trkpt><trkpt lat="45.8223191" lon="13.431068"><ele>7.799999999999999</ele><time>2026-04-23T09:30:07.624Z</time></trkpt><trkpt lat="45.8222265" lon="13.4311008"><ele>7.3999999999999995</ele><time>2026-04-23T09:30:09.629Z</time></trkpt><trkpt lat="45.8221185" lon="13.4311162"><ele>7.0</ele><time>2026-04-23T09:30:11.621Z</time></trkpt><trkpt lat="45.8220055" lon="13.4311579"><ele>7.0</ele><time>2026-04-23T09:30:13.652Z</time></trkpt><trkpt lat="45.8219033" lon="13.4312153"><ele>6.999999999999999</ele><time>2026-04-23T09:30:15.638Z</time></trkpt><trkpt lat="45.8217954" lon="13.4311902"><ele>6.999999999999999</ele><time>2026-04-23T09:30:17.646Z</time></trkpt><trkpt lat="45.8216927" lon="13.4311452"><ele>7.0</ele><time>2026-04-23T09:30:19.634Z</time></trkpt><trkpt lat="45.8215846" lon="13.4311373"><ele>7.0</ele><time>2026-04-23T09:30:21.651Z</time></trkpt><trkpt lat="45.8214827" lon="13.4311422"><ele>7.5</ele><time>2026-04-23T09:30:23.654Z</time></trkpt><trkpt lat="45.8213783" lon="13.4311517"><ele>8.0</ele><time>2026-04-23T09:30:25.625Z</time></trkpt><trkpt lat="45.8212589" lon="13.4311658"><ele>8.5</ele><time>2026-04-23T09:30:27.644Z</time></trkpt><trkpt lat="45.8211399" lon="13.4311918"><ele>9.0</ele><time>2026-04-23T09:30:29.637Z</time></trkpt><trkpt lat="45.8210256" lon="13.4312273"><ele>9.2</ele><time>2026-04-23T09:30:31.633Z</time></trkpt><trkpt lat="45.8209111" lon="13.4312581"><ele>9.4</ele><time>2026-04-23T09:30:33.65Z</time></trkpt><trkpt lat="45.8208485" lon="13.43127"><ele>9.6</ele><time>2026-04-23T09:30:34.637Z</time></trkpt><trkpt lat="45.8207343" lon="13.4312871"><ele>9.8</ele><time>2026-04-23T09:30:36.626Z</time></trkpt><trkpt lat="45.8206131" lon="13.4312961"><ele>10.0</ele><time>2026-04-23T09:30:38.629Z</time></trkpt><trkpt lat="45.8204947" lon="13.431315"><ele>10.25</ele><time>2026-04-23T09:30:40.628Z</time></trkpt><trkpt lat="45.8203794" lon="13.4313337"><ele>10.5</ele><time>2026-04-23T09:30:42.638Z</time></trkpt><trkpt lat="45.8202702" lon="13.4313506"><ele>10.75</ele><time>2026-04-23T09:30:44.643Z</time></trkpt><trkpt lat="45.820148" lon="13.4313683"><ele>11.0</ele><time>2026-04-23T09:30:46.622Z</time></trkpt><trkpt lat="45.8200251" lon="13.4313802"><ele>11.0</ele><time>2026-04-23T09:30:48.628Z</time></trkpt><trkpt lat="45.8199124" lon="13.4313974"><ele>11.0</ele><time>2026-04-23T09:30:50.624Z</time></trkpt><trkpt lat="45.8198031" lon="13.4314112"><ele>11.0</ele><time>2026-04-23T09:30:52.625Z</time></trkpt><trkpt lat="45.8196915" lon="13.431424"><ele>11.0</ele><time>2026-04-23T09:30:54.627Z</time></trkpt><trkpt lat="45.8195856" lon="13.4314348"><ele>11.0</ele><time>2026-04-23T09:30:56.631Z</time></trkpt><trkpt lat="45.8194828" lon="13.4314381"><ele>11.0</ele><time>2026-04-23T09:30:58.618Z</time></trkpt><trkpt lat="45.8193664" lon="13.4314382"><ele>11.0</ele><time>2026-04-23T09:31:00.621Z</time></trkpt><trkpt lat="45.8192521" lon="13.4314181"><ele>11.0</ele><time>2026-04-23T09:31:02.66Z</time></trkpt><trkpt lat="45.8191369" lon="13.4313853"><ele>11.0</ele><time>2026-04-23T09:31:04.621Z</time></trkpt><trkpt lat="45.8190199" lon="13.4313646"><ele>10.0</ele><time>2026-04-23T09:31:06.638Z</time></trkpt><trkpt lat="45.8189063" lon="13.4313616"><ele>9.0</ele><time>2026-04-23T09:31:08.623Z</time></trkpt><trkpt lat="45.8188397" lon="13.4313569"><ele>8.0</ele><time>2026-04-23T09:31:09.635Z</time></trkpt><trkpt lat="45.8187744" lon="13.4313479"><ele>7.0</ele><time>2026-04-23T09:31:10.625Z</time></trkpt><trkpt lat="45.8186519" lon="13.4313481"><ele>6.0</ele><time>2026-04-23T09:31:12.637Z</time></trkpt><trkpt lat="45.8185321" lon="13.4313455"><ele>6.0</ele><time>2026-04-23T09:31:14.631Z</time></trkpt><trkpt lat="45.8184106" lon="13.4313441"><ele>6.0</ele><time>2026-04-23T09:31:16.634Z</time></trkpt><trkpt lat="45.8182891" lon="13.4313441"><ele>6.0</ele><time>2026-04-23T09:31:18.637Z</time></trkpt><trkpt lat="45.8181683" lon="13.431347"><ele>6.0</ele><time>2026-04-23T09:31:20.636Z</time></trkpt><trkpt lat="45.8180495" lon="13.4313641"><ele>6.0</ele><time>2026-04-23T09:31:22.629Z</time></trkpt><trkpt lat="45.8179343" lon="13.4313869"><ele>6.0</ele><time>2026-04-23T09:31:24.627Z</time></trkpt><trkpt lat="45.8178248" lon="13.4314062"><ele>6.0</ele><time>2026-04-23T09:31:26.625Z</time></trkpt><trkpt lat="45.817715" lon="13.4314364"><ele>6.0</ele><time>2026-04-23T09:31:28.629Z</time></trkpt><trkpt lat="45.8176094" lon="13.4314605"><ele>6.0</ele><time>2026-04-23T09:31:30.634Z</time></trkpt><trkpt lat="45.8174987" lon="13.431486"><ele>6.75</ele><time>2026-04-23T09:31:32.62Z</time></trkpt><trkpt lat="45.8173778" lon="13.4314966"><ele>7.5</ele><time>2026-04-23T09:31:34.634Z</time></trkpt><trkpt lat="45.8172647" lon="13.4315077"><ele>8.25</ele><time>2026-04-23T09:31:36.628Z</time></trkpt><trkpt lat="45.8171499" lon="13.4315029"><ele>9.0</ele><time>2026-04-23T09:31:38.63Z</time></trkpt><trkpt lat="45.8170295" lon="13.4315042"><ele>9.0</ele><time>2026-04-23T09:31:40.635Z</time></trkpt><trkpt lat="45.8169206" lon="13.4315028"><ele>9.0</ele><time>2026-04-23T09:31:42.634Z</time></trkpt><trkpt lat="45.8167966" lon="13.4315141"><ele>9.0</ele><time>2026-04-23T09:31:44.634Z</time></trkpt><trkpt lat="45.8166779" lon="13.4315066"><ele>9.0</ele><time>2026-04-23T09:31:46.627Z</time></trkpt><trkpt lat="45.81656" lon="13.4314765"><ele>9.0</ele><time>2026-04-23T09:31:48.623Z</time></trkpt><trkpt lat="45.8164442" lon="13.4314644"><ele>9.0</ele><time>2026-04-23T09:31:50.646Z</time></trkpt><trkpt lat="45.8163298" lon="13.4314744"><ele>9.0</ele><time>2026-04-23T09:31:52.649Z</time></trkpt><trkpt lat="45.8162084" lon="13.4314731"><ele>9.0</ele><time>2026-04-23T09:31:54.631Z</time></trkpt><trkpt lat="45.8160951" lon="13.4314778"><ele>9.0</ele><time>2026-04-23T09:31:56.632Z</time></trkpt><trkpt lat="45.8159763" lon="13.4314866"><ele>9.0</ele><time>2026-04-23T09:31:58.636Z</time></trkpt><trkpt lat="45.8158531" lon="13.4315037"><ele>9.0</ele><time>2026-04-23T09:32:00.632Z</time></trkpt><trkpt lat="45.8157345" lon="13.4315261"><ele>9.0</ele><time>2026-04-23T09:32:02.648Z</time></trkpt><trkpt lat="45.8156174" lon="13.4315615"><ele>9.0</ele><time>2026-04-23T09:32:04.643Z</time></trkpt><trkpt lat="45.8154969" lon="13.43159"><ele>9.0</ele><time>2026-04-23T09:32:06.634Z</time></trkpt><trkpt lat="45.815378" lon="13.4316198"><ele>9.0</ele><time>2026-04-23T09:32:08.639Z</time></trkpt><trkpt lat="45.8152604" lon="13.4316603"><ele>9.0</ele><time>2026-04-23T09:32:10.626Z</time></trkpt><trkpt lat="45.815145" lon="13.4316964"><ele>9.0</ele><time>2026-04-23T09:32:12.638Z</time></trkpt><trkpt lat="45.8150302" lon="13.4317301"><ele>9.0</ele><time>2026-04-23T09:32:14.645Z</time></trkpt><trkpt lat="45.8149158" lon="13.4317624"><ele>9.0</ele><time>2026-04-23T09:32:16.627Z</time></trkpt><trkpt lat="45.8147992" lon="13.4317822"><ele>9.0</ele><time>2026-04-23T09:32:18.639Z</time></trkpt><trkpt lat="45.8146841" lon="13.4317958"><ele>9.0</ele><time>2026-04-23T09:32:20.646Z</time></trkpt><trkpt lat="45.8145671" lon="13.4317988"><ele>9.0</ele><time>2026-04-23T09:32:22.652Z</time></trkpt><trkpt lat="45.8144499" lon="13.4317759"><ele>9.0</ele><time>2026-04-23T09:32:24.632Z</time></trkpt><trkpt lat="45.8143309" lon="13.4317339"><ele>9.0</ele><time>2026-04-23T09:32:26.628Z</time></trkpt><trkpt lat="45.8142227" lon="13.4316779"><ele>9.0</ele><time>2026-04-23T09:32:28.649Z</time></trkpt><trkpt lat="45.8141151" lon="13.4316244"><ele>9.0</ele><time>2026-04-23T09:32:30.652Z</time></trkpt><trkpt lat="45.8140036" lon="13.4316118"><ele>9.0</ele><time>2026-04-23T09:32:32.635Z</time></trkpt><trkpt lat="45.8138967" lon="13.4316189"><ele>9.0</ele><time>2026-04-23T09:32:34.636Z</time></trkpt><trkpt lat="45.8137743" lon="13.4316426"><ele>9.0</ele><time>2026-04-23T09:32:36.642Z</time></trkpt><trkpt lat="45.8136551" lon="13.4316666"><ele>9.0</ele><time>2026-04-23T09:32:38.622Z</time></trkpt><trkpt lat="45.8135363" lon="13.4316943"><ele>9.0</ele><time>2026-04-23T09:32:40.636Z</time></trkpt><trkpt lat="45.8134237" lon="13.4317233"><ele>9.0</ele><time>2026-04-23T09:32:42.646Z</time></trkpt><trkpt lat="45.813312" lon="13.4317421"><ele>8.8</ele><time>2026-04-23T09:32:44.636Z</time></trkpt><trkpt lat="45.8131905" lon="13.4317483"><ele>8.600000000000001</ele><time>2026-04-23T09:32:46.629Z</time></trkpt><trkpt lat="45.8131272" lon="13.431749"><ele>8.4</ele><time>2026-04-23T09:32:47.634Z</time></trkpt><trkpt lat="45.8130028" lon="13.4317486"><ele>8.200000000000001</ele><time>2026-04-23T09:32:49.635Z</time></trkpt><trkpt lat="45.8128801" lon="13.4317434"><ele>8.0</ele><time>2026-04-23T09:32:51.631Z</time></trkpt><trkpt lat="45.8127559" lon="13.4317441"><ele>7.999999999999999</ele><time>2026-04-23T09:32:53.643Z</time></trkpt><trkpt lat="45.8126924" lon="13.4317474"><ele>8.0</ele><time>2026-04-23T09:32:54.643Z</time></trkpt><trkpt lat="45.812572" lon="13.4317592"><ele>8.0</ele><time>2026-04-23T09:32:56.646Z</time></trkpt><trkpt lat="45.8124537" lon="13.4317568"><ele>8.0</ele><time>2026-04-23T09:32:58.634Z</time></trkpt><trkpt lat="45.8123888" lon="13.4317438"><ele>7.999999999999999</ele><time>2026-04-23T09:32:59.634Z</time></trkpt><trkpt lat="45.8123266" lon="13.4317229"><ele>8.0</ele><time>2026-04-23T09:33:00.623Z</time></trkpt><trkpt lat="45.8122645" lon="13.4317007"><ele>8.200000000000001</ele><time>2026-04-23T09:33:01.629Z</time></trkpt><trkpt lat="45.8122012" lon="13.4316812"><ele>8.4</ele><time>2026-04-23T09:33:02.645Z</time></trkpt><trkpt lat="45.8120813" lon="13.4316412"><ele>8.600000000000001</ele><time>2026-04-23T09:33:04.622Z</time></trkpt><trkpt lat="45.8119651" lon="13.4315895"><ele>8.8</ele><time>2026-04-23T09:33:06.646Z</time></trkpt><trkpt lat="45.8118605" lon="13.4315394"><ele>9.0</ele><time>2026-04-23T09:33:08.636Z</time></trkpt><trkpt lat="45.8117521" lon="13.4314772"><ele>9.0</ele><time>2026-04-23T09:33:10.626Z</time></trkpt><trkpt lat="45.8116276" lon="13.4314276"><ele>9.0</ele><time>2026-04-23T09:33:12.627Z</time></trkpt><trkpt lat="45.8115609" lon="13.4314154"><ele>9.0</ele><time>2026-04-23T09:33:13.642Z</time></trkpt><trkpt lat="45.8114435" lon="13.4314079"><ele>9.0</ele><time>2026-04-23T09:33:15.638Z</time></trkpt><trkpt lat="45.8113241" lon="13.4314379"><ele>9.0</ele><time>2026-04-23T09:33:17.628Z</time></trkpt><trkpt lat="45.8112109" lon="13.431472"><ele>9.0</ele><time>2026-04-23T09:33:19.634Z</time></trkpt><trkpt lat="45.8111473" lon="13.4314965"><ele>9.0</ele><time>2026-04-23T09:33:20.655Z</time></trkpt><trkpt lat="45.811084" lon="13.4315145"><ele>9.0</ele><time>2026-04-23T09:33:21.638Z</time></trkpt><trkpt lat="45.810964" lon="13.431548"><ele>9.0</ele><time>2026-04-23T09:33:23.632Z</time></trkpt><trkpt lat="45.8108464" lon="13.431588"><ele>9.0</ele><time>2026-04-23T09:33:25.619Z</time></trkpt><trkpt lat="45.8107303" lon="13.4316267"><ele>8.5</ele><time>2026-04-23T09:33:27.627Z</time></trkpt><trkpt lat="45.8106082" lon="13.4316667"><ele>8.0</ele><time>2026-04-23T09:33:29.653Z</time></trkpt><trkpt lat="45.8104944" lon="13.431717"><ele>7.5</ele><time>2026-04-23T09:33:31.624Z</time></trkpt><trkpt lat="45.810383" lon="13.4317604"><ele>7.0</ele><time>2026-04-23T09:33:33.639Z</time></trkpt><trkpt lat="45.8102693" lon="13.4318085"><ele>7.000000000000001</ele><time>2026-04-23T09:33:35.636Z</time></trkpt><trkpt lat="45.8102036" lon="13.431832"><ele>7.0</ele><time>2026-04-23T09:33:36.625Z</time></trkpt><trkpt lat="45.810142" lon="13.4318507"><ele>7.0</ele><time>2026-04-23T09:33:37.623Z</time></trkpt><trkpt lat="45.8100216" lon="13.4318973"><ele>7.0</ele><time>2026-04-23T09:33:39.635Z</time></trkpt><trkpt lat="45.8099613" lon="13.4319248"><ele>7.000000000000001</ele><time>2026-04-23T09:33:40.639Z</time></trkpt><trkpt lat="45.8098466" lon="13.4319821"><ele>7.0</ele><time>2026-04-23T09:33:42.628Z</time></trkpt><trkpt lat="45.8097332" lon="13.4320189"><ele>7.0</ele><time>2026-04-23T09:33:44.629Z</time></trkpt><trkpt lat="45.8096706" lon="13.4320423"><ele>6.999999999999999</ele><time>2026-04-23T09:33:45.637Z</time></trkpt><trkpt lat="45.809556" lon="13.4320842"><ele>6.999999999999999</ele><time>2026-04-23T09:33:47.619Z</time></trkpt><trkpt lat="45.8094404" lon="13.4321312"><ele>7.0</ele><time>2026-04-23T09:33:49.634Z</time></trkpt><trkpt lat="45.8093301" lon="13.4321825"><ele>7.0</ele><time>2026-04-23T09:33:51.646Z</time></trkpt><trkpt lat="45.8092251" lon="13.4322305"><ele>7.199999999999999</ele><time>2026-04-23T09:33:53.626Z</time></trkpt><trkpt lat="45.8091177" lon="13.4322777"><ele>7.3999999999999995</ele><time>2026-04-23T09:33:55.648Z</time></trkpt><trkpt lat="45.8090236" lon="13.4323282"><ele>7.6000000000000005</ele><time>2026-04-23T09:33:57.629Z</time></trkpt><trkpt lat="45.8089307" lon="13.4323855"><ele>7.800000000000001</ele><time>2026-04-23T09:33:59.639Z</time></trkpt><trkpt lat="45.8088845" lon="13.4325077"><ele>8.0</ele><time>2026-04-23T09:34:01.635Z</time></trkpt><trkpt lat="45.8089097" lon="13.4326331"><ele>8.0</ele><time>2026-04-23T09:34:03.626Z</time></trkpt><trkpt lat="45.8088952" lon="13.4327805"><ele>8.0</ele><time>2026-04-23T09:34:05.635Z</time></trkpt><trkpt lat="45.8088478" lon="13.4329231"><ele>8.0</ele><time>2026-04-23T09:34:07.622Z</time></trkpt><trkpt lat="45.8087795" lon="13.433024"><ele>8.0</ele><time>2026-04-23T09:34:09.636Z</time></trkpt><trkpt lat="45.8087096" lon="13.4331087"><ele>8.0</ele><time>2026-04-23T09:34:11.64Z</time></trkpt><trkpt lat="45.8086451" lon="13.4331893"><ele>7.800000000000001</ele><time>2026-04-23T09:34:13.627Z</time></trkpt><trkpt lat="45.8085652" lon="13.4332466"><ele>7.6000000000000005</ele><time>2026-04-23T09:34:15.607Z</time></trkpt><trkpt lat="45.8084802" lon="13.4333171"><ele>7.3999999999999995</ele><time>2026-04-23T09:34:17.63Z</time></trkpt><trkpt lat="45.8083868" lon="13.4333885"><ele>7.199999999999999</ele><time>2026-04-23T09:34:19.633Z</time></trkpt><trkpt lat="45.8082905" lon="13.4334688"><ele>7.0</ele><time>2026-04-23T09:34:21.623Z</time></trkpt><trkpt lat="45.8081904" lon="13.4335445"><ele>6.75</ele><time>2026-04-23T09:34:23.63Z</time></trkpt><trkpt lat="45.8080898" lon="13.4336244"><ele>6.5</ele><time>2026-04-23T09:34:25.632Z</time></trkpt><trkpt lat="45.8079885" lon="13.4337056"><ele>6.25</ele><time>2026-04-23T09:34:27.636Z</time></trkpt><trkpt lat="45.8078885" lon="13.4337902"><ele>6.0</ele><time>2026-04-23T09:34:29.631Z</time></trkpt><trkpt lat="45.8077868" lon="13.433869"><ele>6.0</ele><time>2026-04-23T09:34:31.636Z</time></trkpt><trkpt lat="45.8076864" lon="13.433954"><ele>6.0</ele><time>2026-04-23T09:34:33.631Z</time></trkpt><trkpt lat="45.8075856" lon="13.4340381"><ele>6.0</ele><time>2026-04-23T09:34:35.629Z</time></trkpt><trkpt lat="45.8074845" lon="13.4341212"><ele>6.0</ele><time>2026-04-23T09:34:37.623Z</time></trkpt><trkpt lat="45.8073869" lon="13.4342104"><ele>6.199999999999999</ele><time>2026-04-23T09:34:39.63Z</time></trkpt><trkpt lat="45.8072982" lon="13.4343104"><ele>6.3999999999999995</ele><time>2026-04-23T09:34:41.637Z</time></trkpt><trkpt lat="45.8072155" lon="13.4344012"><ele>6.6</ele><time>2026-04-23T09:34:43.625Z</time></trkpt><trkpt lat="45.8071413" lon="13.4344769"><ele>6.8</ele><time>2026-04-23T09:34:45.64Z</time></trkpt><trkpt lat="45.8070638" lon="13.4345008"><ele>7.0</ele><time>2026-04-23T09:34:48.634Z</time></trkpt><trkpt lat="45.8070234" lon="13.4344219"><ele>7.0</ele><time>2026-04-23T09:34:50.641Z</time></trkpt><trkpt lat="45.8069924" lon="13.4343035"><ele>6.999999999999999</ele><time>2026-04-23T09:34:52.631Z</time></trkpt><trkpt lat="45.8069558" lon="13.4341708"><ele>6.999999999999999</ele><time>2026-04-23T09:34:54.622Z</time></trkpt><trkpt lat="45.806918" lon="13.434029"><ele>7.0</ele><time>2026-04-23T09:34:56.616Z</time></trkpt><trkpt lat="45.8068796" lon="13.4338799"><ele>7.0</ele><time>2026-04-23T09:34:58.621Z</time></trkpt><trkpt lat="45.8068378" lon="13.4337211"><ele>8.0</ele><time>2026-04-23T09:35:00.629Z</time></trkpt><trkpt lat="45.8067947" lon="13.4335664"><ele>9.0</ele><time>2026-04-23T09:35:02.645Z</time></trkpt><trkpt lat="45.8067517" lon="13.4334113"><ele>10.0</ele><time>2026-04-23T09:35:04.639Z</time></trkpt><trkpt lat="45.8067074" lon="13.4332567"><ele>11.0</ele><time>2026-04-23T09:35:06.643Z</time></trkpt><trkpt lat="45.8066639" lon="13.4331009"><ele>10.75</ele><time>2026-04-23T09:35:08.626Z</time></trkpt><trkpt lat="45.8066187" lon="13.4329414"><ele>10.5</ele><time>2026-04-23T09:35:10.629Z</time></trkpt><trkpt lat="45.8065728" lon="13.4327806"><ele>10.25</ele><time>2026-04-23T09:35:12.631Z</time></trkpt><trkpt lat="45.8065265" lon="13.432618"><ele>10.0</ele><time>2026-04-23T09:35:14.642Z</time></trkpt><trkpt lat="45.8064808" lon="13.4324562"><ele>10.0</ele><time>2026-04-23T09:35:16.623Z</time></trkpt><trkpt lat="45.8064343" lon="13.4322936"><ele>10.0</ele><time>2026-04-23T09:35:18.638Z</time></trkpt><trkpt lat="45.8063879" lon="13.4321297"><ele>10.0</ele><time>2026-04-23T09:35:20.619Z</time></trkpt><trkpt lat="45.8063414" lon="13.4319665"><ele>10.0</ele><time>2026-04-23T09:35:22.636Z</time></trkpt><trkpt lat="45.8062946" lon="13.4318028"><ele>8.75</ele><time>2026-04-23T09:35:24.626Z</time></trkpt><trkpt lat="45.8062487" lon="13.4316416"><ele>7.5</ele><time>2026-04-23T09:35:26.629Z</time></trkpt><trkpt lat="45.8062028" lon="13.4314796"><ele>6.25</ele><time>2026-04-23T09:35:28.626Z</time></trkpt><trkpt lat="45.8061557" lon="13.4313165"><ele>5.0</ele><time>2026-04-23T09:35:30.634Z</time></trkpt><trkpt lat="45.8061084" lon="13.4311514"><ele>4.75</ele><time>2026-04-23T09:35:32.627Z</time></trkpt><trkpt lat="45.8060624" lon="13.4309879"><ele>4.5</ele><time>2026-04-23T09:35:34.632Z</time></trkpt><trkpt lat="45.8060158" lon="13.4308243"><ele>4.25</ele><time>2026-04-23T09:35:36.623Z</time></trkpt><trkpt lat="45.8059688" lon="13.4306602"><ele>4.0</ele><time>2026-04-23T09:35:38.622Z</time></trkpt><trkpt lat="45.8059226" lon="13.4304954"><ele>4.0</ele><time>2026-04-23T09:35:40.626Z</time></trkpt><trkpt lat="45.805876" lon="13.4303315"><ele>4.0</ele><time>2026-04-23T09:35:42.644Z</time></trkpt><trkpt lat="45.8058285" lon="13.4301651"><ele>4.0</ele><time>2026-04-23T09:35:44.628Z</time></trkpt><trkpt lat="45.8058044" lon="13.4300811"><ele>4.0</ele><time>2026-04-23T09:35:45.642Z</time></trkpt><trkpt lat="45.8057546" lon="13.4299168"><ele>4.0</ele><time>2026-04-23T09:35:47.624Z</time></trkpt><trkpt lat="45.8057314" lon="13.4298319"><ele>4.0</ele><time>2026-04-23T09:35:48.634Z</time></trkpt><trkpt lat="45.8056855" lon="13.4296683"><ele>4.0</ele><time>2026-04-23T09:35:50.65Z</time></trkpt><trkpt lat="45.8056379" lon="13.4295058"><ele>4.0</ele><time>2026-04-23T09:35:52.635Z</time></trkpt><trkpt lat="45.8055897" lon="13.4293411"><ele>4.0</ele><time>2026-04-23T09:35:54.613Z</time></trkpt><trkpt lat="45.8055419" lon="13.4291773"><ele>3.8000000000000003</ele><time>2026-04-23T09:35:56.631Z</time></trkpt><trkpt lat="45.8054938" lon="13.4290144"><ele>3.6000000000000005</ele><time>2026-04-23T09:35:58.633Z</time></trkpt><trkpt lat="45.8054456" lon="13.4288442"><ele>3.4</ele><time>2026-04-23T09:36:00.607Z</time></trkpt><trkpt lat="45.8054222" lon="13.4287599"><ele>3.2</ele><time>2026-04-23T09:36:01.645Z</time></trkpt><trkpt lat="45.8053765" lon="13.428594"><ele>3.0</ele><time>2026-04-23T09:36:03.636Z</time></trkpt><trkpt lat="45.8053309" lon="13.4284319"><ele>4.25</ele><time>2026-04-23T09:36:05.63Z</time></trkpt><trkpt lat="45.8052837" lon="13.428269"><ele>5.5</ele><time>2026-04-23T09:36:07.639Z</time></trkpt><trkpt lat="45.8052385" lon="13.4281046"><ele>6.75</ele><time>2026-04-23T09:36:09.633Z</time></trkpt><trkpt lat="45.8051921" lon="13.4279391"><ele>8.0</ele><time>2026-04-23T09:36:11.641Z</time></trkpt><trkpt lat="45.8051444" lon="13.4277683"><ele>8.285714285714285</ele><time>2026-04-23T09:36:13.626Z</time></trkpt><trkpt lat="45.805121" lon="13.4276817"><ele>8.571428571428571</ele><time>2026-04-23T09:36:14.629Z</time></trkpt><trkpt lat="45.8050964" lon="13.4275926"><ele>8.857142857142858</ele><time>2026-04-23T09:36:15.631Z</time></trkpt><trkpt lat="45.8050703" lon="13.4275048"><ele>9.142857142857142</ele><time>2026-04-23T09:36:16.632Z</time></trkpt><trkpt lat="45.8050455" lon="13.4274168"><ele>9.428571428571429</ele><time>2026-04-23T09:36:17.627Z</time></trkpt><trkpt lat="45.8050202" lon="13.4273295"><ele>9.714285714285714</ele><time>2026-04-23T09:36:18.621Z</time></trkpt><trkpt lat="45.8049969" lon="13.4272414"><ele>10.0</ele><time>2026-04-23T09:36:19.63Z</time></trkpt><trkpt lat="45.8049735" lon="13.4271536"><ele>10.0</ele><time>2026-04-23T09:36:20.624Z</time></trkpt><trkpt lat="45.8049536" lon="13.4270624"><ele>10.0</ele><time>2026-04-23T09:36:21.639Z</time></trkpt><trkpt lat="45.8049372" lon="13.4269722"><ele>10.0</ele><time>2026-04-23T09:36:22.636Z</time></trkpt><trkpt lat="45.8049213" lon="13.4268811"><ele>10.0</ele><time>2026-04-23T09:36:23.648Z</time></trkpt><trkpt lat="45.8049038" lon="13.4267895"><ele>10.0</ele><time>2026-04-23T09:36:24.615Z</time></trkpt><trkpt lat="45.80489" lon="13.4266994"><ele>10.0</ele><time>2026-04-23T09:36:25.642Z</time></trkpt><trkpt lat="45.8048788" lon="13.4266096"><ele>10.0</ele><time>2026-04-23T09:36:26.646Z</time></trkpt><trkpt lat="45.8048627" lon="13.4264333"><ele>9.4</ele><time>2026-04-23T09:36:28.623Z</time></trkpt><trkpt lat="45.804851" lon="13.4262525"><ele>8.8</ele><time>2026-04-23T09:36:30.632Z</time></trkpt><trkpt lat="45.8048426" lon="13.4260801"><ele>8.2</ele><time>2026-04-23T09:36:32.625Z</time></trkpt><trkpt lat="45.8048428" lon="13.4259334"><ele>7.6</ele><time>2026-04-23T09:36:34.626Z</time></trkpt><trkpt lat="45.80485" lon="13.4257951"><ele>7.0</ele><time>2026-04-23T09:36:36.63Z</time></trkpt><trkpt lat="45.8048563" lon="13.4256818"><ele>7.000000000000001</ele><time>2026-04-23T09:36:38.637Z</time></trkpt><trkpt lat="45.8048589" lon="13.4255584"><ele>7.0</ele><time>2026-04-23T09:36:41.629Z</time></trkpt><trkpt lat="45.8048377" lon="13.4254718"><ele>7.0</ele><time>2026-04-23T09:36:43.631Z</time></trkpt><trkpt lat="45.8047777" lon="13.4254269"><ele>7.0</ele><time>2026-04-23T09:36:45.621Z</time></trkpt><trkpt lat="45.8046756" lon="13.4254136"><ele>7.000000000000001</ele><time>2026-04-23T09:36:47.646Z</time></trkpt><trkpt lat="45.8045574" lon="13.4253733"><ele>7.0</ele><time>2026-04-23T09:36:49.634Z</time></trkpt><trkpt lat="45.8044949" lon="13.4253405"><ele>6.714285714285714</ele><time>2026-04-23T09:36:50.624Z</time></trkpt><trkpt lat="45.8044327" lon="13.4253036"><ele>6.428571428571429</ele><time>2026-04-23T09:36:51.648Z</time></trkpt><trkpt lat="45.8043684" lon="13.4252657"><ele>6.142857142857142</ele><time>2026-04-23T09:36:52.634Z</time></trkpt><trkpt lat="45.8043023" lon="13.4252293"><ele>5.857142857142858</ele><time>2026-04-23T09:36:53.634Z</time></trkpt><trkpt lat="45.8042361" lon="13.4251902"><ele>5.571428571428571</ele><time>2026-04-23T09:36:54.636Z</time></trkpt><trkpt lat="45.8041703" lon="13.4251525"><ele>5.285714285714286</ele><time>2026-04-23T09:36:55.649Z</time></trkpt><trkpt lat="45.8041047" lon="13.4251183"><ele>5.0</ele><time>2026-04-23T09:36:56.624Z</time></trkpt><trkpt lat="45.8040402" lon="13.4250863"><ele>5.0</ele><time>2026-04-23T09:36:57.635Z</time></trkpt><trkpt lat="45.8039743" lon="13.4250549"><ele>5.0</ele><time>2026-04-23T09:36:58.63Z</time></trkpt><trkpt lat="45.8039098" lon="13.4250232"><ele>5.0</ele><time>2026-04-23T09:36:59.627Z</time></trkpt><trkpt lat="45.803798" lon="13.4249616"><ele>5.0</ele><time>2026-04-23T09:37:01.645Z</time></trkpt><trkpt lat="45.8036938" lon="13.4248901"><ele>5.0</ele><time>2026-04-23T09:37:03.646Z</time></trkpt><trkpt lat="45.8035956" lon="13.4248204"><ele>4.75</ele><time>2026-04-23T09:37:05.628Z</time></trkpt><trkpt lat="45.8034966" lon="13.4247421"><ele>4.5</ele><time>2026-04-23T09:37:07.639Z</time></trkpt><trkpt lat="45.8033967" lon="13.42465"><ele>4.25</ele><time>2026-04-23T09:37:09.656Z</time></trkpt><trkpt lat="45.8032965" lon="13.4245513"><ele>4.0</ele><time>2026-04-23T09:37:11.63Z</time></trkpt><trkpt lat="45.8031992" lon="13.424448"><ele>3.75</ele><time>2026-04-23T09:37:13.659Z</time></trkpt><trkpt lat="45.8031032" lon="13.4243431"><ele>3.5</ele><time>2026-04-23T09:37:15.639Z</time></trkpt><trkpt lat="45.8030095" lon="13.4242366"><ele>3.25</ele><time>2026-04-23T09:37:17.648Z</time></trkpt><trkpt lat="45.8029148" lon="13.4241352"><ele>3.0</ele><time>2026-04-23T09:37:19.63Z</time></trkpt><trkpt lat="45.8028216" lon="13.4240251"><ele>3.0</ele><time>2026-04-23T09:37:21.651Z</time></trkpt><trkpt lat="45.8027375" lon="13.423904"><ele>3.0</ele><time>2026-04-23T09:37:23.63Z</time></trkpt><trkpt lat="45.8026436" lon="13.4238022"><ele>3.0</ele><time>2026-04-23T09:37:25.63Z</time></trkpt><trkpt lat="45.8025538" lon="13.4236952"><ele>3.0</ele><time>2026-04-23T09:37:27.638Z</time></trkpt><trkpt lat="45.802464" lon="13.4235942"><ele>3.0</ele><time>2026-04-23T09:37:29.646Z</time></trkpt><trkpt lat="45.802372" lon="13.4235077"><ele>3.0</ele><time>2026-04-23T09:37:31.64Z</time></trkpt><trkpt lat="45.802272" lon="13.4234962"><ele>3.0</ele><time>2026-04-23T09:37:33.655Z</time></trkpt><trkpt lat="45.8021922" lon="13.4235876"><ele>3.0</ele><time>2026-04-23T09:37:35.631Z</time></trkpt><trkpt lat="45.8020961" lon="13.4235723"><ele>3.0</ele><time>2026-04-23T09:37:37.625Z</time></trkpt><trkpt lat="45.8020135" lon="13.4234593"><ele>3.0</ele><time>2026-04-23T09:37:39.642Z</time></trkpt><trkpt lat="45.8019303" lon="13.4233334"><ele>3.0</ele><time>2026-04-23T09:37:41.642Z</time></trkpt><trkpt lat="45.8018479" lon="13.4232063"><ele>3.0</ele><time>2026-04-23T09:37:43.636Z</time></trkpt><trkpt lat="45.8017719" lon="13.4230776"><ele>3.0</ele><time>2026-04-23T09:37:45.619Z</time></trkpt><trkpt lat="45.8016949" lon="13.4229524"><ele>3.5</ele><time>2026-04-23T09:37:47.633Z</time></trkpt><trkpt lat="45.8016144" lon="13.4228325"><ele>4.0</ele><time>2026-04-23T09:37:49.642Z</time></trkpt><trkpt lat="45.8015325" lon="13.4227161"><ele>4.5</ele><time>2026-04-23T09:37:51.643Z</time></trkpt><trkpt lat="45.8014535" lon="13.4225938"><ele>5.0</ele><time>2026-04-23T09:37:53.639Z</time></trkpt><trkpt lat="45.8013735" lon="13.422467"><ele>5.0</ele><time>2026-04-23T09:37:55.624Z</time></trkpt><trkpt lat="45.8012956" lon="13.4223362"><ele>5.0</ele><time>2026-04-23T09:37:57.654Z</time></trkpt><trkpt lat="45.8012169" lon="13.4222087"><ele>5.0</ele><time>2026-04-23T09:37:59.631Z</time></trkpt><trkpt lat="45.8011071" lon="13.4221344"><ele>5.0</ele><time>2026-04-23T09:38:01.616Z</time></trkpt><trkpt lat="45.8009893" lon="13.4220952"><ele>5.5</ele><time>2026-04-23T09:38:03.635Z</time></trkpt><trkpt lat="45.8008715" lon="13.4221012"><ele>6.0</ele><time>2026-04-23T09:38:05.629Z</time></trkpt><trkpt lat="45.8007573" lon="13.4221034"><ele>6.5</ele><time>2026-04-23T09:38:07.632Z</time></trkpt><trkpt lat="45.8006456" lon="13.4220662"><ele>7.0</ele><time>2026-04-23T09:38:09.633Z</time></trkpt><trkpt lat="45.8005445" lon="13.4219949"><ele>7.0</ele><time>2026-04-23T09:38:11.631Z</time></trkpt><trkpt lat="45.8004439" lon="13.4219182"><ele>7.0</ele><time>2026-04-23T09:38:13.628Z</time></trkpt><trkpt lat="45.8003428" lon="13.4218291"><ele>7.0</ele><time>2026-04-23T09:38:15.631Z</time></trkpt><trkpt lat="45.800266" lon="13.4217103"><ele>7.0</ele><time>2026-04-23T09:38:17.632Z</time></trkpt><trkpt lat="45.8002188" lon="13.4215596"><ele>7.0</ele><time>2026-04-23T09:38:19.628Z</time></trkpt><trkpt lat="45.8001668" lon="13.4214117"><ele>6.999999999999999</ele><time>2026-04-23T09:38:21.624Z</time></trkpt><trkpt lat="45.8001046" lon="13.4212878"><ele>6.999999999999999</ele><time>2026-04-23T09:38:23.639Z</time></trkpt><trkpt lat="45.800059" lon="13.4211443"><ele>7.0</ele><time>2026-04-23T09:38:25.638Z</time></trkpt><trkpt lat="45.8000265" lon="13.4209966"><ele>7.0</ele><time>2026-04-23T09:38:27.618Z</time></trkpt><trkpt lat="45.799996" lon="13.4208485"><ele>6.6</ele><time>2026-04-23T09:38:29.634Z</time></trkpt><trkpt lat="45.7999615" lon="13.4206987"><ele>6.199999999999999</ele><time>2026-04-23T09:38:31.611Z</time></trkpt><trkpt lat="45.7999282" lon="13.4205558"><ele>5.8</ele><time>2026-04-23T09:38:33.634Z</time></trkpt><trkpt lat="45.7998937" lon="13.4204216"><ele>5.4</ele><time>2026-04-23T09:38:35.631Z</time></trkpt><trkpt lat="45.7998604" lon="13.4202936"><ele>5.0</ele><time>2026-04-23T09:38:37.634Z</time></trkpt><trkpt lat="45.7998196" lon="13.4201948"><ele>5.0</ele><time>2026-04-23T09:38:39.637Z</time></trkpt><trkpt lat="45.799752" lon="13.4202425"><ele>5.0</ele><time>2026-04-23T09:38:41.64Z</time></trkpt><trkpt lat="45.7996776" lon="13.4203359"><ele>5.0</ele><time>2026-04-23T09:38:43.654Z</time></trkpt><trkpt lat="45.7995898" lon="13.4204364"><ele>5.0</ele><time>2026-04-23T09:38:45.633Z</time></trkpt><trkpt lat="45.7994991" lon="13.4205431"><ele>5.0</ele><time>2026-04-23T09:38:47.635Z</time></trkpt><trkpt lat="45.7994075" lon="13.4206431"><ele>4.75</ele><time>2026-04-23T09:38:49.628Z</time></trkpt><trkpt lat="45.799319" lon="13.42074"><ele>4.5</ele><time>2026-04-23T09:38:51.628Z</time></trkpt><trkpt lat="45.7992243" lon="13.4208232"><ele>4.25</ele><time>2026-04-23T09:38:53.632Z</time></trkpt><trkpt lat="45.7991088" lon="13.4208386"><ele>4.0</ele><time>2026-04-23T09:38:55.621Z</time></trkpt><trkpt lat="45.7989969" lon="13.4208022"><ele>4.0</ele><time>2026-04-23T09:38:57.621Z</time></trkpt><trkpt lat="45.798908" lon="13.420708"><ele>4.0</ele><time>2026-04-23T09:38:59.631Z</time></trkpt><trkpt lat="45.7988479" lon="13.4205663"><ele>4.0</ele><time>2026-04-23T09:39:01.621Z</time></trkpt><trkpt lat="45.7988108" lon="13.4204252"><ele>4.0</ele><time>2026-04-23T09:39:03.626Z</time></trkpt><trkpt lat="45.7988038" lon="13.4202899"><ele>4.0</ele><time>2026-04-23T09:39:05.627Z</time></trkpt><trkpt lat="45.7988501" lon="13.4201817"><ele>4.2</ele><time>2026-04-23T09:39:07.632Z</time></trkpt><trkpt lat="45.7989301" lon="13.4200821"><ele>4.4</ele><time>2026-04-23T09:39:09.629Z</time></trkpt><trkpt lat="45.7990111" lon="13.4199762"><ele>4.6</ele><time>2026-04-23T09:39:11.626Z</time></trkpt><trkpt lat="45.7990922" lon="13.4198704"><ele>4.8</ele><time>2026-04-23T09:39:13.627Z</time></trkpt><trkpt lat="45.799174" lon="13.4197634"><ele>5.0</ele><time>2026-04-23T09:39:15.634Z</time></trkpt><trkpt lat="45.799254" lon="13.4196548"><ele>5.0</ele><time>2026-04-23T09:39:17.629Z</time></trkpt><trkpt lat="45.7993336" lon="13.4195466"><ele>5.0</ele><time>2026-04-23T09:39:19.621Z</time></trkpt><trkpt lat="45.7994118" lon="13.4194432"><ele>5.0</ele><time>2026-04-23T09:39:21.624Z</time></trkpt><trkpt lat="45.7994894" lon="13.4193453"><ele>5.0</ele><time>2026-04-23T09:39:23.634Z</time></trkpt><trkpt lat="45.7995636" lon="13.4192367"><ele>5.0</ele><time>2026-04-23T09:39:25.619Z</time></trkpt><trkpt lat="45.7996359" lon="13.4191295"><ele>4.8</ele><time>2026-04-23T09:39:27.623Z</time></trkpt><trkpt lat="45.7997028" lon="13.4190161"><ele>4.6</ele><time>2026-04-23T09:39:29.635Z</time></trkpt><trkpt lat="45.799741" lon="13.4188832"><ele>4.4</ele><time>2026-04-23T09:39:31.62Z</time></trkpt><trkpt lat="45.7997619" lon="13.4187598"><ele>4.2</ele><time>2026-04-23T09:39:33.631Z</time></trkpt><trkpt lat="45.7997151" lon="13.418664"><ele>4.0</ele><time>2026-04-23T09:39:35.648Z</time></trkpt><trkpt lat="45.7996268" lon="13.418663"><ele>4.0</ele><time>2026-04-23T09:39:37.622Z</time></trkpt><trkpt lat="45.7995283" lon="13.4186808"><ele>4.0</ele><time>2026-04-23T09:39:39.638Z</time></trkpt><trkpt lat="45.7994231" lon="13.418694"><ele>4.0</ele><time>2026-04-23T09:39:41.661Z</time></trkpt><trkpt lat="45.799315" lon="13.4187108"><ele>4.0</ele><time>2026-04-23T09:39:43.625Z</time></trkpt><trkpt lat="45.7992068" lon="13.4187286"><ele>4.0</ele><time>2026-04-23T09:39:45.63Z</time></trkpt><trkpt lat="45.7991026" lon="13.4187398"><ele>3.4000000000000004</ele><time>2026-04-23T09:39:47.638Z</time></trkpt><trkpt lat="45.7989975" lon="13.4187377"><ele>2.8000000000000003</ele><time>2026-04-23T09:39:49.623Z</time></trkpt><trkpt lat="45.798891" lon="13.4187302"><ele>2.2</ele><time>2026-04-23T09:39:51.646Z</time></trkpt><trkpt lat="45.7987843" lon="13.4187116"><ele>1.6</ele><time>2026-04-23T09:39:53.623Z</time></trkpt><trkpt lat="45.7986767" lon="13.4186886"><ele>1.0</ele><time>2026-04-23T09:39:55.621Z</time></trkpt><trkpt lat="45.7985671" lon="13.4186642"><ele>1.0</ele><time>2026-04-23T09:39:57.63Z</time></trkpt><trkpt lat="45.7984572" lon="13.4186442"><ele>1.0</ele><time>2026-04-23T09:39:59.642Z</time></trkpt><trkpt lat="45.7983661" lon="13.4185946"><ele>1.0</ele><time>2026-04-23T09:40:01.632Z</time></trkpt><trkpt lat="45.7983606" lon="13.4184778"><ele>1.0</ele><time>2026-04-23T09:40:03.632Z</time></trkpt><trkpt lat="45.7983728" lon="13.4183445"><ele>1.0</ele><time>2026-04-23T09:40:05.631Z</time></trkpt><trkpt lat="45.7983643" lon="13.4182013"><ele>0.9999999999999999</ele><time>2026-04-23T09:40:07.624Z</time></trkpt><trkpt lat="45.798329" lon="13.4180674"><ele>1.0</ele><time>2026-04-23T09:40:09.618Z</time></trkpt><trkpt lat="45.7982863" lon="13.4179444"><ele>1.0</ele><time>2026-04-23T09:40:11.628Z</time></trkpt><trkpt lat="45.7982516" lon="13.417832"><ele>1.0</ele><time>2026-04-23T09:40:13.643Z</time></trkpt><trkpt lat="45.7982262" lon="13.41772"><ele>0.9999999999999999</ele><time>2026-04-23T09:40:15.634Z</time></trkpt><trkpt lat="45.7981823" lon="13.417619"><ele>1.0</ele><time>2026-04-23T09:40:17.658Z</time></trkpt><trkpt lat="45.7981364" lon="13.4175138"><ele>1.4</ele><time>2026-04-23T09:40:19.611Z</time></trkpt><trkpt lat="45.7980934" lon="13.4173999"><ele>1.8</ele><time>2026-04-23T09:40:21.609Z</time></trkpt><trkpt lat="45.7980297" lon="13.4173142"><ele>2.1999999999999997</ele><time>2026-04-23T09:40:23.615Z</time></trkpt><trkpt lat="45.797952" lon="13.4173521"><ele>2.6</ele><time>2026-04-23T09:40:25.624Z</time></trkpt><trkpt lat="45.7978941" lon="13.4174565"><ele>3.0</ele><time>2026-04-23T09:40:27.618Z</time></trkpt><trkpt lat="45.7978343" lon="13.4175764"><ele>3.0</ele><time>2026-04-23T09:40:29.641Z</time></trkpt><trkpt lat="45.7977597" lon="13.4176834"><ele>3.0</ele><time>2026-04-23T09:40:31.616Z</time></trkpt><trkpt lat="45.7976709" lon="13.4177616"><ele>3.0</ele><time>2026-04-23T09:40:33.629Z</time></trkpt><trkpt lat="45.7975741" lon="13.4178202"><ele>3.0</ele><time>2026-04-23T09:40:35.637Z</time></trkpt><trkpt lat="45.7974751" lon="13.4178759"><ele>3.0</ele><time>2026-04-23T09:40:37.626Z</time></trkpt><trkpt lat="45.7973747" lon="13.4179294"><ele>3.0</ele><time>2026-04-23T09:40:39.64Z</time></trkpt><trkpt lat="45.7972726" lon="13.4179827"><ele>3.0</ele><time>2026-04-23T09:40:41.63Z</time></trkpt><trkpt lat="45.7971723" lon="13.4180385"><ele>3.0</ele><time>2026-04-23T09:40:43.617Z</time></trkpt><trkpt lat="45.797071" lon="13.4180945"><ele>3.0</ele><time>2026-04-23T09:40:45.624Z</time></trkpt><trkpt lat="45.796971" lon="13.4181524"><ele>3.0</ele><time>2026-04-23T09:40:47.63Z</time></trkpt><trkpt lat="45.7968693" lon="13.4182025"><ele>3.2</ele><time>2026-04-23T09:40:49.646Z</time></trkpt><trkpt lat="45.7967696" lon="13.418255"><ele>3.4</ele><time>2026-04-23T09:40:51.632Z</time></trkpt><trkpt lat="45.796669" lon="13.4183091"><ele>3.6000000000000005</ele><time>2026-04-23T09:40:53.623Z</time></trkpt><trkpt lat="45.7965654" lon="13.4183666"><ele>3.8000000000000003</ele><time>2026-04-23T09:40:55.618Z</time></trkpt><trkpt lat="45.7964616" lon="13.4184208"><ele>4.0</ele><time>2026-04-23T09:40:57.637Z</time></trkpt><trkpt lat="45.7963588" lon="13.4184742"><ele>4.0</ele><time>2026-04-23T09:40:59.642Z</time></trkpt><trkpt lat="45.7962559" lon="13.4185326"><ele>4.0</ele><time>2026-04-23T09:41:01.641Z</time></trkpt><trkpt lat="45.7961602" lon="13.4185922"><ele>4.0</ele><time>2026-04-23T09:41:03.614Z</time></trkpt><trkpt lat="45.7960605" lon="13.4186431"><ele>4.0</ele><time>2026-04-23T09:41:05.638Z</time></trkpt><trkpt lat="45.7959604" lon="13.4186976"><ele>4.0</ele><time>2026-04-23T09:41:07.634Z</time></trkpt><trkpt lat="45.7958578" lon="13.4187546"><ele>3.8000000000000003</ele><time>2026-04-23T09:41:09.65Z</time></trkpt><trkpt lat="45.7957521" lon="13.4188092"><ele>3.6000000000000005</ele><time>2026-04-23T09:41:11.636Z</time></trkpt><trkpt lat="45.7956463" lon="13.4188654"><ele>3.4</ele><time>2026-04-23T09:41:13.632Z</time></trkpt><trkpt lat="45.7955453" lon="13.4189215"><ele>3.2</ele><time>2026-04-23T09:41:15.636Z</time></trkpt><trkpt lat="45.7954564" lon="13.4189778"><ele>3.0</ele><time>2026-04-23T09:41:17.637Z</time></trkpt><trkpt lat="45.795393" lon="13.4189985"><ele>3.0</ele><time>2026-04-23T09:41:19.609Z</time></trkpt><trkpt lat="45.7953512" lon="13.4188713"><ele>3.0</ele><time>2026-04-23T09:41:22.628Z</time></trkpt><trkpt lat="45.7953126" lon="13.418792"><ele>3.0</ele><time>2026-04-23T09:41:24.62Z</time></trkpt><trkpt lat="45.7952154" lon="13.418838"><ele>3.0</ele><time>2026-04-23T09:41:27.631Z</time></trkpt><trkpt lat="45.7951303" lon="13.4188945"><ele>3.0</ele><time>2026-04-23T09:41:29.658Z</time></trkpt><trkpt lat="45.7950369" lon="13.4189544"><ele>3.0</ele><time>2026-04-23T09:41:31.631Z</time></trkpt><trkpt lat="45.7949407" lon="13.4190157"><ele>3.0</ele><time>2026-04-23T09:41:33.622Z</time></trkpt><trkpt lat="45.7948437" lon="13.4190793"><ele>3.0</ele><time>2026-04-23T09:41:35.62Z</time></trkpt><trkpt lat="45.7947476" lon="13.419144"><ele>3.0</ele><time>2026-04-23T09:41:37.635Z</time></trkpt><trkpt lat="45.7946491" lon="13.419207"><ele>3.0</ele><time>2026-04-23T09:41:39.634Z</time></trkpt><trkpt lat="45.7945528" lon="13.4192742"><ele>3.0</ele><time>2026-04-23T09:41:41.646Z</time></trkpt><trkpt lat="45.7944577" lon="13.4193388"><ele>3.0</ele><time>2026-04-23T09:41:43.625Z</time></trkpt><trkpt lat="45.7943672" lon="13.4194036"><ele>3.0</ele><time>2026-04-23T09:41:45.64Z</time></trkpt><trkpt lat="45.7942748" lon="13.4194099"><ele>3.0</ele><time>2026-04-23T09:41:47.621Z</time></trkpt><trkpt lat="45.7942018" lon="13.4193783"><ele>3.0</ele><time>2026-04-23T09:41:49.624Z</time></trkpt><trkpt lat="45.7941233" lon="13.4194426"><ele>3.1666666666666665</ele><time>2026-04-23T09:41:52.625Z</time></trkpt><trkpt lat="45.7940563" lon="13.4195055"><ele>3.333333333333333</ele><time>2026-04-23T09:41:54.614Z</time></trkpt><trkpt lat="45.793978" lon="13.4195491"><ele>3.5</ele><time>2026-04-23T09:41:56.618Z</time></trkpt><trkpt lat="45.7939018" lon="13.4195705"><ele>3.6666666666666665</ele><time>2026-04-23T09:41:58.659Z</time></trkpt><trkpt lat="45.793854" lon="13.419433"><ele>3.833333333333333</ele><time>2026-04-23T09:42:01.64Z</time></trkpt><trkpt lat="45.7938026" lon="13.4193199"><ele>4.0</ele><time>2026-04-23T09:42:03.623Z</time></trkpt><trkpt lat="45.7937138" lon="13.4193216"><ele>4.0</ele><time>2026-04-23T09:42:05.639Z</time></trkpt><trkpt lat="45.7936145" lon="13.4193529"><ele>4.0</ele><time>2026-04-23T09:42:07.631Z</time></trkpt><trkpt lat="45.7935129" lon="13.4193952"><ele>4.0</ele><time>2026-04-23T09:42:09.632Z</time></trkpt><trkpt lat="45.7934077" lon="13.4193728"><ele>4.0</ele><time>2026-04-23T09:42:11.629Z</time></trkpt><trkpt lat="45.793333" lon="13.419266"><ele>4.0</ele><time>2026-04-23T09:42:13.627Z</time></trkpt><trkpt lat="45.7932922" lon="13.4191219"><ele>3.75</ele><time>2026-04-23T09:42:15.632Z</time></trkpt><trkpt lat="45.7932576" lon="13.4189703"><ele>3.5</ele><time>2026-04-23T09:42:17.617Z</time></trkpt><trkpt lat="45.7932217" lon="13.4188182"><ele>3.25</ele><time>2026-04-23T09:42:19.632Z</time></trkpt><trkpt lat="45.793182" lon="13.4186661"><ele>3.0</ele><time>2026-04-23T09:42:21.639Z</time></trkpt><trkpt lat="45.7931433" lon="13.4185125"><ele>3.0</ele><time>2026-04-23T09:42:23.629Z</time></trkpt><trkpt lat="45.7931051" lon="13.4183586"><ele>3.0</ele><time>2026-04-23T09:42:25.635Z</time></trkpt><trkpt lat="45.7930673" lon="13.4182113"><ele>3.0</ele><time>2026-04-23T09:42:27.634Z</time></trkpt><trkpt lat="45.7930307" lon="13.4180759"><ele>3.0</ele><time>2026-04-23T09:42:29.604Z</time></trkpt><trkpt lat="45.7929994" lon="13.417946"><ele>3.0</ele><time>2026-04-23T09:42:31.591Z</time></trkpt><trkpt lat="45.7929681" lon="13.417825"><ele>3.5</ele><time>2026-04-23T09:42:33.598Z</time></trkpt><trkpt lat="45.7929397" lon="13.4177115"><ele>4.0</ele><time>2026-04-23T09:42:35.617Z</time></trkpt><trkpt lat="45.7929132" lon="13.4176004"><ele>4.5</ele><time>2026-04-23T09:42:37.63Z</time></trkpt><trkpt lat="45.79289" lon="13.4174963"><ele>5.0</ele><time>2026-04-23T09:42:39.594Z</time></trkpt><trkpt lat="45.7928802" lon="13.4173912"><ele>5.5</ele><time>2026-04-23T09:42:41.6Z</time></trkpt><trkpt lat="45.7928737" lon="13.4172883"><ele>6.0</ele><time>2026-04-23T09:42:43.599Z</time></trkpt><trkpt lat="45.7928705" lon="13.4171913"><ele>6.0</ele><time>2026-04-23T09:42:45.608Z</time></trkpt></trkseg></trk></gpx>